<?xml version='1.0' encoding='UTF-8'?><gpx version="1.1" creator="JPX - https://github.com/jenetics/jpx" xmlns="http://www.topografix.com/GPX/1/1"><trk><trkseg><trkpt lat="44.150781" lon="10.4125466"><ele>546.0</ele><time>2026-05-02T13:07:07.994Z</time></trkpt><trkpt lat="44.1507781" lon="10.4124491"><ele>546.0</ele><time>2026-05-02T13:07:11.992Z</time></trkpt><trkpt lat="44.1508032" lon="10.4123147"><ele>546.0</ele><time>2026-05-02T13:07:13.997Z</time></trkpt><trkpt lat="44.1508185" lon="10.4121819"><ele>546.0</ele><time>2026-05-02T13:07:15.995Z</time></trkpt><trkpt lat="44.1508548" lon="10.4121"><ele>546.0</ele><time>2026-05-02T13:07:18Z</time></trkpt><trkpt lat="44.1509189" lon="10.412106"><ele>546.0</ele><time>2026-05-02T13:07:20Z</time></trkpt><trkpt lat="44.1510017" lon="10.4120968"><ele>543.5</ele><time>2026-05-02T13:07:22.987Z</time></trkpt><trkpt lat="44.1510702" lon="10.4121008"><ele>541.0</ele><time>2026-05-02T13:07:26Z</time></trkpt><trkpt lat="44.1510937" lon="10.4120071"><ele>538.5</ele><time>2026-05-02T13:07:28.986Z</time></trkpt><trkpt lat="44.151024" lon="10.4119362"><ele>536.0</ele><time>2026-05-02T13:07:30.991Z</time></trkpt><trkpt lat="44.150942" lon="10.4118659"><ele>533.5</ele><time>2026-05-02T13:07:33Z</time></trkpt><trkpt lat="44.1508838" lon="10.4117973"><ele>531.0</ele><time>2026-05-02T13:07:34.992Z</time></trkpt><trkpt lat="44.1507922" lon="10.4117848"><ele>530.8333333333334</ele><time>2026-05-02T13:07:36.989Z</time></trkpt><trkpt lat="44.1506956" lon="10.4117846"><ele>530.6666666666666</ele><time>2026-05-02T13:07:38.992Z</time></trkpt><trkpt lat="44.1505863" lon="10.4117829"><ele>530.5</ele><time>2026-05-02T13:07:40.993Z</time></trkpt><trkpt lat="44.1505096" lon="10.4117607"><ele>530.3333333333333</ele><time>2026-05-02T13:07:42Z</time></trkpt><trkpt lat="44.1504373" lon="10.4117288"><ele>530.1666666666666</ele><time>2026-05-02T13:07:42.999Z</time></trkpt><trkpt lat="44.1503675" lon="10.4116935"><ele>530.0</ele><time>2026-05-02T13:07:43.999Z</time></trkpt><trkpt lat="44.1502959" lon="10.4116505"><ele>530.0</ele><time>2026-05-02T13:07:44.991Z</time></trkpt><trkpt lat="44.1502216" lon="10.411619"><ele>530.0</ele><time>2026-05-02T13:07:46Z</time></trkpt><trkpt lat="44.1501502" lon="10.4115859"><ele>530.0</ele><time>2026-05-02T13:07:47Z</time></trkpt><trkpt lat="44.1500768" lon="10.4115446"><ele>530.0</ele><time>2026-05-02T13:07:47.996Z</time></trkpt><trkpt lat="44.1500032" lon="10.4115011"><ele>530.0</ele><time>2026-05-02T13:07:48.986Z</time></trkpt><trkpt lat="44.149932" lon="10.4114612"><ele>530.0</ele><time>2026-05-02T13:07:49.988Z</time></trkpt><trkpt lat="44.1498566" lon="10.4114206"><ele>529.0</ele><time>2026-05-02T13:07:50.994Z</time></trkpt><trkpt lat="44.1497788" lon="10.4113813"><ele>528.0</ele><time>2026-05-02T13:07:51.988Z</time></trkpt><trkpt lat="44.1496995" lon="10.4113418"><ele>527.0</ele><time>2026-05-02T13:07:52.999Z</time></trkpt><trkpt lat="44.1496223" lon="10.4113035"><ele>526.0</ele><time>2026-05-02T13:07:53.99Z</time></trkpt><trkpt lat="44.1495457" lon="10.4112602"><ele>525.0</ele><time>2026-05-02T13:07:54.988Z</time></trkpt><trkpt lat="44.1494731" lon="10.411212"><ele>524.0</ele><time>2026-05-02T13:07:55.988Z</time></trkpt><trkpt lat="44.1494071" lon="10.4111777"><ele>524.1666666666666</ele><time>2026-05-02T13:07:56.996Z</time></trkpt><trkpt lat="44.1493368" lon="10.4111438"><ele>524.3333333333333</ele><time>2026-05-02T13:07:57.995Z</time></trkpt><trkpt lat="44.1492647" lon="10.4111092"><ele>524.5</ele><time>2026-05-02T13:07:59Z</time></trkpt><trkpt lat="44.1491893" lon="10.4110994"><ele>524.6666666666666</ele><time>2026-05-02T13:08:00Z</time></trkpt><trkpt lat="44.1491149" lon="10.4111093"><ele>524.8333333333334</ele><time>2026-05-02T13:08:01Z</time></trkpt><trkpt lat="44.1490569" lon="10.4111506"><ele>525.0</ele><time>2026-05-02T13:08:01.999Z</time></trkpt><trkpt lat="44.148955" lon="10.4112451"><ele>525.0</ele><time>2026-05-02T13:08:03.992Z</time></trkpt><trkpt lat="44.1488643" lon="10.4113389"><ele>525.0</ele><time>2026-05-02T13:08:05.99Z</time></trkpt><trkpt lat="44.1487745" lon="10.4113873"><ele>525.0</ele><time>2026-05-02T13:08:07.995Z</time></trkpt><trkpt lat="44.1486866" lon="10.4113427"><ele>525.0</ele><time>2026-05-02T13:08:09.996Z</time></trkpt><trkpt lat="44.1486205" lon="10.4112732"><ele>525.0</ele><time>2026-05-02T13:08:11.995Z</time></trkpt><trkpt lat="44.1485697" lon="10.41118"><ele>525.0</ele><time>2026-05-02T13:08:14Z</time></trkpt><trkpt lat="44.1485309" lon="10.4110814"><ele>525.0</ele><time>2026-05-02T13:08:16Z</time></trkpt><trkpt lat="44.148493" lon="10.410982"><ele>525.0</ele><time>2026-05-02T13:08:17.986Z</time></trkpt><trkpt lat="44.1484576" lon="10.4108766"><ele>525.0</ele><time>2026-05-02T13:08:19.998Z</time></trkpt><trkpt lat="44.1484227" lon="10.4107658"><ele>525.0</ele><time>2026-05-02T13:08:21.993Z</time></trkpt><trkpt lat="44.1483877" lon="10.4106513"><ele>525.0</ele><time>2026-05-02T13:08:24Z</time></trkpt><trkpt lat="44.1483437" lon="10.41054"><ele>525.8</ele><time>2026-05-02T13:08:26Z</time></trkpt><trkpt lat="44.1483063" lon="10.4104249"><ele>526.6</ele><time>2026-05-02T13:08:27.999Z</time></trkpt><trkpt lat="44.1482853" lon="10.4102998"><ele>527.4</ele><time>2026-05-02T13:08:29.999Z</time></trkpt><trkpt lat="44.1482651" lon="10.4101743"><ele>528.2</ele><time>2026-05-02T13:08:32.002Z</time></trkpt><trkpt lat="44.1482343" lon="10.4100549"><ele>529.0</ele><time>2026-05-02T13:08:33.989Z</time></trkpt><trkpt lat="44.1482079" lon="10.4099271"><ele>525.0</ele><time>2026-05-02T13:08:35.995Z</time></trkpt><trkpt lat="44.1481774" lon="10.4097995"><ele>521.0</ele><time>2026-05-02T13:08:37.999Z</time></trkpt><trkpt lat="44.1481554" lon="10.4096596"><ele>517.0</ele><time>2026-05-02T13:08:40Z</time></trkpt><trkpt lat="44.1481481" lon="10.4095115"><ele>513.0</ele><time>2026-05-02T13:08:41.999Z</time></trkpt><trkpt lat="44.1481418" lon="10.4093503"><ele>509.0</ele><time>2026-05-02T13:08:44Z</time></trkpt><trkpt lat="44.1481292" lon="10.409201"><ele>509.0</ele><time>2026-05-02T13:08:45.989Z</time></trkpt><trkpt lat="44.1481155" lon="10.4090415"><ele>509.0</ele><time>2026-05-02T13:08:47.995Z</time></trkpt><trkpt lat="44.1481042" lon="10.4088756"><ele>509.0</ele><time>2026-05-02T13:08:49.997Z</time></trkpt><trkpt lat="44.1480876" lon="10.4087171"><ele>509.0</ele><time>2026-05-02T13:08:51.996Z</time></trkpt><trkpt lat="44.1480766" lon="10.4085409"><ele>508.8571428571428</ele><time>2026-05-02T13:08:54Z</time></trkpt><trkpt lat="44.1480676" lon="10.4084443"><ele>508.71428571428567</ele><time>2026-05-02T13:08:55Z</time></trkpt><trkpt lat="44.1480631" lon="10.408347"><ele>508.57142857142856</ele><time>2026-05-02T13:08:56Z</time></trkpt><trkpt lat="44.148058" lon="10.4082476"><ele>508.4285714285714</ele><time>2026-05-02T13:08:57Z</time></trkpt><trkpt lat="44.1480528" lon="10.408145"><ele>508.2857142857142</ele><time>2026-05-02T13:08:57.996Z</time></trkpt><trkpt lat="44.1480313" lon="10.4080325"><ele>508.14285714285717</ele><time>2026-05-02T13:08:59Z</time></trkpt><trkpt lat="44.1480031" lon="10.4079316"><ele>508.0</ele><time>2026-05-02T13:09:00Z</time></trkpt><trkpt lat="44.1479484" lon="10.4078476"><ele>508.00000000000006</ele><time>2026-05-02T13:09:01Z</time></trkpt><trkpt lat="44.1478809" lon="10.4077934"><ele>508.0</ele><time>2026-05-02T13:09:02Z</time></trkpt><trkpt lat="44.1478006" lon="10.4077672"><ele>508.0</ele><time>2026-05-02T13:09:02.992Z</time></trkpt><trkpt lat="44.1477141" lon="10.4077504"><ele>508.0</ele><time>2026-05-02T13:09:04Z</time></trkpt><trkpt lat="44.1476236" lon="10.4077315"><ele>508.00000000000006</ele><time>2026-05-02T13:09:04.994Z</time></trkpt><trkpt lat="44.1475322" lon="10.407714"><ele>508.0</ele><time>2026-05-02T13:09:06Z</time></trkpt><trkpt lat="44.1474543" lon="10.4077078"><ele>508.0</ele><time>2026-05-02T13:09:07Z</time></trkpt><trkpt lat="44.1473841" lon="10.4077262"><ele>507.99999999999994</ele><time>2026-05-02T13:09:08Z</time></trkpt><trkpt lat="44.1473201" lon="10.4077581"><ele>507.99999999999994</ele><time>2026-05-02T13:09:08.999Z</time></trkpt><trkpt lat="44.1472175" lon="10.407852"><ele>508.0</ele><time>2026-05-02T13:09:10.997Z</time></trkpt><trkpt lat="44.1471682" lon="10.4079688"><ele>508.0</ele><time>2026-05-02T13:09:12.999Z</time></trkpt><trkpt lat="44.1472042" lon="10.4081001"><ele>506.6666666666667</ele><time>2026-05-02T13:09:14.985Z</time></trkpt><trkpt lat="44.1472918" lon="10.4082154"><ele>505.33333333333337</ele><time>2026-05-02T13:09:16.996Z</time></trkpt><trkpt lat="44.1473408" lon="10.4082814"><ele>504.0</ele><time>2026-05-02T13:09:17.997Z</time></trkpt><trkpt lat="44.1473843" lon="10.4083634"><ele>502.66666666666663</ele><time>2026-05-02T13:09:18.994Z</time></trkpt><trkpt lat="44.1474243" lon="10.4084562"><ele>501.3333333333333</ele><time>2026-05-02T13:09:20Z</time></trkpt><trkpt lat="44.1474584" lon="10.4085626"><ele>500.0</ele><time>2026-05-02T13:09:20.999Z</time></trkpt><trkpt lat="44.1474831" lon="10.4086725"><ele>501.49999999999994</ele><time>2026-05-02T13:09:22Z</time></trkpt><trkpt lat="44.1475024" lon="10.4087894"><ele>503.0</ele><time>2026-05-02T13:09:22.997Z</time></trkpt><trkpt lat="44.1475187" lon="10.4089063"><ele>504.5</ele><time>2026-05-02T13:09:24Z</time></trkpt><trkpt lat="44.1475359" lon="10.4090304"><ele>506.0</ele><time>2026-05-02T13:09:25Z</time></trkpt><trkpt lat="44.1475526" lon="10.4091564"><ele>507.49999999999994</ele><time>2026-05-02T13:09:26Z</time></trkpt><trkpt lat="44.1475714" lon="10.4092857"><ele>509.0</ele><time>2026-05-02T13:09:26.999Z</time></trkpt><trkpt lat="44.1475888" lon="10.4094175"><ele>509.0</ele><time>2026-05-02T13:09:28Z</time></trkpt><trkpt lat="44.1476093" lon="10.4095546"><ele>509.0</ele><time>2026-05-02T13:09:29Z</time></trkpt><trkpt lat="44.1476307" lon="10.409695"><ele>509.0</ele><time>2026-05-02T13:09:30Z</time></trkpt><trkpt lat="44.1476481" lon="10.409835"><ele>509.0</ele><time>2026-05-02T13:09:31Z</time></trkpt><trkpt lat="44.1476713" lon="10.4099771"><ele>509.0</ele><time>2026-05-02T13:09:32Z</time></trkpt><trkpt lat="44.1476927" lon="10.4101218"><ele>507.0</ele><time>2026-05-02T13:09:32.993Z</time></trkpt><trkpt lat="44.1477096" lon="10.4102646"><ele>505.0</ele><time>2026-05-02T13:09:33.99Z</time></trkpt><trkpt lat="44.1477276" lon="10.4104128"><ele>503.0</ele><time>2026-05-02T13:09:34.998Z</time></trkpt><trkpt lat="44.1477526" lon="10.4105574"><ele>501.0</ele><time>2026-05-02T13:09:35.998Z</time></trkpt><trkpt lat="44.1477792" lon="10.4107028"><ele>499.0</ele><time>2026-05-02T13:09:36.999Z</time></trkpt><trkpt lat="44.1478067" lon="10.4108521"><ele>498.0</ele><time>2026-05-02T13:09:37.988Z</time></trkpt><trkpt lat="44.1478331" lon="10.4110004"><ele>497.0</ele><time>2026-05-02T13:09:38.993Z</time></trkpt><trkpt lat="44.1478547" lon="10.4111481"><ele>496.0</ele><time>2026-05-02T13:09:39.989Z</time></trkpt><trkpt lat="44.1478807" lon="10.4113"><ele>495.0</ele><time>2026-05-02T13:09:40.99Z</time></trkpt><trkpt lat="44.1479082" lon="10.4114531"><ele>494.0</ele><time>2026-05-02T13:09:42Z</time></trkpt><trkpt lat="44.1479362" lon="10.4116058"><ele>493.25</ele><time>2026-05-02T13:09:43Z</time></trkpt><trkpt lat="44.1479639" lon="10.411755"><ele>492.5</ele><time>2026-05-02T13:09:43.999Z</time></trkpt><trkpt lat="44.1479947" lon="10.411908"><ele>491.75</ele><time>2026-05-02T13:09:44.999Z</time></trkpt><trkpt lat="44.1480244" lon="10.4120637"><ele>491.0</ele><time>2026-05-02T13:09:45.988Z</time></trkpt><trkpt lat="44.1480517" lon="10.4122159"><ele>491.0</ele><time>2026-05-02T13:09:47Z</time></trkpt><trkpt lat="44.1480774" lon="10.4123674"><ele>491.0</ele><time>2026-05-02T13:09:47.991Z</time></trkpt><trkpt lat="44.148106" lon="10.4125221"><ele>491.0</ele><time>2026-05-02T13:09:49Z</time></trkpt><trkpt lat="44.1481328" lon="10.4126777"><ele>491.0</ele><time>2026-05-02T13:09:50Z</time></trkpt><trkpt lat="44.1481609" lon="10.412817"><ele>491.0</ele><time>2026-05-02T13:09:51Z</time></trkpt><trkpt lat="44.1481835" lon="10.4129325"><ele>491.0</ele><time>2026-05-02T13:09:52Z</time></trkpt><trkpt lat="44.1481939" lon="10.413026"><ele>491.0</ele><time>2026-05-02T13:09:53Z</time></trkpt><trkpt lat="44.1481345" lon="10.4131231"><ele>491.0</ele><time>2026-05-02T13:09:54.999Z</time></trkpt><trkpt lat="44.1480448" lon="10.4130381"><ele>491.0</ele><time>2026-05-02T13:09:57Z</time></trkpt><trkpt lat="44.1479686" lon="10.412924"><ele>491.0</ele><time>2026-05-02T13:09:58.999Z</time></trkpt><trkpt lat="44.1478838" lon="10.4127883"><ele>490.99999999999994</ele><time>2026-05-02T13:10:01Z</time></trkpt><trkpt lat="44.1478392" lon="10.4127206"><ele>491.0</ele><time>2026-05-02T13:10:01.999Z</time></trkpt><trkpt lat="44.1477883" lon="10.4126435"><ele>491.0</ele><time>2026-05-02T13:10:02.998Z</time></trkpt><trkpt lat="44.1477398" lon="10.4125655"><ele>491.0</ele><time>2026-05-02T13:10:04Z</time></trkpt><trkpt lat="44.1476865" lon="10.4124865"><ele>490.99999999999994</ele><time>2026-05-02T13:10:05Z</time></trkpt><trkpt lat="44.1476286" lon="10.4124073"><ele>491.0</ele><time>2026-05-02T13:10:06Z</time></trkpt><trkpt lat="44.1475672" lon="10.4123251"><ele>491.0</ele><time>2026-05-02T13:10:07Z</time></trkpt><trkpt lat="44.1475084" lon="10.4122393"><ele>491.0</ele><time>2026-05-02T13:10:08Z</time></trkpt><trkpt lat="44.1474463" lon="10.4121528"><ele>491.0</ele><time>2026-05-02T13:10:09Z</time></trkpt><trkpt lat="44.1473845" lon="10.4120607"><ele>491.0</ele><time>2026-05-02T13:10:10Z</time></trkpt><trkpt lat="44.1473189" lon="10.4119697"><ele>491.0</ele><time>2026-05-02T13:10:11Z</time></trkpt><trkpt lat="44.147252" lon="10.411873"><ele>490.20000000000005</ele><time>2026-05-02T13:10:11.999Z</time></trkpt><trkpt lat="44.1471878" lon="10.4117713"><ele>489.40000000000003</ele><time>2026-05-02T13:10:12.999Z</time></trkpt><trkpt lat="44.1471205" lon="10.4116749"><ele>488.6</ele><time>2026-05-02T13:10:13.989Z</time></trkpt><trkpt lat="44.1470504" lon="10.4115722"><ele>487.8</ele><time>2026-05-02T13:10:15Z</time></trkpt><trkpt lat="44.14698" lon="10.4114748"><ele>487.0</ele><time>2026-05-02T13:10:15.989Z</time></trkpt><trkpt lat="44.1469079" lon="10.4113688"><ele>485.6</ele><time>2026-05-02T13:10:17Z</time></trkpt><trkpt lat="44.1468377" lon="10.4112663"><ele>484.20000000000005</ele><time>2026-05-02T13:10:17.999Z</time></trkpt><trkpt lat="44.1467677" lon="10.4111671"><ele>482.8</ele><time>2026-05-02T13:10:18.998Z</time></trkpt><trkpt lat="44.1466976" lon="10.4110657"><ele>481.4</ele><time>2026-05-02T13:10:19.988Z</time></trkpt><trkpt lat="44.1466165" lon="10.4109753"><ele>480.0</ele><time>2026-05-02T13:10:20.997Z</time></trkpt><trkpt lat="44.1465252" lon="10.410904"><ele>479.0</ele><time>2026-05-02T13:10:22Z</time></trkpt><trkpt lat="44.146427" lon="10.4108573"><ele>478.0</ele><time>2026-05-02T13:10:23Z</time></trkpt><trkpt lat="44.146325" lon="10.410816"><ele>477.0</ele><time>2026-05-02T13:10:24Z</time></trkpt><trkpt lat="44.1462229" lon="10.4107809"><ele>476.0</ele><time>2026-05-02T13:10:24.996Z</time></trkpt><trkpt lat="44.1461168" lon="10.4107456"><ele>475.0</ele><time>2026-05-02T13:10:26Z</time></trkpt><trkpt lat="44.1460117" lon="10.4107059"><ele>475.0</ele><time>2026-05-02T13:10:27Z</time></trkpt><trkpt lat="44.1459063" lon="10.4106712"><ele>475.0</ele><time>2026-05-02T13:10:28Z</time></trkpt><trkpt lat="44.145801" lon="10.4106332"><ele>475.0</ele><time>2026-05-02T13:10:29Z</time></trkpt><trkpt lat="44.1456971" lon="10.4105929"><ele>475.0</ele><time>2026-05-02T13:10:29.998Z</time></trkpt><trkpt lat="44.1455897" lon="10.4105535"><ele>475.0</ele><time>2026-05-02T13:10:30.998Z</time></trkpt><trkpt lat="44.1454818" lon="10.4105187"><ele>474.2</ele><time>2026-05-02T13:10:32Z</time></trkpt><trkpt lat="44.1453743" lon="10.4104809"><ele>473.4</ele><time>2026-05-02T13:10:33Z</time></trkpt><trkpt lat="44.1452657" lon="10.4104463"><ele>472.6</ele><time>2026-05-02T13:10:33.996Z</time></trkpt><trkpt lat="44.1451576" lon="10.410408"><ele>471.8</ele><time>2026-05-02T13:10:35Z</time></trkpt><trkpt lat="44.145048" lon="10.4103707"><ele>471.0</ele><time>2026-05-02T13:10:35.999Z</time></trkpt><trkpt lat="44.1449424" lon="10.410333"><ele>469.25</ele><time>2026-05-02T13:10:36.998Z</time></trkpt><trkpt lat="44.1448331" lon="10.4102893"><ele>467.5</ele><time>2026-05-02T13:10:37.997Z</time></trkpt><trkpt lat="44.1447234" lon="10.4102494"><ele>465.75</ele><time>2026-05-02T13:10:39Z</time></trkpt><trkpt lat="44.1446112" lon="10.4102127"><ele>464.0</ele><time>2026-05-02T13:10:39.998Z</time></trkpt><trkpt lat="44.1444997" lon="10.4101761"><ele>464.0</ele><time>2026-05-02T13:10:40.999Z</time></trkpt><trkpt lat="44.1443863" lon="10.4101336"><ele>464.0</ele><time>2026-05-02T13:10:41.999Z</time></trkpt><trkpt lat="44.144275" lon="10.4100926"><ele>464.0</ele><time>2026-05-02T13:10:43Z</time></trkpt><trkpt lat="44.1441621" lon="10.4100537"><ele>464.0</ele><time>2026-05-02T13:10:44Z</time></trkpt><trkpt lat="44.1440457" lon="10.4100338"><ele>460.5</ele><time>2026-05-02T13:10:45Z</time></trkpt><trkpt lat="44.1439324" lon="10.4100445"><ele>457.0</ele><time>2026-05-02T13:10:45.999Z</time></trkpt><trkpt lat="44.1438213" lon="10.4100869"><ele>453.5</ele><time>2026-05-02T13:10:46.998Z</time></trkpt><trkpt lat="44.1437085" lon="10.4101399"><ele>450.0</ele><time>2026-05-02T13:10:48Z</time></trkpt><trkpt lat="44.1435983" lon="10.4101948"><ele>450.0</ele><time>2026-05-02T13:10:48.999Z</time></trkpt><trkpt lat="44.1434967" lon="10.4102475"><ele>450.0</ele><time>2026-05-02T13:10:49.989Z</time></trkpt><trkpt lat="44.1434196" lon="10.4103009"><ele>450.0</ele><time>2026-05-02T13:10:51Z</time></trkpt><trkpt lat="44.1433585" lon="10.4103797"><ele>450.0</ele><time>2026-05-02T13:10:51.998Z</time></trkpt><trkpt lat="44.14335" lon="10.4104788"><ele>450.0</ele><time>2026-05-02T13:10:53Z</time></trkpt><trkpt lat="44.1433646" lon="10.4105764"><ele>450.0</ele><time>2026-05-02T13:10:54Z</time></trkpt><trkpt lat="44.1434058" lon="10.4106697"><ele>449.5</ele><time>2026-05-02T13:10:55Z</time></trkpt><trkpt lat="44.143462" lon="10.4107335"><ele>449.0</ele><time>2026-05-02T13:10:56Z</time></trkpt><trkpt lat="44.1435277" lon="10.410794"><ele>448.5</ele><time>2026-05-02T13:10:57Z</time></trkpt><trkpt lat="44.143601" lon="10.4108528"><ele>448.0</ele><time>2026-05-02T13:10:58Z</time></trkpt><trkpt lat="44.1436708" lon="10.4109284"><ele>447.5</ele><time>2026-05-02T13:10:59Z</time></trkpt><trkpt lat="44.1437437" lon="10.4110033"><ele>447.0</ele><time>2026-05-02T13:10:59.999Z</time></trkpt><trkpt lat="44.143818" lon="10.4110767"><ele>447.0</ele><time>2026-05-02T13:11:00.994Z</time></trkpt><trkpt lat="44.1438925" lon="10.4111545"><ele>447.00000000000006</ele><time>2026-05-02T13:11:02Z</time></trkpt><trkpt lat="44.1439527" lon="10.411258"><ele>447.00000000000006</ele><time>2026-05-02T13:11:03Z</time></trkpt><trkpt lat="44.1439819" lon="10.4113821"><ele>447.0</ele><time>2026-05-02T13:11:04Z</time></trkpt><trkpt lat="44.1439812" lon="10.4115165"><ele>447.0</ele><time>2026-05-02T13:11:04.999Z</time></trkpt><trkpt lat="44.1439425" lon="10.4116454"><ele>445.6</ele><time>2026-05-02T13:11:06Z</time></trkpt><trkpt lat="44.1438829" lon="10.4117633"><ele>444.20000000000005</ele><time>2026-05-02T13:11:07Z</time></trkpt><trkpt lat="44.1438155" lon="10.4118735"><ele>442.8</ele><time>2026-05-02T13:11:08Z</time></trkpt><trkpt lat="44.143733" lon="10.4119608"><ele>441.4</ele><time>2026-05-02T13:11:09Z</time></trkpt><trkpt lat="44.1436309" lon="10.412018"><ele>440.0</ele><time>2026-05-02T13:11:10Z</time></trkpt><trkpt lat="44.1435247" lon="10.4120508"><ele>440.0</ele><time>2026-05-02T13:11:10.991Z</time></trkpt><trkpt lat="44.1434195" lon="10.4120695"><ele>440.0</ele><time>2026-05-02T13:11:12Z</time></trkpt><trkpt lat="44.143317" lon="10.4121015"><ele>440.0</ele><time>2026-05-02T13:11:12.998Z</time></trkpt><trkpt lat="44.1432147" lon="10.4121403"><ele>440.0</ele><time>2026-05-02T13:11:14Z</time></trkpt><trkpt lat="44.1431057" lon="10.4121832"><ele>440.0</ele><time>2026-05-02T13:11:15Z</time></trkpt><trkpt lat="44.143004" lon="10.4122327"><ele>438.16666666666663</ele><time>2026-05-02T13:11:16Z</time></trkpt><trkpt lat="44.1429069" lon="10.4122735"><ele>436.3333333333333</ele><time>2026-05-02T13:11:17Z</time></trkpt><trkpt lat="44.1428237" lon="10.4123154"><ele>434.5</ele><time>2026-05-02T13:11:18Z</time></trkpt><trkpt lat="44.142755" lon="10.4123745"><ele>432.66666666666663</ele><time>2026-05-02T13:11:19Z</time></trkpt><trkpt lat="44.1427032" lon="10.4124591"><ele>430.8333333333333</ele><time>2026-05-02T13:11:20Z</time></trkpt><trkpt lat="44.1426764" lon="10.4125576"><ele>429.0</ele><time>2026-05-02T13:11:21Z</time></trkpt><trkpt lat="44.1426773" lon="10.4126685"><ele>429.0</ele><time>2026-05-02T13:11:22Z</time></trkpt><trkpt lat="44.1427068" lon="10.4127573"><ele>429.0</ele><time>2026-05-02T13:11:22.999Z</time></trkpt><trkpt lat="44.1427628" lon="10.4128275"><ele>429.0</ele><time>2026-05-02T13:11:23.999Z</time></trkpt><trkpt lat="44.1428319" lon="10.4128641"><ele>429.0</ele><time>2026-05-02T13:11:25Z</time></trkpt><trkpt lat="44.1429131" lon="10.4128789"><ele>429.0</ele><time>2026-05-02T13:11:26Z</time></trkpt><trkpt lat="44.1430002" lon="10.4128959"><ele>429.0</ele><time>2026-05-02T13:11:27Z</time></trkpt><trkpt lat="44.1430875" lon="10.4129198"><ele>429.4</ele><time>2026-05-02T13:11:28Z</time></trkpt><trkpt lat="44.1431677" lon="10.4129982"><ele>429.79999999999995</ele><time>2026-05-02T13:11:28.999Z</time></trkpt><trkpt lat="44.1432284" lon="10.4131074"><ele>430.20000000000005</ele><time>2026-05-02T13:11:30Z</time></trkpt><trkpt lat="44.143263" lon="10.4132351"><ele>430.6</ele><time>2026-05-02T13:11:31Z</time></trkpt><trkpt lat="44.1432901" lon="10.413372"><ele>431.0</ele><time>2026-05-02T13:11:31.999Z</time></trkpt><trkpt lat="44.1433138" lon="10.4135047"><ele>431.0</ele><time>2026-05-02T13:11:33Z</time></trkpt><trkpt lat="44.1433372" lon="10.4136373"><ele>431.0</ele><time>2026-05-02T13:11:33.999Z</time></trkpt><trkpt lat="44.1433596" lon="10.4137633"><ele>431.0</ele><time>2026-05-02T13:11:35Z</time></trkpt><trkpt lat="44.1433683" lon="10.4138971"><ele>431.0</ele><time>2026-05-02T13:11:36Z</time></trkpt><trkpt lat="44.1433729" lon="10.4140369"><ele>431.0</ele><time>2026-05-02T13:11:36.988Z</time></trkpt><trkpt lat="44.1433662" lon="10.4141704"><ele>429.99999999999994</ele><time>2026-05-02T13:11:38Z</time></trkpt><trkpt lat="44.1433608" lon="10.4143043"><ele>429.0</ele><time>2026-05-02T13:11:38.997Z</time></trkpt><trkpt lat="44.1433656" lon="10.4144273"><ele>428.0</ele><time>2026-05-02T13:11:40Z</time></trkpt><trkpt lat="44.1433919" lon="10.4145319"><ele>427.0</ele><time>2026-05-02T13:11:41Z</time></trkpt><trkpt lat="44.1434474" lon="10.4146269"><ele>425.99999999999994</ele><time>2026-05-02T13:11:41.995Z</time></trkpt><trkpt lat="44.1435195" lon="10.4146825"><ele>425.0</ele><time>2026-05-02T13:11:43Z</time></trkpt><trkpt lat="44.1436055" lon="10.4147064"><ele>423.99999999999994</ele><time>2026-05-02T13:11:44Z</time></trkpt><trkpt lat="44.1436957" lon="10.4147191"><ele>423.0</ele><time>2026-05-02T13:11:44.994Z</time></trkpt><trkpt lat="44.1437863" lon="10.414731"><ele>422.0</ele><time>2026-05-02T13:11:46Z</time></trkpt><trkpt lat="44.1438732" lon="10.4147536"><ele>421.0</ele><time>2026-05-02T13:11:47Z</time></trkpt><trkpt lat="44.143951" lon="10.4147888"><ele>419.99999999999994</ele><time>2026-05-02T13:11:48Z</time></trkpt><trkpt lat="44.1440181" lon="10.4148366"><ele>419.0</ele><time>2026-05-02T13:11:49Z</time></trkpt><trkpt lat="44.1440723" lon="10.4148889"><ele>418.99999999999994</ele><time>2026-05-02T13:11:49.999Z</time></trkpt><trkpt lat="44.1440982" lon="10.4150128"><ele>419.0</ele><time>2026-05-02T13:11:52Z</time></trkpt><trkpt lat="44.1440236" lon="10.4150938"><ele>419.0</ele><time>2026-05-02T13:11:53.999Z</time></trkpt><trkpt lat="44.1439118" lon="10.4150587"><ele>419.0</ele><time>2026-05-02T13:11:56Z</time></trkpt><trkpt lat="44.1438514" lon="10.4150275"><ele>418.99999999999994</ele><time>2026-05-02T13:11:56.999Z</time></trkpt><trkpt lat="44.1437847" lon="10.4150056"><ele>419.0</ele><time>2026-05-02T13:11:58Z</time></trkpt><trkpt lat="44.1437159" lon="10.4149795"><ele>418.3333333333333</ele><time>2026-05-02T13:11:58.999Z</time></trkpt><trkpt lat="44.1436441" lon="10.414959"><ele>417.66666666666663</ele><time>2026-05-02T13:12:00Z</time></trkpt><trkpt lat="44.1435661" lon="10.4149383"><ele>417.0</ele><time>2026-05-02T13:12:01Z</time></trkpt><trkpt lat="44.1434891" lon="10.414911"><ele>416.33333333333337</ele><time>2026-05-02T13:12:02Z</time></trkpt><trkpt lat="44.1434067" lon="10.4148818"><ele>415.6666666666667</ele><time>2026-05-02T13:12:02.998Z</time></trkpt><trkpt lat="44.1433207" lon="10.4148557"><ele>415.0</ele><time>2026-05-02T13:12:03.999Z</time></trkpt><trkpt lat="44.1432312" lon="10.4148414"><ele>412.6</ele><time>2026-05-02T13:12:04.999Z</time></trkpt><trkpt lat="44.1431343" lon="10.4148447"><ele>410.2</ele><time>2026-05-02T13:12:06Z</time></trkpt><trkpt lat="44.143037" lon="10.4148685"><ele>407.79999999999995</ele><time>2026-05-02T13:12:07Z</time></trkpt><trkpt lat="44.1429351" lon="10.4148906"><ele>405.4</ele><time>2026-05-02T13:12:07.999Z</time></trkpt><trkpt lat="44.1428304" lon="10.4149142"><ele>403.0</ele><time>2026-05-02T13:12:09Z</time></trkpt><trkpt lat="44.142721" lon="10.4149217"><ele>403.0</ele><time>2026-05-02T13:12:09.999Z</time></trkpt><trkpt lat="44.1426098" lon="10.4149241"><ele>403.0</ele><time>2026-05-02T13:12:11Z</time></trkpt><trkpt lat="44.1424939" lon="10.4149111"><ele>403.0</ele><time>2026-05-02T13:12:11.996Z</time></trkpt><trkpt lat="44.142375" lon="10.4148888"><ele>403.0</ele><time>2026-05-02T13:12:12.993Z</time></trkpt><trkpt lat="44.1422555" lon="10.4148608"><ele>401.5</ele><time>2026-05-02T13:12:14Z</time></trkpt><trkpt lat="44.1421373" lon="10.4148311"><ele>400.0</ele><time>2026-05-02T13:12:15Z</time></trkpt><trkpt lat="44.1420112" lon="10.4148127"><ele>398.5</ele><time>2026-05-02T13:12:16Z</time></trkpt><trkpt lat="44.1418868" lon="10.4148053"><ele>397.0</ele><time>2026-05-02T13:12:17Z</time></trkpt><trkpt lat="44.1417635" lon="10.414825"><ele>397.0</ele><time>2026-05-02T13:12:18Z</time></trkpt><trkpt lat="44.1416368" lon="10.414853"><ele>397.0</ele><time>2026-05-02T13:12:19Z</time></trkpt><trkpt lat="44.1415188" lon="10.4148776"><ele>397.0</ele><time>2026-05-02T13:12:19.999Z</time></trkpt><trkpt lat="44.141415" lon="10.4148979"><ele>397.0</ele><time>2026-05-02T13:12:20.997Z</time></trkpt><trkpt lat="44.1413228" lon="10.4148985"><ele>397.0</ele><time>2026-05-02T13:12:21.992Z</time></trkpt><trkpt lat="44.1412413" lon="10.4148688"><ele>396.33333333333337</ele><time>2026-05-02T13:12:22.997Z</time></trkpt><trkpt lat="44.1411725" lon="10.4148004"><ele>395.6666666666667</ele><time>2026-05-02T13:12:24Z</time></trkpt><trkpt lat="44.141119" lon="10.4147094"><ele>395.0</ele><time>2026-05-02T13:12:25Z</time></trkpt><trkpt lat="44.1410861" lon="10.4145983"><ele>394.33333333333337</ele><time>2026-05-02T13:12:26Z</time></trkpt><trkpt lat="44.1410738" lon="10.4144757"><ele>393.6666666666667</ele><time>2026-05-02T13:12:27Z</time></trkpt><trkpt lat="44.1410601" lon="10.4143525"><ele>393.0</ele><time>2026-05-02T13:12:27.993Z</time></trkpt><trkpt lat="44.1410187" lon="10.4142513"><ele>393.0</ele><time>2026-05-02T13:12:28.989Z</time></trkpt><trkpt lat="44.1409571" lon="10.4141741"><ele>393.0</ele><time>2026-05-02T13:12:30Z</time></trkpt><trkpt lat="44.1408814" lon="10.4141374"><ele>393.0</ele><time>2026-05-02T13:12:30.999Z</time></trkpt><trkpt lat="44.1408035" lon="10.4141434"><ele>393.0</ele><time>2026-05-02T13:12:32Z</time></trkpt><trkpt lat="44.1407333" lon="10.4141939"><ele>393.0</ele><time>2026-05-02T13:12:32.997Z</time></trkpt><trkpt lat="44.1406816" lon="10.4142816"><ele>393.0</ele><time>2026-05-02T13:12:34Z</time></trkpt><trkpt lat="44.140655" lon="10.4143867"><ele>391.0</ele><time>2026-05-02T13:12:35Z</time></trkpt><trkpt lat="44.1406463" lon="10.4145056"><ele>389.0</ele><time>2026-05-02T13:12:36Z</time></trkpt><trkpt lat="44.1406452" lon="10.414624"><ele>387.0</ele><time>2026-05-02T13:12:36.995Z</time></trkpt><trkpt lat="44.140648" lon="10.4147461"><ele>385.0</ele><time>2026-05-02T13:12:37.997Z</time></trkpt><trkpt lat="44.140655" lon="10.4148698"><ele>383.0</ele><time>2026-05-02T13:12:38.988Z</time></trkpt><trkpt lat="44.1406572" lon="10.4149941"><ele>381.0</ele><time>2026-05-02T13:12:39.998Z</time></trkpt><trkpt lat="44.1406632" lon="10.4151202"><ele>380.5</ele><time>2026-05-02T13:12:40.989Z</time></trkpt><trkpt lat="44.1406693" lon="10.4152427"><ele>380.0</ele><time>2026-05-02T13:12:41.994Z</time></trkpt><trkpt lat="44.1406722" lon="10.4153635"><ele>379.5</ele><time>2026-05-02T13:12:42.99Z</time></trkpt><trkpt lat="44.1406721" lon="10.4154819"><ele>379.0</ele><time>2026-05-02T13:12:43.99Z</time></trkpt><trkpt lat="44.1406663" lon="10.415605"><ele>378.5</ele><time>2026-05-02T13:12:44.988Z</time></trkpt><trkpt lat="44.1406538" lon="10.415716"><ele>378.0</ele><time>2026-05-02T13:12:46Z</time></trkpt><trkpt lat="44.1406404" lon="10.4158295"><ele>378.0</ele><time>2026-05-02T13:12:46.987Z</time></trkpt><trkpt lat="44.1406217" lon="10.4159377"><ele>378.0</ele><time>2026-05-02T13:12:47.996Z</time></trkpt><trkpt lat="44.1406081" lon="10.4160427"><ele>378.0</ele><time>2026-05-02T13:12:48.999Z</time></trkpt><trkpt lat="44.1405936" lon="10.4161433"><ele>378.0</ele><time>2026-05-02T13:12:50Z</time></trkpt><trkpt lat="44.1405779" lon="10.4162459"><ele>378.0</ele><time>2026-05-02T13:12:51Z</time></trkpt><trkpt lat="44.1405634" lon="10.4163405"><ele>378.0</ele><time>2026-05-02T13:12:51.999Z</time></trkpt><trkpt lat="44.1405491" lon="10.4164312"><ele>378.0</ele><time>2026-05-02T13:12:52.998Z</time></trkpt><trkpt lat="44.1405363" lon="10.4165217"><ele>378.0</ele><time>2026-05-02T13:12:54Z</time></trkpt><trkpt lat="44.1405256" lon="10.4166104"><ele>378.0</ele><time>2026-05-02T13:12:55Z</time></trkpt><trkpt lat="44.1405068" lon="10.4167757"><ele>378.0</ele><time>2026-05-02T13:12:56.992Z</time></trkpt><trkpt lat="44.1404885" lon="10.416925"><ele>378.0</ele><time>2026-05-02T13:12:58.993Z</time></trkpt><trkpt lat="44.1404654" lon="10.4170649"><ele>378.0</ele><time>2026-05-02T13:13:00.993Z</time></trkpt><trkpt lat="44.1404519" lon="10.4171975"><ele>378.8333333333333</ele><time>2026-05-02T13:13:02.999Z</time></trkpt><trkpt lat="44.1404315" lon="10.4173241"><ele>379.6666666666667</ele><time>2026-05-02T13:13:05Z</time></trkpt><trkpt lat="44.1404111" lon="10.4174395"><ele>380.5</ele><time>2026-05-02T13:13:06.987Z</time></trkpt><trkpt lat="44.1403987" lon="10.4175506"><ele>381.33333333333337</ele><time>2026-05-02T13:13:09Z</time></trkpt><trkpt lat="44.140379" lon="10.4176593"><ele>382.1666666666667</ele><time>2026-05-02T13:13:11Z</time></trkpt><trkpt lat="44.1403605" lon="10.4177656"><ele>383.0</ele><time>2026-05-02T13:13:12.999Z</time></trkpt><trkpt lat="44.1403302" lon="10.4178579"><ele>383.0</ele><time>2026-05-02T13:13:14.996Z</time></trkpt><trkpt lat="44.1402963" lon="10.4179374"><ele>383.0</ele><time>2026-05-02T13:13:17Z</time></trkpt><trkpt lat="44.1402505" lon="10.4180084"><ele>383.0</ele><time>2026-05-02T13:13:19Z</time></trkpt><trkpt lat="44.1401945" lon="10.4180674"><ele>383.0</ele><time>2026-05-02T13:13:20.989Z</time></trkpt><trkpt lat="44.1401293" lon="10.4181067"><ele>383.0</ele><time>2026-05-02T13:13:22.997Z</time></trkpt><trkpt lat="44.1400613" lon="10.4181321"><ele>383.0</ele><time>2026-05-02T13:13:25Z</time></trkpt><trkpt lat="44.1399901" lon="10.418149"><ele>383.0</ele><time>2026-05-02T13:13:26.999Z</time></trkpt><trkpt lat="44.1399184" lon="10.418157"><ele>384.85714285714283</ele><time>2026-05-02T13:13:29Z</time></trkpt><trkpt lat="44.1398485" lon="10.4181626"><ele>386.71428571428567</ele><time>2026-05-02T13:13:31Z</time></trkpt><trkpt lat="44.1397778" lon="10.4181714"><ele>388.57142857142856</ele><time>2026-05-02T13:13:32.999Z</time></trkpt><trkpt lat="44.1397067" lon="10.4181823"><ele>390.42857142857144</ele><time>2026-05-02T13:13:34.999Z</time></trkpt><trkpt lat="44.1396353" lon="10.4181885"><ele>392.2857142857143</ele><time>2026-05-02T13:13:37Z</time></trkpt><trkpt lat="44.1395641" lon="10.4181976"><ele>394.14285714285717</ele><time>2026-05-02T13:13:38.997Z</time></trkpt><trkpt lat="44.1395011" lon="10.4182023"><ele>396.0</ele><time>2026-05-02T13:13:40.989Z</time></trkpt><trkpt lat="44.1394251" lon="10.4182047"><ele>396.0</ele><time>2026-05-02T13:13:43.998Z</time></trkpt><trkpt lat="44.13941" lon="10.4181077"><ele>396.0</ele><time>2026-05-02T13:13:46.999Z</time></trkpt><trkpt lat="44.1394617" lon="10.418033"><ele>396.0</ele><time>2026-05-02T13:13:49.996Z</time></trkpt><trkpt lat="44.1395538" lon="10.4180094"><ele>396.0</ele><time>2026-05-02T13:13:53Z</time></trkpt><trkpt lat="44.1396192" lon="10.4179856"><ele>396.0</ele><time>2026-05-02T13:13:55Z</time></trkpt><trkpt lat="44.1396808" lon="10.4179365"><ele>396.0</ele><time>2026-05-02T13:13:57.999Z</time></trkpt><trkpt lat="44.1397415" lon="10.4178805"><ele>394.1666666666667</ele><time>2026-05-02T13:14:01Z</time></trkpt><trkpt lat="44.1397993" lon="10.4178017"><ele>392.33333333333337</ele><time>2026-05-02T13:14:04Z</time></trkpt><trkpt lat="44.1398146" lon="10.4176997"><ele>390.5</ele><time>2026-05-02T13:14:07.988Z</time></trkpt><trkpt lat="44.1397872" lon="10.4176099"><ele>388.6666666666667</ele><time>2026-05-02T13:14:10.999Z</time></trkpt><trkpt lat="44.1397439" lon="10.4175092"><ele>386.83333333333337</ele><time>2026-05-02T13:14:14.999Z</time></trkpt><trkpt lat="44.1396615" lon="10.4174467"><ele>385.0</ele><time>2026-05-02T13:14:16.996Z</time></trkpt><trkpt lat="44.1395942" lon="10.4173883"><ele>385.00000000000006</ele><time>2026-05-02T13:14:19Z</time></trkpt><trkpt lat="44.1395044" lon="10.4173432"><ele>385.0</ele><time>2026-05-02T13:14:21Z</time></trkpt><trkpt lat="44.1394272" lon="10.4173243"><ele>385.0</ele><time>2026-05-02T13:14:23Z</time></trkpt><trkpt lat="44.1393666" lon="10.4172834"><ele>385.0</ele><time>2026-05-02T13:14:24.989Z</time></trkpt><trkpt lat="44.1393556" lon="10.4171927"><ele>385.00000000000006</ele><time>2026-05-02T13:14:26.99Z</time></trkpt><trkpt lat="44.1393071" lon="10.4170956"><ele>385.0</ele><time>2026-05-02T13:14:29Z</time></trkpt><trkpt lat="44.1392182" lon="10.4170468"><ele>385.2</ele><time>2026-05-02T13:14:31Z</time></trkpt><trkpt lat="44.1391563" lon="10.4169566"><ele>385.4</ele><time>2026-05-02T13:14:32.997Z</time></trkpt><trkpt lat="44.1391213" lon="10.4168521"><ele>385.6</ele><time>2026-05-02T13:14:34.999Z</time></trkpt><trkpt lat="44.1390275" lon="10.4167324"><ele>385.8</ele><time>2026-05-02T13:14:37Z</time></trkpt><trkpt lat="44.1389363" lon="10.4166274"><ele>386.0</ele><time>2026-05-02T13:14:39Z</time></trkpt><trkpt lat="44.1388819" lon="10.4165233"><ele>386.0</ele><time>2026-05-02T13:14:40.996Z</time></trkpt><trkpt lat="44.1387869" lon="10.416463"><ele>386.0</ele><time>2026-05-02T13:14:42.998Z</time></trkpt><trkpt lat="44.1387001" lon="10.4164119"><ele>386.0</ele><time>2026-05-02T13:14:44.999Z</time></trkpt><trkpt lat="44.1386254" lon="10.4163205"><ele>386.0</ele><time>2026-05-02T13:14:46.996Z</time></trkpt><trkpt lat="44.1385701" lon="10.4162037"><ele>386.0</ele><time>2026-05-02T13:14:48.999Z</time></trkpt><trkpt lat="44.1385486" lon="10.4161018"><ele>384.49999999999994</ele><time>2026-05-02T13:14:51Z</time></trkpt><trkpt lat="44.1385056" lon="10.4160083"><ele>383.0</ele><time>2026-05-02T13:14:53Z</time></trkpt><trkpt lat="44.1384549" lon="10.4159119"><ele>381.5</ele><time>2026-05-02T13:14:55Z</time></trkpt><trkpt lat="44.1383977" lon="10.4158335"><ele>380.0</ele><time>2026-05-02T13:14:57Z</time></trkpt><trkpt lat="44.1383326" lon="10.4157675"><ele>378.5</ele><time>2026-05-02T13:14:58.999Z</time></trkpt><trkpt lat="44.1382793" lon="10.415666"><ele>377.0</ele><time>2026-05-02T13:15:00.999Z</time></trkpt><trkpt lat="44.1382294" lon="10.4155943"><ele>376.6666666666667</ele><time>2026-05-02T13:15:01.994Z</time></trkpt><trkpt lat="44.138175" lon="10.4155198"><ele>376.33333333333337</ele><time>2026-05-02T13:15:03.988Z</time></trkpt><trkpt lat="44.1381065" lon="10.4154305"><ele>376.0</ele><time>2026-05-02T13:15:05.993Z</time></trkpt><trkpt lat="44.1380652" lon="10.4153047"><ele>375.6666666666667</ele><time>2026-05-02T13:15:07.994Z</time></trkpt><trkpt lat="44.1380562" lon="10.4152071"><ele>375.3333333333333</ele><time>2026-05-02T13:15:09.995Z</time></trkpt><trkpt lat="44.1380117" lon="10.4151152"><ele>375.0</ele><time>2026-05-02T13:15:11.997Z</time></trkpt><trkpt lat="44.1379451" lon="10.4150144"><ele>375.0</ele><time>2026-05-02T13:15:14Z</time></trkpt><trkpt lat="44.1378999" lon="10.4149108"><ele>375.0</ele><time>2026-05-02T13:15:15.992Z</time></trkpt><trkpt lat="44.1378156" lon="10.4148237"><ele>375.0</ele><time>2026-05-02T13:15:17.994Z</time></trkpt><trkpt lat="44.1377139" lon="10.4147866"><ele>375.0</ele><time>2026-05-02T13:15:19.999Z</time></trkpt><trkpt lat="44.1376264" lon="10.4147724"><ele>375.0</ele><time>2026-05-02T13:15:21.999Z</time></trkpt><trkpt lat="44.1375452" lon="10.4147317"><ele>375.0</ele><time>2026-05-02T13:15:24Z</time></trkpt><trkpt lat="44.1374637" lon="10.4147249"><ele>375.0</ele><time>2026-05-02T13:15:27.994Z</time></trkpt><trkpt lat="44.137397" lon="10.4147322"><ele>375.0</ele><time>2026-05-02T13:15:30.999Z</time></trkpt><trkpt lat="44.1373379" lon="10.4146858"><ele>375.0</ele><time>2026-05-02T13:15:35Z</time></trkpt><trkpt lat="44.1373131" lon="10.4145808"><ele>375.0</ele><time>2026-05-02T13:15:38.992Z</time></trkpt><trkpt lat="44.1372853" lon="10.414482"><ele>375.0</ele><time>2026-05-02T13:15:42.999Z</time></trkpt><trkpt lat="44.1372207" lon="10.4144441"><ele>375.0</ele><time>2026-05-02T13:15:46Z</time></trkpt><trkpt lat="44.1371536" lon="10.4144479"><ele>376.42857142857144</ele><time>2026-05-02T13:15:49.993Z</time></trkpt><trkpt lat="44.1371067" lon="10.414374"><ele>377.85714285714283</ele><time>2026-05-02T13:15:55.993Z</time></trkpt><trkpt lat="44.1370762" lon="10.4142862"><ele>379.2857142857143</ele><time>2026-05-02T13:16:00.991Z</time></trkpt><trkpt lat="44.1370389" lon="10.4142011"><ele>380.7142857142857</ele><time>2026-05-02T13:16:03.988Z</time></trkpt><trkpt lat="44.136996" lon="10.4141154"><ele>382.1428571428571</ele><time>2026-05-02T13:16:08Z</time></trkpt><trkpt lat="44.1369619" lon="10.4140389"><ele>383.57142857142856</ele><time>2026-05-02T13:16:37Z</time></trkpt><trkpt lat="44.1369411" lon="10.4139515"><ele>385.0</ele><time>2026-05-02T13:17:02.999Z</time></trkpt><trkpt lat="44.1369213" lon="10.4138595"><ele>383.6666666666667</ele><time>2026-05-02T13:17:06.997Z</time></trkpt><trkpt lat="44.1368754" lon="10.4137934"><ele>382.33333333333337</ele><time>2026-05-02T13:17:10.996Z</time></trkpt><trkpt lat="44.1368455" lon="10.4136947"><ele>381.0</ele><time>2026-05-02T13:17:15.995Z</time></trkpt><trkpt lat="44.1368127" lon="10.4136036"><ele>379.6666666666667</ele><time>2026-05-02T13:17:19Z</time></trkpt><trkpt lat="44.1367872" lon="10.4135065"><ele>378.33333333333337</ele><time>2026-05-02T13:17:22.996Z</time></trkpt><trkpt lat="44.1368042" lon="10.4133737"><ele>377.0</ele><time>2026-05-02T13:17:25.998Z</time></trkpt><trkpt lat="44.136781" lon="10.4132668"><ele>377.0</ele><time>2026-05-02T13:17:27Z</time></trkpt><trkpt lat="44.1367462" lon="10.4131485"><ele>377.0</ele><time>2026-05-02T13:17:29Z</time></trkpt><trkpt lat="44.1366533" lon="10.4130305"><ele>377.0</ele><time>2026-05-02T13:17:30.998Z</time></trkpt><trkpt lat="44.1366217" lon="10.4129098"><ele>377.0</ele><time>2026-05-02T13:17:32.992Z</time></trkpt><trkpt lat="44.1365654" lon="10.4127937"><ele>377.0</ele><time>2026-05-02T13:17:34.995Z</time></trkpt><trkpt lat="44.1364948" lon="10.4126798"><ele>376.8</ele><time>2026-05-02T13:17:36.996Z</time></trkpt><trkpt lat="44.1364648" lon="10.4125715"><ele>376.6</ele><time>2026-05-02T13:17:39Z</time></trkpt><trkpt lat="44.1364186" lon="10.4124156"><ele>376.40000000000003</ele><time>2026-05-02T13:17:41Z</time></trkpt><trkpt lat="44.1364167" lon="10.4122961"><ele>376.20000000000005</ele><time>2026-05-02T13:17:42.991Z</time></trkpt><trkpt lat="44.1364304" lon="10.4121726"><ele>376.0</ele><time>2026-05-02T13:17:44.996Z</time></trkpt><trkpt lat="44.136497" lon="10.4120972"><ele>376.0</ele><time>2026-05-02T13:17:46.998Z</time></trkpt><trkpt lat="44.1365432" lon="10.4119898"><ele>376.0</ele><time>2026-05-02T13:17:49Z</time></trkpt><trkpt lat="44.136568" lon="10.4119009"><ele>376.0</ele><time>2026-05-02T13:17:50Z</time></trkpt><trkpt lat="44.1365173" lon="10.4117485"><ele>376.0</ele><time>2026-05-02T13:17:52Z</time></trkpt><trkpt lat="44.1364138" lon="10.4116987"><ele>376.0</ele><time>2026-05-02T13:17:52.998Z</time></trkpt><trkpt lat="44.1363872" lon="10.4115768"><ele>376.0</ele><time>2026-05-02T13:17:55Z</time></trkpt><trkpt lat="44.1363703" lon="10.411464"><ele>376.0</ele><time>2026-05-02T13:17:56.993Z</time></trkpt><trkpt lat="44.1363319" lon="10.4113074"><ele>376.0</ele><time>2026-05-02T13:17:58.999Z</time></trkpt><trkpt lat="44.1362658" lon="10.4112315"><ele>376.0</ele><time>2026-05-02T13:18:00.999Z</time></trkpt><trkpt lat="44.1362361" lon="10.4111333"><ele>376.0</ele><time>2026-05-02T13:18:02.999Z</time></trkpt><trkpt lat="44.1362661" lon="10.4110087"><ele>374.3333333333333</ele><time>2026-05-02T13:18:05.99Z</time></trkpt><trkpt lat="44.136293" lon="10.4109056"><ele>372.66666666666663</ele><time>2026-05-02T13:18:08Z</time></trkpt><trkpt lat="44.1362561" lon="10.4108142"><ele>371.0</ele><time>2026-05-02T13:18:10Z</time></trkpt><trkpt lat="44.1362068" lon="10.410717"><ele>369.3333333333333</ele><time>2026-05-02T13:18:12.996Z</time></trkpt><trkpt lat="44.1361701" lon="10.4106431"><ele>367.6666666666667</ele><time>2026-05-02T13:18:15Z</time></trkpt><trkpt lat="44.1361305" lon="10.4105581"><ele>366.0</ele><time>2026-05-02T13:18:16.993Z</time></trkpt><trkpt lat="44.1361023" lon="10.4104626"><ele>364.3333333333333</ele><time>2026-05-02T13:18:18.999Z</time></trkpt><trkpt lat="44.1360625" lon="10.41037"><ele>362.6666666666667</ele><time>2026-05-02T13:18:20.999Z</time></trkpt><trkpt lat="44.1359986" lon="10.410312"><ele>361.0</ele><time>2026-05-02T13:18:22.994Z</time></trkpt><trkpt lat="44.1359546" lon="10.4101851"><ele>359.33333333333337</ele><time>2026-05-02T13:18:24.997Z</time></trkpt><trkpt lat="44.1359266" lon="10.4100586"><ele>357.6666666666667</ele><time>2026-05-02T13:18:26.996Z</time></trkpt><trkpt lat="44.1359004" lon="10.4099387"><ele>356.0</ele><time>2026-05-02T13:18:28.998Z</time></trkpt><trkpt lat="44.1358988" lon="10.4098282"><ele>356.0</ele><time>2026-05-02T13:18:30.994Z</time></trkpt><trkpt lat="44.1359547" lon="10.4097219"><ele>356.0</ele><time>2026-05-02T13:18:33.997Z</time></trkpt><trkpt lat="44.1359823" lon="10.409623"><ele>356.0</ele><time>2026-05-02T13:18:36.989Z</time></trkpt><trkpt lat="44.1359722" lon="10.4095023"><ele>356.0</ele><time>2026-05-02T13:18:39Z</time></trkpt><trkpt lat="44.1359866" lon="10.4093684"><ele>356.0</ele><time>2026-05-02T13:18:40.999Z</time></trkpt><trkpt lat="44.1359683" lon="10.4092734"><ele>356.0</ele><time>2026-05-02T13:18:42.996Z</time></trkpt><trkpt lat="44.1359265" lon="10.4091569"><ele>355.0</ele><time>2026-05-02T13:18:44.995Z</time></trkpt><trkpt lat="44.1359288" lon="10.4090159"><ele>354.0</ele><time>2026-05-02T13:18:46.992Z</time></trkpt><trkpt lat="44.1359661" lon="10.4089213"><ele>353.0</ele><time>2026-05-02T13:18:48.998Z</time></trkpt><trkpt lat="44.1360351" lon="10.4088431"><ele>352.0</ele><time>2026-05-02T13:18:51Z</time></trkpt><trkpt lat="44.1360525" lon="10.4087441"><ele>351.0</ele><time>2026-05-02T13:18:53Z</time></trkpt><trkpt lat="44.1359924" lon="10.4086265"><ele>350.0</ele><time>2026-05-02T13:18:56Z</time></trkpt><trkpt lat="44.1359379" lon="10.4085519"><ele>349.0</ele><time>2026-05-02T13:18:58Z</time></trkpt><trkpt lat="44.1358731" lon="10.4084871"><ele>348.0</ele><time>2026-05-02T13:19:00Z</time></trkpt><trkpt lat="44.1358686" lon="10.4083397"><ele>347.0</ele><time>2026-05-02T13:19:02Z</time></trkpt><trkpt lat="44.1358847" lon="10.4082226"><ele>346.0</ele><time>2026-05-02T13:19:04Z</time></trkpt><trkpt lat="44.1358602" lon="10.4081227"><ele>345.0</ele><time>2026-05-02T13:19:05.992Z</time></trkpt><trkpt lat="44.1357774" lon="10.4080652"><ele>344.0</ele><time>2026-05-02T13:19:08.999Z</time></trkpt><trkpt lat="44.1357294" lon="10.4080039"><ele>344.0</ele><time>2026-05-02T13:19:10.998Z</time></trkpt><trkpt lat="44.1356849" lon="10.407901"><ele>344.0</ele><time>2026-05-02T13:19:12.992Z</time></trkpt><trkpt lat="44.1356439" lon="10.4078294"><ele>344.0</ele><time>2026-05-02T13:19:13.987Z</time></trkpt><trkpt lat="44.1355889" lon="10.4077516"><ele>344.0</ele><time>2026-05-02T13:19:15.999Z</time></trkpt><trkpt lat="44.1355216" lon="10.4077298"><ele>344.0</ele><time>2026-05-02T13:19:17.988Z</time></trkpt><trkpt lat="44.1354503" lon="10.4077554"><ele>344.0</ele><time>2026-05-02T13:19:20Z</time></trkpt><trkpt lat="44.1353669" lon="10.4077905"><ele>344.00000000000006</ele><time>2026-05-02T13:19:22Z</time></trkpt><trkpt lat="44.1352825" lon="10.4078357"><ele>344.0</ele><time>2026-05-02T13:19:24Z</time></trkpt><trkpt lat="44.1352074" lon="10.4078579"><ele>344.0</ele><time>2026-05-02T13:19:26.992Z</time></trkpt><trkpt lat="44.1351458" lon="10.4078894"><ele>344.0</ele><time>2026-05-02T13:19:30Z</time></trkpt><trkpt lat="44.1350959" lon="10.4079459"><ele>344.0</ele><time>2026-05-02T13:19:32.997Z</time></trkpt><trkpt lat="44.1350502" lon="10.4080316"><ele>344.00000000000006</ele><time>2026-05-02T13:19:36.987Z</time></trkpt><trkpt lat="44.1350085" lon="10.4081049"><ele>344.0</ele><time>2026-05-02T13:19:41Z</time></trkpt><trkpt lat="44.1349889" lon="10.4081977"><ele>344.5714285714286</ele><time>2026-05-02T13:19:45Z</time></trkpt><trkpt lat="44.1349789" lon="10.4083034"><ele>345.14285714285717</ele><time>2026-05-02T13:19:48.995Z</time></trkpt><trkpt lat="44.1349666" lon="10.4083906"><ele>345.7142857142857</ele><time>2026-05-02T13:19:51.998Z</time></trkpt><trkpt lat="44.1349164" lon="10.4084678"><ele>346.28571428571433</ele><time>2026-05-02T13:19:55.994Z</time></trkpt><trkpt lat="44.1348492" lon="10.4085187"><ele>346.8571428571429</ele><time>2026-05-02T13:19:59.999Z</time></trkpt><trkpt lat="44.1347793" lon="10.4085418"><ele>347.42857142857144</ele><time>2026-05-02T13:20:03.991Z</time></trkpt><trkpt lat="44.1347065" lon="10.4085088"><ele>348.0</ele><time>2026-05-02T13:20:07.994Z</time></trkpt><trkpt lat="44.1346394" lon="10.4084583"><ele>350.1666666666667</ele><time>2026-05-02T13:20:12Z</time></trkpt><trkpt lat="44.1345702" lon="10.4084007"><ele>352.3333333333333</ele><time>2026-05-02T13:20:15.996Z</time></trkpt><trkpt lat="44.1344964" lon="10.4083498"><ele>354.5</ele><time>2026-05-02T13:20:19.995Z</time></trkpt><trkpt lat="44.1344409" lon="10.4083079"><ele>356.66666666666663</ele><time>2026-05-02T13:20:23Z</time></trkpt><trkpt lat="44.1343721" lon="10.4082487"><ele>358.8333333333333</ele><time>2026-05-02T13:20:26.996Z</time></trkpt><trkpt lat="44.1343018" lon="10.4082023"><ele>361.0</ele><time>2026-05-02T13:20:31Z</time></trkpt><trkpt lat="44.1342306" lon="10.4081547"><ele>361.0</ele><time>2026-05-02T13:20:34.995Z</time></trkpt><trkpt lat="44.1341613" lon="10.4081018"><ele>361.0</ele><time>2026-05-02T13:20:38.997Z</time></trkpt><trkpt lat="44.1340945" lon="10.408039"><ele>361.0</ele><time>2026-05-02T13:20:42.999Z</time></trkpt><trkpt lat="44.1340411" lon="10.4079802"><ele>361.0</ele><time>2026-05-02T13:20:45.993Z</time></trkpt><trkpt lat="44.1339926" lon="10.4079148"><ele>361.0</ele><time>2026-05-02T13:20:48.988Z</time></trkpt><trkpt lat="44.1339454" lon="10.4078556"><ele>361.0</ele><time>2026-05-02T13:20:51.999Z</time></trkpt><trkpt lat="44.1339" lon="10.4077948"><ele>361.0</ele><time>2026-05-02T13:20:54.997Z</time></trkpt><trkpt lat="44.1338452" lon="10.4077221"><ele>361.14285714285717</ele><time>2026-05-02T13:20:58.996Z</time></trkpt><trkpt lat="44.1337973" lon="10.4076635"><ele>361.2857142857143</ele><time>2026-05-02T13:21:01.999Z</time></trkpt><trkpt lat="44.1337393" lon="10.4075898"><ele>361.42857142857144</ele><time>2026-05-02T13:21:05.987Z</time></trkpt><trkpt lat="44.1336892" lon="10.4075349"><ele>361.57142857142856</ele><time>2026-05-02T13:21:08.994Z</time></trkpt><trkpt lat="44.133632" lon="10.4074785"><ele>361.71428571428567</ele><time>2026-05-02T13:21:11.999Z</time></trkpt><trkpt lat="44.1335683" lon="10.4074244"><ele>361.85714285714283</ele><time>2026-05-02T13:21:15.998Z</time></trkpt><trkpt lat="44.1335101" lon="10.4073499"><ele>362.0</ele><time>2026-05-02T13:21:19.993Z</time></trkpt><trkpt lat="44.1334572" lon="10.4072958"><ele>362.0</ele><time>2026-05-02T13:21:22.997Z</time></trkpt><trkpt lat="44.1333992" lon="10.4072445"><ele>362.0</ele><time>2026-05-02T13:21:25.993Z</time></trkpt><trkpt lat="44.1333408" lon="10.4071908"><ele>362.0</ele><time>2026-05-02T13:21:28.994Z</time></trkpt><trkpt lat="44.1332742" lon="10.4071304"><ele>362.0</ele><time>2026-05-02T13:21:31.99Z</time></trkpt><trkpt lat="44.1332055" lon="10.4070562"><ele>362.0</ele><time>2026-05-02T13:21:34.999Z</time></trkpt><trkpt lat="44.1331548" lon="10.4069796"><ele>362.0</ele><time>2026-05-02T13:21:38Z</time></trkpt><trkpt lat="44.1331058" lon="10.4069055"><ele>361.1428571428571</ele><time>2026-05-02T13:21:41Z</time></trkpt><trkpt lat="44.1330663" lon="10.4068309"><ele>360.2857142857143</ele><time>2026-05-02T13:21:43.992Z</time></trkpt><trkpt lat="44.1330215" lon="10.4067611"><ele>359.42857142857144</ele><time>2026-05-02T13:21:47Z</time></trkpt><trkpt lat="44.132977" lon="10.4066706"><ele>358.57142857142856</ele><time>2026-05-02T13:21:50.999Z</time></trkpt><trkpt lat="44.1329361" lon="10.4065857"><ele>357.7142857142857</ele><time>2026-05-02T13:21:55.991Z</time></trkpt><trkpt lat="44.132901" lon="10.4065054"><ele>356.85714285714283</ele><time>2026-05-02T13:22:00.998Z</time></trkpt><trkpt lat="44.1328597" lon="10.4064347"><ele>356.0</ele><time>2026-05-02T13:22:06Z</time></trkpt><trkpt lat="44.1327899" lon="10.4064201"><ele>356.0</ele><time>2026-05-02T13:22:10.998Z</time></trkpt><trkpt lat="44.1327167" lon="10.4064673"><ele>356.0</ele><time>2026-05-02T13:22:15.999Z</time></trkpt><trkpt lat="44.1326683" lon="10.4065296"><ele>356.0</ele><time>2026-05-02T13:22:19Z</time></trkpt><trkpt lat="44.1326054" lon="10.4066076"><ele>356.0</ele><time>2026-05-02T13:22:22.996Z</time></trkpt><trkpt lat="44.1325501" lon="10.4066793"><ele>356.0</ele><time>2026-05-02T13:22:26.001Z</time></trkpt><trkpt lat="44.1324933" lon="10.4067592"><ele>356.0</ele><time>2026-05-02T13:22:28.991Z</time></trkpt><trkpt lat="44.132431" lon="10.4068425"><ele>355.6666666666667</ele><time>2026-05-02T13:22:31.999Z</time></trkpt><trkpt lat="44.1323688" lon="10.4069278"><ele>355.33333333333337</ele><time>2026-05-02T13:22:34.998Z</time></trkpt><trkpt lat="44.1323092" lon="10.4070197"><ele>355.0</ele><time>2026-05-02T13:22:37.999Z</time></trkpt><trkpt lat="44.1322477" lon="10.4071049"><ele>354.6666666666667</ele><time>2026-05-02T13:22:40.992Z</time></trkpt><trkpt lat="44.132184" lon="10.4071848"><ele>354.3333333333333</ele><time>2026-05-02T13:22:44Z</time></trkpt><trkpt lat="44.1321258" lon="10.4072761"><ele>354.0</ele><time>2026-05-02T13:22:47Z</time></trkpt><trkpt lat="44.1320662" lon="10.4073524"><ele>354.6666666666667</ele><time>2026-05-02T13:22:50Z</time></trkpt><trkpt lat="44.1320078" lon="10.4074318"><ele>355.3333333333333</ele><time>2026-05-02T13:22:52.994Z</time></trkpt><trkpt lat="44.1319551" lon="10.4075298"><ele>356.0</ele><time>2026-05-02T13:22:55.998Z</time></trkpt><trkpt lat="44.1319024" lon="10.407631"><ele>356.66666666666663</ele><time>2026-05-02T13:22:58.993Z</time></trkpt><trkpt lat="44.1318523" lon="10.4077335"><ele>357.3333333333333</ele><time>2026-05-02T13:23:02Z</time></trkpt><trkpt lat="44.131802" lon="10.4078347"><ele>358.0</ele><time>2026-05-02T13:23:04.999Z</time></trkpt><trkpt lat="44.1317509" lon="10.4079362"><ele>358.0</ele><time>2026-05-02T13:23:07.998Z</time></trkpt><trkpt lat="44.1316935" lon="10.4080386"><ele>358.0</ele><time>2026-05-02T13:23:11Z</time></trkpt><trkpt lat="44.1316294" lon="10.4081319"><ele>358.0</ele><time>2026-05-02T13:23:14Z</time></trkpt><trkpt lat="44.1315622" lon="10.4082051"><ele>358.0</ele><time>2026-05-02T13:23:16.998Z</time></trkpt><trkpt lat="44.1315056" lon="10.4082713"><ele>358.0</ele><time>2026-05-02T13:23:20Z</time></trkpt><trkpt lat="44.1314554" lon="10.4083399"><ele>358.0</ele><time>2026-05-02T13:23:22.99Z</time></trkpt><trkpt lat="44.1314767" lon="10.4084441"><ele>358.0</ele><time>2026-05-02T13:23:25.997Z</time></trkpt><trkpt lat="44.1315067" lon="10.4085555"><ele>358.0</ele><time>2026-05-02T13:23:28.996Z</time></trkpt><trkpt lat="44.1315379" lon="10.4086694"><ele>358.0</ele><time>2026-05-02T13:23:31.999Z</time></trkpt><trkpt lat="44.1315597" lon="10.4087777"><ele>358.0</ele><time>2026-05-02T13:23:34.998Z</time></trkpt><trkpt lat="44.1315796" lon="10.4088987"><ele>358.0</ele><time>2026-05-02T13:23:38Z</time></trkpt><trkpt lat="44.1315794" lon="10.4090251"><ele>358.0</ele><time>2026-05-02T13:23:41Z</time></trkpt><trkpt lat="44.1315762" lon="10.4091494"><ele>358.16666666666663</ele><time>2026-05-02T13:23:43.996Z</time></trkpt><trkpt lat="44.1315638" lon="10.4092646"><ele>358.3333333333333</ele><time>2026-05-02T13:23:47Z</time></trkpt><trkpt lat="44.1315402" lon="10.4093625"><ele>358.5</ele><time>2026-05-02T13:23:49.996Z</time></trkpt><trkpt lat="44.1315225" lon="10.4094655"><ele>358.6666666666667</ele><time>2026-05-02T13:23:52.991Z</time></trkpt><trkpt lat="44.1314581" lon="10.4095274"><ele>358.83333333333337</ele><time>2026-05-02T13:23:55.999Z</time></trkpt><trkpt lat="44.1313928" lon="10.4095872"><ele>359.0</ele><time>2026-05-02T13:23:59Z</time></trkpt><trkpt lat="44.1313162" lon="10.4096545"><ele>359.2857142857143</ele><time>2026-05-02T13:24:01.991Z</time></trkpt><trkpt lat="44.1312544" lon="10.4096817"><ele>359.57142857142856</ele><time>2026-05-02T13:24:03.988Z</time></trkpt><trkpt lat="44.1311901" lon="10.4096989"><ele>359.8571428571429</ele><time>2026-05-02T13:24:05.992Z</time></trkpt><trkpt lat="44.1311266" lon="10.4097239"><ele>360.1428571428571</ele><time>2026-05-02T13:24:07.992Z</time></trkpt><trkpt lat="44.1310643" lon="10.4097537"><ele>360.4285714285714</ele><time>2026-05-02T13:24:10Z</time></trkpt><trkpt lat="44.1309997" lon="10.4097816"><ele>360.7142857142857</ele><time>2026-05-02T13:24:11.988Z</time></trkpt><trkpt lat="44.1309339" lon="10.4098101"><ele>361.0</ele><time>2026-05-02T13:24:14Z</time></trkpt><trkpt lat="44.1308715" lon="10.4098432"><ele>361.0</ele><time>2026-05-02T13:24:16Z</time></trkpt><trkpt lat="44.1308091" lon="10.409877"><ele>361.0</ele><time>2026-05-02T13:24:18Z</time></trkpt><trkpt lat="44.1307521" lon="10.4099233"><ele>361.0</ele><time>2026-05-02T13:24:20Z</time></trkpt><trkpt lat="44.1306932" lon="10.4099768"><ele>361.0</ele><time>2026-05-02T13:24:21.99Z</time></trkpt><trkpt lat="44.1306354" lon="10.4100435"><ele>361.0</ele><time>2026-05-02T13:24:23.991Z</time></trkpt><trkpt lat="44.1305839" lon="10.4101188"><ele>361.0</ele><time>2026-05-02T13:24:25.997Z</time></trkpt><trkpt lat="44.1305411" lon="10.4101989"><ele>361.0</ele><time>2026-05-02T13:24:27.994Z</time></trkpt><trkpt lat="44.1305061" lon="10.4102856"><ele>360.66666666666663</ele><time>2026-05-02T13:24:29.999Z</time></trkpt><trkpt lat="44.1304681" lon="10.4103712"><ele>360.3333333333333</ele><time>2026-05-02T13:24:31.994Z</time></trkpt><trkpt lat="44.1304496" lon="10.4104656"><ele>360.0</ele><time>2026-05-02T13:24:34Z</time></trkpt><trkpt lat="44.1304452" lon="10.4105694"><ele>359.6666666666667</ele><time>2026-05-02T13:24:35.997Z</time></trkpt><trkpt lat="44.1303874" lon="10.4106537"><ele>359.33333333333337</ele><time>2026-05-02T13:24:37.999Z</time></trkpt><trkpt lat="44.1303069" lon="10.4106763"><ele>359.0</ele><time>2026-05-02T13:24:39.993Z</time></trkpt><trkpt lat="44.1302323" lon="10.4106554"><ele>359.0</ele><time>2026-05-02T13:24:41.99Z</time></trkpt><trkpt lat="44.1301578" lon="10.4106268"><ele>359.0</ele><time>2026-05-02T13:24:43.999Z</time></trkpt><trkpt lat="44.1300805" lon="10.4106128"><ele>359.0</ele><time>2026-05-02T13:24:45.999Z</time></trkpt><trkpt lat="44.1300178" lon="10.410588"><ele>359.0</ele><time>2026-05-02T13:24:56.989Z</time></trkpt><trkpt lat="44.1299548" lon="10.4106045"><ele>359.0</ele><time>2026-05-02T13:24:59.99Z</time></trkpt><trkpt lat="44.1298691" lon="10.4106304"><ele>359.0</ele><time>2026-05-02T13:25:02.989Z</time></trkpt><trkpt lat="44.1297995" lon="10.4106656"><ele>359.0</ele><time>2026-05-02T13:25:04.987Z</time></trkpt><trkpt lat="44.1297287" lon="10.4107149"><ele>358.33333333333337</ele><time>2026-05-02T13:25:06.996Z</time></trkpt><trkpt lat="44.1296578" lon="10.4107751"><ele>357.6666666666667</ele><time>2026-05-02T13:25:08.992Z</time></trkpt><trkpt lat="44.1295838" lon="10.410828"><ele>357.0</ele><time>2026-05-02T13:25:10.99Z</time></trkpt><trkpt lat="44.1295104" lon="10.4108855"><ele>356.3333333333333</ele><time>2026-05-02T13:25:12.99Z</time></trkpt><trkpt lat="44.129438" lon="10.4109405"><ele>355.66666666666663</ele><time>2026-05-02T13:25:15Z</time></trkpt><trkpt lat="44.1293697" lon="10.4110015"><ele>355.0</ele><time>2026-05-02T13:25:16.998Z</time></trkpt><trkpt lat="44.1293016" lon="10.4110663"><ele>355.0</ele><time>2026-05-02T13:25:18.999Z</time></trkpt><trkpt lat="44.1292297" lon="10.4111233"><ele>355.0</ele><time>2026-05-02T13:25:20.999Z</time></trkpt><trkpt lat="44.129159" lon="10.4111871"><ele>355.0</ele><time>2026-05-02T13:25:22.987Z</time></trkpt><trkpt lat="44.129086" lon="10.4112424"><ele>355.0</ele><time>2026-05-02T13:25:24.988Z</time></trkpt><trkpt lat="44.1290197" lon="10.411292"><ele>355.0</ele><time>2026-05-02T13:25:27Z</time></trkpt><trkpt lat="44.1289372" lon="10.4113288"><ele>355.0</ele><time>2026-05-02T13:25:29.987Z</time></trkpt><trkpt lat="44.1288557" lon="10.4113521"><ele>354.66666666666663</ele><time>2026-05-02T13:25:32.995Z</time></trkpt><trkpt lat="44.1287935" lon="10.4113933"><ele>354.3333333333333</ele><time>2026-05-02T13:25:34.996Z</time></trkpt><trkpt lat="44.1287187" lon="10.4114065"><ele>354.0</ele><time>2026-05-02T13:25:36.997Z</time></trkpt><trkpt lat="44.1286352" lon="10.4113915"><ele>353.6666666666667</ele><time>2026-05-02T13:25:39Z</time></trkpt><trkpt lat="44.1285421" lon="10.4113918"><ele>353.33333333333337</ele><time>2026-05-02T13:25:40.997Z</time></trkpt><trkpt lat="44.1284436" lon="10.4113864"><ele>353.0</ele><time>2026-05-02T13:25:42.999Z</time></trkpt><trkpt lat="44.128334" lon="10.4113661"><ele>353.0</ele><time>2026-05-02T13:25:45Z</time></trkpt><trkpt lat="44.1282271" lon="10.4113299"><ele>353.0</ele><time>2026-05-02T13:25:46.999Z</time></trkpt><trkpt lat="44.1281201" lon="10.4112964"><ele>353.0</ele><time>2026-05-02T13:25:48.999Z</time></trkpt><trkpt lat="44.1280131" lon="10.4112554"><ele>353.0</ele><time>2026-05-02T13:25:51Z</time></trkpt><trkpt lat="44.1279025" lon="10.4112136"><ele>353.0</ele><time>2026-05-02T13:25:52.993Z</time></trkpt><trkpt lat="44.1277904" lon="10.4111719"><ele>352.25</ele><time>2026-05-02T13:25:54.988Z</time></trkpt><trkpt lat="44.1276779" lon="10.411136"><ele>351.5</ele><time>2026-05-02T13:25:57.001Z</time></trkpt><trkpt lat="44.1275694" lon="10.4110917"><ele>350.75</ele><time>2026-05-02T13:25:59Z</time></trkpt><trkpt lat="44.1274583" lon="10.4110586"><ele>350.0</ele><time>2026-05-02T13:26:00.995Z</time></trkpt><trkpt lat="44.12735" lon="10.4110283"><ele>349.75</ele><time>2026-05-02T13:26:02.991Z</time></trkpt><trkpt lat="44.1272361" lon="10.4109901"><ele>349.5</ele><time>2026-05-02T13:26:04.992Z</time></trkpt><trkpt lat="44.1271309" lon="10.4109624"><ele>349.25</ele><time>2026-05-02T13:26:06.998Z</time></trkpt><trkpt lat="44.1270153" lon="10.4109239"><ele>349.0</ele><time>2026-05-02T13:26:09Z</time></trkpt><trkpt lat="44.1268933" lon="10.4108871"><ele>349.0</ele><time>2026-05-02T13:26:11Z</time></trkpt><trkpt lat="44.1267655" lon="10.4108564"><ele>349.0</ele><time>2026-05-02T13:26:13Z</time></trkpt><trkpt lat="44.1266999" lon="10.4108353"><ele>349.0</ele><time>2026-05-02T13:26:14Z</time></trkpt><trkpt lat="44.1266336" lon="10.4108191"><ele>349.0</ele><time>2026-05-02T13:26:15Z</time></trkpt><trkpt lat="44.1265661" lon="10.4108001"><ele>349.0</ele><time>2026-05-02T13:26:16Z</time></trkpt><trkpt lat="44.126499" lon="10.4107808"><ele>349.0</ele><time>2026-05-02T13:26:16.998Z</time></trkpt><trkpt lat="44.1264284" lon="10.4107641"><ele>348.85714285714283</ele><time>2026-05-02T13:26:18Z</time></trkpt><trkpt lat="44.126359" lon="10.4107426"><ele>348.7142857142857</ele><time>2026-05-02T13:26:19Z</time></trkpt><trkpt lat="44.1262843" lon="10.4107245"><ele>348.57142857142856</ele><time>2026-05-02T13:26:20Z</time></trkpt><trkpt lat="44.1262119" lon="10.4107073"><ele>348.42857142857144</ele><time>2026-05-02T13:26:20.999Z</time></trkpt><trkpt lat="44.1261414" lon="10.4106871"><ele>348.2857142857143</ele><time>2026-05-02T13:26:22Z</time></trkpt><trkpt lat="44.1260726" lon="10.4106684"><ele>348.1428571428571</ele><time>2026-05-02T13:26:22.996Z</time></trkpt><trkpt lat="44.1260023" lon="10.4106489"><ele>348.0</ele><time>2026-05-02T13:26:24Z</time></trkpt><trkpt lat="44.125928" lon="10.4106272"><ele>348.0</ele><time>2026-05-02T13:26:24.994Z</time></trkpt><trkpt lat="44.1258576" lon="10.4105992"><ele>348.0</ele><time>2026-05-02T13:26:26Z</time></trkpt><trkpt lat="44.1257871" lon="10.4105724"><ele>348.0</ele><time>2026-05-02T13:26:27Z</time></trkpt><trkpt lat="44.1257137" lon="10.4105411"><ele>348.0</ele><time>2026-05-02T13:26:28Z</time></trkpt><trkpt lat="44.1256352" lon="10.4105131"><ele>348.0</ele><time>2026-05-02T13:26:28.995Z</time></trkpt><trkpt lat="44.1255607" lon="10.4104804"><ele>348.0</ele><time>2026-05-02T13:26:29.999Z</time></trkpt><trkpt lat="44.1254926" lon="10.4104432"><ele>347.42857142857144</ele><time>2026-05-02T13:26:31Z</time></trkpt><trkpt lat="44.1254228" lon="10.4104086"><ele>346.8571428571429</ele><time>2026-05-02T13:26:32Z</time></trkpt><trkpt lat="44.1253506" lon="10.4103735"><ele>346.28571428571433</ele><time>2026-05-02T13:26:33Z</time></trkpt><trkpt lat="44.1252854" lon="10.4103336"><ele>345.7142857142857</ele><time>2026-05-02T13:26:33.995Z</time></trkpt><trkpt lat="44.1252302" lon="10.4102851"><ele>345.14285714285717</ele><time>2026-05-02T13:26:34.993Z</time></trkpt><trkpt lat="44.1251805" lon="10.410226"><ele>344.5714285714286</ele><time>2026-05-02T13:26:36Z</time></trkpt><trkpt lat="44.125138" lon="10.4101539"><ele>344.0</ele><time>2026-05-02T13:26:36.999Z</time></trkpt><trkpt lat="44.125097" lon="10.410077"><ele>344.00000000000006</ele><time>2026-05-02T13:26:38Z</time></trkpt><trkpt lat="44.1250505" lon="10.4100088"><ele>344.0</ele><time>2026-05-02T13:26:39Z</time></trkpt><trkpt lat="44.1249922" lon="10.4099536"><ele>344.0</ele><time>2026-05-02T13:26:40Z</time></trkpt><trkpt lat="44.12493" lon="10.4099196"><ele>344.0</ele><time>2026-05-02T13:26:41Z</time></trkpt><trkpt lat="44.124864" lon="10.4099008"><ele>344.0</ele><time>2026-05-02T13:26:42Z</time></trkpt><trkpt lat="44.124795" lon="10.4099026"><ele>344.00000000000006</ele><time>2026-05-02T13:26:42.988Z</time></trkpt><trkpt lat="44.1247288" lon="10.4099219"><ele>344.0</ele><time>2026-05-02T13:26:44Z</time></trkpt><trkpt lat="44.1246601" lon="10.4099461"><ele>343.42857142857144</ele><time>2026-05-02T13:26:45Z</time></trkpt><trkpt lat="44.1245925" lon="10.4099567"><ele>342.8571428571429</ele><time>2026-05-02T13:26:45.999Z</time></trkpt><trkpt lat="44.124523" lon="10.4099483"><ele>342.28571428571433</ele><time>2026-05-02T13:26:46.999Z</time></trkpt><trkpt lat="44.1244533" lon="10.4099171"><ele>341.7142857142857</ele><time>2026-05-02T13:26:48Z</time></trkpt><trkpt lat="44.124388" lon="10.4098824"><ele>341.1428571428571</ele><time>2026-05-02T13:26:49Z</time></trkpt><trkpt lat="44.1243199" lon="10.409845"><ele>340.5714285714286</ele><time>2026-05-02T13:26:49.999Z</time></trkpt><trkpt lat="44.1242519" lon="10.4098043"><ele>340.0</ele><time>2026-05-02T13:26:51Z</time></trkpt><trkpt lat="44.1241814" lon="10.4097677"><ele>340.0</ele><time>2026-05-02T13:26:51.991Z</time></trkpt><trkpt lat="44.1241111" lon="10.4097353"><ele>340.0</ele><time>2026-05-02T13:26:52.995Z</time></trkpt><trkpt lat="44.1240399" lon="10.4097028"><ele>340.0</ele><time>2026-05-02T13:26:54Z</time></trkpt><trkpt lat="44.1239662" lon="10.4096723"><ele>340.0</ele><time>2026-05-02T13:26:55Z</time></trkpt><trkpt lat="44.1238958" lon="10.4096417"><ele>340.0</ele><time>2026-05-02T13:26:55.997Z</time></trkpt><trkpt lat="44.1238206" lon="10.4096138"><ele>340.0</ele><time>2026-05-02T13:26:56.989Z</time></trkpt><trkpt lat="44.1237478" lon="10.409587"><ele>339.2857142857143</ele><time>2026-05-02T13:26:58Z</time></trkpt><trkpt lat="44.1236763" lon="10.4095617"><ele>338.57142857142856</ele><time>2026-05-02T13:26:58.999Z</time></trkpt><trkpt lat="44.1236071" lon="10.4095386"><ele>337.85714285714283</ele><time>2026-05-02T13:26:59.994Z</time></trkpt><trkpt lat="44.1235329" lon="10.4095143"><ele>337.1428571428571</ele><time>2026-05-02T13:27:00.994Z</time></trkpt><trkpt lat="44.1234609" lon="10.4094915"><ele>336.42857142857144</ele><time>2026-05-02T13:27:01.999Z</time></trkpt><trkpt lat="44.1233898" lon="10.4094675"><ele>335.71428571428567</ele><time>2026-05-02T13:27:02.988Z</time></trkpt><trkpt lat="44.1233206" lon="10.4094424"><ele>335.0</ele><time>2026-05-02T13:27:03.998Z</time></trkpt><trkpt lat="44.1232488" lon="10.4094175"><ele>334.71428571428567</ele><time>2026-05-02T13:27:04.996Z</time></trkpt><trkpt lat="44.123177" lon="10.4093961"><ele>334.42857142857144</ele><time>2026-05-02T13:27:06Z</time></trkpt><trkpt lat="44.1231084" lon="10.4093715"><ele>334.1428571428571</ele><time>2026-05-02T13:27:06.991Z</time></trkpt><trkpt lat="44.1230408" lon="10.409347"><ele>333.85714285714283</ele><time>2026-05-02T13:27:07.994Z</time></trkpt><trkpt lat="44.1229687" lon="10.4093229"><ele>333.57142857142856</ele><time>2026-05-02T13:27:09Z</time></trkpt><trkpt lat="44.122899" lon="10.409306"><ele>333.2857142857143</ele><time>2026-05-02T13:27:09.991Z</time></trkpt><trkpt lat="44.1228281" lon="10.4092967"><ele>333.0</ele><time>2026-05-02T13:27:11Z</time></trkpt><trkpt lat="44.1227602" lon="10.4092842"><ele>333.0</ele><time>2026-05-02T13:27:12Z</time></trkpt><trkpt lat="44.122691" lon="10.4092727"><ele>333.0</ele><time>2026-05-02T13:27:12.999Z</time></trkpt><trkpt lat="44.1226197" lon="10.4092605"><ele>333.0</ele><time>2026-05-02T13:27:14Z</time></trkpt><trkpt lat="44.1225445" lon="10.4092461"><ele>333.0</ele><time>2026-05-02T13:27:14.998Z</time></trkpt><trkpt lat="44.1224742" lon="10.4092346"><ele>333.0</ele><time>2026-05-02T13:27:15.996Z</time></trkpt><trkpt lat="44.1224" lon="10.4092271"><ele>333.0</ele><time>2026-05-02T13:27:16.993Z</time></trkpt><trkpt lat="44.122326" lon="10.4092161"><ele>333.0</ele><time>2026-05-02T13:27:17.989Z</time></trkpt><trkpt lat="44.122253" lon="10.4092082"><ele>332.5714285714286</ele><time>2026-05-02T13:27:18.999Z</time></trkpt><trkpt lat="44.1221819" lon="10.4091963"><ele>332.1428571428571</ele><time>2026-05-02T13:27:19.999Z</time></trkpt><trkpt lat="44.1221111" lon="10.4091865"><ele>331.7142857142857</ele><time>2026-05-02T13:27:20.993Z</time></trkpt><trkpt lat="44.1220388" lon="10.4091743"><ele>331.28571428571433</ele><time>2026-05-02T13:27:22Z</time></trkpt><trkpt lat="44.1219664" lon="10.4091647"><ele>330.8571428571429</ele><time>2026-05-02T13:27:23Z</time></trkpt><trkpt lat="44.1218937" lon="10.4091498"><ele>330.42857142857144</ele><time>2026-05-02T13:27:23.993Z</time></trkpt><trkpt lat="44.121819" lon="10.409138"><ele>330.0</ele><time>2026-05-02T13:27:24.995Z</time></trkpt><trkpt lat="44.1217445" lon="10.4091246"><ele>330.00000000000006</ele><time>2026-05-02T13:27:25.991Z</time></trkpt><trkpt lat="44.1216727" lon="10.4091154"><ele>330.0</ele><time>2026-05-02T13:27:27Z</time></trkpt><trkpt lat="44.1215991" lon="10.4091054"><ele>330.0</ele><time>2026-05-02T13:27:27.998Z</time></trkpt><trkpt lat="44.1215264" lon="10.4090881"><ele>330.0</ele><time>2026-05-02T13:27:28.997Z</time></trkpt><trkpt lat="44.121454" lon="10.4090792"><ele>330.0</ele><time>2026-05-02T13:27:29.993Z</time></trkpt><trkpt lat="44.1213776" lon="10.4090696"><ele>330.00000000000006</ele><time>2026-05-02T13:27:30.989Z</time></trkpt><trkpt lat="44.1213044" lon="10.4090613"><ele>330.0</ele><time>2026-05-02T13:27:32Z</time></trkpt><trkpt lat="44.1212309" lon="10.4090557"><ele>329.5</ele><time>2026-05-02T13:27:33Z</time></trkpt><trkpt lat="44.1211582" lon="10.4090496"><ele>329.0</ele><time>2026-05-02T13:27:33.995Z</time></trkpt><trkpt lat="44.1210845" lon="10.4090444"><ele>328.5</ele><time>2026-05-02T13:27:35Z</time></trkpt><trkpt lat="44.1210094" lon="10.4090342"><ele>328.0</ele><time>2026-05-02T13:27:35.999Z</time></trkpt><trkpt lat="44.120934" lon="10.4090273"><ele>327.5</ele><time>2026-05-02T13:27:36.998Z</time></trkpt><trkpt lat="44.1208584" lon="10.4090188"><ele>327.0</ele><time>2026-05-02T13:27:38Z</time></trkpt><trkpt lat="44.1207802" lon="10.4090153"><ele>325.5</ele><time>2026-05-02T13:27:38.999Z</time></trkpt><trkpt lat="44.1207117" lon="10.4090013"><ele>324.0</ele><time>2026-05-02T13:27:40Z</time></trkpt><trkpt lat="44.1206042" lon="10.4089732"><ele>322.5</ele><time>2026-05-02T13:27:42Z</time></trkpt><trkpt lat="44.1205406" lon="10.4089092"><ele>321.0</ele><time>2026-05-02T13:27:43.999Z</time></trkpt><trkpt lat="44.1205371" lon="10.4088187"><ele>319.5</ele><time>2026-05-02T13:27:45.99Z</time></trkpt><trkpt lat="44.12058" lon="10.4087485"><ele>318.0</ele><time>2026-05-02T13:27:48Z</time></trkpt><trkpt lat="44.1206331" lon="10.4086835"><ele>319.0</ele><time>2026-05-02T13:27:50Z</time></trkpt><trkpt lat="44.120685" lon="10.4086062"><ele>320.0</ele><time>2026-05-02T13:27:51.996Z</time></trkpt><trkpt lat="44.120729" lon="10.4085264"><ele>321.0</ele><time>2026-05-02T13:27:53.997Z</time></trkpt><trkpt lat="44.1207698" lon="10.4084434"><ele>322.0</ele><time>2026-05-02T13:27:55.992Z</time></trkpt><trkpt lat="44.1208199" lon="10.4083667"><ele>323.0</ele><time>2026-05-02T13:27:57.987Z</time></trkpt><trkpt lat="44.1208692" lon="10.4082899"><ele>324.0</ele><time>2026-05-02T13:27:59.999Z</time></trkpt><trkpt lat="44.120915" lon="10.408212"><ele>325.0</ele><time>2026-05-02T13:28:01.999Z</time></trkpt><trkpt lat="44.1209602" lon="10.4081329"><ele>325.0</ele><time>2026-05-02T13:28:03.999Z</time></trkpt><trkpt lat="44.1210097" lon="10.408052"><ele>325.0</ele><time>2026-05-02T13:28:06Z</time></trkpt><trkpt lat="44.121061" lon="10.4079738"><ele>325.0</ele><time>2026-05-02T13:28:07.996Z</time></trkpt><trkpt lat="44.1211082" lon="10.4078936"><ele>325.0</ele><time>2026-05-02T13:28:10Z</time></trkpt><trkpt lat="44.1211566" lon="10.4078106"><ele>325.0</ele><time>2026-05-02T13:28:11.993Z</time></trkpt><trkpt lat="44.1212055" lon="10.4077322"><ele>325.0</ele><time>2026-05-02T13:28:13.991Z</time></trkpt><trkpt lat="44.1212568" lon="10.4076519"><ele>324.3333333333333</ele><time>2026-05-02T13:28:15.999Z</time></trkpt><trkpt lat="44.1213104" lon="10.4075645"><ele>323.66666666666663</ele><time>2026-05-02T13:28:18Z</time></trkpt><trkpt lat="44.1213608" lon="10.4074735"><ele>323.0</ele><time>2026-05-02T13:28:19.99Z</time></trkpt><trkpt lat="44.1214126" lon="10.4073867"><ele>322.3333333333333</ele><time>2026-05-02T13:28:21.996Z</time></trkpt><trkpt lat="44.1214663" lon="10.4073018"><ele>321.6666666666667</ele><time>2026-05-02T13:28:23.997Z</time></trkpt><trkpt lat="44.1215177" lon="10.4072166"><ele>321.0</ele><time>2026-05-02T13:28:25.995Z</time></trkpt><trkpt lat="44.1215726" lon="10.4071349"><ele>321.0</ele><time>2026-05-02T13:28:28Z</time></trkpt><trkpt lat="44.1216257" lon="10.4070524"><ele>321.0</ele><time>2026-05-02T13:28:29.993Z</time></trkpt><trkpt lat="44.1216778" lon="10.4069756"><ele>321.0</ele><time>2026-05-02T13:28:31.992Z</time></trkpt><trkpt lat="44.1217281" lon="10.4068902"><ele>321.0</ele><time>2026-05-02T13:28:33.998Z</time></trkpt><trkpt lat="44.1217777" lon="10.4068066"><ele>321.0</ele><time>2026-05-02T13:28:36.001Z</time></trkpt><trkpt lat="44.121824" lon="10.4067185"><ele>321.0</ele><time>2026-05-02T13:28:37.999Z</time></trkpt><trkpt lat="44.1218744" lon="10.406636"><ele>321.0</ele><time>2026-05-02T13:28:40Z</time></trkpt><trkpt lat="44.1219279" lon="10.4065548"><ele>321.0</ele><time>2026-05-02T13:28:41.999Z</time></trkpt><trkpt lat="44.1219826" lon="10.4064691"><ele>321.0</ele><time>2026-05-02T13:28:44Z</time></trkpt><trkpt lat="44.1220352" lon="10.4063783"><ele>321.0</ele><time>2026-05-02T13:28:46Z</time></trkpt><trkpt lat="44.1220913" lon="10.4062917"><ele>321.0</ele><time>2026-05-02T13:28:47.998Z</time></trkpt><trkpt lat="44.1221467" lon="10.4062078"><ele>321.0</ele><time>2026-05-02T13:28:49.996Z</time></trkpt><trkpt lat="44.122201" lon="10.4061182"><ele>321.5</ele><time>2026-05-02T13:28:51.994Z</time></trkpt><trkpt lat="44.1222528" lon="10.4060287"><ele>322.0</ele><time>2026-05-02T13:28:54Z</time></trkpt><trkpt lat="44.1223059" lon="10.4059409"><ele>322.5</ele><time>2026-05-02T13:28:55.997Z</time></trkpt><trkpt lat="44.1223645" lon="10.4058573"><ele>323.0</ele><time>2026-05-02T13:28:58.002Z</time></trkpt><trkpt lat="44.1224153" lon="10.4057694"><ele>323.5</ele><time>2026-05-02T13:28:59.989Z</time></trkpt><trkpt lat="44.1224625" lon="10.4056802"><ele>324.0</ele><time>2026-05-02T13:29:01.995Z</time></trkpt><trkpt lat="44.1225152" lon="10.4055937"><ele>324.0</ele><time>2026-05-02T13:29:04Z</time></trkpt><trkpt lat="44.1225694" lon="10.4055139"><ele>324.0</ele><time>2026-05-02T13:29:05.996Z</time></trkpt><trkpt lat="44.1226244" lon="10.4054288"><ele>324.0</ele><time>2026-05-02T13:29:07.99Z</time></trkpt><trkpt lat="44.122674" lon="10.4053385"><ele>324.0</ele><time>2026-05-02T13:29:09.997Z</time></trkpt><trkpt lat="44.1227254" lon="10.4052506"><ele>324.0</ele><time>2026-05-02T13:29:11.995Z</time></trkpt><trkpt lat="44.1227811" lon="10.4051646"><ele>324.0</ele><time>2026-05-02T13:29:14Z</time></trkpt><trkpt lat="44.1228322" lon="10.4050722"><ele>323.8333333333333</ele><time>2026-05-02T13:29:16Z</time></trkpt><trkpt lat="44.122882" lon="10.4049833"><ele>323.6666666666667</ele><time>2026-05-02T13:29:18Z</time></trkpt><trkpt lat="44.122934" lon="10.4048923"><ele>323.5</ele><time>2026-05-02T13:29:19.999Z</time></trkpt><trkpt lat="44.1229885" lon="10.404806"><ele>323.33333333333337</ele><time>2026-05-02T13:29:22Z</time></trkpt><trkpt lat="44.1230449" lon="10.4047172"><ele>323.1666666666667</ele><time>2026-05-02T13:29:23.999Z</time></trkpt><trkpt lat="44.1230991" lon="10.4046303"><ele>323.0</ele><time>2026-05-02T13:29:26Z</time></trkpt><trkpt lat="44.1231528" lon="10.4045414"><ele>323.1666666666667</ele><time>2026-05-02T13:29:28Z</time></trkpt><trkpt lat="44.1232079" lon="10.4044535"><ele>323.33333333333337</ele><time>2026-05-02T13:29:29.994Z</time></trkpt><trkpt lat="44.1232618" lon="10.4043655"><ele>323.5</ele><time>2026-05-02T13:29:31.996Z</time></trkpt><trkpt lat="44.123313" lon="10.4042798"><ele>323.6666666666667</ele><time>2026-05-02T13:29:33.996Z</time></trkpt><trkpt lat="44.1233648" lon="10.4041938"><ele>323.8333333333333</ele><time>2026-05-02T13:29:36Z</time></trkpt><trkpt lat="44.1234172" lon="10.4041075"><ele>324.0</ele><time>2026-05-02T13:29:38Z</time></trkpt><trkpt lat="44.1234689" lon="10.4040193"><ele>324.0</ele><time>2026-05-02T13:29:40Z</time></trkpt><trkpt lat="44.1235181" lon="10.403931"><ele>324.0</ele><time>2026-05-02T13:29:41.995Z</time></trkpt><trkpt lat="44.1235701" lon="10.4038458"><ele>324.0</ele><time>2026-05-02T13:29:44Z</time></trkpt><trkpt lat="44.1236172" lon="10.4037608"><ele>324.0</ele><time>2026-05-02T13:29:45.99Z</time></trkpt><trkpt lat="44.1236667" lon="10.4036781"><ele>324.0</ele><time>2026-05-02T13:29:47.995Z</time></trkpt><trkpt lat="44.1237143" lon="10.4035946"><ele>324.0</ele><time>2026-05-02T13:29:49.998Z</time></trkpt><trkpt lat="44.1237643" lon="10.403512"><ele>324.3333333333333</ele><time>2026-05-02T13:29:51.99Z</time></trkpt><trkpt lat="44.1238178" lon="10.4034322"><ele>324.6666666666667</ele><time>2026-05-02T13:29:54Z</time></trkpt><trkpt lat="44.1238654" lon="10.4033449"><ele>325.0</ele><time>2026-05-02T13:29:56Z</time></trkpt><trkpt lat="44.1239123" lon="10.4032572"><ele>325.33333333333337</ele><time>2026-05-02T13:29:58Z</time></trkpt><trkpt lat="44.123965" lon="10.4031766"><ele>325.6666666666667</ele><time>2026-05-02T13:29:59.992Z</time></trkpt><trkpt lat="44.124018" lon="10.4030967"><ele>326.0</ele><time>2026-05-02T13:30:01.999Z</time></trkpt><trkpt lat="44.1240725" lon="10.4030123"><ele>325.33333333333337</ele><time>2026-05-02T13:30:03.999Z</time></trkpt><trkpt lat="44.1241239" lon="10.4029273"><ele>324.6666666666667</ele><time>2026-05-02T13:30:06Z</time></trkpt><trkpt lat="44.1241751" lon="10.4028408"><ele>324.0</ele><time>2026-05-02T13:30:08Z</time></trkpt><trkpt lat="44.124229" lon="10.4027539"><ele>323.3333333333333</ele><time>2026-05-02T13:30:09.996Z</time></trkpt><trkpt lat="44.1242847" lon="10.4026642"><ele>322.66666666666663</ele><time>2026-05-02T13:30:11.992Z</time></trkpt><trkpt lat="44.1243399" lon="10.4025754"><ele>322.0</ele><time>2026-05-02T13:30:13.995Z</time></trkpt><trkpt lat="44.1243949" lon="10.4024863"><ele>322.0</ele><time>2026-05-02T13:30:16Z</time></trkpt><trkpt lat="44.1244515" lon="10.4023969"><ele>322.0</ele><time>2026-05-02T13:30:18Z</time></trkpt><trkpt lat="44.1245081" lon="10.402312"><ele>322.0</ele><time>2026-05-02T13:30:20Z</time></trkpt><trkpt lat="44.1245675" lon="10.4022287"><ele>322.0</ele><time>2026-05-02T13:30:21.999Z</time></trkpt><trkpt lat="44.124625" lon="10.4021422"><ele>322.0</ele><time>2026-05-02T13:30:24Z</time></trkpt><trkpt lat="44.1246799" lon="10.4020497"><ele>322.0</ele><time>2026-05-02T13:30:25.999Z</time></trkpt><trkpt lat="44.1247337" lon="10.4019578"><ele>322.3333333333333</ele><time>2026-05-02T13:30:28Z</time></trkpt><trkpt lat="44.124789" lon="10.4018643"><ele>322.66666666666663</ele><time>2026-05-02T13:30:29.997Z</time></trkpt><trkpt lat="44.1248449" lon="10.4017698"><ele>323.0</ele><time>2026-05-02T13:30:31.985Z</time></trkpt><trkpt lat="44.1249024" lon="10.4016737"><ele>323.3333333333333</ele><time>2026-05-02T13:30:33.992Z</time></trkpt><trkpt lat="44.1249637" lon="10.4015792"><ele>323.6666666666667</ele><time>2026-05-02T13:30:35.992Z</time></trkpt><trkpt lat="44.1250225" lon="10.4014783"><ele>324.0</ele><time>2026-05-02T13:30:37.999Z</time></trkpt><trkpt lat="44.1250813" lon="10.4013771"><ele>323.3333333333333</ele><time>2026-05-02T13:30:40Z</time></trkpt><trkpt lat="44.1251359" lon="10.4012767"><ele>322.6666666666667</ele><time>2026-05-02T13:30:41.996Z</time></trkpt><trkpt lat="44.1251957" lon="10.4011751"><ele>322.0</ele><time>2026-05-02T13:30:44Z</time></trkpt><trkpt lat="44.1252522" lon="10.4010724"><ele>321.33333333333337</ele><time>2026-05-02T13:30:45.995Z</time></trkpt><trkpt lat="44.1252976" lon="10.4009971"><ele>320.6666666666667</ele><time>2026-05-02T13:30:47.995Z</time></trkpt><trkpt lat="44.1253623" lon="10.4009501"><ele>320.0</ele><time>2026-05-02T13:30:51.993Z</time></trkpt><trkpt lat="44.1254059" lon="10.4008663"><ele>320.0</ele><time>2026-05-02T13:30:56Z</time></trkpt><trkpt lat="44.1254583" lon="10.4007923"><ele>320.0</ele><time>2026-05-02T13:30:58.992Z</time></trkpt><trkpt lat="44.1255098" lon="10.4007094"><ele>320.0</ele><time>2026-05-02T13:31:01.997Z</time></trkpt><trkpt lat="44.1255635" lon="10.4006338"><ele>320.0</ele><time>2026-05-02T13:31:04.997Z</time></trkpt><trkpt lat="44.1256098" lon="10.4005609"><ele>320.0</ele><time>2026-05-02T13:31:08Z</time></trkpt><trkpt lat="44.1256448" lon="10.4004852"><ele>320.0</ele><time>2026-05-02T13:31:10.999Z</time></trkpt><trkpt lat="44.1256198" lon="10.4003873"><ele>320.0</ele><time>2026-05-02T13:31:14.999Z</time></trkpt><trkpt lat="44.1256883" lon="10.4003407"><ele>320.0</ele><time>2026-05-02T13:31:19.999Z</time></trkpt><trkpt lat="44.125763" lon="10.4003352"><ele>320.0</ele><time>2026-05-02T13:31:23.997Z</time></trkpt><trkpt lat="44.125757" lon="10.4002274"><ele>320.0</ele><time>2026-05-02T13:31:28.997Z</time></trkpt><trkpt lat="44.125738" lon="10.4001326"><ele>320.0</ele><time>2026-05-02T13:31:30.994Z</time></trkpt><trkpt lat="44.1257306" lon="10.4000279"><ele>320.0</ele><time>2026-05-02T13:31:33.992Z</time></trkpt><trkpt lat="44.1257611" lon="10.4001125"><ele>320.0</ele><time>2026-05-02T13:31:39Z</time></trkpt><trkpt lat="44.125777" lon="10.4002123"><ele>320.0</ele><time>2026-05-02T13:31:41.991Z</time></trkpt><trkpt lat="44.125791" lon="10.4003151"><ele>320.0</ele><time>2026-05-02T13:31:43.996Z</time></trkpt><trkpt lat="44.125805" lon="10.4004086"><ele>320.0</ele><time>2026-05-02T13:31:45.988Z</time></trkpt><trkpt lat="44.1258841" lon="10.4004321"><ele>320.0</ele><time>2026-05-02T13:31:50Z</time></trkpt><trkpt lat="44.1259436" lon="10.4003815"><ele>320.0</ele><time>2026-05-02T13:31:53.991Z</time></trkpt><trkpt lat="44.1259264" lon="10.4002936"><ele>320.0</ele><time>2026-05-02T13:31:57Z</time></trkpt><trkpt lat="44.1258841" lon="10.4002192"><ele>320.0</ele><time>2026-05-02T13:31:58.996Z</time></trkpt><trkpt lat="44.1258744" lon="10.4001274"><ele>320.0</ele><time>2026-05-02T13:32:00.997Z</time></trkpt><trkpt lat="44.1259358" lon="10.4000473"><ele>320.0</ele><time>2026-05-02T13:32:02.997Z</time></trkpt><trkpt lat="44.1260088" lon="10.3999643"><ele>320.0</ele><time>2026-05-02T13:32:04.998Z</time></trkpt><trkpt lat="44.1261157" lon="10.3998909"><ele>320.0</ele><time>2026-05-02T13:32:07Z</time></trkpt><trkpt lat="44.1262392" lon="10.3998318"><ele>320.0</ele><time>2026-05-02T13:32:09Z</time></trkpt><trkpt lat="44.1263099" lon="10.3998087"><ele>320.0</ele><time>2026-05-02T13:32:10Z</time></trkpt><trkpt lat="44.1263814" lon="10.399777"><ele>320.0</ele><time>2026-05-02T13:32:11Z</time></trkpt><trkpt lat="44.1264484" lon="10.3997441"><ele>320.0</ele><time>2026-05-02T13:32:11.999Z</time></trkpt><trkpt lat="44.126515" lon="10.3997118"><ele>320.0</ele><time>2026-05-02T13:32:12.991Z</time></trkpt><trkpt lat="44.1265872" lon="10.3996841"><ele>320.0</ele><time>2026-05-02T13:32:14Z</time></trkpt><trkpt lat="44.126659" lon="10.399654"><ele>320.0</ele><time>2026-05-02T13:32:14.994Z</time></trkpt><trkpt lat="44.1267328" lon="10.3996195"><ele>320.0</ele><time>2026-05-02T13:32:15.999Z</time></trkpt><trkpt lat="44.1268068" lon="10.3995828"><ele>320.0</ele><time>2026-05-02T13:32:17Z</time></trkpt><trkpt lat="44.1268744" lon="10.3995499"><ele>319.0</ele><time>2026-05-02T13:32:17.997Z</time></trkpt><trkpt lat="44.1269399" lon="10.3994916"><ele>318.0</ele><time>2026-05-02T13:32:19Z</time></trkpt><trkpt lat="44.1269872" lon="10.3994076"><ele>317.0</ele><time>2026-05-02T13:32:20Z</time></trkpt><trkpt lat="44.127021" lon="10.3993195"><ele>316.0</ele><time>2026-05-02T13:32:20.999Z</time></trkpt><trkpt lat="44.1270403" lon="10.3992334"><ele>315.0</ele><time>2026-05-02T13:32:21.992Z</time></trkpt><trkpt lat="44.1270131" lon="10.3990816"><ele>314.0</ele><time>2026-05-02T13:32:23.999Z</time></trkpt><trkpt lat="44.126971" lon="10.3989638"><ele>313.99999999999994</ele><time>2026-05-02T13:32:26Z</time></trkpt><trkpt lat="44.1269324" lon="10.3988697"><ele>314.0</ele><time>2026-05-02T13:32:27.997Z</time></trkpt><trkpt lat="44.1268899" lon="10.3987937"><ele>314.0</ele><time>2026-05-02T13:32:51.996Z</time></trkpt><trkpt lat="44.1268494" lon="10.398704"><ele>314.0</ele><time>2026-05-02T13:32:55.996Z</time></trkpt><trkpt lat="44.1268155" lon="10.3986184"><ele>314.0</ele><time>2026-05-02T13:32:59Z</time></trkpt><trkpt lat="44.1267806" lon="10.3985345"><ele>313.99999999999994</ele><time>2026-05-02T13:33:01.987Z</time></trkpt><trkpt lat="44.1267443" lon="10.3984449"><ele>314.0</ele><time>2026-05-02T13:33:04.986Z</time></trkpt><trkpt lat="44.1267098" lon="10.3983601"><ele>315.33333333333337</ele><time>2026-05-02T13:33:07.989Z</time></trkpt><trkpt lat="44.1266792" lon="10.3982664"><ele>316.6666666666667</ele><time>2026-05-02T13:33:10.994Z</time></trkpt><trkpt lat="44.1266409" lon="10.398175"><ele>318.0</ele><time>2026-05-02T13:33:14Z</time></trkpt><trkpt lat="44.1266054" lon="10.398083"><ele>319.3333333333333</ele><time>2026-05-02T13:33:17Z</time></trkpt><trkpt lat="44.1265727" lon="10.3979854"><ele>320.66666666666663</ele><time>2026-05-02T13:33:19.985Z</time></trkpt><trkpt lat="44.1265641" lon="10.3978823"><ele>322.0</ele><time>2026-05-02T13:33:22.995Z</time></trkpt><trkpt lat="44.1265714" lon="10.3977778"><ele>322.5</ele><time>2026-05-02T13:33:25.998Z</time></trkpt><trkpt lat="44.1265984" lon="10.3976735"><ele>323.0</ele><time>2026-05-02T13:33:28.987Z</time></trkpt><trkpt lat="44.1266441" lon="10.3975831"><ele>323.5</ele><time>2026-05-02T13:33:31.991Z</time></trkpt><trkpt lat="44.1266972" lon="10.3974979"><ele>324.0</ele><time>2026-05-02T13:33:35Z</time></trkpt><trkpt lat="44.1267535" lon="10.3974158"><ele>324.5</ele><time>2026-05-02T13:33:37.998Z</time></trkpt><trkpt lat="44.1267978" lon="10.3973221"><ele>325.0</ele><time>2026-05-02T13:33:40.988Z</time></trkpt><trkpt lat="44.1268391" lon="10.3972224"><ele>323.8333333333333</ele><time>2026-05-02T13:33:43.995Z</time></trkpt><trkpt lat="44.1268786" lon="10.3971291"><ele>322.66666666666663</ele><time>2026-05-02T13:33:46.999Z</time></trkpt><trkpt lat="44.1269186" lon="10.3970306"><ele>321.5</ele><time>2026-05-02T13:33:50Z</time></trkpt><trkpt lat="44.1269564" lon="10.396935"><ele>320.3333333333333</ele><time>2026-05-02T13:33:52.99Z</time></trkpt><trkpt lat="44.1269932" lon="10.3968377"><ele>319.1666666666667</ele><time>2026-05-02T13:33:55.999Z</time></trkpt><trkpt lat="44.1270361" lon="10.3967466"><ele>318.0</ele><time>2026-05-02T13:33:58.997Z</time></trkpt><trkpt lat="44.1270847" lon="10.3966566"><ele>318.0</ele><time>2026-05-02T13:34:01.992Z</time></trkpt><trkpt lat="44.1271346" lon="10.3965675"><ele>318.0</ele><time>2026-05-02T13:34:04.999Z</time></trkpt><trkpt lat="44.1271825" lon="10.3964764"><ele>318.0</ele><time>2026-05-02T13:34:07.99Z</time></trkpt><trkpt lat="44.1272336" lon="10.3963908"><ele>318.0</ele><time>2026-05-02T13:34:10.99Z</time></trkpt><trkpt lat="44.1272837" lon="10.3963036"><ele>318.0</ele><time>2026-05-02T13:34:14Z</time></trkpt><trkpt lat="44.1273321" lon="10.3962164"><ele>318.0</ele><time>2026-05-02T13:34:17Z</time></trkpt><trkpt lat="44.1273827" lon="10.3961225"><ele>319.1666666666667</ele><time>2026-05-02T13:34:19.987Z</time></trkpt><trkpt lat="44.1274276" lon="10.3960224"><ele>320.3333333333333</ele><time>2026-05-02T13:34:22.999Z</time></trkpt><trkpt lat="44.1274696" lon="10.3959211"><ele>321.5</ele><time>2026-05-02T13:34:25.986Z</time></trkpt><trkpt lat="44.1274987" lon="10.395814"><ele>322.66666666666663</ele><time>2026-05-02T13:34:28.996Z</time></trkpt><trkpt lat="44.1275264" lon="10.3957126"><ele>323.8333333333333</ele><time>2026-05-02T13:34:32Z</time></trkpt><trkpt lat="44.1275538" lon="10.3956056"><ele>325.0</ele><time>2026-05-02T13:34:34.998Z</time></trkpt><trkpt lat="44.1275726" lon="10.3954985"><ele>325.0</ele><time>2026-05-02T13:34:37.99Z</time></trkpt><trkpt lat="44.1275862" lon="10.3953867"><ele>325.0</ele><time>2026-05-02T13:34:40.997Z</time></trkpt><trkpt lat="44.1276007" lon="10.3952707"><ele>325.0</ele><time>2026-05-02T13:34:44Z</time></trkpt><trkpt lat="44.1276122" lon="10.3951423"><ele>325.0</ele><time>2026-05-02T13:34:46.994Z</time></trkpt><trkpt lat="44.1276235" lon="10.3950251"><ele>325.0</ele><time>2026-05-02T13:34:50Z</time></trkpt><trkpt lat="44.1276279" lon="10.3949359"><ele>325.0</ele><time>2026-05-02T13:34:52Z</time></trkpt><trkpt lat="44.1276357" lon="10.3948482"><ele>325.0</ele><time>2026-05-02T13:34:53.997Z</time></trkpt><trkpt lat="44.127651" lon="10.3947303"><ele>325.0</ele><time>2026-05-02T13:34:56.988Z</time></trkpt><trkpt lat="44.1276614" lon="10.3946077"><ele>325.0</ele><time>2026-05-02T13:34:59.992Z</time></trkpt><trkpt lat="44.1276753" lon="10.3944866"><ele>325.0</ele><time>2026-05-02T13:35:02.994Z</time></trkpt><trkpt lat="44.1276922" lon="10.3943592"><ele>325.0</ele><time>2026-05-02T13:35:05.988Z</time></trkpt><trkpt lat="44.1277057" lon="10.3942721"><ele>325.0</ele><time>2026-05-02T13:35:07.995Z</time></trkpt><trkpt lat="44.1277386" lon="10.3941521"><ele>324.8333333333333</ele><time>2026-05-02T13:35:10.999Z</time></trkpt><trkpt lat="44.1277844" lon="10.3940378"><ele>324.66666666666663</ele><time>2026-05-02T13:35:14Z</time></trkpt><trkpt lat="44.1278211" lon="10.3939659"><ele>324.5</ele><time>2026-05-02T13:35:16Z</time></trkpt><trkpt lat="44.1278688" lon="10.3939048"><ele>324.3333333333333</ele><time>2026-05-02T13:35:18Z</time></trkpt><trkpt lat="44.1279462" lon="10.3938282"><ele>324.1666666666667</ele><time>2026-05-02T13:35:20.996Z</time></trkpt><trkpt lat="44.1280285" lon="10.3937673"><ele>324.0</ele><time>2026-05-02T13:35:24Z</time></trkpt><trkpt lat="44.1280867" lon="10.3937327"><ele>323.8571428571429</ele><time>2026-05-02T13:35:26Z</time></trkpt><trkpt lat="44.1281485" lon="10.3937091"><ele>323.7142857142857</ele><time>2026-05-02T13:35:28Z</time></trkpt><trkpt lat="44.128212" lon="10.3936815"><ele>323.57142857142856</ele><time>2026-05-02T13:35:29.985Z</time></trkpt><trkpt lat="44.128274" lon="10.3936559"><ele>323.42857142857144</ele><time>2026-05-02T13:35:31.999Z</time></trkpt><trkpt lat="44.1283359" lon="10.3936336"><ele>323.2857142857143</ele><time>2026-05-02T13:35:33.996Z</time></trkpt><trkpt lat="44.128396" lon="10.3936073"><ele>323.14285714285717</ele><time>2026-05-02T13:35:35.986Z</time></trkpt><trkpt lat="44.1284579" lon="10.3935843"><ele>323.0</ele><time>2026-05-02T13:35:38Z</time></trkpt><trkpt lat="44.1285191" lon="10.3935583"><ele>324.42857142857144</ele><time>2026-05-02T13:35:39.999Z</time></trkpt><trkpt lat="44.1285809" lon="10.3935339"><ele>325.8571428571429</ele><time>2026-05-02T13:35:42Z</time></trkpt><trkpt lat="44.1286433" lon="10.3935086"><ele>327.28571428571433</ele><time>2026-05-02T13:35:43.993Z</time></trkpt><trkpt lat="44.1287037" lon="10.3934771"><ele>328.7142857142857</ele><time>2026-05-02T13:35:45.995Z</time></trkpt><trkpt lat="44.1287631" lon="10.3934384"><ele>330.1428571428571</ele><time>2026-05-02T13:35:48Z</time></trkpt><trkpt lat="44.1288217" lon="10.3933995"><ele>331.5714285714286</ele><time>2026-05-02T13:35:49.996Z</time></trkpt><trkpt lat="44.1288762" lon="10.3933538"><ele>333.0</ele><time>2026-05-02T13:35:51.997Z</time></trkpt><trkpt lat="44.1289321" lon="10.3933088"><ele>333.0</ele><time>2026-05-02T13:35:53.988Z</time></trkpt><trkpt lat="44.1289909" lon="10.3932632"><ele>333.0</ele><time>2026-05-02T13:35:55.998Z</time></trkpt><trkpt lat="44.1290451" lon="10.3932162"><ele>333.0</ele><time>2026-05-02T13:35:57.993Z</time></trkpt><trkpt lat="44.1291194" lon="10.3931336"><ele>333.0</ele><time>2026-05-02T13:36:00.996Z</time></trkpt><trkpt lat="44.129168" lon="10.3930733"><ele>333.0</ele><time>2026-05-02T13:36:02.999Z</time></trkpt><trkpt lat="44.12922" lon="10.3930194"><ele>333.0</ele><time>2026-05-02T13:36:04.998Z</time></trkpt><trkpt lat="44.1292675" lon="10.3929618"><ele>333.0</ele><time>2026-05-02T13:36:07Z</time></trkpt><trkpt lat="44.1293117" lon="10.3928929"><ele>333.3333333333333</ele><time>2026-05-02T13:36:08.996Z</time></trkpt><trkpt lat="44.1293556" lon="10.3928213"><ele>333.6666666666667</ele><time>2026-05-02T13:36:10.989Z</time></trkpt><trkpt lat="44.1293963" lon="10.3927471"><ele>334.0</ele><time>2026-05-02T13:36:13Z</time></trkpt><trkpt lat="44.1294376" lon="10.39268"><ele>334.33333333333337</ele><time>2026-05-02T13:36:15Z</time></trkpt><trkpt lat="44.1294975" lon="10.3925784"><ele>334.6666666666667</ele><time>2026-05-02T13:36:18Z</time></trkpt><trkpt lat="44.1295387" lon="10.3925112"><ele>335.0</ele><time>2026-05-02T13:36:20Z</time></trkpt><trkpt lat="44.1295974" lon="10.392409"><ele>334.99999999999994</ele><time>2026-05-02T13:36:22.999Z</time></trkpt><trkpt lat="44.1296428" lon="10.3923445"><ele>335.0</ele><time>2026-05-02T13:36:25Z</time></trkpt><trkpt lat="44.1296979" lon="10.3922929"><ele>335.0</ele><time>2026-05-02T13:36:26.994Z</time></trkpt><trkpt lat="44.1297539" lon="10.3922504"><ele>335.0</ele><time>2026-05-02T13:36:28.986Z</time></trkpt><trkpt lat="44.1298129" lon="10.3922139"><ele>335.0</ele><time>2026-05-02T13:36:30.999Z</time></trkpt><trkpt lat="44.1298998" lon="10.3921769"><ele>334.99999999999994</ele><time>2026-05-02T13:36:33.992Z</time></trkpt><trkpt lat="44.1299889" lon="10.39215"><ele>335.0</ele><time>2026-05-02T13:36:36.996Z</time></trkpt><trkpt lat="44.130081" lon="10.3921261"><ele>335.4285714285714</ele><time>2026-05-02T13:36:39.998Z</time></trkpt><trkpt lat="44.1301714" lon="10.3920964"><ele>335.85714285714283</ele><time>2026-05-02T13:36:42.999Z</time></trkpt><trkpt lat="44.1302349" lon="10.3920781"><ele>336.2857142857143</ele><time>2026-05-02T13:36:44.997Z</time></trkpt><trkpt lat="44.1302993" lon="10.392065"><ele>336.71428571428567</ele><time>2026-05-02T13:36:46.988Z</time></trkpt><trkpt lat="44.1303626" lon="10.3920474"><ele>337.1428571428571</ele><time>2026-05-02T13:36:48.989Z</time></trkpt><trkpt lat="44.1304264" lon="10.3920293"><ele>337.57142857142856</ele><time>2026-05-02T13:36:50.997Z</time></trkpt><trkpt lat="44.1304903" lon="10.3920128"><ele>338.0</ele><time>2026-05-02T13:36:52.989Z</time></trkpt><trkpt lat="44.1305829" lon="10.391992"><ele>338.0</ele><time>2026-05-02T13:36:56Z</time></trkpt><trkpt lat="44.1306472" lon="10.3919831"><ele>338.0</ele><time>2026-05-02T13:36:57.993Z</time></trkpt><trkpt lat="44.1307105" lon="10.3919875"><ele>338.0</ele><time>2026-05-02T13:37:00Z</time></trkpt><trkpt lat="44.1307996" lon="10.3920041"><ele>338.0</ele><time>2026-05-02T13:37:02.995Z</time></trkpt><trkpt lat="44.1308899" lon="10.3920312"><ele>338.0</ele><time>2026-05-02T13:37:05.989Z</time></trkpt><trkpt lat="44.1309718" lon="10.3920524"><ele>338.0</ele><time>2026-05-02T13:37:09Z</time></trkpt><trkpt lat="44.1310356" lon="10.3920671"><ele>338.6666666666667</ele><time>2026-05-02T13:37:10.992Z</time></trkpt><trkpt lat="44.1311227" lon="10.3920817"><ele>339.33333333333337</ele><time>2026-05-02T13:37:14Z</time></trkpt><trkpt lat="44.1312076" lon="10.3921053"><ele>340.0</ele><time>2026-05-02T13:37:16.998Z</time></trkpt><trkpt lat="44.1312991" lon="10.3921295"><ele>340.6666666666667</ele><time>2026-05-02T13:37:19.992Z</time></trkpt><trkpt lat="44.1313639" lon="10.3921558"><ele>341.3333333333333</ele><time>2026-05-02T13:37:21.997Z</time></trkpt><trkpt lat="44.1314271" lon="10.3921887"><ele>342.0</ele><time>2026-05-02T13:37:23.998Z</time></trkpt><trkpt lat="44.1314846" lon="10.39223"><ele>344.5</ele><time>2026-05-02T13:37:25.996Z</time></trkpt><trkpt lat="44.1315439" lon="10.3922703"><ele>347.0</ele><time>2026-05-02T13:37:27.984Z</time></trkpt><trkpt lat="44.1316022" lon="10.3923092"><ele>349.5</ele><time>2026-05-02T13:37:29.999Z</time></trkpt><trkpt lat="44.1316837" lon="10.3923759"><ele>352.0</ele><time>2026-05-02T13:37:32.992Z</time></trkpt><trkpt lat="44.1317639" lon="10.3924445"><ele>354.5</ele><time>2026-05-02T13:37:35.991Z</time></trkpt><trkpt lat="44.1318449" lon="10.3925089"><ele>357.0</ele><time>2026-05-02T13:37:38.992Z</time></trkpt><trkpt lat="44.1319244" lon="10.3925703"><ele>357.0</ele><time>2026-05-02T13:37:41.99Z</time></trkpt><trkpt lat="44.1320035" lon="10.3926296"><ele>357.0</ele><time>2026-05-02T13:37:44.991Z</time></trkpt><trkpt lat="44.1320823" lon="10.3926786"><ele>357.0</ele><time>2026-05-02T13:37:47.992Z</time></trkpt><trkpt lat="44.132163" lon="10.3927067"><ele>357.0</ele><time>2026-05-02T13:37:50.998Z</time></trkpt><trkpt lat="44.1322479" lon="10.3927204"><ele>357.0</ele><time>2026-05-02T13:37:53.995Z</time></trkpt><trkpt lat="44.1323347" lon="10.3927121"><ele>357.0</ele><time>2026-05-02T13:37:56.998Z</time></trkpt><trkpt lat="44.1324002" lon="10.3927001"><ele>355.7142857142857</ele><time>2026-05-02T13:37:59Z</time></trkpt><trkpt lat="44.1324651" lon="10.392686"><ele>354.42857142857144</ele><time>2026-05-02T13:38:01Z</time></trkpt><trkpt lat="44.1325339" lon="10.3926764"><ele>353.1428571428571</ele><time>2026-05-02T13:38:02.992Z</time></trkpt><trkpt lat="44.1326053" lon="10.3926588"><ele>351.8571428571429</ele><time>2026-05-02T13:38:04.988Z</time></trkpt><trkpt lat="44.1326777" lon="10.3926435"><ele>350.57142857142856</ele><time>2026-05-02T13:38:06.994Z</time></trkpt><trkpt lat="44.1327541" lon="10.3926231"><ele>349.2857142857143</ele><time>2026-05-02T13:38:08.999Z</time></trkpt><trkpt lat="44.132832" lon="10.3926119"><ele>348.0</ele><time>2026-05-02T13:38:10.997Z</time></trkpt><trkpt lat="44.1329195" lon="10.392622"><ele>348.0</ele><time>2026-05-02T13:38:12.998Z</time></trkpt><trkpt lat="44.1330153" lon="10.3926678"><ele>348.0</ele><time>2026-05-02T13:38:14.989Z</time></trkpt><trkpt lat="44.133125" lon="10.392727"><ele>348.0</ele><time>2026-05-02T13:38:16.988Z</time></trkpt><trkpt lat="44.1332372" lon="10.3927924"><ele>348.0</ele><time>2026-05-02T13:38:18.991Z</time></trkpt><trkpt lat="44.1333519" lon="10.3928594"><ele>348.1666666666667</ele><time>2026-05-02T13:38:20.99Z</time></trkpt><trkpt lat="44.1334664" lon="10.3929345"><ele>348.3333333333333</ele><time>2026-05-02T13:38:22.999Z</time></trkpt><trkpt lat="44.1335283" lon="10.3929686"><ele>348.5</ele><time>2026-05-02T13:38:23.992Z</time></trkpt><trkpt lat="44.1335878" lon="10.3929991"><ele>348.66666666666663</ele><time>2026-05-02T13:38:25Z</time></trkpt><trkpt lat="44.1336534" lon="10.3930245"><ele>348.8333333333333</ele><time>2026-05-02T13:38:25.999Z</time></trkpt><trkpt lat="44.1337235" lon="10.3930402"><ele>349.0</ele><time>2026-05-02T13:38:26.998Z</time></trkpt><trkpt lat="44.1337932" lon="10.3930493"><ele>349.0</ele><time>2026-05-02T13:38:27.992Z</time></trkpt><trkpt lat="44.1338697" lon="10.3930609"><ele>349.0</ele><time>2026-05-02T13:38:28.992Z</time></trkpt><trkpt lat="44.1339473" lon="10.39306"><ele>349.0</ele><time>2026-05-02T13:38:29.989Z</time></trkpt><trkpt lat="44.134029" lon="10.3930597"><ele>349.0</ele><time>2026-05-02T13:38:30.988Z</time></trkpt><trkpt lat="44.1341085" lon="10.393047"><ele>349.0</ele><time>2026-05-02T13:38:31.998Z</time></trkpt><trkpt lat="44.1341869" lon="10.3930231"><ele>349.0</ele><time>2026-05-02T13:38:32.999Z</time></trkpt><trkpt lat="44.1342683" lon="10.3929821"><ele>346.6</ele><time>2026-05-02T13:38:34Z</time></trkpt><trkpt lat="44.134346" lon="10.3929227"><ele>344.2</ele><time>2026-05-02T13:38:34.994Z</time></trkpt><trkpt lat="44.1344227" lon="10.3928632"><ele>341.8</ele><time>2026-05-02T13:38:35.992Z</time></trkpt><trkpt lat="44.1345005" lon="10.392804"><ele>339.40000000000003</ele><time>2026-05-02T13:38:36.987Z</time></trkpt><trkpt lat="44.1345981" lon="10.3927806"><ele>337.0</ele><time>2026-05-02T13:38:37.991Z</time></trkpt><trkpt lat="44.1346954" lon="10.3927728"><ele>337.0</ele><time>2026-05-02T13:38:38.996Z</time></trkpt><trkpt lat="44.134795" lon="10.3927702"><ele>337.0</ele><time>2026-05-02T13:38:39.984Z</time></trkpt><trkpt lat="44.134896" lon="10.3927558"><ele>337.0</ele><time>2026-05-02T13:38:40.985Z</time></trkpt><trkpt lat="44.1349928" lon="10.392724"><ele>337.0</ele><time>2026-05-02T13:38:41.992Z</time></trkpt><trkpt lat="44.1350915" lon="10.3926756"><ele>337.0</ele><time>2026-05-02T13:38:43Z</time></trkpt><trkpt lat="44.1351779" lon="10.3926099"><ele>336.5</ele><time>2026-05-02T13:38:43.986Z</time></trkpt><trkpt lat="44.1352529" lon="10.3925368"><ele>336.0</ele><time>2026-05-02T13:38:44.998Z</time></trkpt><trkpt lat="44.1353311" lon="10.3924679"><ele>335.5</ele><time>2026-05-02T13:38:45.997Z</time></trkpt><trkpt lat="44.1353967" lon="10.3923957"><ele>335.0</ele><time>2026-05-02T13:38:47Z</time></trkpt><trkpt lat="44.1354531" lon="10.3923158"><ele>334.5</ele><time>2026-05-02T13:38:47.998Z</time></trkpt><trkpt lat="44.1354922" lon="10.392231"><ele>334.0</ele><time>2026-05-02T13:38:48.989Z</time></trkpt><trkpt lat="44.1355149" lon="10.3921484"><ele>333.8333333333333</ele><time>2026-05-02T13:38:49.989Z</time></trkpt><trkpt lat="44.1355181" lon="10.3920216"><ele>333.66666666666663</ele><time>2026-05-02T13:38:52Z</time></trkpt><trkpt lat="44.1354941" lon="10.3919036"><ele>333.5</ele><time>2026-05-02T13:38:54.988Z</time></trkpt><trkpt lat="44.1354433" lon="10.3918194"><ele>333.3333333333333</ele><time>2026-05-02T13:38:58Z</time></trkpt><trkpt lat="44.1354025" lon="10.3917523"><ele>333.1666666666667</ele><time>2026-05-02T13:39:00.993Z</time></trkpt><trkpt lat="44.1353457" lon="10.3916709"><ele>333.0</ele><time>2026-05-02T13:39:04.989Z</time></trkpt><trkpt lat="44.1353038" lon="10.391604"><ele>333.0</ele><time>2026-05-02T13:39:08Z</time></trkpt><trkpt lat="44.1352666" lon="10.3915268"><ele>333.0</ele><time>2026-05-02T13:39:10.989Z</time></trkpt><trkpt lat="44.1352266" lon="10.3914457"><ele>333.0</ele><time>2026-05-02T13:39:13.995Z</time></trkpt><trkpt lat="44.1351849" lon="10.3913733"><ele>333.0</ele><time>2026-05-02T13:39:16.989Z</time></trkpt><trkpt lat="44.1351402" lon="10.3912978"><ele>333.0</ele><time>2026-05-02T13:39:19.993Z</time></trkpt><trkpt lat="44.1350974" lon="10.3912257"><ele>333.0</ele><time>2026-05-02T13:39:22.99Z</time></trkpt><trkpt lat="44.1350505" lon="10.3911373"><ele>333.0</ele><time>2026-05-02T13:39:27Z</time></trkpt><trkpt lat="44.1350157" lon="10.3910592"><ele>332.5714285714286</ele><time>2026-05-02T13:39:29.996Z</time></trkpt><trkpt lat="44.1349863" lon="10.3909774"><ele>332.1428571428571</ele><time>2026-05-02T13:39:32.995Z</time></trkpt><trkpt lat="44.1349536" lon="10.3908969"><ele>331.7142857142857</ele><time>2026-05-02T13:39:35.991Z</time></trkpt><trkpt lat="44.134925" lon="10.3908184"><ele>331.28571428571433</ele><time>2026-05-02T13:39:39Z</time></trkpt><trkpt lat="44.1348917" lon="10.3907315"><ele>330.8571428571429</ele><time>2026-05-02T13:39:41.985Z</time></trkpt><trkpt lat="44.1348579" lon="10.3906506"><ele>330.42857142857144</ele><time>2026-05-02T13:39:44.995Z</time></trkpt><trkpt lat="44.1348232" lon="10.3905651"><ele>330.0</ele><time>2026-05-02T13:39:47.995Z</time></trkpt><trkpt lat="44.1347935" lon="10.3904794"><ele>330.00000000000006</ele><time>2026-05-02T13:39:50.996Z</time></trkpt><trkpt lat="44.1347607" lon="10.390401"><ele>330.0</ele><time>2026-05-02T13:39:53.991Z</time></trkpt><trkpt lat="44.1347296" lon="10.3903226"><ele>330.0</ele><time>2026-05-02T13:39:56.999Z</time></trkpt><trkpt lat="44.1346945" lon="10.3902177"><ele>330.0</ele><time>2026-05-02T13:40:00.997Z</time></trkpt><trkpt lat="44.1346702" lon="10.3901354"><ele>330.0</ele><time>2026-05-02T13:40:03.994Z</time></trkpt><trkpt lat="44.1346423" lon="10.3900555"><ele>330.00000000000006</ele><time>2026-05-02T13:40:06.987Z</time></trkpt><trkpt lat="44.1346222" lon="10.3899679"><ele>330.0</ele><time>2026-05-02T13:40:09.989Z</time></trkpt><trkpt lat="44.1346011" lon="10.3898639"><ele>330.0</ele><time>2026-05-02T13:40:13.987Z</time></trkpt><trkpt lat="44.1346008" lon="10.3897735"><ele>330.0</ele><time>2026-05-02T13:40:16.996Z</time></trkpt><trkpt lat="44.1346211" lon="10.3896724"><ele>330.0</ele><time>2026-05-02T13:40:19.986Z</time></trkpt><trkpt lat="44.1346562" lon="10.3895687"><ele>330.0</ele><time>2026-05-02T13:40:22.982Z</time></trkpt><trkpt lat="44.1346879" lon="10.3894711"><ele>330.0</ele><time>2026-05-02T13:40:25.989Z</time></trkpt><trkpt lat="44.1347179" lon="10.3893698"><ele>330.0</ele><time>2026-05-02T13:40:28.992Z</time></trkpt><trkpt lat="44.1347507" lon="10.3892661"><ele>331.8333333333333</ele><time>2026-05-02T13:40:31.99Z</time></trkpt><trkpt lat="44.1347789" lon="10.389164"><ele>333.6666666666667</ele><time>2026-05-02T13:40:34.987Z</time></trkpt><trkpt lat="44.1347993" lon="10.3890564"><ele>335.5</ele><time>2026-05-02T13:40:37.984Z</time></trkpt><trkpt lat="44.1348091" lon="10.3889486"><ele>337.33333333333337</ele><time>2026-05-02T13:40:40.987Z</time></trkpt><trkpt lat="44.1348138" lon="10.388846"><ele>339.1666666666667</ele><time>2026-05-02T13:40:43.987Z</time></trkpt><trkpt lat="44.1348233" lon="10.3887409"><ele>341.0</ele><time>2026-05-02T13:40:46.985Z</time></trkpt><trkpt lat="44.1348328" lon="10.3886351"><ele>341.5</ele><time>2026-05-02T13:40:49.989Z</time></trkpt><trkpt lat="44.134849" lon="10.3885287"><ele>342.0</ele><time>2026-05-02T13:40:52.987Z</time></trkpt><trkpt lat="44.1348694" lon="10.3884228"><ele>342.5</ele><time>2026-05-02T13:40:55.991Z</time></trkpt><trkpt lat="44.134906" lon="10.3883083"><ele>343.0</ele><time>2026-05-02T13:40:58.987Z</time></trkpt><trkpt lat="44.1349423" lon="10.3881962"><ele>343.5</ele><time>2026-05-02T13:41:01.996Z</time></trkpt><trkpt lat="44.1349782" lon="10.3880837"><ele>344.0</ele><time>2026-05-02T13:41:04.992Z</time></trkpt><trkpt lat="44.1350131" lon="10.3879743"><ele>345.83333333333337</ele><time>2026-05-02T13:41:07.998Z</time></trkpt><trkpt lat="44.1350512" lon="10.3878673"><ele>347.6666666666667</ele><time>2026-05-02T13:41:10.998Z</time></trkpt><trkpt lat="44.1350913" lon="10.3877586"><ele>349.5</ele><time>2026-05-02T13:41:13.996Z</time></trkpt><trkpt lat="44.1351303" lon="10.3876528"><ele>351.3333333333333</ele><time>2026-05-02T13:41:16.99Z</time></trkpt><trkpt lat="44.1351698" lon="10.3875419"><ele>353.16666666666663</ele><time>2026-05-02T13:41:19.997Z</time></trkpt><trkpt lat="44.1352073" lon="10.3874334"><ele>355.0</ele><time>2026-05-02T13:41:22.985Z</time></trkpt><trkpt lat="44.1352457" lon="10.3873241"><ele>355.0</ele><time>2026-05-02T13:41:25.997Z</time></trkpt><trkpt lat="44.1352857" lon="10.3872153"><ele>355.0</ele><time>2026-05-02T13:41:28.997Z</time></trkpt><trkpt lat="44.1353329" lon="10.3871083"><ele>355.0</ele><time>2026-05-02T13:41:31.988Z</time></trkpt><trkpt lat="44.1353947" lon="10.3870226"><ele>355.0</ele><time>2026-05-02T13:41:34.997Z</time></trkpt><trkpt lat="44.1354729" lon="10.3869582"><ele>355.0</ele><time>2026-05-02T13:41:37.986Z</time></trkpt><trkpt lat="44.1355307" lon="10.3869208"><ele>355.0</ele><time>2026-05-02T13:41:39.999Z</time></trkpt><trkpt lat="44.1356145" lon="10.3868726"><ele>354.3333333333333</ele><time>2026-05-02T13:41:42.998Z</time></trkpt><trkpt lat="44.1356981" lon="10.3868244"><ele>353.66666666666663</ele><time>2026-05-02T13:41:45.983Z</time></trkpt><trkpt lat="44.1357801" lon="10.3867833"><ele>353.0</ele><time>2026-05-02T13:41:48.986Z</time></trkpt><trkpt lat="44.1358664" lon="10.3867516"><ele>352.3333333333333</ele><time>2026-05-02T13:41:51.995Z</time></trkpt><trkpt lat="44.135949" lon="10.3867218"><ele>351.6666666666667</ele><time>2026-05-02T13:41:54.992Z</time></trkpt><trkpt lat="44.1360337" lon="10.3866931"><ele>351.0</ele><time>2026-05-02T13:41:57.99Z</time></trkpt><trkpt lat="44.1361194" lon="10.3866571"><ele>352.3333333333333</ele><time>2026-05-02T13:42:00.987Z</time></trkpt><trkpt lat="44.1362026" lon="10.3866221"><ele>353.6666666666667</ele><time>2026-05-02T13:42:03.995Z</time></trkpt><trkpt lat="44.1362826" lon="10.3865816"><ele>355.0</ele><time>2026-05-02T13:42:06.983Z</time></trkpt><trkpt lat="44.1363673" lon="10.3865418"><ele>356.33333333333337</ele><time>2026-05-02T13:42:09.998Z</time></trkpt><trkpt lat="44.1364512" lon="10.3865115"><ele>357.6666666666667</ele><time>2026-05-02T13:42:12.987Z</time></trkpt><trkpt lat="44.1365367" lon="10.3864772"><ele>359.0</ele><time>2026-05-02T13:42:15.992Z</time></trkpt><trkpt lat="44.1366245" lon="10.3864436"><ele>359.83333333333337</ele><time>2026-05-02T13:42:18.996Z</time></trkpt><trkpt lat="44.1367058" lon="10.3863993"><ele>360.6666666666667</ele><time>2026-05-02T13:42:21.983Z</time></trkpt><trkpt lat="44.1367824" lon="10.3863393"><ele>361.5</ele><time>2026-05-02T13:42:24.991Z</time></trkpt><trkpt lat="44.1368416" lon="10.3862637"><ele>362.3333333333333</ele><time>2026-05-02T13:42:27.992Z</time></trkpt><trkpt lat="44.1368764" lon="10.3861624"><ele>363.16666666666663</ele><time>2026-05-02T13:42:30.996Z</time></trkpt><trkpt lat="44.1368717" lon="10.3860403"><ele>364.0</ele><time>2026-05-02T13:42:33.998Z</time></trkpt><trkpt lat="44.1368654" lon="10.3859182"><ele>364.0</ele><time>2026-05-02T13:42:36.998Z</time></trkpt><trkpt lat="44.1368515" lon="10.3858001"><ele>364.0</ele><time>2026-05-02T13:42:40Z</time></trkpt><trkpt lat="44.13684" lon="10.3856788"><ele>364.0</ele><time>2026-05-02T13:42:42.997Z</time></trkpt><trkpt lat="44.1368243" lon="10.3855538"><ele>364.0</ele><time>2026-05-02T13:42:45.997Z</time></trkpt><trkpt lat="44.1368042" lon="10.3854254"><ele>364.0</ele><time>2026-05-02T13:42:48.992Z</time></trkpt><trkpt lat="44.1367846" lon="10.3852967"><ele>364.79999999999995</ele><time>2026-05-02T13:42:51.992Z</time></trkpt><trkpt lat="44.1367688" lon="10.385173"><ele>365.59999999999997</ele><time>2026-05-02T13:42:55Z</time></trkpt><trkpt lat="44.1367506" lon="10.3850456"><ele>366.4</ele><time>2026-05-02T13:42:57.993Z</time></trkpt><trkpt lat="44.136737" lon="10.3849178"><ele>367.2</ele><time>2026-05-02T13:43:00.983Z</time></trkpt><trkpt lat="44.1367212" lon="10.3847955"><ele>368.0</ele><time>2026-05-02T13:43:03.994Z</time></trkpt><trkpt lat="44.1367097" lon="10.3846743"><ele>369.0</ele><time>2026-05-02T13:43:06.987Z</time></trkpt><trkpt lat="44.1366954" lon="10.3845577"><ele>370.0</ele><time>2026-05-02T13:43:09.996Z</time></trkpt><trkpt lat="44.1366801" lon="10.3844324"><ele>371.0</ele><time>2026-05-02T13:43:12.987Z</time></trkpt><trkpt lat="44.136664" lon="10.3843113"><ele>372.0</ele><time>2026-05-02T13:43:15.99Z</time></trkpt><trkpt lat="44.1366507" lon="10.384193"><ele>373.0</ele><time>2026-05-02T13:43:18.987Z</time></trkpt><trkpt lat="44.1366371" lon="10.3840718"><ele>374.0</ele><time>2026-05-02T13:43:21.995Z</time></trkpt><trkpt lat="44.1366199" lon="10.3839511"><ele>374.0</ele><time>2026-05-02T13:43:24.99Z</time></trkpt><trkpt lat="44.1366142" lon="10.3838311"><ele>374.0</ele><time>2026-05-02T13:43:27.985Z</time></trkpt><trkpt lat="44.1366079" lon="10.3837117"><ele>374.0</ele><time>2026-05-02T13:43:30.993Z</time></trkpt><trkpt lat="44.1366026" lon="10.3835875"><ele>374.0</ele><time>2026-05-02T13:43:33.995Z</time></trkpt><trkpt lat="44.1366061" lon="10.3834715"><ele>374.0</ele><time>2026-05-02T13:43:36.993Z</time></trkpt><trkpt lat="44.1366289" lon="10.3833488"><ele>374.0</ele><time>2026-05-02T13:43:39.998Z</time></trkpt><trkpt lat="44.1366618" lon="10.3832302"><ele>374.0</ele><time>2026-05-02T13:43:42.99Z</time></trkpt><trkpt lat="44.1367066" lon="10.3831222"><ele>374.0</ele><time>2026-05-02T13:43:45.983Z</time></trkpt><trkpt lat="44.1367615" lon="10.383025"><ele>374.0</ele><time>2026-05-02T13:43:48.992Z</time></trkpt><trkpt lat="44.1368317" lon="10.3829432"><ele>374.0</ele><time>2026-05-02T13:43:51.997Z</time></trkpt><trkpt lat="44.1369067" lon="10.3828689"><ele>374.0</ele><time>2026-05-02T13:43:54.989Z</time></trkpt><trkpt lat="44.1369905" lon="10.382829"><ele>372.83333333333337</ele><time>2026-05-02T13:43:57.996Z</time></trkpt><trkpt lat="44.1370742" lon="10.3827835"><ele>371.6666666666667</ele><time>2026-05-02T13:44:00.994Z</time></trkpt><trkpt lat="44.1371559" lon="10.3827348"><ele>370.5</ele><time>2026-05-02T13:44:03.99Z</time></trkpt><trkpt lat="44.1372363" lon="10.3826863"><ele>369.3333333333333</ele><time>2026-05-02T13:44:06.989Z</time></trkpt><trkpt lat="44.1373161" lon="10.3826362"><ele>368.16666666666663</ele><time>2026-05-02T13:44:09.986Z</time></trkpt><trkpt lat="44.1373941" lon="10.3825947"><ele>367.0</ele><time>2026-05-02T13:44:12.997Z</time></trkpt><trkpt lat="44.1374731" lon="10.3825369"><ele>367.5</ele><time>2026-05-02T13:44:16Z</time></trkpt><trkpt lat="44.1375464" lon="10.3824734"><ele>368.0</ele><time>2026-05-02T13:44:18.984Z</time></trkpt><trkpt lat="44.1376085" lon="10.3823936"><ele>368.5</ele><time>2026-05-02T13:44:21.99Z</time></trkpt><trkpt lat="44.13766" lon="10.3823004"><ele>369.0</ele><time>2026-05-02T13:44:24.999Z</time></trkpt><trkpt lat="44.1377094" lon="10.382213"><ele>369.5</ele><time>2026-05-02T13:44:27.996Z</time></trkpt><trkpt lat="44.1377498" lon="10.3821149"><ele>370.0</ele><time>2026-05-02T13:44:30.996Z</time></trkpt><trkpt lat="44.1377928" lon="10.3820135"><ele>370.0</ele><time>2026-05-02T13:44:33.996Z</time></trkpt><trkpt lat="44.1378416" lon="10.3819179"><ele>370.0</ele><time>2026-05-02T13:44:36.993Z</time></trkpt><trkpt lat="44.137884" lon="10.3818176"><ele>370.0</ele><time>2026-05-02T13:44:39.987Z</time></trkpt><trkpt lat="44.1379443" lon="10.3817339"><ele>370.0</ele><time>2026-05-02T13:44:42.988Z</time></trkpt><trkpt lat="44.1380109" lon="10.3816701"><ele>370.0</ele><time>2026-05-02T13:44:45.992Z</time></trkpt><trkpt lat="44.1380862" lon="10.3816187"><ele>370.0</ele><time>2026-05-02T13:44:48.988Z</time></trkpt><trkpt lat="44.1381594" lon="10.3815622"><ele>371.5</ele><time>2026-05-02T13:44:51.985Z</time></trkpt><trkpt lat="44.1382295" lon="10.3814868"><ele>373.0</ele><time>2026-05-02T13:44:54.995Z</time></trkpt><trkpt lat="44.1382738" lon="10.3814214"><ele>374.5</ele><time>2026-05-02T13:44:56.987Z</time></trkpt><trkpt lat="44.1383344" lon="10.3813264"><ele>376.0</ele><time>2026-05-02T13:44:59.988Z</time></trkpt><trkpt lat="44.1383935" lon="10.3812344"><ele>377.5</ele><time>2026-05-02T13:45:02.991Z</time></trkpt><trkpt lat="44.138461" lon="10.3811453"><ele>379.0</ele><time>2026-05-02T13:45:05.991Z</time></trkpt><trkpt lat="44.1385293" lon="10.3810678"><ele>379.0</ele><time>2026-05-02T13:45:08.987Z</time></trkpt><trkpt lat="44.1386015" lon="10.3810008"><ele>379.0</ele><time>2026-05-02T13:45:11.995Z</time></trkpt><trkpt lat="44.1386805" lon="10.3809395"><ele>379.0</ele><time>2026-05-02T13:45:14.985Z</time></trkpt><trkpt lat="44.1387597" lon="10.38088"><ele>379.0</ele><time>2026-05-02T13:45:17.989Z</time></trkpt><trkpt lat="44.1388169" lon="10.3808294"><ele>379.0</ele><time>2026-05-02T13:45:19.985Z</time></trkpt><trkpt lat="44.1388728" lon="10.3807698"><ele>379.0</ele><time>2026-05-02T13:45:21.987Z</time></trkpt><trkpt lat="44.1389282" lon="10.3807161"><ele>379.00000000000006</ele><time>2026-05-02T13:45:23.993Z</time></trkpt><trkpt lat="44.138982" lon="10.3806588"><ele>379.0</ele><time>2026-05-02T13:45:25.988Z</time></trkpt><trkpt lat="44.1390307" lon="10.380598"><ele>379.0</ele><time>2026-05-02T13:45:27.994Z</time></trkpt><trkpt lat="44.1390785" lon="10.3805196"><ele>379.0</ele><time>2026-05-02T13:45:29.986Z</time></trkpt><trkpt lat="44.1391219" lon="10.3804434"><ele>379.0</ele><time>2026-05-02T13:45:31.994Z</time></trkpt><trkpt lat="44.1391609" lon="10.380366"><ele>379.00000000000006</ele><time>2026-05-02T13:45:33.994Z</time></trkpt><trkpt lat="44.1391968" lon="10.3802854"><ele>379.0</ele><time>2026-05-02T13:45:35.987Z</time></trkpt><trkpt lat="44.1392296" lon="10.3802007"><ele>379.5714285714286</ele><time>2026-05-02T13:45:37.994Z</time></trkpt><trkpt lat="44.139258" lon="10.3801134"><ele>380.14285714285717</ele><time>2026-05-02T13:45:39.986Z</time></trkpt><trkpt lat="44.1392898" lon="10.3800324"><ele>380.7142857142857</ele><time>2026-05-02T13:45:41.993Z</time></trkpt><trkpt lat="44.1393248" lon="10.3799506"><ele>381.28571428571433</ele><time>2026-05-02T13:45:43.986Z</time></trkpt><trkpt lat="44.1393611" lon="10.379867"><ele>381.85714285714283</ele><time>2026-05-02T13:45:45.984Z</time></trkpt><trkpt lat="44.1393977" lon="10.3797852"><ele>382.42857142857144</ele><time>2026-05-02T13:45:47.986Z</time></trkpt><trkpt lat="44.1394379" lon="10.3797043"><ele>383.0</ele><time>2026-05-02T13:45:49.984Z</time></trkpt><trkpt lat="44.1394848" lon="10.3796271"><ele>383.0</ele><time>2026-05-02T13:45:51.994Z</time></trkpt><trkpt lat="44.1395358" lon="10.3795582"><ele>383.0</ele><time>2026-05-02T13:45:53.994Z</time></trkpt><trkpt lat="44.1395899" lon="10.3794903"><ele>383.0</ele><time>2026-05-02T13:45:55.998Z</time></trkpt><trkpt lat="44.139642" lon="10.379424"><ele>383.0</ele><time>2026-05-02T13:45:57.994Z</time></trkpt><trkpt lat="44.1396995" lon="10.3793598"><ele>383.0</ele><time>2026-05-02T13:46:00Z</time></trkpt><trkpt lat="44.1397535" lon="10.3792944"><ele>383.0</ele><time>2026-05-02T13:46:01.993Z</time></trkpt><trkpt lat="44.1398111" lon="10.3792306"><ele>383.0</ele><time>2026-05-02T13:46:04Z</time></trkpt><trkpt lat="44.1398686" lon="10.3791619"><ele>385.0</ele><time>2026-05-02T13:46:05.994Z</time></trkpt><trkpt lat="44.1399215" lon="10.3790873"><ele>387.0</ele><time>2026-05-02T13:46:08Z</time></trkpt><trkpt lat="44.1399656" lon="10.3790062"><ele>389.0</ele><time>2026-05-02T13:46:09.995Z</time></trkpt><trkpt lat="44.1400053" lon="10.37892"><ele>391.0</ele><time>2026-05-02T13:46:11.996Z</time></trkpt><trkpt lat="44.140037" lon="10.3788313"><ele>393.0</ele><time>2026-05-02T13:46:13.999Z</time></trkpt><trkpt lat="44.1400692" lon="10.37874"><ele>395.0</ele><time>2026-05-02T13:46:15.994Z</time></trkpt><trkpt lat="44.1400979" lon="10.378648"><ele>397.0</ele><time>2026-05-02T13:46:17.991Z</time></trkpt><trkpt lat="44.1401266" lon="10.3785583"><ele>397.0</ele><time>2026-05-02T13:46:19.996Z</time></trkpt><trkpt lat="44.1401619" lon="10.3784718"><ele>397.0</ele><time>2026-05-02T13:46:22Z</time></trkpt><trkpt lat="44.1402026" lon="10.3783879"><ele>397.0</ele><time>2026-05-02T13:46:23.993Z</time></trkpt><trkpt lat="44.1402408" lon="10.3783082"><ele>397.0</ele><time>2026-05-02T13:46:25.998Z</time></trkpt><trkpt lat="44.1402845" lon="10.3782313"><ele>397.0</ele><time>2026-05-02T13:46:27.998Z</time></trkpt><trkpt lat="44.1403338" lon="10.3781643"><ele>397.0</ele><time>2026-05-02T13:46:29.991Z</time></trkpt><trkpt lat="44.1403922" lon="10.3781094"><ele>397.0</ele><time>2026-05-02T13:46:32Z</time></trkpt><trkpt lat="44.1404527" lon="10.3780663"><ele>397.0</ele><time>2026-05-02T13:46:33.994Z</time></trkpt><trkpt lat="44.1405184" lon="10.3780358"><ele>397.0</ele><time>2026-05-02T13:46:35.984Z</time></trkpt><trkpt lat="44.1405853" lon="10.3780145"><ele>397.0</ele><time>2026-05-02T13:46:37.993Z</time></trkpt><trkpt lat="44.1406563" lon="10.3780056"><ele>397.0</ele><time>2026-05-02T13:46:39.995Z</time></trkpt><trkpt lat="44.1407225" lon="10.3779976"><ele>397.0</ele><time>2026-05-02T13:46:41.989Z</time></trkpt><trkpt lat="44.1407935" lon="10.3779969"><ele>397.0</ele><time>2026-05-02T13:46:43.993Z</time></trkpt><trkpt lat="44.1408625" lon="10.377996"><ele>397.0</ele><time>2026-05-02T13:46:45.999Z</time></trkpt><trkpt lat="44.1409315" lon="10.3779785"><ele>397.2857142857143</ele><time>2026-05-02T13:46:47.992Z</time></trkpt><trkpt lat="44.140998" lon="10.3779659"><ele>397.57142857142856</ele><time>2026-05-02T13:46:49.996Z</time></trkpt><trkpt lat="44.1410626" lon="10.377953"><ele>397.8571428571429</ele><time>2026-05-02T13:46:51.994Z</time></trkpt><trkpt lat="44.1411263" lon="10.3779148"><ele>398.1428571428571</ele><time>2026-05-02T13:46:54Z</time></trkpt><trkpt lat="44.1411867" lon="10.3778744"><ele>398.42857142857144</ele><time>2026-05-02T13:46:55.998Z</time></trkpt><trkpt lat="44.1412445" lon="10.3778273"><ele>398.7142857142857</ele><time>2026-05-02T13:46:58Z</time></trkpt><trkpt lat="44.1413006" lon="10.3777736"><ele>399.0</ele><time>2026-05-02T13:47:00Z</time></trkpt><trkpt lat="44.1413532" lon="10.3777104"><ele>399.0</ele><time>2026-05-02T13:47:01.993Z</time></trkpt><trkpt lat="44.1414076" lon="10.3776539"><ele>399.0</ele><time>2026-05-02T13:47:03.989Z</time></trkpt><trkpt lat="44.1414648" lon="10.3776012"><ele>399.0</ele><time>2026-05-02T13:47:05.993Z</time></trkpt><trkpt lat="44.1415216" lon="10.3775484"><ele>399.0</ele><time>2026-05-02T13:47:07.991Z</time></trkpt><trkpt lat="44.1415763" lon="10.3774976"><ele>399.0</ele><time>2026-05-02T13:47:09.999Z</time></trkpt><trkpt lat="44.1416333" lon="10.3774499"><ele>399.0</ele><time>2026-05-02T13:47:11.992Z</time></trkpt><trkpt lat="44.1416919" lon="10.3774073"><ele>399.0</ele><time>2026-05-02T13:47:13.992Z</time></trkpt><trkpt lat="44.1417505" lon="10.3773584"><ele>399.0</ele><time>2026-05-02T13:47:15.985Z</time></trkpt><trkpt lat="44.1418055" lon="10.3773019"><ele>399.0</ele><time>2026-05-02T13:47:17.994Z</time></trkpt><trkpt lat="44.1418537" lon="10.3772313"><ele>399.0</ele><time>2026-05-02T13:47:19.996Z</time></trkpt><trkpt lat="44.1418951" lon="10.3771547"><ele>399.0</ele><time>2026-05-02T13:47:22Z</time></trkpt><trkpt lat="44.141938" lon="10.3770754"><ele>399.0</ele><time>2026-05-02T13:47:23.987Z</time></trkpt><trkpt lat="44.1419699" lon="10.3769904"><ele>399.0</ele><time>2026-05-02T13:47:25.988Z</time></trkpt><trkpt lat="44.1420011" lon="10.3769058"><ele>399.0</ele><time>2026-05-02T13:47:27.994Z</time></trkpt><trkpt lat="44.1420346" lon="10.3768215"><ele>399.0</ele><time>2026-05-02T13:47:29.992Z</time></trkpt><trkpt lat="44.1420692" lon="10.3767375"><ele>399.0</ele><time>2026-05-02T13:47:32Z</time></trkpt><trkpt lat="44.1421034" lon="10.3766531"><ele>399.0</ele><time>2026-05-02T13:47:34Z</time></trkpt><trkpt lat="44.1421355" lon="10.3765656"><ele>399.0</ele><time>2026-05-02T13:47:35.988Z</time></trkpt><trkpt lat="44.1421623" lon="10.3764796"><ele>399.0</ele><time>2026-05-02T13:47:37.991Z</time></trkpt><trkpt lat="44.1421921" lon="10.3763948"><ele>399.0</ele><time>2026-05-02T13:47:39.997Z</time></trkpt><trkpt lat="44.1422156" lon="10.3763046"><ele>399.0</ele><time>2026-05-02T13:47:41.998Z</time></trkpt><trkpt lat="44.142237" lon="10.3762131"><ele>398.42857142857144</ele><time>2026-05-02T13:47:43.991Z</time></trkpt><trkpt lat="44.1422521" lon="10.3761214"><ele>397.8571428571429</ele><time>2026-05-02T13:47:45.989Z</time></trkpt><trkpt lat="44.1422631" lon="10.3760289"><ele>397.2857142857143</ele><time>2026-05-02T13:47:47.999Z</time></trkpt><trkpt lat="44.1422714" lon="10.3759382"><ele>396.7142857142857</ele><time>2026-05-02T13:47:49.988Z</time></trkpt><trkpt lat="44.1422803" lon="10.3758432"><ele>396.14285714285717</ele><time>2026-05-02T13:47:51.993Z</time></trkpt><trkpt lat="44.1422866" lon="10.375748"><ele>395.57142857142856</ele><time>2026-05-02T13:47:54Z</time></trkpt><trkpt lat="44.1422834" lon="10.3756514"><ele>395.0</ele><time>2026-05-02T13:47:55.988Z</time></trkpt><trkpt lat="44.1422867" lon="10.3755609"><ele>394.85714285714283</ele><time>2026-05-02T13:47:58Z</time></trkpt><trkpt lat="44.1422822" lon="10.3754713"><ele>394.7142857142857</ele><time>2026-05-02T13:48:00Z</time></trkpt><trkpt lat="44.142289" lon="10.3753796"><ele>394.57142857142856</ele><time>2026-05-02T13:48:01.99Z</time></trkpt><trkpt lat="44.1423033" lon="10.3752871"><ele>394.42857142857144</ele><time>2026-05-02T13:48:03.999Z</time></trkpt><trkpt lat="44.1423174" lon="10.3751909"><ele>394.28571428571433</ele><time>2026-05-02T13:48:06Z</time></trkpt><trkpt lat="44.1423292" lon="10.3750968"><ele>394.14285714285717</ele><time>2026-05-02T13:48:08Z</time></trkpt><trkpt lat="44.142356" lon="10.3750114"><ele>394.0</ele><time>2026-05-02T13:48:09.994Z</time></trkpt><trkpt lat="44.1423854" lon="10.3749244"><ele>395.8571428571429</ele><time>2026-05-02T13:48:11.999Z</time></trkpt><trkpt lat="44.142414" lon="10.3748356"><ele>397.7142857142857</ele><time>2026-05-02T13:48:13.991Z</time></trkpt><trkpt lat="44.1424398" lon="10.3747475"><ele>399.57142857142856</ele><time>2026-05-02T13:48:15.999Z</time></trkpt><trkpt lat="44.1424648" lon="10.374659"><ele>401.42857142857144</ele><time>2026-05-02T13:48:17.989Z</time></trkpt><trkpt lat="44.1424891" lon="10.3745716"><ele>403.2857142857143</ele><time>2026-05-02T13:48:19.984Z</time></trkpt><trkpt lat="44.142515" lon="10.3744851"><ele>405.14285714285717</ele><time>2026-05-02T13:48:21.985Z</time></trkpt><trkpt lat="44.1425414" lon="10.3743971"><ele>407.0</ele><time>2026-05-02T13:48:23.993Z</time></trkpt><trkpt lat="44.1425671" lon="10.3743166"><ele>407.42857142857144</ele><time>2026-05-02T13:48:25.991Z</time></trkpt><trkpt lat="44.1425931" lon="10.3742312"><ele>407.8571428571429</ele><time>2026-05-02T13:48:27.994Z</time></trkpt><trkpt lat="44.1426188" lon="10.374147"><ele>408.28571428571433</ele><time>2026-05-02T13:48:29.988Z</time></trkpt><trkpt lat="44.1426442" lon="10.374063"><ele>408.7142857142857</ele><time>2026-05-02T13:48:31.999Z</time></trkpt><trkpt lat="44.1426674" lon="10.3739726"><ele>409.1428571428571</ele><time>2026-05-02T13:48:33.996Z</time></trkpt><trkpt lat="44.1426953" lon="10.3738899"><ele>409.5714285714286</ele><time>2026-05-02T13:48:35.999Z</time></trkpt><trkpt lat="44.1427271" lon="10.37381"><ele>410.0</ele><time>2026-05-02T13:48:37.994Z</time></trkpt><trkpt lat="44.1427656" lon="10.3737334"><ele>410.2857142857143</ele><time>2026-05-02T13:48:39.994Z</time></trkpt><trkpt lat="44.1428163" lon="10.3736636"><ele>410.57142857142856</ele><time>2026-05-02T13:48:41.996Z</time></trkpt><trkpt lat="44.1428795" lon="10.3736182"><ele>410.85714285714283</ele><time>2026-05-02T13:48:43.988Z</time></trkpt><trkpt lat="44.1429475" lon="10.3735984"><ele>411.1428571428571</ele><time>2026-05-02T13:48:45.989Z</time></trkpt><trkpt lat="44.1430204" lon="10.3736079"><ele>411.42857142857144</ele><time>2026-05-02T13:48:47.988Z</time></trkpt><trkpt lat="44.1430858" lon="10.3736451"><ele>411.71428571428567</ele><time>2026-05-02T13:48:50Z</time></trkpt><trkpt lat="44.1431473" lon="10.3736909"><ele>412.0</ele><time>2026-05-02T13:48:51.988Z</time></trkpt><trkpt lat="44.1432099" lon="10.3737362"><ele>412.4285714285714</ele><time>2026-05-02T13:48:53.999Z</time></trkpt><trkpt lat="44.1432688" lon="10.3737855"><ele>412.85714285714283</ele><time>2026-05-02T13:48:56Z</time></trkpt><trkpt lat="44.1433313" lon="10.3738346"><ele>413.2857142857143</ele><time>2026-05-02T13:48:57.995Z</time></trkpt><trkpt lat="44.1433937" lon="10.3738806"><ele>413.71428571428567</ele><time>2026-05-02T13:48:59.999Z</time></trkpt><trkpt lat="44.1434563" lon="10.3739221"><ele>414.14285714285717</ele><time>2026-05-02T13:49:02Z</time></trkpt><trkpt lat="44.1435195" lon="10.3739638"><ele>414.57142857142856</ele><time>2026-05-02T13:49:03.985Z</time></trkpt><trkpt lat="44.1435817" lon="10.3739978"><ele>415.0</ele><time>2026-05-02T13:49:05.995Z</time></trkpt><trkpt lat="44.1436453" lon="10.3740238"><ele>415.0</ele><time>2026-05-02T13:49:08Z</time></trkpt><trkpt lat="44.1437145" lon="10.3740432"><ele>415.0</ele><time>2026-05-02T13:49:09.992Z</time></trkpt><trkpt lat="44.1437842" lon="10.3740558"><ele>415.0</ele><time>2026-05-02T13:49:11.995Z</time></trkpt><trkpt lat="44.1438503" lon="10.3740627"><ele>415.0</ele><time>2026-05-02T13:49:13.987Z</time></trkpt><trkpt lat="44.1439162" lon="10.3740565"><ele>415.0</ele><time>2026-05-02T13:49:15.999Z</time></trkpt><trkpt lat="44.1439847" lon="10.3740455"><ele>415.0</ele><time>2026-05-02T13:49:17.996Z</time></trkpt><trkpt lat="44.1440514" lon="10.3740301"><ele>415.0</ele><time>2026-05-02T13:49:19.993Z</time></trkpt><trkpt lat="44.1441143" lon="10.3740077"><ele>415.57142857142856</ele><time>2026-05-02T13:49:21.999Z</time></trkpt><trkpt lat="44.1441782" lon="10.3739824"><ele>416.14285714285717</ele><time>2026-05-02T13:49:23.999Z</time></trkpt><trkpt lat="44.1442423" lon="10.3739566"><ele>416.71428571428567</ele><time>2026-05-02T13:49:25.987Z</time></trkpt><trkpt lat="44.1443029" lon="10.3739228"><ele>417.2857142857143</ele><time>2026-05-02T13:49:27.991Z</time></trkpt><trkpt lat="44.1443599" lon="10.3738799"><ele>417.85714285714283</ele><time>2026-05-02T13:49:29.992Z</time></trkpt><trkpt lat="44.1444183" lon="10.3738469"><ele>418.4285714285714</ele><time>2026-05-02T13:49:31.995Z</time></trkpt><trkpt lat="44.1444729" lon="10.3738022"><ele>419.0</ele><time>2026-05-02T13:49:34Z</time></trkpt><trkpt lat="44.144528" lon="10.3737534"><ele>418.4285714285714</ele><time>2026-05-02T13:49:35.988Z</time></trkpt><trkpt lat="44.1445866" lon="10.3737055"><ele>417.85714285714283</ele><time>2026-05-02T13:49:37.994Z</time></trkpt><trkpt lat="44.1446457" lon="10.3736566"><ele>417.2857142857143</ele><time>2026-05-02T13:49:40Z</time></trkpt><trkpt lat="44.1447033" lon="10.3736083"><ele>416.71428571428567</ele><time>2026-05-02T13:49:41.989Z</time></trkpt><trkpt lat="44.1447611" lon="10.3735597"><ele>416.14285714285717</ele><time>2026-05-02T13:49:43.998Z</time></trkpt><trkpt lat="44.1448306" lon="10.3735132"><ele>415.57142857142856</ele><time>2026-05-02T13:49:46.989Z</time></trkpt><trkpt lat="44.1448819" lon="10.3734269"><ele>415.0</ele><time>2026-05-02T13:50:10.983Z</time></trkpt><trkpt lat="44.1449507" lon="10.3733806"><ele>415.0</ele><time>2026-05-02T13:50:14Z</time></trkpt><trkpt lat="44.1450111" lon="10.3733439"><ele>415.0</ele><time>2026-05-02T13:50:16Z</time></trkpt><trkpt lat="44.1450711" lon="10.3733001"><ele>415.0</ele><time>2026-05-02T13:50:18Z</time></trkpt><trkpt lat="44.1451305" lon="10.3732499"><ele>415.0</ele><time>2026-05-02T13:50:19.996Z</time></trkpt><trkpt lat="44.1451863" lon="10.3732023"><ele>415.0</ele><time>2026-05-02T13:50:21.99Z</time></trkpt><trkpt lat="44.1452408" lon="10.3731545"><ele>415.0</ele><time>2026-05-02T13:50:23.991Z</time></trkpt><trkpt lat="44.1452977" lon="10.3731099"><ele>415.0</ele><time>2026-05-02T13:50:25.996Z</time></trkpt><trkpt lat="44.1453558" lon="10.3730558"><ele>414.7142857142857</ele><time>2026-05-02T13:50:27.987Z</time></trkpt><trkpt lat="44.1454093" lon="10.3730004"><ele>414.42857142857144</ele><time>2026-05-02T13:50:29.982Z</time></trkpt><trkpt lat="44.1454673" lon="10.3729483"><ele>414.1428571428571</ele><time>2026-05-02T13:50:32Z</time></trkpt><trkpt lat="44.1455234" lon="10.3728941"><ele>413.8571428571429</ele><time>2026-05-02T13:50:34Z</time></trkpt><trkpt lat="44.1455782" lon="10.3728369"><ele>413.57142857142856</ele><time>2026-05-02T13:50:35.997Z</time></trkpt><trkpt lat="44.1456295" lon="10.3727841"><ele>413.2857142857143</ele><time>2026-05-02T13:50:37.992Z</time></trkpt><trkpt lat="44.1456821" lon="10.3727308"><ele>413.0</ele><time>2026-05-02T13:50:40Z</time></trkpt><trkpt lat="44.14576" lon="10.372682"><ele>412.99999999999994</ele><time>2026-05-02T13:50:42.989Z</time></trkpt><trkpt lat="44.1458562" lon="10.3727149"><ele>413.0</ele><time>2026-05-02T13:50:45.993Z</time></trkpt><trkpt lat="44.1459216" lon="10.3727449"><ele>413.0</ele><time>2026-05-02T13:50:47.999Z</time></trkpt><trkpt lat="44.1459843" lon="10.3727694"><ele>413.0</ele><time>2026-05-02T13:50:50Z</time></trkpt><trkpt lat="44.1460457" lon="10.3727947"><ele>412.99999999999994</ele><time>2026-05-02T13:50:51.987Z</time></trkpt><trkpt lat="44.1461355" lon="10.3728319"><ele>413.0</ele><time>2026-05-02T13:50:54.993Z</time></trkpt><trkpt lat="44.1461991" lon="10.372859"><ele>413.0</ele><time>2026-05-02T13:50:56.989Z</time></trkpt><trkpt lat="44.1462621" lon="10.3728828"><ele>413.0</ele><time>2026-05-02T13:50:58.986Z</time></trkpt><trkpt lat="44.1463313" lon="10.3729005"><ele>413.0</ele><time>2026-05-02T13:51:00.988Z</time></trkpt><trkpt lat="44.1464016" lon="10.3729148"><ele>413.0</ele><time>2026-05-02T13:51:02.999Z</time></trkpt><trkpt lat="44.146467" lon="10.37293"><ele>413.0</ele><time>2026-05-02T13:51:04.996Z</time></trkpt><trkpt lat="44.1465313" lon="10.3729349"><ele>413.0</ele><time>2026-05-02T13:51:07Z</time></trkpt><trkpt lat="44.1466035" lon="10.3729332"><ele>413.0</ele><time>2026-05-02T13:51:09Z</time></trkpt><trkpt lat="44.1466713" lon="10.3729096"><ele>413.7142857142857</ele><time>2026-05-02T13:51:10.986Z</time></trkpt><trkpt lat="44.1467284" lon="10.3728678"><ele>414.42857142857144</ele><time>2026-05-02T13:51:12.992Z</time></trkpt><trkpt lat="44.1467765" lon="10.3728076"><ele>415.1428571428571</ele><time>2026-05-02T13:51:14.996Z</time></trkpt><trkpt lat="44.1468228" lon="10.3727416"><ele>415.8571428571429</ele><time>2026-05-02T13:51:16.991Z</time></trkpt><trkpt lat="44.1468618" lon="10.3726702"><ele>416.57142857142856</ele><time>2026-05-02T13:51:18.987Z</time></trkpt><trkpt lat="44.1468858" lon="10.3725838"><ele>417.2857142857143</ele><time>2026-05-02T13:51:20.993Z</time></trkpt><trkpt lat="44.1468932" lon="10.372491"><ele>418.0</ele><time>2026-05-02T13:51:22.992Z</time></trkpt><trkpt lat="44.1468859" lon="10.3723953"><ele>418.0</ele><time>2026-05-02T13:51:24.997Z</time></trkpt><trkpt lat="44.1468721" lon="10.3723008"><ele>418.0</ele><time>2026-05-02T13:51:27Z</time></trkpt><trkpt lat="44.1468611" lon="10.3722078"><ele>418.0</ele><time>2026-05-02T13:51:28.999Z</time></trkpt><trkpt lat="44.146853" lon="10.3721172"><ele>418.0</ele><time>2026-05-02T13:51:30.984Z</time></trkpt><trkpt lat="44.1468459" lon="10.3720266"><ele>418.0</ele><time>2026-05-02T13:51:33Z</time></trkpt><trkpt lat="44.146841" lon="10.3719341"><ele>418.0</ele><time>2026-05-02T13:51:34.996Z</time></trkpt><trkpt lat="44.1468392" lon="10.3718418"><ele>418.0</ele><time>2026-05-02T13:51:36.999Z</time></trkpt><trkpt lat="44.1468434" lon="10.3717462"><ele>418.0</ele><time>2026-05-02T13:51:38.986Z</time></trkpt><trkpt lat="44.1468474" lon="10.3716534"><ele>418.0</ele><time>2026-05-02T13:51:41Z</time></trkpt><trkpt lat="44.1468564" lon="10.3715627"><ele>418.0</ele><time>2026-05-02T13:51:42.994Z</time></trkpt><trkpt lat="44.1468725" lon="10.3714702"><ele>418.0</ele><time>2026-05-02T13:51:44.997Z</time></trkpt><trkpt lat="44.1468865" lon="10.3713794"><ele>418.0</ele><time>2026-05-02T13:51:46.986Z</time></trkpt><trkpt lat="44.1469012" lon="10.3712864"><ele>418.0</ele><time>2026-05-02T13:51:48.998Z</time></trkpt><trkpt lat="44.1469253" lon="10.3711959"><ele>418.0</ele><time>2026-05-02T13:51:50.998Z</time></trkpt><trkpt lat="44.1469541" lon="10.3711055"><ele>417.42857142857144</ele><time>2026-05-02T13:51:52.99Z</time></trkpt><trkpt lat="44.1469855" lon="10.371019"><ele>416.85714285714283</ele><time>2026-05-02T13:51:55Z</time></trkpt><trkpt lat="44.1470191" lon="10.3709317"><ele>416.28571428571433</ele><time>2026-05-02T13:51:56.999Z</time></trkpt><trkpt lat="44.1470571" lon="10.3708542"><ele>415.7142857142857</ele><time>2026-05-02T13:51:58.984Z</time></trkpt><trkpt lat="44.1470976" lon="10.3707804"><ele>415.14285714285717</ele><time>2026-05-02T13:52:00.995Z</time></trkpt><trkpt lat="44.1471407" lon="10.3707101"><ele>414.5714285714286</ele><time>2026-05-02T13:52:02.993Z</time></trkpt><trkpt lat="44.1471858" lon="10.3706409"><ele>414.0</ele><time>2026-05-02T13:52:04.991Z</time></trkpt><trkpt lat="44.1472346" lon="10.3705756"><ele>414.7142857142857</ele><time>2026-05-02T13:52:07Z</time></trkpt><trkpt lat="44.1472884" lon="10.3705136"><ele>415.42857142857144</ele><time>2026-05-02T13:52:08.992Z</time></trkpt><trkpt lat="44.1473424" lon="10.3704503"><ele>416.1428571428571</ele><time>2026-05-02T13:52:10.999Z</time></trkpt><trkpt lat="44.1473978" lon="10.3703903"><ele>416.8571428571429</ele><time>2026-05-02T13:52:12.997Z</time></trkpt><trkpt lat="44.1474537" lon="10.3703299"><ele>417.57142857142856</ele><time>2026-05-02T13:52:14.985Z</time></trkpt><trkpt lat="44.1475103" lon="10.3702718"><ele>418.2857142857143</ele><time>2026-05-02T13:52:16.99Z</time></trkpt><trkpt lat="44.1475674" lon="10.3702234"><ele>419.0</ele><time>2026-05-02T13:52:18.992Z</time></trkpt><trkpt lat="44.1476262" lon="10.370183"><ele>418.99999999999994</ele><time>2026-05-02T13:52:20.984Z</time></trkpt><trkpt lat="44.147689" lon="10.370147"><ele>419.0</ele><time>2026-05-02T13:52:22.998Z</time></trkpt><trkpt lat="44.1477528" lon="10.3701152"><ele>419.0</ele><time>2026-05-02T13:52:24.986Z</time></trkpt><trkpt lat="44.1478159" lon="10.3700814"><ele>419.0</ele><time>2026-05-02T13:52:26.995Z</time></trkpt><trkpt lat="44.1478842" lon="10.3700561"><ele>419.0</ele><time>2026-05-02T13:52:28.993Z</time></trkpt><trkpt lat="44.1479528" lon="10.370035"><ele>418.99999999999994</ele><time>2026-05-02T13:52:30.99Z</time></trkpt><trkpt lat="44.1480216" lon="10.370012"><ele>419.0</ele><time>2026-05-02T13:52:32.986Z</time></trkpt><trkpt lat="44.1480906" lon="10.369994"><ele>418.99999999999994</ele><time>2026-05-02T13:52:34.988Z</time></trkpt><trkpt lat="44.1481562" lon="10.3699769"><ele>419.0</ele><time>2026-05-02T13:52:36.983Z</time></trkpt><trkpt lat="44.148247" lon="10.3699421"><ele>419.0</ele><time>2026-05-02T13:52:39.999Z</time></trkpt><trkpt lat="44.1483143" lon="10.3699044"><ele>419.0</ele><time>2026-05-02T13:52:41.993Z</time></trkpt><trkpt lat="44.1484023" lon="10.369861"><ele>418.99999999999994</ele><time>2026-05-02T13:52:44.993Z</time></trkpt><trkpt lat="44.1484603" lon="10.369817"><ele>419.0</ele><time>2026-05-02T13:52:46.986Z</time></trkpt><trkpt lat="44.148519" lon="10.3697654"><ele>418.99999999999994</ele><time>2026-05-02T13:52:48.985Z</time></trkpt><trkpt lat="44.1485706" lon="10.3697074"><ele>419.0</ele><time>2026-05-02T13:52:50.988Z</time></trkpt><trkpt lat="44.1486132" lon="10.3696353"><ele>419.0</ele><time>2026-05-02T13:52:52.993Z</time></trkpt><trkpt lat="44.1486564" lon="10.3695631"><ele>419.0</ele><time>2026-05-02T13:52:54.988Z</time></trkpt><trkpt lat="44.1486964" lon="10.3694916"><ele>419.0</ele><time>2026-05-02T13:52:57Z</time></trkpt><trkpt lat="44.148725" lon="10.3694091"><ele>418.99999999999994</ele><time>2026-05-02T13:52:58.994Z</time></trkpt><trkpt lat="44.1487473" lon="10.3693214"><ele>419.0</ele><time>2026-05-02T13:53:00.989Z</time></trkpt><trkpt lat="44.148764" lon="10.3692318"><ele>418.99999999999994</ele><time>2026-05-02T13:53:02.99Z</time></trkpt><trkpt lat="44.148775" lon="10.3691391"><ele>419.0</ele><time>2026-05-02T13:53:04.999Z</time></trkpt><trkpt lat="44.1487798" lon="10.3690417"><ele>419.0</ele><time>2026-05-02T13:53:06.993Z</time></trkpt><trkpt lat="44.1487815" lon="10.3689422"><ele>419.0</ele><time>2026-05-02T13:53:08.989Z</time></trkpt><trkpt lat="44.1487813" lon="10.3688475"><ele>419.0</ele><time>2026-05-02T13:53:10.986Z</time></trkpt><trkpt lat="44.1487768" lon="10.3687568"><ele>418.99999999999994</ele><time>2026-05-02T13:53:12.996Z</time></trkpt><trkpt lat="44.1487708" lon="10.3686615"><ele>419.0</ele><time>2026-05-02T13:53:14.99Z</time></trkpt><trkpt lat="44.1487734" lon="10.3685591"><ele>417.99999999999994</ele><time>2026-05-02T13:53:16.991Z</time></trkpt><trkpt lat="44.1487768" lon="10.3684603"><ele>417.0</ele><time>2026-05-02T13:53:18.991Z</time></trkpt><trkpt lat="44.1487847" lon="10.3683652"><ele>416.0</ele><time>2026-05-02T13:53:20.999Z</time></trkpt><trkpt lat="44.1487909" lon="10.3682655"><ele>415.0</ele><time>2026-05-02T13:53:22.993Z</time></trkpt><trkpt lat="44.148795" lon="10.3681754"><ele>414.0</ele><time>2026-05-02T13:53:24.991Z</time></trkpt><trkpt lat="44.148801" lon="10.3680848"><ele>412.99999999999994</ele><time>2026-05-02T13:53:26.99Z</time></trkpt><trkpt lat="44.1488228" lon="10.3679987"><ele>412.0</ele><time>2026-05-02T13:53:28.99Z</time></trkpt><trkpt lat="44.1488613" lon="10.3679092"><ele>411.33333333333337</ele><time>2026-05-02T13:53:30.996Z</time></trkpt><trkpt lat="44.148922" lon="10.3678577"><ele>410.6666666666667</ele><time>2026-05-02T13:53:32.987Z</time></trkpt><trkpt lat="44.148994" lon="10.3678189"><ele>410.0</ele><time>2026-05-02T13:53:34.986Z</time></trkpt><trkpt lat="44.1490685" lon="10.3677806"><ele>409.33333333333337</ele><time>2026-05-02T13:53:36.985Z</time></trkpt><trkpt lat="44.1491434" lon="10.3677556"><ele>408.6666666666667</ele><time>2026-05-02T13:53:38.985Z</time></trkpt><trkpt lat="44.1492163" lon="10.3677296"><ele>408.0</ele><time>2026-05-02T13:53:40.985Z</time></trkpt><trkpt lat="44.1492918" lon="10.3676937"><ele>410.1666666666667</ele><time>2026-05-02T13:53:42.997Z</time></trkpt><trkpt lat="44.1493674" lon="10.3676618"><ele>412.33333333333337</ele><time>2026-05-02T13:53:45Z</time></trkpt><trkpt lat="44.1494363" lon="10.3676281"><ele>414.5</ele><time>2026-05-02T13:53:46.986Z</time></trkpt><trkpt lat="44.149507" lon="10.3675902"><ele>416.6666666666667</ele><time>2026-05-02T13:53:49Z</time></trkpt><trkpt lat="44.1495826" lon="10.3675511"><ele>418.83333333333337</ele><time>2026-05-02T13:53:50.996Z</time></trkpt><trkpt lat="44.1496569" lon="10.3675068"><ele>421.0</ele><time>2026-05-02T13:53:52.986Z</time></trkpt><trkpt lat="44.1497308" lon="10.3674656"><ele>421.00000000000006</ele><time>2026-05-02T13:53:54.988Z</time></trkpt><trkpt lat="44.1498048" lon="10.3674314"><ele>421.0</ele><time>2026-05-02T13:53:56.99Z</time></trkpt><trkpt lat="44.1498794" lon="10.3673928"><ele>421.0</ele><time>2026-05-02T13:53:59Z</time></trkpt><trkpt lat="44.1499545" lon="10.3673527"><ele>421.0</ele><time>2026-05-02T13:54:00.993Z</time></trkpt><trkpt lat="44.150028" lon="10.3673081"><ele>421.00000000000006</ele><time>2026-05-02T13:54:02.987Z</time></trkpt><trkpt lat="44.1501038" lon="10.3672632"><ele>421.0</ele><time>2026-05-02T13:54:04.998Z</time></trkpt><trkpt lat="44.1501782" lon="10.3672359"><ele>422.6666666666667</ele><time>2026-05-02T13:54:06.983Z</time></trkpt><trkpt lat="44.1502579" lon="10.3672161"><ele>424.33333333333337</ele><time>2026-05-02T13:54:08.989Z</time></trkpt><trkpt lat="44.1503371" lon="10.3672093"><ele>426.0</ele><time>2026-05-02T13:54:10.986Z</time></trkpt><trkpt lat="44.1504144" lon="10.3672057"><ele>427.66666666666663</ele><time>2026-05-02T13:54:12.988Z</time></trkpt><trkpt lat="44.1504938" lon="10.3672064"><ele>429.3333333333333</ele><time>2026-05-02T13:54:14.997Z</time></trkpt><trkpt lat="44.1505704" lon="10.3672243"><ele>431.0</ele><time>2026-05-02T13:54:17Z</time></trkpt><trkpt lat="44.1506413" lon="10.3672413"><ele>432.3333333333333</ele><time>2026-05-02T13:54:18.995Z</time></trkpt><trkpt lat="44.1507275" lon="10.3672392"><ele>433.66666666666663</ele><time>2026-05-02T13:54:21.991Z</time></trkpt><trkpt lat="44.1508083" lon="10.3672152"><ele>435.0</ele><time>2026-05-02T13:54:24.995Z</time></trkpt><trkpt lat="44.1508932" lon="10.3671683"><ele>436.33333333333337</ele><time>2026-05-02T13:54:27.99Z</time></trkpt><trkpt lat="44.1509724" lon="10.3671109"><ele>437.6666666666667</ele><time>2026-05-02T13:54:30.999Z</time></trkpt><trkpt lat="44.151057" lon="10.3670567"><ele>439.0</ele><time>2026-05-02T13:54:33.985Z</time></trkpt><trkpt lat="44.1511371" lon="10.3669976"><ele>437.83333333333337</ele><time>2026-05-02T13:54:36.999Z</time></trkpt><trkpt lat="44.1512201" lon="10.3669469"><ele>436.6666666666667</ele><time>2026-05-02T13:54:39.987Z</time></trkpt><trkpt lat="44.1513037" lon="10.3669016"><ele>435.5</ele><time>2026-05-02T13:54:42.994Z</time></trkpt><trkpt lat="44.1513889" lon="10.3668736"><ele>434.33333333333337</ele><time>2026-05-02T13:54:45.987Z</time></trkpt><trkpt lat="44.1514765" lon="10.3668514"><ele>433.1666666666667</ele><time>2026-05-02T13:54:49Z</time></trkpt><trkpt lat="44.151562" lon="10.3668365"><ele>432.0</ele><time>2026-05-02T13:54:51.989Z</time></trkpt><trkpt lat="44.1516505" lon="10.3668201"><ele>432.0</ele><time>2026-05-02T13:54:54.994Z</time></trkpt><trkpt lat="44.1517363" lon="10.3668093"><ele>432.0</ele><time>2026-05-02T13:54:58Z</time></trkpt><trkpt lat="44.1518231" lon="10.3668082"><ele>432.0</ele><time>2026-05-02T13:55:00.992Z</time></trkpt><trkpt lat="44.1519105" lon="10.366797"><ele>432.0</ele><time>2026-05-02T13:55:03.995Z</time></trkpt><trkpt lat="44.1519941" lon="10.3667646"><ele>432.0</ele><time>2026-05-02T13:55:06.982Z</time></trkpt><trkpt lat="44.1520519" lon="10.3667296"><ele>432.0</ele><time>2026-05-02T13:55:08.995Z</time></trkpt><trkpt lat="44.1521274" lon="10.3666523"><ele>432.0</ele><time>2026-05-02T13:55:11.999Z</time></trkpt><trkpt lat="44.1521929" lon="10.3665645"><ele>432.0</ele><time>2026-05-02T13:55:14.982Z</time></trkpt><trkpt lat="44.1522606" lon="10.3664777"><ele>432.0</ele><time>2026-05-02T13:55:17.991Z</time></trkpt><trkpt lat="44.1523375" lon="10.3664085"><ele>432.0</ele><time>2026-05-02T13:55:20.986Z</time></trkpt><trkpt lat="44.1523967" lon="10.3663778"><ele>432.0</ele><time>2026-05-02T13:55:22.987Z</time></trkpt><trkpt lat="44.1524861" lon="10.3663476"><ele>432.0</ele><time>2026-05-02T13:55:25.995Z</time></trkpt><trkpt lat="44.1525728" lon="10.3663282"><ele>433.0</ele><time>2026-05-02T13:55:28.993Z</time></trkpt><trkpt lat="44.1526636" lon="10.3663406"><ele>434.0</ele><time>2026-05-02T13:55:31.984Z</time></trkpt><trkpt lat="44.1527528" lon="10.3663455"><ele>435.0</ele><time>2026-05-02T13:55:34.982Z</time></trkpt><trkpt lat="44.1528432" lon="10.3663576"><ele>436.0</ele><time>2026-05-02T13:55:37.995Z</time></trkpt><trkpt lat="44.1529319" lon="10.3663591"><ele>437.0</ele><time>2026-05-02T13:55:40.985Z</time></trkpt><trkpt lat="44.1530187" lon="10.3663655"><ele>438.0</ele><time>2026-05-02T13:55:43.988Z</time></trkpt><trkpt lat="44.1531095" lon="10.366371"><ele>438.0</ele><time>2026-05-02T13:55:46.999Z</time></trkpt><trkpt lat="44.153196" lon="10.3663799"><ele>438.0</ele><time>2026-05-02T13:55:49.992Z</time></trkpt><trkpt lat="44.153285" lon="10.3663819"><ele>438.0</ele><time>2026-05-02T13:55:52.99Z</time></trkpt><trkpt lat="44.1533714" lon="10.3663856"><ele>438.0</ele><time>2026-05-02T13:55:55.983Z</time></trkpt><trkpt lat="44.1534589" lon="10.3663895"><ele>438.0</ele><time>2026-05-02T13:55:58.986Z</time></trkpt><trkpt lat="44.1535452" lon="10.3663895"><ele>438.0</ele><time>2026-05-02T13:56:02Z</time></trkpt><trkpt lat="44.153629" lon="10.3663992"><ele>438.8333333333333</ele><time>2026-05-02T13:56:04.993Z</time></trkpt><trkpt lat="44.1537144" lon="10.3664052"><ele>439.66666666666663</ele><time>2026-05-02T13:56:07.994Z</time></trkpt><trkpt lat="44.1538004" lon="10.3664094"><ele>440.5</ele><time>2026-05-02T13:56:10.988Z</time></trkpt><trkpt lat="44.1538861" lon="10.3664179"><ele>441.3333333333333</ele><time>2026-05-02T13:56:13.982Z</time></trkpt><trkpt lat="44.1539731" lon="10.3664356"><ele>442.16666666666663</ele><time>2026-05-02T13:56:16.986Z</time></trkpt><trkpt lat="44.1540561" lon="10.3664591"><ele>443.0</ele><time>2026-05-02T13:56:19.983Z</time></trkpt><trkpt lat="44.1541417" lon="10.3664875"><ele>442.99999999999994</ele><time>2026-05-02T13:56:22.982Z</time></trkpt><trkpt lat="44.1542255" lon="10.3665079"><ele>443.0</ele><time>2026-05-02T13:56:25.985Z</time></trkpt><trkpt lat="44.1543074" lon="10.3665462"><ele>443.0</ele><time>2026-05-02T13:56:28.983Z</time></trkpt><trkpt lat="44.154387" lon="10.3665901"><ele>443.0</ele><time>2026-05-02T13:56:31.996Z</time></trkpt><trkpt lat="44.1544659" lon="10.3666432"><ele>442.99999999999994</ele><time>2026-05-02T13:56:34.99Z</time></trkpt><trkpt lat="44.1545454" lon="10.3666924"><ele>443.0</ele><time>2026-05-02T13:56:37.987Z</time></trkpt><trkpt lat="44.154621" lon="10.3667392"><ele>442.99999999999994</ele><time>2026-05-02T13:56:40.999Z</time></trkpt><trkpt lat="44.154689" lon="10.3667789"><ele>443.0</ele><time>2026-05-02T13:56:44Z</time></trkpt><trkpt lat="44.1547696" lon="10.3668056"><ele>443.0</ele><time>2026-05-02T13:56:46.985Z</time></trkpt><trkpt lat="44.1548354" lon="10.3668152"><ele>443.0</ele><time>2026-05-02T13:56:48.981Z</time></trkpt><trkpt lat="44.1549279" lon="10.3668032"><ele>442.99999999999994</ele><time>2026-05-02T13:56:51.996Z</time></trkpt><trkpt lat="44.1550154" lon="10.3667703"><ele>443.0</ele><time>2026-05-02T13:56:54.996Z</time></trkpt><trkpt lat="44.1550937" lon="10.3666998"><ele>442.49999999999994</ele><time>2026-05-02T13:56:57.984Z</time></trkpt><trkpt lat="44.1551656" lon="10.3666173"><ele>442.0</ele><time>2026-05-02T13:57:00.992Z</time></trkpt><trkpt lat="44.1552295" lon="10.3665345"><ele>441.5</ele><time>2026-05-02T13:57:03.986Z</time></trkpt><trkpt lat="44.155284" lon="10.3664443"><ele>441.0</ele><time>2026-05-02T13:57:06.984Z</time></trkpt><trkpt lat="44.1553458" lon="10.3663601"><ele>440.49999999999994</ele><time>2026-05-02T13:57:09.986Z</time></trkpt><trkpt lat="44.1554056" lon="10.3662739"><ele>440.0</ele><time>2026-05-02T13:57:12.987Z</time></trkpt><trkpt lat="44.1554653" lon="10.3661902"><ele>439.66666666666663</ele><time>2026-05-02T13:57:15.985Z</time></trkpt><trkpt lat="44.1555336" lon="10.3661275"><ele>439.3333333333333</ele><time>2026-05-02T13:57:18.983Z</time></trkpt><trkpt lat="44.1556107" lon="10.3660858"><ele>439.0</ele><time>2026-05-02T13:57:21.995Z</time></trkpt><trkpt lat="44.1557001" lon="10.3660619"><ele>438.66666666666663</ele><time>2026-05-02T13:57:24.99Z</time></trkpt><trkpt lat="44.1557864" lon="10.3660587"><ele>438.3333333333333</ele><time>2026-05-02T13:57:27.99Z</time></trkpt><trkpt lat="44.1558711" lon="10.3660648"><ele>438.0</ele><time>2026-05-02T13:57:30.996Z</time></trkpt><trkpt lat="44.1559529" lon="10.3660734"><ele>438.0</ele><time>2026-05-02T13:57:33.997Z</time></trkpt><trkpt lat="44.1560366" lon="10.3660681"><ele>438.0</ele><time>2026-05-02T13:57:36.981Z</time></trkpt><trkpt lat="44.15612" lon="10.3660468"><ele>438.0</ele><time>2026-05-02T13:57:39.984Z</time></trkpt><trkpt lat="44.1561972" lon="10.3659913"><ele>438.0</ele><time>2026-05-02T13:57:42.997Z</time></trkpt><trkpt lat="44.1562349" lon="10.3659189"><ele>438.0</ele><time>2026-05-02T13:57:44.991Z</time></trkpt><trkpt lat="44.156267" lon="10.3658366"><ele>438.0</ele><time>2026-05-02T13:57:46.994Z</time></trkpt><trkpt lat="44.1563097" lon="10.3657572"><ele>438.0</ele><time>2026-05-02T13:57:48.994Z</time></trkpt><trkpt lat="44.1563508" lon="10.3656663"><ele>438.0</ele><time>2026-05-02T13:57:50.991Z</time></trkpt><trkpt lat="44.1563978" lon="10.3655782"><ele>438.0</ele><time>2026-05-02T13:57:52.985Z</time></trkpt><trkpt lat="44.1564382" lon="10.3654905"><ele>438.0</ele><time>2026-05-02T13:57:54.992Z</time></trkpt><trkpt lat="44.1564702" lon="10.3654075"><ele>438.0</ele><time>2026-05-02T13:57:56.99Z</time></trkpt><trkpt lat="44.1564911" lon="10.3652936"><ele>438.0</ele><time>2026-05-02T13:58:00Z</time></trkpt><trkpt lat="44.1564963" lon="10.3651866"><ele>437.5</ele><time>2026-05-02T13:58:03.987Z</time></trkpt><trkpt lat="44.1564651" lon="10.3650991"><ele>437.0</ele><time>2026-05-02T13:58:06.998Z</time></trkpt><trkpt lat="44.1564197" lon="10.3650105"><ele>436.5</ele><time>2026-05-02T13:58:10Z</time></trkpt><trkpt lat="44.1563706" lon="10.3649218"><ele>436.0</ele><time>2026-05-02T13:58:13Z</time></trkpt><trkpt lat="44.1563217" lon="10.364835"><ele>435.5</ele><time>2026-05-02T13:58:15.992Z</time></trkpt><trkpt lat="44.1562812" lon="10.3647351"><ele>435.0</ele><time>2026-05-02T13:58:18.997Z</time></trkpt><trkpt lat="44.156262" lon="10.36462"><ele>434.8333333333333</ele><time>2026-05-02T13:58:21.986Z</time></trkpt><trkpt lat="44.1562461" lon="10.3644975"><ele>434.66666666666663</ele><time>2026-05-02T13:58:24.988Z</time></trkpt><trkpt lat="44.1562453" lon="10.364376"><ele>434.5</ele><time>2026-05-02T13:58:27.99Z</time></trkpt><trkpt lat="44.1562677" lon="10.364262"><ele>434.3333333333333</ele><time>2026-05-02T13:58:30.987Z</time></trkpt><trkpt lat="44.1562952" lon="10.3641506"><ele>434.16666666666663</ele><time>2026-05-02T13:58:33.987Z</time></trkpt><trkpt lat="44.1563188" lon="10.3640433"><ele>434.0</ele><time>2026-05-02T13:58:36.991Z</time></trkpt><trkpt lat="44.1563435" lon="10.363931"><ele>434.49999999999994</ele><time>2026-05-02T13:58:39.995Z</time></trkpt><trkpt lat="44.1563616" lon="10.3638102"><ele>435.0</ele><time>2026-05-02T13:58:42.994Z</time></trkpt><trkpt lat="44.1563799" lon="10.3636852"><ele>435.5</ele><time>2026-05-02T13:58:45.996Z</time></trkpt><trkpt lat="44.1563893" lon="10.3635562"><ele>436.0</ele><time>2026-05-02T13:58:48.998Z</time></trkpt><trkpt lat="44.1564106" lon="10.3634382"><ele>436.49999999999994</ele><time>2026-05-02T13:58:51.985Z</time></trkpt><trkpt lat="44.1564293" lon="10.363321"><ele>437.0</ele><time>2026-05-02T13:58:54.99Z</time></trkpt><trkpt lat="44.1564595" lon="10.363212"><ele>436.99999999999994</ele><time>2026-05-02T13:58:58Z</time></trkpt><trkpt lat="44.1564891" lon="10.3630994"><ele>437.0</ele><time>2026-05-02T13:59:00.999Z</time></trkpt><trkpt lat="44.1565155" lon="10.3629902"><ele>437.0</ele><time>2026-05-02T13:59:03.985Z</time></trkpt><trkpt lat="44.1565394" lon="10.3628702"><ele>437.0</ele><time>2026-05-02T13:59:06.991Z</time></trkpt><trkpt lat="44.1565707" lon="10.3627523"><ele>436.99999999999994</ele><time>2026-05-02T13:59:09.989Z</time></trkpt><trkpt lat="44.1566015" lon="10.3626484"><ele>437.0</ele><time>2026-05-02T13:59:12.997Z</time></trkpt><trkpt lat="44.156626" lon="10.3625426"><ele>439.49999999999994</ele><time>2026-05-02T13:59:15.99Z</time></trkpt><trkpt lat="44.156662" lon="10.3624532"><ele>442.0</ele><time>2026-05-02T13:59:18.984Z</time></trkpt><trkpt lat="44.1567241" lon="10.3623787"><ele>444.5</ele><time>2026-05-02T13:59:21.983Z</time></trkpt><trkpt lat="44.1568017" lon="10.3623281"><ele>447.0</ele><time>2026-05-02T13:59:25Z</time></trkpt><trkpt lat="44.156886" lon="10.3623174"><ele>449.49999999999994</ele><time>2026-05-02T13:59:27.997Z</time></trkpt><trkpt lat="44.1569691" lon="10.3623189"><ele>452.0</ele><time>2026-05-02T13:59:30.991Z</time></trkpt><trkpt lat="44.1570526" lon="10.3623244"><ele>451.99999999999994</ele><time>2026-05-02T13:59:33.982Z</time></trkpt><trkpt lat="44.1571453" lon="10.3623203"><ele>452.0</ele><time>2026-05-02T13:59:36.98Z</time></trkpt><trkpt lat="44.1572346" lon="10.3623053"><ele>452.0</ele><time>2026-05-02T13:59:39.985Z</time></trkpt><trkpt lat="44.1573092" lon="10.3622675"><ele>452.0</ele><time>2026-05-02T13:59:42.999Z</time></trkpt><trkpt lat="44.1573871" lon="10.3621978"><ele>451.99999999999994</ele><time>2026-05-02T13:59:45.99Z</time></trkpt><trkpt lat="44.1574389" lon="10.3621423"><ele>452.0</ele><time>2026-05-02T13:59:48Z</time></trkpt><trkpt lat="44.1575012" lon="10.3620575"><ele>452.66666666666663</ele><time>2026-05-02T13:59:50.984Z</time></trkpt><trkpt lat="44.1575728" lon="10.3619777"><ele>453.3333333333333</ele><time>2026-05-02T13:59:53.988Z</time></trkpt><trkpt lat="44.1576375" lon="10.3618956"><ele>454.0</ele><time>2026-05-02T13:59:57Z</time></trkpt><trkpt lat="44.1577032" lon="10.3618098"><ele>454.66666666666663</ele><time>2026-05-02T14:00:00Z</time></trkpt><trkpt lat="44.1577681" lon="10.3617268"><ele>455.3333333333333</ele><time>2026-05-02T14:00:03Z</time></trkpt><trkpt lat="44.1578354" lon="10.3616444"><ele>456.0</ele><time>2026-05-02T14:00:05.987Z</time></trkpt><trkpt lat="44.1579042" lon="10.3615627"><ele>456.0</ele><time>2026-05-02T14:00:08.992Z</time></trkpt><trkpt lat="44.1579671" lon="10.3614766"><ele>456.0</ele><time>2026-05-02T14:00:11.993Z</time></trkpt><trkpt lat="44.158022" lon="10.3613818"><ele>456.0</ele><time>2026-05-02T14:00:14.989Z</time></trkpt><trkpt lat="44.1580685" lon="10.3612699"><ele>456.0</ele><time>2026-05-02T14:00:18Z</time></trkpt><trkpt lat="44.1581023" lon="10.3611509"><ele>456.0</ele><time>2026-05-02T14:00:20.985Z</time></trkpt><trkpt lat="44.1581292" lon="10.3610298"><ele>457.20000000000005</ele><time>2026-05-02T14:00:23.998Z</time></trkpt><trkpt lat="44.1581511" lon="10.3609052"><ele>458.40000000000003</ele><time>2026-05-02T14:00:27Z</time></trkpt><trkpt lat="44.1581712" lon="10.3607809"><ele>459.6</ele><time>2026-05-02T14:00:29.985Z</time></trkpt><trkpt lat="44.1581991" lon="10.3606602"><ele>460.8</ele><time>2026-05-02T14:00:32.986Z</time></trkpt><trkpt lat="44.1582244" lon="10.3605362"><ele>462.0</ele><time>2026-05-02T14:00:35.997Z</time></trkpt><trkpt lat="44.1582439" lon="10.3604167"><ele>462.0</ele><time>2026-05-02T14:00:39Z</time></trkpt><trkpt lat="44.158271" lon="10.3603005"><ele>462.00000000000006</ele><time>2026-05-02T14:00:41.989Z</time></trkpt><trkpt lat="44.1583089" lon="10.3601857"><ele>462.00000000000006</ele><time>2026-05-02T14:00:44.99Z</time></trkpt><trkpt lat="44.1583668" lon="10.3600822"><ele>462.0</ele><time>2026-05-02T14:00:47.992Z</time></trkpt><trkpt lat="44.1584416" lon="10.360003"><ele>462.0</ele><time>2026-05-02T14:00:50.99Z</time></trkpt><trkpt lat="44.1585264" lon="10.3599591"><ele>462.0</ele><time>2026-05-02T14:00:53.991Z</time></trkpt><trkpt lat="44.1586142" lon="10.3599315"><ele>462.00000000000006</ele><time>2026-05-02T14:00:56.991Z</time></trkpt><trkpt lat="44.1587002" lon="10.3598995"><ele>462.00000000000006</ele><time>2026-05-02T14:00:59.99Z</time></trkpt><trkpt lat="44.1587901" lon="10.3598727"><ele>462.0</ele><time>2026-05-02T14:01:02.981Z</time></trkpt><trkpt lat="44.1588783" lon="10.3598458"><ele>462.0</ele><time>2026-05-02T14:01:06Z</time></trkpt><trkpt lat="44.1589658" lon="10.3598105"><ele>461.6666666666667</ele><time>2026-05-02T14:01:08.985Z</time></trkpt><trkpt lat="44.1590493" lon="10.3597792"><ele>461.33333333333337</ele><time>2026-05-02T14:01:11.997Z</time></trkpt><trkpt lat="44.159135" lon="10.3597466"><ele>461.0</ele><time>2026-05-02T14:01:15Z</time></trkpt><trkpt lat="44.1592208" lon="10.3597136"><ele>460.6666666666667</ele><time>2026-05-02T14:01:17.983Z</time></trkpt><trkpt lat="44.1593036" lon="10.3596855"><ele>460.33333333333337</ele><time>2026-05-02T14:01:20.986Z</time></trkpt><trkpt lat="44.1593884" lon="10.3596557"><ele>460.0</ele><time>2026-05-02T14:01:23.997Z</time></trkpt><trkpt lat="44.1594735" lon="10.3596175"><ele>460.00000000000006</ele><time>2026-05-02T14:01:26.991Z</time></trkpt><trkpt lat="44.1595523" lon="10.3595752"><ele>460.0</ele><time>2026-05-02T14:01:29.988Z</time></trkpt><trkpt lat="44.1596322" lon="10.3595386"><ele>460.0</ele><time>2026-05-02T14:01:32.992Z</time></trkpt><trkpt lat="44.1597171" lon="10.3595069"><ele>460.0</ele><time>2026-05-02T14:01:35.986Z</time></trkpt><trkpt lat="44.1597978" lon="10.3594584"><ele>460.00000000000006</ele><time>2026-05-02T14:01:38.99Z</time></trkpt><trkpt lat="44.1598775" lon="10.3594058"><ele>460.0</ele><time>2026-05-02T14:01:41.987Z</time></trkpt><trkpt lat="44.1599549" lon="10.3593465"><ele>461.83333333333337</ele><time>2026-05-02T14:01:44.998Z</time></trkpt><trkpt lat="44.1600303" lon="10.3592831"><ele>463.6666666666667</ele><time>2026-05-02T14:01:47.999Z</time></trkpt><trkpt lat="44.1600952" lon="10.359207"><ele>465.5</ele><time>2026-05-02T14:01:50.993Z</time></trkpt><trkpt lat="44.1601596" lon="10.359122"><ele>467.33333333333337</ele><time>2026-05-02T14:01:53.993Z</time></trkpt><trkpt lat="44.1602174" lon="10.3590344"><ele>469.1666666666667</ele><time>2026-05-02T14:01:56.995Z</time></trkpt><trkpt lat="44.1602686" lon="10.3589454"><ele>471.0</ele><time>2026-05-02T14:01:59.987Z</time></trkpt><trkpt lat="44.160328" lon="10.3588572"><ele>471.0</ele><time>2026-05-02T14:02:02.99Z</time></trkpt><trkpt lat="44.160384" lon="10.3587626"><ele>471.0</ele><time>2026-05-02T14:02:05.991Z</time></trkpt><trkpt lat="44.1604421" lon="10.3586676"><ele>471.0</ele><time>2026-05-02T14:02:08.991Z</time></trkpt><trkpt lat="44.1605023" lon="10.3585771"><ele>471.0</ele><time>2026-05-02T14:02:11.992Z</time></trkpt><trkpt lat="44.1605614" lon="10.3584813"><ele>471.0</ele><time>2026-05-02T14:02:14.983Z</time></trkpt><trkpt lat="44.160618" lon="10.3583905"><ele>471.0</ele><time>2026-05-02T14:02:18Z</time></trkpt><trkpt lat="44.1606752" lon="10.3582953"><ele>473.0</ele><time>2026-05-02T14:02:20.986Z</time></trkpt><trkpt lat="44.1607341" lon="10.3582094"><ele>475.0</ele><time>2026-05-02T14:02:23.986Z</time></trkpt><trkpt lat="44.1607896" lon="10.358119"><ele>477.0</ele><time>2026-05-02T14:02:26.993Z</time></trkpt><trkpt lat="44.1608387" lon="10.3580205"><ele>479.0</ele><time>2026-05-02T14:02:29.991Z</time></trkpt><trkpt lat="44.1608874" lon="10.3579264"><ele>481.0</ele><time>2026-05-02T14:02:32.984Z</time></trkpt><trkpt lat="44.1609316" lon="10.3578252"><ele>483.0</ele><time>2026-05-02T14:02:35.99Z</time></trkpt><trkpt lat="44.1609726" lon="10.3577193"><ele>483.0</ele><time>2026-05-02T14:02:38.992Z</time></trkpt><trkpt lat="44.1610074" lon="10.3576112"><ele>483.0</ele><time>2026-05-02T14:02:41.981Z</time></trkpt><trkpt lat="44.1610404" lon="10.3575032"><ele>483.0</ele><time>2026-05-02T14:02:44.987Z</time></trkpt><trkpt lat="44.1610693" lon="10.3574006"><ele>483.0</ele><time>2026-05-02T14:02:47.987Z</time></trkpt><trkpt lat="44.1610963" lon="10.3572978"><ele>483.0</ele><time>2026-05-02T14:02:50.985Z</time></trkpt><trkpt lat="44.1611249" lon="10.3571982"><ele>483.0</ele><time>2026-05-02T14:02:54Z</time></trkpt><trkpt lat="44.1611624" lon="10.3570881"><ele>482.1666666666667</ele><time>2026-05-02T14:02:56.988Z</time></trkpt><trkpt lat="44.1611908" lon="10.3569744"><ele>481.33333333333337</ele><time>2026-05-02T14:02:59.999Z</time></trkpt><trkpt lat="44.1612254" lon="10.3568661"><ele>480.5</ele><time>2026-05-02T14:03:02.985Z</time></trkpt><trkpt lat="44.1612575" lon="10.3567535"><ele>479.6666666666667</ele><time>2026-05-02T14:03:05.991Z</time></trkpt><trkpt lat="44.1612848" lon="10.3566399"><ele>478.83333333333337</ele><time>2026-05-02T14:03:08.99Z</time></trkpt><trkpt lat="44.1613186" lon="10.3565278"><ele>478.0</ele><time>2026-05-02T14:03:11.984Z</time></trkpt><trkpt lat="44.1613523" lon="10.3564111"><ele>478.83333333333337</ele><time>2026-05-02T14:03:14.998Z</time></trkpt><trkpt lat="44.1613855" lon="10.3562987"><ele>479.6666666666667</ele><time>2026-05-02T14:03:18Z</time></trkpt><trkpt lat="44.1614174" lon="10.3561888"><ele>480.5</ele><time>2026-05-02T14:03:20.992Z</time></trkpt><trkpt lat="44.1614458" lon="10.3560727"><ele>481.33333333333337</ele><time>2026-05-02T14:03:23.982Z</time></trkpt><trkpt lat="44.1614667" lon="10.3559517"><ele>482.1666666666667</ele><time>2026-05-02T14:03:26.991Z</time></trkpt><trkpt lat="44.1614534" lon="10.3558322"><ele>483.0</ele><time>2026-05-02T14:03:29.994Z</time></trkpt><trkpt lat="44.1614237" lon="10.3557219"><ele>483.0</ele><time>2026-05-02T14:03:32.99Z</time></trkpt><trkpt lat="44.1613622" lon="10.3556259"><ele>483.0</ele><time>2026-05-02T14:03:35.992Z</time></trkpt><trkpt lat="44.1612969" lon="10.3555417"><ele>483.0</ele><time>2026-05-02T14:03:38.992Z</time></trkpt><trkpt lat="44.1612475" lon="10.3554867"><ele>483.0</ele><time>2026-05-02T14:03:40.984Z</time></trkpt><trkpt lat="44.1611759" lon="10.355409"><ele>483.0</ele><time>2026-05-02T14:03:43.987Z</time></trkpt><trkpt lat="44.1611072" lon="10.3553296"><ele>483.0</ele><time>2026-05-02T14:03:46.999Z</time></trkpt><trkpt lat="44.1610407" lon="10.3552421"><ele>482.1666666666667</ele><time>2026-05-02T14:03:50Z</time></trkpt><trkpt lat="44.1609777" lon="10.3551587"><ele>481.33333333333337</ele><time>2026-05-02T14:03:53Z</time></trkpt><trkpt lat="44.1609118" lon="10.3550789"><ele>480.5</ele><time>2026-05-02T14:03:55.987Z</time></trkpt><trkpt lat="44.1608483" lon="10.3549973"><ele>479.6666666666667</ele><time>2026-05-02T14:03:58.985Z</time></trkpt><trkpt lat="44.1607869" lon="10.3549162"><ele>478.83333333333337</ele><time>2026-05-02T14:04:01.996Z</time></trkpt><trkpt lat="44.1607216" lon="10.3548237"><ele>478.0</ele><time>2026-05-02T14:04:04.996Z</time></trkpt><trkpt lat="44.1606725" lon="10.3547165"><ele>478.50000000000006</ele><time>2026-05-02T14:04:07.98Z</time></trkpt><trkpt lat="44.1606462" lon="10.3545985"><ele>479.0</ele><time>2026-05-02T14:04:10.989Z</time></trkpt><trkpt lat="44.1606485" lon="10.3544737"><ele>479.5</ele><time>2026-05-02T14:04:13.986Z</time></trkpt><trkpt lat="44.1606687" lon="10.3543617"><ele>480.0</ele><time>2026-05-02T14:04:17Z</time></trkpt><trkpt lat="44.1607105" lon="10.3542588"><ele>480.50000000000006</ele><time>2026-05-02T14:04:19.987Z</time></trkpt><trkpt lat="44.1607575" lon="10.3541662"><ele>481.0</ele><time>2026-05-02T14:04:23.001Z</time></trkpt><trkpt lat="44.1608043" lon="10.354074"><ele>482.1666666666667</ele><time>2026-05-02T14:04:25.993Z</time></trkpt><trkpt lat="44.1608493" lon="10.353977"><ele>483.33333333333337</ele><time>2026-05-02T14:04:29Z</time></trkpt><trkpt lat="44.1608969" lon="10.3538857"><ele>484.5</ele><time>2026-05-02T14:04:31.993Z</time></trkpt><trkpt lat="44.1609489" lon="10.353798"><ele>485.66666666666663</ele><time>2026-05-02T14:04:34.985Z</time></trkpt><trkpt lat="44.161005" lon="10.3537082"><ele>486.8333333333333</ele><time>2026-05-02T14:04:37.995Z</time></trkpt><trkpt lat="44.1610666" lon="10.3536325"><ele>488.0</ele><time>2026-05-02T14:04:40.997Z</time></trkpt><trkpt lat="44.1611358" lon="10.3535811"><ele>487.99999999999994</ele><time>2026-05-02T14:04:43.992Z</time></trkpt><trkpt lat="44.1612218" lon="10.353592"><ele>488.0</ele><time>2026-05-02T14:04:46.999Z</time></trkpt><trkpt lat="44.1612922" lon="10.3536115"><ele>488.0</ele><time>2026-05-02T14:04:50Z</time></trkpt><trkpt lat="44.1613593" lon="10.3536566"><ele>488.0</ele><time>2026-05-02T14:04:52.985Z</time></trkpt><trkpt lat="44.1614217" lon="10.3537273"><ele>487.99999999999994</ele><time>2026-05-02T14:04:55.997Z</time></trkpt><trkpt lat="44.1614853" lon="10.3537889"><ele>488.0</ele><time>2026-05-02T14:04:58.992Z</time></trkpt><trkpt lat="44.1615521" lon="10.3538524"><ele>490.49999999999994</ele><time>2026-05-02T14:05:01.994Z</time></trkpt><trkpt lat="44.1616187" lon="10.3539254"><ele>493.0</ele><time>2026-05-02T14:05:04.996Z</time></trkpt><trkpt lat="44.1616885" lon="10.3539972"><ele>495.5</ele><time>2026-05-02T14:05:07.983Z</time></trkpt><trkpt lat="44.1617559" lon="10.35407"><ele>498.0</ele><time>2026-05-02T14:05:10.984Z</time></trkpt><trkpt lat="44.1618231" lon="10.3541437"><ele>500.49999999999994</ele><time>2026-05-02T14:05:13.998Z</time></trkpt><trkpt lat="44.1618869" lon="10.3542182"><ele>503.0</ele><time>2026-05-02T14:05:16.984Z</time></trkpt><trkpt lat="44.161955" lon="10.3542901"><ele>502.99999999999994</ele><time>2026-05-02T14:05:20Z</time></trkpt><trkpt lat="44.1620216" lon="10.3543576"><ele>503.0</ele><time>2026-05-02T14:05:22.994Z</time></trkpt><trkpt lat="44.1620923" lon="10.3544217"><ele>503.0</ele><time>2026-05-02T14:05:26Z</time></trkpt><trkpt lat="44.1621667" lon="10.3544807"><ele>503.0</ele><time>2026-05-02T14:05:28.984Z</time></trkpt><trkpt lat="44.1622431" lon="10.3545211"><ele>502.99999999999994</ele><time>2026-05-02T14:05:31.993Z</time></trkpt><trkpt lat="44.1623302" lon="10.3545449"><ele>503.0</ele><time>2026-05-02T14:05:34.995Z</time></trkpt><trkpt lat="44.1624179" lon="10.354559"><ele>501.66666666666663</ele><time>2026-05-02T14:05:37.987Z</time></trkpt><trkpt lat="44.1625073" lon="10.354563"><ele>500.3333333333333</ele><time>2026-05-02T14:05:40.988Z</time></trkpt><trkpt lat="44.162595" lon="10.354558"><ele>499.0</ele><time>2026-05-02T14:05:43.999Z</time></trkpt><trkpt lat="44.1626701" lon="10.3545461"><ele>497.66666666666663</ele><time>2026-05-02T14:05:46.993Z</time></trkpt><trkpt lat="44.1627543" lon="10.3545372"><ele>496.3333333333333</ele><time>2026-05-02T14:05:49.991Z</time></trkpt><trkpt lat="44.162834" lon="10.3545344"><ele>495.0</ele><time>2026-05-02T14:05:52.993Z</time></trkpt><trkpt lat="44.162917" lon="10.3545269"><ele>495.0</ele><time>2026-05-02T14:05:55.993Z</time></trkpt><trkpt lat="44.1630052" lon="10.3545124"><ele>495.0</ele><time>2026-05-02T14:05:58.994Z</time></trkpt><trkpt lat="44.163089" lon="10.3544998"><ele>495.0</ele><time>2026-05-02T14:06:01.987Z</time></trkpt><trkpt lat="44.1631588" lon="10.3544847"><ele>495.0</ele><time>2026-05-02T14:06:04.991Z</time></trkpt><trkpt lat="44.1632422" lon="10.3544657"><ele>495.0</ele><time>2026-05-02T14:06:07.993Z</time></trkpt><trkpt lat="44.1633256" lon="10.3544463"><ele>495.0</ele><time>2026-05-02T14:06:10.985Z</time></trkpt><trkpt lat="44.1634053" lon="10.354426"><ele>495.1428571428571</ele><time>2026-05-02T14:06:13.992Z</time></trkpt><trkpt lat="44.1634938" lon="10.3544148"><ele>495.2857142857143</ele><time>2026-05-02T14:06:16.992Z</time></trkpt><trkpt lat="44.163558" lon="10.354406"><ele>495.42857142857144</ele><time>2026-05-02T14:06:18.996Z</time></trkpt><trkpt lat="44.1636208" lon="10.3543928"><ele>495.57142857142856</ele><time>2026-05-02T14:06:20.99Z</time></trkpt><trkpt lat="44.163705" lon="10.3543764"><ele>495.7142857142858</ele><time>2026-05-02T14:06:23.987Z</time></trkpt><trkpt lat="44.1637797" lon="10.3543652"><ele>495.8571428571429</ele><time>2026-05-02T14:06:26.993Z</time></trkpt><trkpt lat="44.1638456" lon="10.3543478"><ele>496.0</ele><time>2026-05-02T14:06:29.987Z</time></trkpt><trkpt lat="44.163917" lon="10.3543277"><ele>496.00000000000006</ele><time>2026-05-02T14:06:32.987Z</time></trkpt><trkpt lat="44.1639945" lon="10.3543095"><ele>496.0</ele><time>2026-05-02T14:06:35.991Z</time></trkpt><trkpt lat="44.1640737" lon="10.354291"><ele>496.0</ele><time>2026-05-02T14:06:38.993Z</time></trkpt><trkpt lat="44.1641451" lon="10.3542422"><ele>496.0</ele><time>2026-05-02T14:06:41.991Z</time></trkpt><trkpt lat="44.1642111" lon="10.3541823"><ele>496.00000000000006</ele><time>2026-05-02T14:06:44.995Z</time></trkpt><trkpt lat="44.1642752" lon="10.3541339"><ele>496.0</ele><time>2026-05-02T14:06:47.994Z</time></trkpt><trkpt lat="44.1643275" lon="10.3540679"><ele>496.14285714285717</ele><time>2026-05-02T14:06:50.987Z</time></trkpt><trkpt lat="44.1643761" lon="10.3539964"><ele>496.28571428571433</ele><time>2026-05-02T14:06:53.993Z</time></trkpt><trkpt lat="44.1644227" lon="10.3539268"><ele>496.42857142857144</ele><time>2026-05-02T14:06:56.995Z</time></trkpt><trkpt lat="44.1644829" lon="10.3538878"><ele>496.57142857142856</ele><time>2026-05-02T14:06:59.988Z</time></trkpt><trkpt lat="44.164561" lon="10.3538753"><ele>496.7142857142857</ele><time>2026-05-02T14:07:03.997Z</time></trkpt><trkpt lat="44.164624" lon="10.3539036"><ele>496.8571428571429</ele><time>2026-05-02T14:07:07.996Z</time></trkpt><trkpt lat="44.1646871" lon="10.3539585"><ele>497.0</ele><time>2026-05-02T14:07:12.984Z</time></trkpt><trkpt lat="44.1647483" lon="10.3540072"><ele>497.0</ele><time>2026-05-02T14:07:17.986Z</time></trkpt><trkpt lat="44.1648077" lon="10.3540803"><ele>497.0</ele><time>2026-05-02T14:07:22.99Z</time></trkpt><trkpt lat="44.1648356" lon="10.3541646"><ele>497.0</ele><time>2026-05-02T14:07:26.988Z</time></trkpt><trkpt lat="44.1648386" lon="10.3542544"><ele>497.0</ele><time>2026-05-02T14:07:30.992Z</time></trkpt><trkpt lat="44.1648123" lon="10.354336"><ele>497.0</ele><time>2026-05-02T14:07:34.984Z</time></trkpt><trkpt lat="44.1647771" lon="10.3544092"><ele>497.0</ele><time>2026-05-02T14:07:38.983Z</time></trkpt><trkpt lat="44.164732" lon="10.3544771"><ele>497.0</ele><time>2026-05-02T14:07:42.984Z</time></trkpt><trkpt lat="44.1646685" lon="10.3545167"><ele>497.0</ele><time>2026-05-02T14:07:46.981Z</time></trkpt><trkpt lat="44.1646006" lon="10.3545383"><ele>497.0</ele><time>2026-05-02T14:07:50.988Z</time></trkpt><trkpt lat="44.164531" lon="10.354563"><ele>497.0</ele><time>2026-05-02T14:07:54.992Z</time></trkpt><trkpt lat="44.1644626" lon="10.3545754"><ele>497.0</ele><time>2026-05-02T14:07:58.984Z</time></trkpt><trkpt lat="44.1644057" lon="10.354615"><ele>497.0</ele><time>2026-05-02T14:08:02.99Z</time></trkpt><trkpt lat="44.1643549" lon="10.3546756"><ele>497.0</ele><time>2026-05-02T14:08:06.988Z</time></trkpt><trkpt lat="44.1643241" lon="10.3547588"><ele>497.0</ele><time>2026-05-02T14:08:10.986Z</time></trkpt><trkpt lat="44.1643028" lon="10.3548462"><ele>499.2857142857143</ele><time>2026-05-02T14:08:14.994Z</time></trkpt><trkpt lat="44.1642808" lon="10.3549411"><ele>501.57142857142856</ele><time>2026-05-02T14:08:19.994Z</time></trkpt><trkpt lat="44.1642574" lon="10.3550284"><ele>503.8571428571429</ele><time>2026-05-02T14:08:23.992Z</time></trkpt><trkpt lat="44.1642483" lon="10.3551216"><ele>506.14285714285717</ele><time>2026-05-02T14:08:27.989Z</time></trkpt><trkpt lat="44.1642414" lon="10.3552162"><ele>508.42857142857144</ele><time>2026-05-02T14:08:31.997Z</time></trkpt><trkpt lat="44.164217" lon="10.3553125"><ele>510.7142857142858</ele><time>2026-05-02T14:08:36.989Z</time></trkpt><trkpt lat="44.1641783" lon="10.3553969"><ele>513.0</ele><time>2026-05-02T14:08:41.99Z</time></trkpt><trkpt lat="44.1641311" lon="10.3554654"><ele>514.0000000000001</ele><time>2026-05-02T14:08:45.996Z</time></trkpt><trkpt lat="44.1640725" lon="10.3555375"><ele>515.0</ele><time>2026-05-02T14:08:50.987Z</time></trkpt><trkpt lat="44.1640145" lon="10.3555891"><ele>516.0</ele><time>2026-05-02T14:08:54.988Z</time></trkpt><trkpt lat="44.1639509" lon="10.3556486"><ele>517.0</ele><time>2026-05-02T14:08:58.99Z</time></trkpt><trkpt lat="44.1638825" lon="10.3557093"><ele>518.0</ele><time>2026-05-02T14:09:02.999Z</time></trkpt><trkpt lat="44.1638337" lon="10.3557921"><ele>519.0000000000001</ele><time>2026-05-02T14:09:06.991Z</time></trkpt><trkpt lat="44.1638182" lon="10.3558822"><ele>520.0</ele><time>2026-05-02T14:09:10.982Z</time></trkpt><trkpt lat="44.1638401" lon="10.3559721"><ele>520.0000000000001</ele><time>2026-05-02T14:09:14.985Z</time></trkpt><trkpt lat="44.1638656" lon="10.3560529"><ele>520.0</ele><time>2026-05-02T14:09:18.985Z</time></trkpt><trkpt lat="44.1638953" lon="10.35614"><ele>520.0</ele><time>2026-05-02T14:09:22.992Z</time></trkpt><trkpt lat="44.1639388" lon="10.3562153"><ele>520.0</ele><time>2026-05-02T14:09:26.981Z</time></trkpt><trkpt lat="44.1639962" lon="10.3562688"><ele>520.0</ele><time>2026-05-02T14:09:30.998Z</time></trkpt><trkpt lat="44.1640631" lon="10.3562896"><ele>520.0000000000001</ele><time>2026-05-02T14:09:34.991Z</time></trkpt><trkpt lat="44.1641328" lon="10.3562819"><ele>520.0</ele><time>2026-05-02T14:09:38.983Z</time></trkpt><trkpt lat="44.1642053" lon="10.3562697"><ele>521.2857142857143</ele><time>2026-05-02T14:09:43Z</time></trkpt><trkpt lat="44.1642668" lon="10.3562393"><ele>522.5714285714286</ele><time>2026-05-02T14:09:47Z</time></trkpt><trkpt lat="44.1643364" lon="10.3562246"><ele>523.8571428571429</ele><time>2026-05-02T14:09:50.994Z</time></trkpt><trkpt lat="44.1644036" lon="10.3561965"><ele>525.1428571428571</ele><time>2026-05-02T14:09:54.994Z</time></trkpt><trkpt lat="44.1644598" lon="10.3561511"><ele>526.4285714285714</ele><time>2026-05-02T14:09:58.986Z</time></trkpt><trkpt lat="44.1645171" lon="10.3561129"><ele>527.7142857142858</ele><time>2026-05-02T14:10:02.996Z</time></trkpt><trkpt lat="44.164582" lon="10.3560763"><ele>529.0</ele><time>2026-05-02T14:10:07Z</time></trkpt><trkpt lat="44.1646561" lon="10.3560399"><ele>529.0</ele><time>2026-05-02T14:10:12Z</time></trkpt><trkpt lat="44.1647245" lon="10.3560618"><ele>529.0</ele><time>2026-05-02T14:10:15.991Z</time></trkpt><trkpt lat="44.1647263" lon="10.356151"><ele>529.0</ele><time>2026-05-02T14:10:19.986Z</time></trkpt><trkpt lat="44.1646858" lon="10.3562287"><ele>529.0</ele><time>2026-05-02T14:10:23.986Z</time></trkpt><trkpt lat="44.1646276" lon="10.3562883"><ele>529.0</ele><time>2026-05-02T14:10:27.995Z</time></trkpt><trkpt lat="44.164572" lon="10.3563427"><ele>529.0</ele><time>2026-05-02T14:10:31.984Z</time></trkpt><trkpt lat="44.164513" lon="10.3563956"><ele>529.0</ele><time>2026-05-02T14:10:35.989Z</time></trkpt><trkpt lat="44.1644576" lon="10.3564518"><ele>531.5714285714286</ele><time>2026-05-02T14:10:39.995Z</time></trkpt><trkpt lat="44.1644013" lon="10.3565071"><ele>534.1428571428571</ele><time>2026-05-02T14:10:43.992Z</time></trkpt><trkpt lat="44.1643431" lon="10.3565588"><ele>536.7142857142857</ele><time>2026-05-02T14:10:47.998Z</time></trkpt><trkpt lat="44.1642912" lon="10.3566114"><ele>539.2857142857142</ele><time>2026-05-02T14:10:51.999Z</time></trkpt><trkpt lat="44.1642315" lon="10.3566682"><ele>541.8571428571428</ele><time>2026-05-02T14:10:55.99Z</time></trkpt><trkpt lat="44.1641752" lon="10.3567309"><ele>544.4285714285714</ele><time>2026-05-02T14:10:59.987Z</time></trkpt><trkpt lat="44.1641186" lon="10.3567837"><ele>547.0</ele><time>2026-05-02T14:11:04Z</time></trkpt><trkpt lat="44.1640624" lon="10.3568355"><ele>547.0</ele><time>2026-05-02T14:11:07.985Z</time></trkpt><trkpt lat="44.164013" lon="10.3568907"><ele>547.0</ele><time>2026-05-02T14:11:11.992Z</time></trkpt><trkpt lat="44.1639635" lon="10.3569533"><ele>547.0</ele><time>2026-05-02T14:11:15.987Z</time></trkpt><trkpt lat="44.163963" lon="10.3570426"><ele>547.0</ele><time>2026-05-02T14:11:19.991Z</time></trkpt><trkpt lat="44.1640059" lon="10.357117"><ele>547.0</ele><time>2026-05-02T14:11:23.988Z</time></trkpt><trkpt lat="44.164054" lon="10.3571769"><ele>547.0</ele><time>2026-05-02T14:11:27.987Z</time></trkpt><trkpt lat="44.1641088" lon="10.3572363"><ele>547.0</ele><time>2026-05-02T14:11:31.989Z</time></trkpt><trkpt lat="44.1641585" lon="10.3572954"><ele>549.0</ele><time>2026-05-02T14:11:35.998Z</time></trkpt><trkpt lat="44.1641932" lon="10.3573733"><ele>551.0</ele><time>2026-05-02T14:11:39.986Z</time></trkpt><trkpt lat="44.1642139" lon="10.3574583"><ele>553.0</ele><time>2026-05-02T14:11:43.992Z</time></trkpt><trkpt lat="44.1642199" lon="10.3575489"><ele>555.0</ele><time>2026-05-02T14:11:47.992Z</time></trkpt><trkpt lat="44.1642066" lon="10.3576403"><ele>557.0</ele><time>2026-05-02T14:11:51.996Z</time></trkpt><trkpt lat="44.164194" lon="10.3577305"><ele>559.0</ele><time>2026-05-02T14:11:55.996Z</time></trkpt><trkpt lat="44.1641793" lon="10.3578167"><ele>561.0</ele><time>2026-05-02T14:11:59.984Z</time></trkpt><trkpt lat="44.1641607" lon="10.3579075"><ele>561.0</ele><time>2026-05-02T14:12:03.992Z</time></trkpt><trkpt lat="44.1641398" lon="10.3580024"><ele>561.0</ele><time>2026-05-02T14:12:07.982Z</time></trkpt><trkpt lat="44.164153" lon="10.3581015"><ele>561.0</ele><time>2026-05-02T14:12:11.983Z</time></trkpt><trkpt lat="44.1641605" lon="10.3581929"><ele>561.0</ele><time>2026-05-02T14:12:15.985Z</time></trkpt><trkpt lat="44.1641676" lon="10.3583011"><ele>561.0</ele><time>2026-05-02T14:12:21.982Z</time></trkpt><trkpt lat="44.1641571" lon="10.3584077"><ele>561.0</ele><time>2026-05-02T14:12:26.981Z</time></trkpt><trkpt lat="44.1641298" lon="10.3584974"><ele>561.0</ele><time>2026-05-02T14:12:30.987Z</time></trkpt><trkpt lat="44.164091" lon="10.3585939"><ele>562.0</ele><time>2026-05-02T14:12:34.996Z</time></trkpt><trkpt lat="44.1640685" lon="10.3586845"><ele>563.0</ele><time>2026-05-02T14:12:38.992Z</time></trkpt><trkpt lat="44.1640473" lon="10.3587696"><ele>564.0</ele><time>2026-05-02T14:12:42.933Z</time></trkpt><trkpt lat="44.1640287" lon="10.3588608"><ele>565.0</ele><time>2026-05-02T14:12:46.953Z</time></trkpt><trkpt lat="44.1640238" lon="10.3589525"><ele>566.0</ele><time>2026-05-02T14:12:50.981Z</time></trkpt><trkpt lat="44.1640121" lon="10.3590466"><ele>567.0</ele><time>2026-05-02T14:12:54.934Z</time></trkpt><trkpt lat="44.1639925" lon="10.3591505"><ele>568.0</ele><time>2026-05-02T14:12:58.999Z</time></trkpt><trkpt lat="44.1639752" lon="10.3592454"><ele>567.2857142857142</ele><time>2026-05-02T14:16:53.978Z</time></trkpt><trkpt lat="44.163978" lon="10.3593347"><ele>566.5714285714286</ele><time>2026-05-02T14:16:57.996Z</time></trkpt><trkpt lat="44.16395" lon="10.3594142"><ele>565.8571428571429</ele><time>2026-05-02T14:17:00.995Z</time></trkpt><trkpt lat="44.1639135" lon="10.3595066"><ele>565.1428571428571</ele><time>2026-05-02T14:17:04.989Z</time></trkpt><trkpt lat="44.1638988" lon="10.359608"><ele>564.4285714285714</ele><time>2026-05-02T14:17:09.996Z</time></trkpt><trkpt lat="44.1638795" lon="10.3596942"><ele>563.7142857142857</ele><time>2026-05-02T14:17:13.989Z</time></trkpt><trkpt lat="44.1638796" lon="10.3598026"><ele>563.0</ele><time>2026-05-02T14:17:18.992Z</time></trkpt><trkpt lat="44.163914" lon="10.3598844"><ele>563.0</ele><time>2026-05-02T14:17:22.986Z</time></trkpt><trkpt lat="44.1639295" lon="10.3599839"><ele>563.0</ele><time>2026-05-02T14:17:28Z</time></trkpt><trkpt lat="44.1639302" lon="10.3600879"><ele>563.0</ele><time>2026-05-02T14:17:32.985Z</time></trkpt><trkpt lat="44.1638995" lon="10.3601812"><ele>563.0</ele><time>2026-05-02T14:17:36.993Z</time></trkpt><trkpt lat="44.1638545" lon="10.360261"><ele>563.0</ele><time>2026-05-02T14:17:40.982Z</time></trkpt><trkpt lat="44.1638142" lon="10.3603364"><ele>563.0</ele><time>2026-05-02T14:17:44.99Z</time></trkpt><trkpt lat="44.1637729" lon="10.3604107"><ele>563.0</ele><time>2026-05-02T14:17:48.99Z</time></trkpt><trkpt lat="44.1637298" lon="10.3604859"><ele>566.0</ele><time>2026-05-02T14:17:52.993Z</time></trkpt><trkpt lat="44.163683" lon="10.3605638"><ele>569.0</ele><time>2026-05-02T14:17:57Z</time></trkpt><trkpt lat="44.1636384" lon="10.3606367"><ele>572.0</ele><time>2026-05-02T14:18:00.998Z</time></trkpt><trkpt lat="44.1635954" lon="10.3607008"><ele>575.0</ele><time>2026-05-02T14:18:04.991Z</time></trkpt><trkpt lat="44.16354" lon="10.360747"><ele>578.0</ele><time>2026-05-02T14:18:09Z</time></trkpt><trkpt lat="44.1634704" lon="10.3607944"><ele>581.0</ele><time>2026-05-02T14:18:12.985Z</time></trkpt><trkpt lat="44.1634046" lon="10.3608295"><ele>584.0</ele><time>2026-05-02T14:18:16.995Z</time></trkpt><trkpt lat="44.1633427" lon="10.3608808"><ele>584.0</ele><time>2026-05-02T14:18:20.999Z</time></trkpt><trkpt lat="44.1632799" lon="10.3609136"><ele>584.0</ele><time>2026-05-02T14:18:24.981Z</time></trkpt><trkpt lat="44.1632241" lon="10.3609614"><ele>584.0</ele><time>2026-05-02T14:18:28.99Z</time></trkpt><trkpt lat="44.1631686" lon="10.3610236"><ele>584.0</ele><time>2026-05-02T14:18:33Z</time></trkpt><trkpt lat="44.1631217" lon="10.3611136"><ele>584.0</ele><time>2026-05-02T14:18:37.993Z</time></trkpt><trkpt lat="44.1630805" lon="10.3612083"><ele>584.0</ele><time>2026-05-02T14:18:42.999Z</time></trkpt><trkpt lat="44.1630707" lon="10.3612964"><ele>584.0</ele><time>2026-05-02T14:18:46.986Z</time></trkpt><trkpt lat="44.1630873" lon="10.361382"><ele>583.0</ele><time>2026-05-02T14:18:50.996Z</time></trkpt><trkpt lat="44.1631198" lon="10.3614583"><ele>582.0</ele><time>2026-05-02T14:18:54.992Z</time></trkpt><trkpt lat="44.1631495" lon="10.3615387"><ele>581.0</ele><time>2026-05-02T14:18:58.991Z</time></trkpt><trkpt lat="44.1631595" lon="10.3616295"><ele>580.0</ele><time>2026-05-02T14:19:02.993Z</time></trkpt><trkpt lat="44.163153" lon="10.3617316"><ele>579.0</ele><time>2026-05-02T14:19:06.997Z</time></trkpt><trkpt lat="44.1631735" lon="10.3618288"><ele>578.0</ele><time>2026-05-02T14:19:10.995Z</time></trkpt><trkpt lat="44.1632263" lon="10.3619063"><ele>577.0</ele><time>2026-05-02T14:19:14.989Z</time></trkpt><trkpt lat="44.1632892" lon="10.3618562"><ele>580.8571428571429</ele><time>2026-05-02T14:19:19.985Z</time></trkpt><trkpt lat="44.1633075" lon="10.3617654"><ele>584.7142857142858</ele><time>2026-05-02T14:19:24.998Z</time></trkpt><trkpt lat="44.1633529" lon="10.3616816"><ele>588.5714285714287</ele><time>2026-05-02T14:19:28.981Z</time></trkpt><trkpt lat="44.163405" lon="10.3616219"><ele>592.4285714285714</ele><time>2026-05-02T14:19:32.998Z</time></trkpt><trkpt lat="44.1634682" lon="10.3616493"><ele>596.2857142857143</ele><time>2026-05-02T14:19:37.99Z</time></trkpt><trkpt lat="44.163482" lon="10.3617537"><ele>600.1428571428572</ele><time>2026-05-02T14:19:43Z</time></trkpt><trkpt lat="44.1634844" lon="10.3618532"><ele>604.0</ele><time>2026-05-02T14:19:47.87Z</time></trkpt><trkpt lat="44.1635002" lon="10.3619427"><ele>604.0000000000001</ele><time>2026-05-02T14:19:51.995Z</time></trkpt><trkpt lat="44.1635298" lon="10.362028"><ele>604.0</ele><time>2026-05-02T14:19:55.995Z</time></trkpt><trkpt lat="44.1635885" lon="10.3620803"><ele>604.0</ele><time>2026-05-02T14:19:59.994Z</time></trkpt><trkpt lat="44.1636424" lon="10.3621405"><ele>604.0</ele><time>2026-05-02T14:20:03.986Z</time></trkpt><trkpt lat="44.163676" lon="10.3622363"><ele>604.0</ele><time>2026-05-02T14:20:07.993Z</time></trkpt><trkpt lat="44.1636839" lon="10.3623389"><ele>604.0000000000001</ele><time>2026-05-02T14:20:11.994Z</time></trkpt><trkpt lat="44.1637275" lon="10.3624097"><ele>604.0</ele><time>2026-05-02T14:20:15.991Z</time></trkpt><trkpt lat="44.1637955" lon="10.3623826"><ele>604.0000000000001</ele><time>2026-05-02T14:20:19.992Z</time></trkpt><trkpt lat="44.163843" lon="10.3623239"><ele>604.0</ele><time>2026-05-02T14:20:23.989Z</time></trkpt><trkpt lat="44.163876" lon="10.3622411"><ele>604.0</ele><time>2026-05-02T14:20:27.984Z</time></trkpt><trkpt lat="44.1638848" lon="10.3621378"><ele>604.0</ele><time>2026-05-02T14:20:31.999Z</time></trkpt><trkpt lat="44.1639048" lon="10.3620358"><ele>604.0</ele><time>2026-05-02T14:20:35.987Z</time></trkpt><trkpt lat="44.1639138" lon="10.3619404"><ele>604.0000000000001</ele><time>2026-05-02T14:20:39.978Z</time></trkpt><trkpt lat="44.1639135" lon="10.3618482"><ele>604.0</ele><time>2026-05-02T14:20:43.995Z</time></trkpt><trkpt lat="44.1639267" lon="10.3617613"><ele>604.0000000000001</ele><time>2026-05-02T14:20:47.987Z</time></trkpt><trkpt lat="44.1639337" lon="10.3616698"><ele>604.0</ele><time>2026-05-02T14:20:51.984Z</time></trkpt><trkpt lat="44.1639612" lon="10.3615892"><ele>604.0</ele><time>2026-05-02T14:20:55.992Z</time></trkpt><trkpt lat="44.1639892" lon="10.3615029"><ele>604.0</ele><time>2026-05-02T14:20:59.985Z</time></trkpt><trkpt lat="44.164038" lon="10.3614332"><ele>604.0</ele><time>2026-05-02T14:21:04Z</time></trkpt><trkpt lat="44.1640984" lon="10.3613783"><ele>604.0000000000001</ele><time>2026-05-02T14:21:07.985Z</time></trkpt><trkpt lat="44.1641584" lon="10.3613298"><ele>604.0</ele><time>2026-05-02T14:21:11.992Z</time></trkpt><trkpt lat="44.1642263" lon="10.3612895"><ele>605.2857142857143</ele><time>2026-05-02T14:21:15.988Z</time></trkpt><trkpt lat="44.1642867" lon="10.3612497"><ele>606.5714285714286</ele><time>2026-05-02T14:21:19.997Z</time></trkpt><trkpt lat="44.1643535" lon="10.3612087"><ele>607.8571428571429</ele><time>2026-05-02T14:21:24Z</time></trkpt><trkpt lat="44.1644206" lon="10.3611776"><ele>609.1428571428571</ele><time>2026-05-02T14:21:27.981Z</time></trkpt><trkpt lat="44.1644801" lon="10.3611211"><ele>610.4285714285714</ele><time>2026-05-02T14:21:32Z</time></trkpt><trkpt lat="44.1645406" lon="10.3610852"><ele>611.7142857142858</ele><time>2026-05-02T14:21:35.995Z</time></trkpt><trkpt lat="44.1645986" lon="10.3610306"><ele>613.0</ele><time>2026-05-02T14:21:39.989Z</time></trkpt><trkpt lat="44.1646525" lon="10.3609819"><ele>613.0</ele><time>2026-05-02T14:21:44Z</time></trkpt><trkpt lat="44.164701" lon="10.3609033"><ele>613.0</ele><time>2026-05-02T14:21:47.998Z</time></trkpt><trkpt lat="44.164725" lon="10.360813"><ele>613.0</ele><time>2026-05-02T14:21:51.999Z</time></trkpt><trkpt lat="44.1647759" lon="10.3607303"><ele>613.0</ele><time>2026-05-02T14:21:56Z</time></trkpt><trkpt lat="44.1648233" lon="10.3606496"><ele>613.0</ele><time>2026-05-02T14:21:59.991Z</time></trkpt><trkpt lat="44.1648861" lon="10.3605797"><ele>613.0</ele><time>2026-05-02T14:22:03.988Z</time></trkpt><trkpt lat="44.1649411" lon="10.3605035"><ele>615.4285714285714</ele><time>2026-05-02T14:22:07.993Z</time></trkpt><trkpt lat="44.1649913" lon="10.3604456"><ele>617.8571428571429</ele><time>2026-05-02T14:22:10.991Z</time></trkpt><trkpt lat="44.1650421" lon="10.3603701"><ele>620.2857142857142</ele><time>2026-05-02T14:22:13.995Z</time></trkpt><trkpt lat="44.165078" lon="10.3602935"><ele>622.7142857142858</ele><time>2026-05-02T14:22:16.993Z</time></trkpt><trkpt lat="44.1651229" lon="10.3602239"><ele>625.1428571428571</ele><time>2026-05-02T14:22:19.995Z</time></trkpt><trkpt lat="44.1651732" lon="10.3601625"><ele>627.5714285714286</ele><time>2026-05-02T14:22:22.978Z</time></trkpt><trkpt lat="44.165217" lon="10.3600939"><ele>630.0</ele><time>2026-05-02T14:22:25.986Z</time></trkpt><trkpt lat="44.165255" lon="10.3599965"><ele>630.0</ele><time>2026-05-02T14:22:29.987Z</time></trkpt><trkpt lat="44.1652689" lon="10.3598796"><ele>630.0</ele><time>2026-05-02T14:22:33.986Z</time></trkpt><trkpt lat="44.1652892" lon="10.359795"><ele>630.0</ele><time>2026-05-02T14:22:36.975Z</time></trkpt><trkpt lat="44.1653043" lon="10.3597056"><ele>630.0</ele><time>2026-05-02T14:22:39.987Z</time></trkpt><trkpt lat="44.1653189" lon="10.3596187"><ele>630.0</ele><time>2026-05-02T14:22:42.988Z</time></trkpt><trkpt lat="44.165347" lon="10.3595116"><ele>630.0</ele><time>2026-05-02T14:22:47.001Z</time></trkpt><trkpt lat="44.1654022" lon="10.3594637"><ele>630.0</ele><time>2026-05-02T14:22:50Z</time></trkpt><trkpt lat="44.1654639" lon="10.3594901"><ele>630.0</ele><time>2026-05-02T14:22:52.996Z</time></trkpt><trkpt lat="44.1654724" lon="10.3595775"><ele>630.0</ele><time>2026-05-02T14:22:55.997Z</time></trkpt><trkpt lat="44.1654581" lon="10.3596738"><ele>630.0</ele><time>2026-05-02T14:22:59.992Z</time></trkpt><trkpt lat="44.1654303" lon="10.3597714"><ele>630.0</ele><time>2026-05-02T14:23:04Z</time></trkpt><trkpt lat="44.1654327" lon="10.3598601"><ele>630.0</ele><time>2026-05-02T14:23:07Z</time></trkpt><trkpt lat="44.1654248" lon="10.3599683"><ele>630.0</ele><time>2026-05-02T14:23:11Z</time></trkpt><trkpt lat="44.1654258" lon="10.3600787"><ele>630.0</ele><time>2026-05-02T14:23:14.997Z</time></trkpt><trkpt lat="44.1654082" lon="10.3601652"><ele>630.0</ele><time>2026-05-02T14:23:18Z</time></trkpt><trkpt lat="44.1653944" lon="10.3602519"><ele>630.0</ele><time>2026-05-02T14:23:20.998Z</time></trkpt><trkpt lat="44.1653578" lon="10.3603504"><ele>630.0</ele><time>2026-05-02T14:23:25Z</time></trkpt><trkpt lat="44.165312" lon="10.36042"><ele>630.0</ele><time>2026-05-02T14:23:27.996Z</time></trkpt><trkpt lat="44.1652589" lon="10.3604942"><ele>630.0</ele><time>2026-05-02T14:23:31.998Z</time></trkpt><trkpt lat="44.1651917" lon="10.3605249"><ele>630.0</ele><time>2026-05-02T14:23:35.911Z</time></trkpt><trkpt lat="44.1651301" lon="10.3605884"><ele>630.0</ele><time>2026-05-02T14:23:39.997Z</time></trkpt><trkpt lat="44.1650999" lon="10.3606805"><ele>632.8333333333334</ele><time>2026-05-02T14:23:43.99Z</time></trkpt><trkpt lat="44.165088" lon="10.3607763"><ele>635.6666666666666</ele><time>2026-05-02T14:23:47.994Z</time></trkpt><trkpt lat="44.1650999" lon="10.360884"><ele>638.5</ele><time>2026-05-02T14:23:51.995Z</time></trkpt><trkpt lat="44.1650661" lon="10.3609879"><ele>641.3333333333333</ele><time>2026-05-02T14:23:56.983Z</time></trkpt><trkpt lat="44.1650172" lon="10.3610522"><ele>644.1666666666666</ele><time>2026-05-02T14:23:59.997Z</time></trkpt><trkpt lat="44.164959" lon="10.3611223"><ele>647.0</ele><time>2026-05-02T14:24:03.999Z</time></trkpt><trkpt lat="44.1649143" lon="10.3612171"><ele>647.0</ele><time>2026-05-02T14:24:07.988Z</time></trkpt><trkpt lat="44.1648862" lon="10.3613135"><ele>647.0</ele><time>2026-05-02T14:24:11.989Z</time></trkpt><trkpt lat="44.1648622" lon="10.3614192"><ele>647.0</ele><time>2026-05-02T14:24:15.977Z</time></trkpt><trkpt lat="44.1648537" lon="10.361523"><ele>647.0</ele><time>2026-05-02T14:24:19.996Z</time></trkpt><trkpt lat="44.1648352" lon="10.3616323"><ele>647.0</ele><time>2026-05-02T14:24:24Z</time></trkpt><trkpt lat="44.1648183" lon="10.3617206"><ele>647.0</ele><time>2026-05-02T14:24:26.987Z</time></trkpt><trkpt lat="44.1648169" lon="10.3618309"><ele>645.4285714285714</ele><time>2026-05-02T14:24:30.988Z</time></trkpt><trkpt lat="44.1648151" lon="10.3619345"><ele>643.8571428571429</ele><time>2026-05-02T14:24:34.991Z</time></trkpt><trkpt lat="44.1648228" lon="10.3620243"><ele>642.2857142857142</ele><time>2026-05-02T14:24:37.986Z</time></trkpt><trkpt lat="44.1648352" lon="10.3621375"><ele>640.7142857142858</ele><time>2026-05-02T14:24:40.992Z</time></trkpt><trkpt lat="44.1648667" lon="10.3622241"><ele>639.1428571428572</ele><time>2026-05-02T14:24:43.978Z</time></trkpt><trkpt lat="44.1649205" lon="10.3623058"><ele>637.5714285714286</ele><time>2026-05-02T14:24:47.998Z</time></trkpt><trkpt lat="44.1649728" lon="10.3623574"><ele>636.0</ele><time>2026-05-02T14:24:50.982Z</time></trkpt><trkpt lat="44.1650452" lon="10.3624012"><ele>640.8571428571428</ele><time>2026-05-02T14:24:54.992Z</time></trkpt><trkpt lat="44.16511" lon="10.362415"><ele>645.7142857142858</ele><time>2026-05-02T14:24:57.986Z</time></trkpt><trkpt lat="44.1651676" lon="10.3624657"><ele>650.5714285714286</ele><time>2026-05-02T14:25:00.983Z</time></trkpt><trkpt lat="44.165199" lon="10.3625637"><ele>655.4285714285713</ele><time>2026-05-02T14:25:05Z</time></trkpt><trkpt lat="44.1651814" lon="10.3626568"><ele>660.2857142857142</ele><time>2026-05-02T14:25:08.992Z</time></trkpt><trkpt lat="44.1651481" lon="10.362756"><ele>665.1428571428571</ele><time>2026-05-02T14:25:12.988Z</time></trkpt><trkpt lat="44.1651029" lon="10.3628428"><ele>670.0</ele><time>2026-05-02T14:25:16.991Z</time></trkpt><trkpt lat="44.1650593" lon="10.3629256"><ele>670.0</ele><time>2026-05-02T14:25:20.99Z</time></trkpt><trkpt lat="44.1650232" lon="10.36303"><ele>670.0</ele><time>2026-05-02T14:25:24.984Z</time></trkpt><trkpt lat="44.1649952" lon="10.3631203"><ele>670.0</ele><time>2026-05-02T14:25:29.002Z</time></trkpt><trkpt lat="44.1649727" lon="10.3632101"><ele>670.0</ele><time>2026-05-02T14:25:32.985Z</time></trkpt><trkpt lat="44.1649638" lon="10.3633226"><ele>670.0</ele><time>2026-05-02T14:25:36.985Z</time></trkpt><trkpt lat="44.1649665" lon="10.3634164"><ele>670.0</ele><time>2026-05-02T14:25:39.99Z</time></trkpt><trkpt lat="44.1649781" lon="10.3635267"><ele>670.5714285714286</ele><time>2026-05-02T14:25:44.978Z</time></trkpt><trkpt lat="44.164982" lon="10.3636168"><ele>671.1428571428571</ele><time>2026-05-02T14:25:47.995Z</time></trkpt><trkpt lat="44.1649982" lon="10.3637025"><ele>671.7142857142858</ele><time>2026-05-02T14:25:50.983Z</time></trkpt><trkpt lat="44.1650177" lon="10.363802"><ele>672.2857142857142</ele><time>2026-05-02T14:25:54.983Z</time></trkpt><trkpt lat="44.1650213" lon="10.3638942"><ele>672.8571428571429</ele><time>2026-05-02T14:25:57.986Z</time></trkpt><trkpt lat="44.1650355" lon="10.3640031"><ele>673.4285714285714</ele><time>2026-05-02T14:26:01.993Z</time></trkpt><trkpt lat="44.1650351" lon="10.3641161"><ele>674.0</ele><time>2026-05-02T14:26:05.981Z</time></trkpt><trkpt lat="44.1650254" lon="10.3642176"><ele>674.4285714285714</ele><time>2026-05-02T14:26:09.994Z</time></trkpt><trkpt lat="44.16501" lon="10.3643209"><ele>674.8571428571429</ele><time>2026-05-02T14:26:13.99Z</time></trkpt><trkpt lat="44.1649809" lon="10.3644145"><ele>675.2857142857142</ele><time>2026-05-02T14:26:17.985Z</time></trkpt><trkpt lat="44.1649456" lon="10.3644984"><ele>675.7142857142858</ele><time>2026-05-02T14:26:20.981Z</time></trkpt><trkpt lat="44.1649052" lon="10.3645776"><ele>676.1428571428571</ele><time>2026-05-02T14:26:23.998Z</time></trkpt><trkpt lat="44.1648699" lon="10.3646599"><ele>676.5714285714286</ele><time>2026-05-02T14:26:27Z</time></trkpt><trkpt lat="44.164853" lon="10.3647447"><ele>677.0</ele><time>2026-05-02T14:26:29.992Z</time></trkpt><trkpt lat="44.1648598" lon="10.364854"><ele>676.9999999999999</ele><time>2026-05-02T14:26:33.992Z</time></trkpt><trkpt lat="44.1648955" lon="10.3649528"><ele>677.0</ele><time>2026-05-02T14:26:37.986Z</time></trkpt><trkpt lat="44.1649596" lon="10.3650183"><ele>677.0</ele><time>2026-05-02T14:26:41.981Z</time></trkpt><trkpt lat="44.1650276" lon="10.3650412"><ele>677.0</ele><time>2026-05-02T14:26:45.984Z</time></trkpt><trkpt lat="44.1650961" lon="10.3650151"><ele>677.0</ele><time>2026-05-02T14:26:50Z</time></trkpt><trkpt lat="44.1651696" lon="10.3650135"><ele>676.9999999999999</ele><time>2026-05-02T14:26:54Z</time></trkpt><trkpt lat="44.1652398" lon="10.3650006"><ele>677.0</ele><time>2026-05-02T14:26:57.982Z</time></trkpt><trkpt lat="44.1653165" lon="10.3649905"><ele>676.9999999999999</ele><time>2026-05-02T14:27:01.997Z</time></trkpt><trkpt lat="44.1653844" lon="10.365013"><ele>677.0</ele><time>2026-05-02T14:27:05.987Z</time></trkpt><trkpt lat="44.165434" lon="10.3650698"><ele>677.0</ele><time>2026-05-02T14:27:08.989Z</time></trkpt><trkpt lat="44.1654844" lon="10.3651313"><ele>677.0</ele><time>2026-05-02T14:27:12.983Z</time></trkpt><trkpt lat="44.1655484" lon="10.36519"><ele>677.0</ele><time>2026-05-02T14:27:16.995Z</time></trkpt><trkpt lat="44.1656064" lon="10.3652514"><ele>676.9999999999999</ele><time>2026-05-02T14:27:20.98Z</time></trkpt><trkpt lat="44.165669" lon="10.3653178"><ele>677.0</ele><time>2026-05-02T14:27:23.976Z</time></trkpt><trkpt lat="44.1657092" lon="10.3654061"><ele>679.8333333333333</ele><time>2026-05-02T14:27:27.983Z</time></trkpt><trkpt lat="44.1657322" lon="10.3655032"><ele>682.6666666666666</ele><time>2026-05-02T14:27:31.999Z</time></trkpt><trkpt lat="44.1657448" lon="10.3656112"><ele>685.5</ele><time>2026-05-02T14:27:35.981Z</time></trkpt><trkpt lat="44.1657529" lon="10.3657331"><ele>688.3333333333334</ele><time>2026-05-02T14:27:39.984Z</time></trkpt><trkpt lat="44.1657599" lon="10.3658431"><ele>691.1666666666667</ele><time>2026-05-02T14:27:44Z</time></trkpt><trkpt lat="44.1657628" lon="10.3659508"><ele>694.0</ele><time>2026-05-02T14:27:47.979Z</time></trkpt><trkpt lat="44.1657639" lon="10.3660577"><ele>694.0</ele><time>2026-05-02T14:27:51.986Z</time></trkpt><trkpt lat="44.165763" lon="10.3661464"><ele>694.0</ele><time>2026-05-02T14:27:54.997Z</time></trkpt><trkpt lat="44.1657915" lon="10.3662486"><ele>694.0</ele><time>2026-05-02T14:27:58.984Z</time></trkpt><trkpt lat="44.1658263" lon="10.3663317"><ele>694.0</ele><time>2026-05-02T14:28:03.996Z</time></trkpt><trkpt lat="44.1658796" lon="10.3664047"><ele>694.0</ele><time>2026-05-02T14:28:08.985Z</time></trkpt><trkpt lat="44.1659371" lon="10.3664429"><ele>694.0</ele><time>2026-05-02T14:28:12.981Z</time></trkpt><trkpt lat="44.1660082" lon="10.3664282"><ele>694.0</ele><time>2026-05-02T14:28:17.99Z</time></trkpt><trkpt lat="44.1660787" lon="10.3663815"><ele>694.0</ele><time>2026-05-02T14:28:22.999Z</time></trkpt><trkpt lat="44.1661368" lon="10.3663377"><ele>694.0</ele><time>2026-05-02T14:28:26.993Z</time></trkpt><trkpt lat="44.1662057" lon="10.3663147"><ele>694.0</ele><time>2026-05-02T14:28:31.996Z</time></trkpt><trkpt lat="44.1662682" lon="10.3662582"><ele>694.0</ele><time>2026-05-02T14:28:36.972Z</time></trkpt><trkpt lat="44.1663264" lon="10.3661945"><ele>694.0</ele><time>2026-05-02T14:28:41.987Z</time></trkpt><trkpt lat="44.1663753" lon="10.3661263"><ele>694.0</ele><time>2026-05-02T14:28:47Z</time></trkpt><trkpt lat="44.1663998" lon="10.3660276"><ele>694.0</ele><time>2026-05-02T14:28:52.984Z</time></trkpt><trkpt lat="44.1664187" lon="10.3659378"><ele>694.0</ele><time>2026-05-02T14:28:58.984Z</time></trkpt><trkpt lat="44.1664527" lon="10.3658639"><ele>694.0</ele><time>2026-05-02T14:29:03.994Z</time></trkpt><trkpt lat="44.1664848" lon="10.3657819"><ele>694.0</ele><time>2026-05-02T14:29:08.995Z</time></trkpt><trkpt lat="44.1664817" lon="10.3656779"><ele>694.0</ele><time>2026-05-02T14:29:13.977Z</time></trkpt><trkpt lat="44.1664599" lon="10.3655861"><ele>694.0</ele><time>2026-05-02T14:29:17.998Z</time></trkpt><trkpt lat="44.1664313" lon="10.3655075"><ele>694.0</ele><time>2026-05-02T14:29:22.984Z</time></trkpt><trkpt lat="44.1664294" lon="10.3654192"><ele>694.0</ele><time>2026-05-02T14:29:27Z</time></trkpt><trkpt lat="44.1664395" lon="10.3653194"><ele>694.2857142857143</ele><time>2026-05-02T14:29:31.988Z</time></trkpt><trkpt lat="44.1664453" lon="10.3652222"><ele>694.5714285714286</ele><time>2026-05-02T14:29:36.983Z</time></trkpt><trkpt lat="44.1664546" lon="10.3651148"><ele>694.8571428571429</ele><time>2026-05-02T14:29:41.993Z</time></trkpt><trkpt lat="44.1664794" lon="10.365026"><ele>695.1428571428571</ele><time>2026-05-02T14:29:45.994Z</time></trkpt><trkpt lat="44.1665067" lon="10.3649387"><ele>695.4285714285714</ele><time>2026-05-02T14:29:49.992Z</time></trkpt><trkpt lat="44.1665095" lon="10.3648501"><ele>695.7142857142857</ele><time>2026-05-02T14:29:53.984Z</time></trkpt><trkpt lat="44.1665204" lon="10.3647609"><ele>696.0</ele><time>2026-05-02T14:29:58.993Z</time></trkpt><trkpt lat="44.1665328" lon="10.3646691"><ele>699.7142857142857</ele><time>2026-05-02T14:30:03.891Z</time></trkpt><trkpt lat="44.1665548" lon="10.3645842"><ele>703.4285714285714</ele><time>2026-05-02T14:30:08.981Z</time></trkpt><trkpt lat="44.1665736" lon="10.3644922"><ele>707.1428571428571</ele><time>2026-05-02T14:30:13.994Z</time></trkpt><trkpt lat="44.1665851" lon="10.3644022"><ele>710.8571428571429</ele><time>2026-05-02T14:30:18.987Z</time></trkpt><trkpt lat="44.1666009" lon="10.3643091"><ele>714.5714285714286</ele><time>2026-05-02T14:30:23.994Z</time></trkpt><trkpt lat="44.166633" lon="10.3642266"><ele>718.2857142857143</ele><time>2026-05-02T14:30:28.992Z</time></trkpt><trkpt lat="44.1666894" lon="10.3641599"><ele>722.0</ele><time>2026-05-02T14:30:33.984Z</time></trkpt><trkpt lat="44.1667587" lon="10.3641679"><ele>722.0</ele><time>2026-05-02T14:30:39.993Z</time></trkpt><trkpt lat="44.1668149" lon="10.3642211"><ele>722.0</ele><time>2026-05-02T14:30:45.982Z</time></trkpt><trkpt lat="44.1668604" lon="10.3642834"><ele>722.0</ele><time>2026-05-02T14:30:51Z</time></trkpt><trkpt lat="44.1669125" lon="10.3643511"><ele>722.0</ele><time>2026-05-02T14:30:55.993Z</time></trkpt><trkpt lat="44.1669661" lon="10.3644106"><ele>722.0</ele><time>2026-05-02T14:31:00.989Z</time></trkpt><trkpt lat="44.1670104" lon="10.3644809"><ele>722.0</ele><time>2026-05-02T14:31:06.99Z</time></trkpt><trkpt lat="44.1670579" lon="10.36455"><ele>722.0</ele><time>2026-05-02T14:31:11.977Z</time></trkpt><trkpt lat="44.1671141" lon="10.364595"><ele>722.0</ele><time>2026-05-02T14:31:17.999Z</time></trkpt><trkpt lat="44.1671771" lon="10.3646077"><ele>722.0</ele><time>2026-05-02T14:31:23.979Z</time></trkpt><trkpt lat="44.1672518" lon="10.3646012"><ele>722.0</ele><time>2026-05-02T14:31:28.98Z</time></trkpt><trkpt lat="44.1673217" lon="10.3645694"><ele>722.0</ele><time>2026-05-02T14:31:33.996Z</time></trkpt><trkpt lat="44.167392" lon="10.3645319"><ele>722.0</ele><time>2026-05-02T14:31:40Z</time></trkpt><trkpt lat="44.1674568" lon="10.364498"><ele>722.0</ele><time>2026-05-02T14:31:45.98Z</time></trkpt><trkpt lat="44.1675113" lon="10.3644508"><ele>722.0</ele><time>2026-05-02T14:31:50.982Z</time></trkpt><trkpt lat="44.1675756" lon="10.3643941"><ele>724.2857142857143</ele><time>2026-05-02T14:31:55.981Z</time></trkpt><trkpt lat="44.1676267" lon="10.3643396"><ele>726.5714285714286</ele><time>2026-05-02T14:32:00.989Z</time></trkpt><trkpt lat="44.1676793" lon="10.3642861"><ele>728.8571428571429</ele><time>2026-05-02T14:32:05.992Z</time></trkpt><trkpt lat="44.1677345" lon="10.3642399"><ele>731.1428571428571</ele><time>2026-05-02T14:32:10.996Z</time></trkpt><trkpt lat="44.1677972" lon="10.3641877"><ele>733.4285714285713</ele><time>2026-05-02T14:32:16.995Z</time></trkpt><trkpt lat="44.1678463" lon="10.3641309"><ele>735.7142857142857</ele><time>2026-05-02T14:32:21.894Z</time></trkpt><trkpt lat="44.1678996" lon="10.3640641"><ele>738.0</ele><time>2026-05-02T14:32:27.851Z</time></trkpt><trkpt lat="44.1679537" lon="10.3640171"><ele>738.0</ele><time>2026-05-02T14:32:32.917Z</time></trkpt><trkpt lat="44.1680239" lon="10.3639746"><ele>738.0</ele><time>2026-05-02T14:32:38.999Z</time></trkpt><trkpt lat="44.1680841" lon="10.3639411"><ele>738.0</ele><time>2026-05-02T14:32:43.991Z</time></trkpt><trkpt lat="44.1681584" lon="10.3639378"><ele>738.0</ele><time>2026-05-02T14:32:49.995Z</time></trkpt><trkpt lat="44.1682256" lon="10.3639308"><ele>738.0</ele><time>2026-05-02T14:32:54.989Z</time></trkpt><trkpt lat="44.1682966" lon="10.3639122"><ele>738.0</ele><time>2026-05-02T14:33:00.981Z</time></trkpt><trkpt lat="44.1683568" lon="10.3638787"><ele>738.0</ele><time>2026-05-02T14:33:05.998Z</time></trkpt><trkpt lat="44.1683788" lon="10.3637921"><ele>740.7142857142857</ele><time>2026-05-02T14:33:10.986Z</time></trkpt><trkpt lat="44.1683872" lon="10.363705"><ele>743.4285714285713</ele><time>2026-05-02T14:33:15.986Z</time></trkpt><trkpt lat="44.1684097" lon="10.3636101"><ele>746.1428571428571</ele><time>2026-05-02T14:33:21.983Z</time></trkpt><trkpt lat="44.1684463" lon="10.3635205"><ele>748.8571428571429</ele><time>2026-05-02T14:33:27.907Z</time></trkpt><trkpt lat="44.1684874" lon="10.3634455"><ele>751.5714285714286</ele><time>2026-05-02T14:33:33.998Z</time></trkpt><trkpt lat="44.1685469" lon="10.3634092"><ele>754.2857142857143</ele><time>2026-05-02T14:33:38.977Z</time></trkpt><trkpt lat="44.1686127" lon="10.3633578"><ele>757.0</ele><time>2026-05-02T14:33:44.985Z</time></trkpt><trkpt lat="44.1686266" lon="10.3632518"><ele>757.0</ele><time>2026-05-02T14:33:51Z</time></trkpt><trkpt lat="44.1686642" lon="10.3631583"><ele>757.0</ele><time>2026-05-02T14:33:55.989Z</time></trkpt><trkpt lat="44.1687097" lon="10.3630868"><ele>757.0</ele><time>2026-05-02T14:34:00.999Z</time></trkpt><trkpt lat="44.1687503" lon="10.3629994"><ele>757.0</ele><time>2026-05-02T14:34:07Z</time></trkpt><trkpt lat="44.1687791" lon="10.3629122"><ele>757.0</ele><time>2026-05-02T14:34:11.994Z</time></trkpt><trkpt lat="44.1688433" lon="10.3628697"><ele>757.0</ele><time>2026-05-02T14:34:16.983Z</time></trkpt><trkpt lat="44.1689083" lon="10.3628625"><ele>757.0</ele><time>2026-05-02T14:34:21.995Z</time></trkpt><trkpt lat="44.1689722" lon="10.3628932"><ele>759.1428571428572</ele><time>2026-05-02T14:34:26.996Z</time></trkpt><trkpt lat="44.1690375" lon="10.3629162"><ele>761.2857142857142</ele><time>2026-05-02T14:34:31.982Z</time></trkpt><trkpt lat="44.169105" lon="10.3628928"><ele>763.4285714285714</ele><time>2026-05-02T14:34:35.985Z</time></trkpt><trkpt lat="44.1691653" lon="10.3628413"><ele>765.5714285714287</ele><time>2026-05-02T14:34:40.981Z</time></trkpt><trkpt lat="44.1692243" lon="10.3628041"><ele>767.7142857142858</ele><time>2026-05-02T14:34:44.994Z</time></trkpt><trkpt lat="44.1692836" lon="10.3627497"><ele>769.8571428571429</ele><time>2026-05-02T14:34:48.994Z</time></trkpt><trkpt lat="44.1693399" lon="10.3626947"><ele>772.0</ele><time>2026-05-02T14:34:52.995Z</time></trkpt><trkpt lat="44.169395" lon="10.3626366"><ele>772.0000000000001</ele><time>2026-05-02T14:34:56.981Z</time></trkpt><trkpt lat="44.1694569" lon="10.3625879"><ele>772.0</ele><time>2026-05-02T14:35:00.977Z</time></trkpt><trkpt lat="44.1695188" lon="10.3625379"><ele>772.0</ele><time>2026-05-02T14:35:05.993Z</time></trkpt><trkpt lat="44.1695783" lon="10.3624923"><ele>772.0</ele><time>2026-05-02T14:35:09.992Z</time></trkpt><trkpt lat="44.169644" lon="10.3624651"><ele>772.0</ele><time>2026-05-02T14:35:13.932Z</time></trkpt><trkpt lat="44.1697195" lon="10.362476"><ele>772.0000000000001</ele><time>2026-05-02T14:35:17.934Z</time></trkpt><trkpt lat="44.1697841" lon="10.3624976"><ele>772.0</ele><time>2026-05-02T14:35:21.999Z</time></trkpt><trkpt lat="44.1698544" lon="10.3625316"><ele>772.5714285714287</ele><time>2026-05-02T14:35:27Z</time></trkpt><trkpt lat="44.1699164" lon="10.362551"><ele>773.1428571428571</ele><time>2026-05-02T14:35:30.99Z</time></trkpt><trkpt lat="44.169991" lon="10.3625475"><ele>773.7142857142858</ele><time>2026-05-02T14:35:35.987Z</time></trkpt><trkpt lat="44.1700634" lon="10.3625156"><ele>774.2857142857143</ele><time>2026-05-02T14:35:39.998Z</time></trkpt><trkpt lat="44.1701379" lon="10.3624772"><ele>774.8571428571429</ele><time>2026-05-02T14:35:43.992Z</time></trkpt><trkpt lat="44.1702006" lon="10.3624466"><ele>775.4285714285714</ele><time>2026-05-02T14:35:47.981Z</time></trkpt><trkpt lat="44.170265" lon="10.3624034"><ele>776.0</ele><time>2026-05-02T14:35:51.998Z</time></trkpt><trkpt lat="44.1703232" lon="10.362327"><ele>776.0</ele><time>2026-05-02T14:35:56.988Z</time></trkpt><trkpt lat="44.1703548" lon="10.3622507"><ele>776.0</ele><time>2026-05-02T14:36:00.999Z</time></trkpt><trkpt lat="44.1703991" lon="10.3621658"><ele>776.0</ele><time>2026-05-02T14:36:05.971Z</time></trkpt><trkpt lat="44.170457" lon="10.3621129"><ele>776.0</ele><time>2026-05-02T14:36:09.99Z</time></trkpt><trkpt lat="44.1704925" lon="10.3620252"><ele>776.0</ele><time>2026-05-02T14:36:14.93Z</time></trkpt><trkpt lat="44.1704927" lon="10.3619361"><ele>776.0</ele><time>2026-05-02T14:36:18.99Z</time></trkpt><trkpt lat="44.170486" lon="10.361831"><ele>776.0</ele><time>2026-05-02T14:36:23.952Z</time></trkpt><trkpt lat="44.1704849" lon="10.3617371"><ele>777.0</ele><time>2026-05-02T14:36:27.994Z</time></trkpt><trkpt lat="44.1704847" lon="10.3616397"><ele>778.0</ele><time>2026-05-02T14:36:32.999Z</time></trkpt><trkpt lat="44.1704898" lon="10.3615379"><ele>779.0</ele><time>2026-05-02T14:36:37.982Z</time></trkpt><trkpt lat="44.1704931" lon="10.3614368"><ele>780.0</ele><time>2026-05-02T14:36:42.996Z</time></trkpt><trkpt lat="44.1705074" lon="10.3613509"><ele>781.0</ele><time>2026-05-02T14:36:47.989Z</time></trkpt><trkpt lat="44.170504" lon="10.3612583"><ele>782.0</ele><time>2026-05-02T14:36:52.932Z</time></trkpt><trkpt lat="44.1704754" lon="10.3611697"><ele>783.0</ele><time>2026-05-02T14:36:57.977Z</time></trkpt><trkpt lat="44.1704517" lon="10.3610843"><ele>783.8571428571428</ele><time>2026-05-02T14:37:02.989Z</time></trkpt><trkpt lat="44.1704425" lon="10.3609796"><ele>784.7142857142858</ele><time>2026-05-02T14:37:08.981Z</time></trkpt><trkpt lat="44.1704718" lon="10.3608935"><ele>785.5714285714286</ele><time>2026-05-02T14:37:13.981Z</time></trkpt><trkpt lat="44.170517" lon="10.3608287"><ele>786.4285714285713</ele><time>2026-05-02T14:37:18.985Z</time></trkpt><trkpt lat="44.1705733" lon="10.3607816"><ele>787.2857142857142</ele><time>2026-05-02T14:37:22.991Z</time></trkpt><trkpt lat="44.1706266" lon="10.3607346"><ele>788.1428571428571</ele><time>2026-05-02T14:37:26.987Z</time></trkpt><trkpt lat="44.1706755" lon="10.3606665"><ele>789.0</ele><time>2026-05-02T14:37:29.98Z</time></trkpt><trkpt lat="44.1707124" lon="10.3605932"><ele>789.5714285714286</ele><time>2026-05-02T14:37:32.979Z</time></trkpt><trkpt lat="44.1707469" lon="10.3604868"><ele>790.1428571428571</ele><time>2026-05-02T14:37:35.983Z</time></trkpt><trkpt lat="44.170793" lon="10.3604097"><ele>790.7142857142858</ele><time>2026-05-02T14:37:38.987Z</time></trkpt><trkpt lat="44.1708411" lon="10.3603521"><ele>791.2857142857142</ele><time>2026-05-02T14:37:42.833Z</time></trkpt><trkpt lat="44.1708857" lon="10.3602707"><ele>791.8571428571429</ele><time>2026-05-02T14:37:46.967Z</time></trkpt><trkpt lat="44.1709382" lon="10.3601981"><ele>792.4285714285714</ele><time>2026-05-02T14:37:50.987Z</time></trkpt><trkpt lat="44.1709849" lon="10.3601216"><ele>793.0</ele><time>2026-05-02T14:37:55.992Z</time></trkpt><trkpt lat="44.1710098" lon="10.3600281"><ele>793.0000000000001</ele><time>2026-05-02T14:38:01.953Z</time></trkpt><trkpt lat="44.1710603" lon="10.3599491"><ele>793.0</ele><time>2026-05-02T14:38:06.951Z</time></trkpt><trkpt lat="44.1711321" lon="10.3599162"><ele>793.0</ele><time>2026-05-02T14:38:11.986Z</time></trkpt><trkpt lat="44.1712017" lon="10.3599379"><ele>793.0</ele><time>2026-05-02T14:38:16.989Z</time></trkpt><trkpt lat="44.1712793" lon="10.3599598"><ele>793.0</ele><time>2026-05-02T14:38:21.987Z</time></trkpt><trkpt lat="44.1713474" lon="10.3599702"><ele>793.0000000000001</ele><time>2026-05-02T14:38:26Z</time></trkpt><trkpt lat="44.1714203" lon="10.3599891"><ele>793.0</ele><time>2026-05-02T14:38:31Z</time></trkpt><trkpt lat="44.1714918" lon="10.3600132"><ele>794.6666666666666</ele><time>2026-05-02T14:38:35.984Z</time></trkpt><trkpt lat="44.1715677" lon="10.3600215"><ele>796.3333333333333</ele><time>2026-05-02T14:38:40.99Z</time></trkpt><trkpt lat="44.171639" lon="10.3600231"><ele>798.0</ele><time>2026-05-02T14:38:45.932Z</time></trkpt><trkpt lat="44.1717115" lon="10.3600301"><ele>799.6666666666667</ele><time>2026-05-02T14:38:49.998Z</time></trkpt><trkpt lat="44.1717984" lon="10.3600707"><ele>801.3333333333334</ele><time>2026-05-02T14:38:52.977Z</time></trkpt><trkpt lat="44.1718656" lon="10.3601052"><ele>803.0</ele><time>2026-05-02T14:38:54.985Z</time></trkpt><trkpt lat="44.1719393" lon="10.3601441"><ele>803.0</ele><time>2026-05-02T14:38:56.979Z</time></trkpt><trkpt lat="44.1720198" lon="10.3602128"><ele>803.0</ele><time>2026-05-02T14:38:58.983Z</time></trkpt><trkpt lat="44.1721095" lon="10.3603232"><ele>803.0</ele><time>2026-05-02T14:39:00.987Z</time></trkpt><trkpt lat="44.1721585" lon="10.3603859"><ele>803.0</ele><time>2026-05-02T14:39:01.995Z</time></trkpt><trkpt lat="44.1722605" lon="10.3604852"><ele>803.0</ele><time>2026-05-02T14:39:03.994Z</time></trkpt><trkpt lat="44.1723527" lon="10.3605694"><ele>802.2</ele><time>2026-05-02T14:39:05.992Z</time></trkpt><trkpt lat="44.1724474" lon="10.3606138"><ele>801.4</ele><time>2026-05-02T14:39:07.984Z</time></trkpt><trkpt lat="44.172555" lon="10.3606498"><ele>800.6</ele><time>2026-05-02T14:39:09.988Z</time></trkpt><trkpt lat="44.1726466" lon="10.3606388"><ele>799.8000000000001</ele><time>2026-05-02T14:39:11.991Z</time></trkpt><trkpt lat="44.17274" lon="10.3606553"><ele>799.0</ele><time>2026-05-02T14:39:13.985Z</time></trkpt><trkpt lat="44.1728134" lon="10.3606765"><ele>799.0</ele><time>2026-05-02T14:39:16.992Z</time></trkpt><trkpt lat="44.1728837" lon="10.3606645"><ele>799.0</ele><time>2026-05-02T14:39:20.936Z</time></trkpt><trkpt lat="44.1729329" lon="10.3606094"><ele>799.0</ele><time>2026-05-02T14:39:25.983Z</time></trkpt><trkpt lat="44.1729803" lon="10.36053"><ele>799.0</ele><time>2026-05-02T14:39:30.983Z</time></trkpt><trkpt lat="44.17305" lon="10.3604952"><ele>799.0</ele><time>2026-05-02T14:39:35.985Z</time></trkpt><trkpt lat="44.1731226" lon="10.3604886"><ele>799.0</ele><time>2026-05-02T14:39:40.983Z</time></trkpt><trkpt lat="44.1731955" lon="10.3604848"><ele>799.0</ele><time>2026-05-02T14:39:45.961Z</time></trkpt><trkpt lat="44.1732663" lon="10.3604636"><ele>799.0</ele><time>2026-05-02T14:39:50.985Z</time></trkpt><trkpt lat="44.1733295" lon="10.3604489"><ele>799.0</ele><time>2026-05-02T14:39:55.942Z</time></trkpt><trkpt lat="44.173404" lon="10.3604377"><ele>799.0</ele><time>2026-05-02T14:40:00.833Z</time></trkpt><trkpt lat="44.1734711" lon="10.360436"><ele>799.0</ele><time>2026-05-02T14:40:05.988Z</time></trkpt><trkpt lat="44.1735397" lon="10.3604402"><ele>799.0</ele><time>2026-05-02T14:40:10.974Z</time></trkpt><trkpt lat="44.1736113" lon="10.360435"><ele>799.0</ele><time>2026-05-02T14:40:15.999Z</time></trkpt><trkpt lat="44.1736762" lon="10.3604274"><ele>799.0</ele><time>2026-05-02T14:40:19.988Z</time></trkpt><trkpt lat="44.1737551" lon="10.360421"><ele>799.0</ele><time>2026-05-02T14:40:24.981Z</time></trkpt><trkpt lat="44.1738239" lon="10.3604308"><ele>799.0</ele><time>2026-05-02T14:40:28.979Z</time></trkpt><trkpt lat="44.1738881" lon="10.3604396"><ele>799.0</ele><time>2026-05-02T14:40:33.984Z</time></trkpt><trkpt lat="44.1739582" lon="10.3604416"><ele>799.0</ele><time>2026-05-02T14:40:39.997Z</time></trkpt><trkpt lat="44.17402" lon="10.360466"><ele>799.0</ele><time>2026-05-02T14:40:44.994Z</time></trkpt><trkpt lat="44.1740132" lon="10.360565"><ele>799.0</ele><time>2026-05-02T14:40:49.991Z</time></trkpt><trkpt lat="44.1740564" lon="10.3606511"><ele>799.0</ele><time>2026-05-02T14:40:54.981Z</time></trkpt><trkpt lat="44.1740723" lon="10.3607557"><ele>799.1666666666666</ele><time>2026-05-02T14:40:58.999Z</time></trkpt><trkpt lat="44.1740155" lon="10.3608345"><ele>799.3333333333333</ele><time>2026-05-02T14:41:18.991Z</time></trkpt><trkpt lat="44.1739366" lon="10.3608331"><ele>799.5</ele><time>2026-05-02T14:41:22.986Z</time></trkpt><trkpt lat="44.1738233" lon="10.3607957"><ele>799.6666666666667</ele><time>2026-05-02T14:41:26.988Z</time></trkpt><trkpt lat="44.1737419" lon="10.3607663"><ele>799.8333333333334</ele><time>2026-05-02T14:41:28.985Z</time></trkpt><trkpt lat="44.1736811" lon="10.3607348"><ele>800.0</ele><time>2026-05-02T14:41:30.988Z</time></trkpt><trkpt lat="44.1736124" lon="10.3607224"><ele>800.0000000000001</ele><time>2026-05-02T14:41:39.996Z</time></trkpt><trkpt lat="44.1735328" lon="10.3607075"><ele>800.0</ele><time>2026-05-02T14:41:43Z</time></trkpt><trkpt lat="44.1734668" lon="10.3607042"><ele>800.0</ele><time>2026-05-02T14:41:44.987Z</time></trkpt><trkpt lat="44.1733852" lon="10.3607296"><ele>800.0</ele><time>2026-05-02T14:41:46.99Z</time></trkpt><trkpt lat="44.1732947" lon="10.3607295"><ele>800.0000000000001</ele><time>2026-05-02T14:41:48.999Z</time></trkpt><trkpt lat="44.1731959" lon="10.3607085"><ele>800.0</ele><time>2026-05-02T14:41:50.98Z</time></trkpt><trkpt lat="44.1730953" lon="10.3607424"><ele>799.8333333333334</ele><time>2026-05-02T14:41:52.996Z</time></trkpt><trkpt lat="44.1729943" lon="10.3608246"><ele>799.6666666666667</ele><time>2026-05-02T14:41:54.989Z</time></trkpt><trkpt lat="44.1729026" lon="10.360889"><ele>799.5</ele><time>2026-05-02T14:41:57Z</time></trkpt><trkpt lat="44.172838" lon="10.360898"><ele>799.3333333333333</ele><time>2026-05-02T14:41:57.993Z</time></trkpt><trkpt lat="44.172775" lon="10.360902"><ele>799.1666666666666</ele><time>2026-05-02T14:41:58.994Z</time></trkpt><trkpt lat="44.1727114" lon="10.3609213"><ele>799.0</ele><time>2026-05-02T14:42:03.989Z</time></trkpt><trkpt lat="44.1726193" lon="10.3609393"><ele>799.0</ele><time>2026-05-02T14:42:07.983Z</time></trkpt><trkpt lat="44.172554" lon="10.3609498"><ele>799.0</ele><time>2026-05-02T14:42:09.982Z</time></trkpt><trkpt lat="44.1724728" lon="10.3609482"><ele>799.0</ele><time>2026-05-02T14:42:11.987Z</time></trkpt><trkpt lat="44.1724078" lon="10.3609289"><ele>799.0</ele><time>2026-05-02T14:42:13.996Z</time></trkpt><trkpt lat="44.1723425" lon="10.3609281"><ele>799.0</ele><time>2026-05-02T14:42:15.993Z</time></trkpt><trkpt lat="44.1722578" lon="10.3609524"><ele>799.0</ele><time>2026-05-02T14:42:17.999Z</time></trkpt><trkpt lat="44.172177" lon="10.3609591"><ele>799.0</ele><time>2026-05-02T14:42:19.987Z</time></trkpt><trkpt lat="44.1720839" lon="10.3609068"><ele>798.4999999999999</ele><time>2026-05-02T14:42:21.998Z</time></trkpt><trkpt lat="44.1720124" lon="10.360832"><ele>798.0</ele><time>2026-05-02T14:42:23.98Z</time></trkpt><trkpt lat="44.171919" lon="10.3607514"><ele>797.5</ele><time>2026-05-02T14:42:25.982Z</time></trkpt><trkpt lat="44.171858" lon="10.360714"><ele>797.0</ele><time>2026-05-02T14:42:27.99Z</time></trkpt><trkpt lat="44.1717767" lon="10.3606989"><ele>796.4999999999999</ele><time>2026-05-02T14:42:29.985Z</time></trkpt><trkpt lat="44.1717065" lon="10.3606394"><ele>796.0</ele><time>2026-05-02T14:42:31.99Z</time></trkpt><trkpt lat="44.1716284" lon="10.3605771"><ele>796.0</ele><time>2026-05-02T14:42:33.993Z</time></trkpt><trkpt lat="44.1715446" lon="10.3605762"><ele>796.0</ele><time>2026-05-02T14:42:35.978Z</time></trkpt><trkpt lat="44.1714398" lon="10.3605806"><ele>796.0</ele><time>2026-05-02T14:42:37.978Z</time></trkpt><trkpt lat="44.1713294" lon="10.3605746"><ele>796.0</ele><time>2026-05-02T14:42:39.984Z</time></trkpt><trkpt lat="44.1712455" lon="10.360521"><ele>796.0</ele><time>2026-05-02T14:42:41.98Z</time></trkpt><trkpt lat="44.1711617" lon="10.3605928"><ele>795.1666666666666</ele><time>2026-05-02T14:42:44.977Z</time></trkpt><trkpt lat="44.1711234" lon="10.3606961"><ele>794.3333333333333</ele><time>2026-05-02T14:42:49Z</time></trkpt><trkpt lat="44.1710863" lon="10.3607671"><ele>793.5</ele><time>2026-05-02T14:42:50.987Z</time></trkpt><trkpt lat="44.1710401" lon="10.360878"><ele>792.6666666666667</ele><time>2026-05-02T14:42:53.987Z</time></trkpt><trkpt lat="44.170992" lon="10.3609607"><ele>791.8333333333334</ele><time>2026-05-02T14:42:55.989Z</time></trkpt><trkpt lat="44.1709558" lon="10.3610524"><ele>791.0</ele><time>2026-05-02T14:42:57.987Z</time></trkpt><trkpt lat="44.1709515" lon="10.3611536"><ele>791.0</ele><time>2026-05-02T14:42:58.985Z</time></trkpt><trkpt lat="44.1709322" lon="10.3612388"><ele>791.0</ele><time>2026-05-02T14:42:59.987Z</time></trkpt><trkpt lat="44.1709227" lon="10.3613302"><ele>791.0</ele><time>2026-05-02T14:43:00.989Z</time></trkpt><trkpt lat="44.1709066" lon="10.3614237"><ele>791.0</ele><time>2026-05-02T14:43:01.995Z</time></trkpt><trkpt lat="44.1708515" lon="10.361499"><ele>791.0</ele><time>2026-05-02T14:43:03.993Z</time></trkpt><trkpt lat="44.1708061" lon="10.361594"><ele>791.0</ele><time>2026-05-02T14:43:05.986Z</time></trkpt><trkpt lat="44.1708071" lon="10.3617193"><ele>791.0</ele><time>2026-05-02T14:43:08Z</time></trkpt><trkpt lat="44.1707775" lon="10.3618451"><ele>790.0</ele><time>2026-05-02T14:43:09.979Z</time></trkpt><trkpt lat="44.1707325" lon="10.3619841"><ele>789.0</ele><time>2026-05-02T14:43:11.989Z</time></trkpt><trkpt lat="44.1706776" lon="10.3620755"><ele>788.0</ele><time>2026-05-02T14:43:13.994Z</time></trkpt><trkpt lat="44.1706141" lon="10.3621724"><ele>787.0</ele><time>2026-05-02T14:43:15.985Z</time></trkpt><trkpt lat="44.1705864" lon="10.3622745"><ele>786.0</ele><time>2026-05-02T14:43:17.993Z</time></trkpt><trkpt lat="44.1705073" lon="10.3623434"><ele>784.3333333333334</ele><time>2026-05-02T14:43:20.979Z</time></trkpt><trkpt lat="44.1704343" lon="10.3624283"><ele>782.6666666666667</ele><time>2026-05-02T14:43:22.984Z</time></trkpt><trkpt lat="44.1703754" lon="10.3624788"><ele>781.0</ele><time>2026-05-02T14:43:24.981Z</time></trkpt><trkpt lat="44.1702989" lon="10.3625198"><ele>779.3333333333334</ele><time>2026-05-02T14:43:26.99Z</time></trkpt><trkpt lat="44.1701966" lon="10.362612"><ele>777.6666666666667</ele><time>2026-05-02T14:43:28.993Z</time></trkpt><trkpt lat="44.1701363" lon="10.3626476"><ele>776.0</ele><time>2026-05-02T14:43:29.994Z</time></trkpt><trkpt lat="44.1700698" lon="10.3627011"><ele>776.0</ele><time>2026-05-02T14:43:30.988Z</time></trkpt><trkpt lat="44.1700089" lon="10.3627512"><ele>776.0</ele><time>2026-05-02T14:43:31.996Z</time></trkpt><trkpt lat="44.1699521" lon="10.3627961"><ele>776.0</ele><time>2026-05-02T14:43:32.991Z</time></trkpt><trkpt lat="44.1698876" lon="10.3628147"><ele>776.0</ele><time>2026-05-02T14:43:34.982Z</time></trkpt><trkpt lat="44.1698122" lon="10.362827"><ele>776.0</ele><time>2026-05-02T14:43:36.975Z</time></trkpt><trkpt lat="44.1697243" lon="10.3628177"><ele>776.0</ele><time>2026-05-02T14:43:38.995Z</time></trkpt><trkpt lat="44.1696644" lon="10.362771"><ele>776.0</ele><time>2026-05-02T14:43:40.995Z</time></trkpt><trkpt lat="44.1696155" lon="10.3626987"><ele>776.0</ele><time>2026-05-02T14:43:43.997Z</time></trkpt><trkpt lat="44.1695773" lon="10.3625944"><ele>776.0</ele><time>2026-05-02T14:43:47.989Z</time></trkpt><trkpt lat="44.1695905" lon="10.3625048"><ele>776.0</ele><time>2026-05-02T14:43:52Z</time></trkpt><trkpt lat="44.1696604" lon="10.3624747"><ele>776.0</ele><time>2026-05-02T14:43:56.982Z</time></trkpt><trkpt lat="44.169732" lon="10.3624655"><ele>776.0</ele><time>2026-05-02T14:44:02.985Z</time></trkpt><trkpt lat="44.1698009" lon="10.3625072"><ele>776.0</ele><time>2026-05-02T14:44:08.999Z</time></trkpt><trkpt lat="44.1698736" lon="10.3625393"><ele>776.0</ele><time>2026-05-02T14:44:13.983Z</time></trkpt><trkpt lat="44.1699448" lon="10.3625498"><ele>776.0</ele><time>2026-05-02T14:44:19Z</time></trkpt><trkpt lat="44.1700104" lon="10.3625419"><ele>776.0</ele><time>2026-05-02T14:44:22.984Z</time></trkpt><trkpt lat="44.1700848" lon="10.362526"><ele>776.0</ele><time>2026-05-02T14:44:27.985Z</time></trkpt><trkpt lat="44.1701459" lon="10.3624929"><ele>776.0</ele><time>2026-05-02T14:44:31.989Z</time></trkpt><trkpt lat="44.170215" lon="10.362447"><ele>776.0</ele><time>2026-05-02T14:44:36.99Z</time></trkpt><trkpt lat="44.1702714" lon="10.3623879"><ele>776.0</ele><time>2026-05-02T14:44:40.999Z</time></trkpt><trkpt lat="44.1703219" lon="10.3623041"><ele>776.0</ele><time>2026-05-02T14:44:45.998Z</time></trkpt><trkpt lat="44.1703608" lon="10.3622171"><ele>777.0</ele><time>2026-05-02T14:44:50.984Z</time></trkpt><trkpt lat="44.1704133" lon="10.3621368"><ele>778.0</ele><time>2026-05-02T14:44:55.986Z</time></trkpt><trkpt lat="44.1704645" lon="10.3620675"><ele>779.0</ele><time>2026-05-02T14:45:00.99Z</time></trkpt><trkpt lat="44.1704739" lon="10.3619761"><ele>780.0</ele><time>2026-05-02T14:45:05.981Z</time></trkpt><trkpt lat="44.1704778" lon="10.3618737"><ele>781.0</ele><time>2026-05-02T14:45:10.993Z</time></trkpt><trkpt lat="44.1704761" lon="10.3617804"><ele>782.0</ele><time>2026-05-02T14:45:15.987Z</time></trkpt><trkpt lat="44.1704805" lon="10.361684"><ele>783.0</ele><time>2026-05-02T14:45:20.993Z</time></trkpt><trkpt lat="44.1704884" lon="10.3615771"><ele>783.0</ele><time>2026-05-02T14:45:25.997Z</time></trkpt><trkpt lat="44.170485" lon="10.3614812"><ele>783.0</ele><time>2026-05-02T14:45:30.985Z</time></trkpt><trkpt lat="44.1704931" lon="10.3613847"><ele>783.0</ele><time>2026-05-02T14:45:35.98Z</time></trkpt><trkpt lat="44.1704871" lon="10.3612859"><ele>783.0</ele><time>2026-05-02T14:45:40.985Z</time></trkpt><trkpt lat="44.170483" lon="10.3611915"><ele>783.0</ele><time>2026-05-02T14:45:45.975Z</time></trkpt><trkpt lat="44.1704542" lon="10.3611092"><ele>783.0</ele><time>2026-05-02T14:45:50.982Z</time></trkpt><trkpt lat="44.1704556" lon="10.3610112"><ele>783.0</ele><time>2026-05-02T14:45:55.985Z</time></trkpt><trkpt lat="44.1704768" lon="10.360917"><ele>783.8571428571428</ele><time>2026-05-02T14:46:00.998Z</time></trkpt><trkpt lat="44.1705131" lon="10.360844"><ele>784.7142857142858</ele><time>2026-05-02T14:46:04.981Z</time></trkpt><trkpt lat="44.1705602" lon="10.3607839"><ele>785.5714285714286</ele><time>2026-05-02T14:46:09.993Z</time></trkpt><trkpt lat="44.1706304" lon="10.3607191"><ele>786.4285714285713</ele><time>2026-05-02T14:46:13.985Z</time></trkpt><trkpt lat="44.1706836" lon="10.3606534"><ele>787.2857142857142</ele><time>2026-05-02T14:46:16.994Z</time></trkpt><trkpt lat="44.1707191" lon="10.3605754"><ele>788.1428571428571</ele><time>2026-05-02T14:46:19.983Z</time></trkpt><trkpt lat="44.1707677" lon="10.3604721"><ele>789.0</ele><time>2026-05-02T14:46:22.992Z</time></trkpt><trkpt lat="44.170822" lon="10.3603945"><ele>789.5714285714286</ele><time>2026-05-02T14:46:25.99Z</time></trkpt><trkpt lat="44.1708824" lon="10.3603171"><ele>790.1428571428571</ele><time>2026-05-02T14:46:30.978Z</time></trkpt><trkpt lat="44.1709305" lon="10.360242"><ele>790.7142857142858</ele><time>2026-05-02T14:46:34.986Z</time></trkpt><trkpt lat="44.1709711" lon="10.3601594"><ele>791.2857142857142</ele><time>2026-05-02T14:46:39.997Z</time></trkpt><trkpt lat="44.1709985" lon="10.3600739"><ele>791.8571428571429</ele><time>2026-05-02T14:46:44.984Z</time></trkpt><trkpt lat="44.1710307" lon="10.3599848"><ele>792.4285714285714</ele><time>2026-05-02T14:46:49.982Z</time></trkpt><trkpt lat="44.1710759" lon="10.3599124"><ele>793.0</ele><time>2026-05-02T14:46:53.981Z</time></trkpt><trkpt lat="44.1711355" lon="10.3598836"><ele>793.0000000000001</ele><time>2026-05-02T14:46:58.998Z</time></trkpt><trkpt lat="44.1712032" lon="10.3599022"><ele>793.0</ele><time>2026-05-02T14:47:03.98Z</time></trkpt><trkpt lat="44.1712643" lon="10.3599325"><ele>793.0</ele><time>2026-05-02T14:47:07.988Z</time></trkpt><trkpt lat="44.1713419" lon="10.3599546"><ele>793.0</ele><time>2026-05-02T14:47:12.975Z</time></trkpt><trkpt lat="44.1714039" lon="10.3599748"><ele>793.0</ele><time>2026-05-02T14:47:17Z</time></trkpt><trkpt lat="44.1714793" lon="10.3599992"><ele>793.0000000000001</ele><time>2026-05-02T14:47:21.977Z</time></trkpt><trkpt lat="44.1715513" lon="10.3600146"><ele>793.0</ele><time>2026-05-02T14:47:26.98Z</time></trkpt><trkpt lat="44.1716154" lon="10.360029"><ele>794.6666666666666</ele><time>2026-05-02T14:47:30.983Z</time></trkpt><trkpt lat="44.1716829" lon="10.3600321"><ele>796.3333333333333</ele><time>2026-05-02T14:47:35.93Z</time></trkpt><trkpt lat="44.1717599" lon="10.3600476"><ele>798.0</ele><time>2026-05-02T14:47:39Z</time></trkpt><trkpt lat="44.1718202" lon="10.3600795"><ele>799.6666666666667</ele><time>2026-05-02T14:47:41.993Z</time></trkpt><trkpt lat="44.1718926" lon="10.3601468"><ele>801.3333333333334</ele><time>2026-05-02T14:47:44.996Z</time></trkpt><trkpt lat="44.1719398" lon="10.3602052"><ele>803.0</ele><time>2026-05-02T14:47:45.993Z</time></trkpt><trkpt lat="44.1720521" lon="10.3602958"><ele>803.0</ele><time>2026-05-02T14:47:46.986Z</time></trkpt><trkpt lat="44.1721217" lon="10.3603576"><ele>803.0</ele><time>2026-05-02T14:47:47.979Z</time></trkpt><trkpt lat="44.172179" lon="10.3604114"><ele>803.0</ele><time>2026-05-02T14:47:49Z</time></trkpt><trkpt lat="44.1722335" lon="10.360459"><ele>803.0</ele><time>2026-05-02T14:47:49.995Z</time></trkpt><trkpt lat="44.1723353" lon="10.3605571"><ele>803.0</ele><time>2026-05-02T14:47:51.991Z</time></trkpt><trkpt lat="44.1724325" lon="10.3606313"><ele>802.2</ele><time>2026-05-02T14:47:53.999Z</time></trkpt><trkpt lat="44.1725302" lon="10.3606587"><ele>801.4</ele><time>2026-05-02T14:47:55.984Z</time></trkpt><trkpt lat="44.1726236" lon="10.3606761"><ele>800.6</ele><time>2026-05-02T14:47:57.991Z</time></trkpt><trkpt lat="44.1727122" lon="10.3606762"><ele>799.8000000000001</ele><time>2026-05-02T14:47:59.976Z</time></trkpt><trkpt lat="44.1727954" lon="10.3606714"><ele>799.0</ele><time>2026-05-02T14:48:01.98Z</time></trkpt><trkpt lat="44.1728796" lon="10.3606553"><ele>799.0</ele><time>2026-05-02T14:48:04.989Z</time></trkpt><trkpt lat="44.172942" lon="10.3606142"><ele>799.0</ele><time>2026-05-02T14:48:10.977Z</time></trkpt><trkpt lat="44.1729782" lon="10.3605349"><ele>799.0</ele><time>2026-05-02T14:48:14.925Z</time></trkpt><trkpt lat="44.1730306" lon="10.3604782"><ele>799.0</ele><time>2026-05-02T14:48:19.988Z</time></trkpt><trkpt lat="44.1730975" lon="10.3604752"><ele>799.0</ele><time>2026-05-02T14:48:24.963Z</time></trkpt><trkpt lat="44.1731653" lon="10.3604743"><ele>799.0</ele><time>2026-05-02T14:48:29.994Z</time></trkpt><trkpt lat="44.1732377" lon="10.3604656"><ele>799.0</ele><time>2026-05-02T14:48:34.944Z</time></trkpt><trkpt lat="44.1733063" lon="10.3604499"><ele>799.0</ele><time>2026-05-02T14:48:37.984Z</time></trkpt><trkpt lat="44.17338" lon="10.3604412"><ele>799.0</ele><time>2026-05-02T14:48:42.993Z</time></trkpt><trkpt lat="44.1734532" lon="10.3604287"><ele>799.0</ele><time>2026-05-02T14:48:47.987Z</time></trkpt><trkpt lat="44.1735169" lon="10.3604292"><ele>799.0</ele><time>2026-05-02T14:48:52.985Z</time></trkpt><trkpt lat="44.1735945" lon="10.3604254"><ele>799.0</ele><time>2026-05-02T14:48:58.997Z</time></trkpt><trkpt lat="44.1736579" lon="10.3604173"><ele>799.0</ele><time>2026-05-02T14:49:02.993Z</time></trkpt><trkpt lat="44.1737227" lon="10.3604053"><ele>799.0</ele><time>2026-05-02T14:49:06Z</time></trkpt><trkpt lat="44.1737906" lon="10.3604183"><ele>799.0</ele><time>2026-05-02T14:49:10.992Z</time></trkpt><trkpt lat="44.1738663" lon="10.3604182"><ele>799.0</ele><time>2026-05-02T14:49:15.999Z</time></trkpt><trkpt lat="44.1739331" lon="10.3604288"><ele>799.0</ele><time>2026-05-02T14:49:19.987Z</time></trkpt><trkpt lat="44.1739981" lon="10.3604493"><ele>799.0</ele><time>2026-05-02T14:49:23.987Z</time></trkpt><trkpt lat="44.1740683" lon="10.3604946"><ele>799.0</ele><time>2026-05-02T14:49:27.986Z</time></trkpt><trkpt lat="44.1741337" lon="10.3605312"><ele>799.0</ele><time>2026-05-02T14:49:31.992Z</time></trkpt><trkpt lat="44.1742119" lon="10.360556"><ele>799.0</ele><time>2026-05-02T14:49:36.988Z</time></trkpt><trkpt lat="44.1742845" lon="10.360554"><ele>799.7142857142858</ele><time>2026-05-02T14:49:41Z</time></trkpt><trkpt lat="44.174353" lon="10.3605402"><ele>800.4285714285713</ele><time>2026-05-02T14:49:45Z</time></trkpt><trkpt lat="44.1744198" lon="10.3605318"><ele>801.1428571428571</ele><time>2026-05-02T14:49:48.988Z</time></trkpt><trkpt lat="44.1744967" lon="10.360518"><ele>801.8571428571429</ele><time>2026-05-02T14:49:53.986Z</time></trkpt><trkpt lat="44.1745689" lon="10.3604907"><ele>802.5714285714287</ele><time>2026-05-02T14:49:58.996Z</time></trkpt><trkpt lat="44.1746397" lon="10.3604653"><ele>803.2857142857142</ele><time>2026-05-02T14:50:03.99Z</time></trkpt><trkpt lat="44.1747151" lon="10.3604615"><ele>804.0</ele><time>2026-05-02T14:50:08.979Z</time></trkpt><trkpt lat="44.1747908" lon="10.3604722"><ele>804.4285714285714</ele><time>2026-05-02T14:50:13.996Z</time></trkpt><trkpt lat="44.1748562" lon="10.360508"><ele>804.8571428571429</ele><time>2026-05-02T14:50:18.991Z</time></trkpt><trkpt lat="44.1749168" lon="10.3605473"><ele>805.2857142857143</ele><time>2026-05-02T14:50:23.998Z</time></trkpt><trkpt lat="44.1749784" lon="10.3605928"><ele>805.7142857142858</ele><time>2026-05-02T14:50:29.992Z</time></trkpt><trkpt lat="44.1750365" lon="10.3606459"><ele>806.1428571428571</ele><time>2026-05-02T14:50:35.988Z</time></trkpt><trkpt lat="44.1750916" lon="10.3607057"><ele>806.5714285714287</ele><time>2026-05-02T14:50:41Z</time></trkpt><trkpt lat="44.175151" lon="10.3607818"><ele>807.0</ele><time>2026-05-02T14:50:44.984Z</time></trkpt><trkpt lat="44.1752176" lon="10.3608413"><ele>807.0</ele><time>2026-05-02T14:50:48.995Z</time></trkpt><trkpt lat="44.1752821" lon="10.3608838"><ele>807.0</ele><time>2026-05-02T14:50:52.999Z</time></trkpt><trkpt lat="44.1753413" lon="10.3609412"><ele>807.0</ele><time>2026-05-02T14:50:57Z</time></trkpt><trkpt lat="44.1753937" lon="10.3610008"><ele>807.0</ele><time>2026-05-02T14:51:00.993Z</time></trkpt><trkpt lat="44.1754643" lon="10.361039"><ele>807.0</ele><time>2026-05-02T14:51:04.999Z</time></trkpt><trkpt lat="44.1755481" lon="10.3610615"><ele>807.0</ele><time>2026-05-02T14:51:07.984Z</time></trkpt><trkpt lat="44.1756252" lon="10.3611052"><ele>807.0000000000001</ele><time>2026-05-02T14:51:09.978Z</time></trkpt><trkpt lat="44.1756705" lon="10.3611784"><ele>807.0</ele><time>2026-05-02T14:51:12.977Z</time></trkpt><trkpt lat="44.1757041" lon="10.3612723"><ele>807.0</ele><time>2026-05-02T14:51:17.987Z</time></trkpt><trkpt lat="44.1757405" lon="10.3613537"><ele>807.0</ele><time>2026-05-02T14:51:21.989Z</time></trkpt><trkpt lat="44.1757742" lon="10.3614329"><ele>807.0</ele><time>2026-05-02T14:51:25.976Z</time></trkpt><trkpt lat="44.1758125" lon="10.361503"><ele>807.0000000000001</ele><time>2026-05-02T14:51:30Z</time></trkpt><trkpt lat="44.1758506" lon="10.3615905"><ele>807.0</ele><time>2026-05-02T14:51:34.975Z</time></trkpt><trkpt lat="44.1758783" lon="10.3616858"><ele>809.0</ele><time>2026-05-02T14:51:39.991Z</time></trkpt><trkpt lat="44.1758949" lon="10.3617965"><ele>811.0</ele><time>2026-05-02T14:51:44.983Z</time></trkpt><trkpt lat="44.1759273" lon="10.3618991"><ele>813.0</ele><time>2026-05-02T14:51:49.992Z</time></trkpt><trkpt lat="44.1759504" lon="10.3619921"><ele>815.0</ele><time>2026-05-02T14:51:52.99Z</time></trkpt><trkpt lat="44.1759441" lon="10.3620859"><ele>817.0</ele><time>2026-05-02T14:51:56.908Z</time></trkpt><trkpt lat="44.1758779" lon="10.3621588"><ele>819.0</ele><time>2026-05-02T14:51:59.991Z</time></trkpt><trkpt lat="44.1757717" lon="10.3621177"><ele>819.0</ele><time>2026-05-02T14:52:02.977Z</time></trkpt><trkpt lat="44.175696" lon="10.3621328"><ele>819.0</ele><time>2026-05-02T14:52:04.989Z</time></trkpt><trkpt lat="44.1756101" lon="10.3621707"><ele>819.0</ele><time>2026-05-02T14:52:06.989Z</time></trkpt><trkpt lat="44.1755266" lon="10.3622158"><ele>819.0</ele><time>2026-05-02T14:52:09.986Z</time></trkpt><trkpt lat="44.1754258" lon="10.3622804"><ele>819.0</ele><time>2026-05-02T14:52:11.987Z</time></trkpt><trkpt lat="44.1753601" lon="10.3623609"><ele>817.1666666666666</ele><time>2026-05-02T14:52:13.991Z</time></trkpt><trkpt lat="44.1752796" lon="10.3624061"><ele>815.3333333333333</ele><time>2026-05-02T14:52:15.984Z</time></trkpt><trkpt lat="44.1751918" lon="10.3624724"><ele>813.5</ele><time>2026-05-02T14:52:17.989Z</time></trkpt><trkpt lat="44.1750827" lon="10.362541"><ele>811.6666666666666</ele><time>2026-05-02T14:52:19.994Z</time></trkpt><trkpt lat="44.1750084" lon="10.3625731"><ele>809.8333333333333</ele><time>2026-05-02T14:52:21Z</time></trkpt><trkpt lat="44.1749432" lon="10.3625707"><ele>808.0</ele><time>2026-05-02T14:52:21.982Z</time></trkpt><trkpt lat="44.1748772" lon="10.3625844"><ele>805.9999999999999</ele><time>2026-05-02T14:52:22.998Z</time></trkpt><trkpt lat="44.1747992" lon="10.3625646"><ele>804.0</ele><time>2026-05-02T14:52:23.995Z</time></trkpt><trkpt lat="44.1747318" lon="10.3625529"><ele>802.0</ele><time>2026-05-02T14:52:24.994Z</time></trkpt><trkpt lat="44.1746533" lon="10.3625459"><ele>800.0</ele><time>2026-05-02T14:52:25.991Z</time></trkpt><trkpt lat="44.174589" lon="10.3625483"><ele>797.9999999999999</ele><time>2026-05-02T14:52:26.987Z</time></trkpt><trkpt lat="44.1744955" lon="10.3625967"><ele>796.0</ele><time>2026-05-02T14:52:28.985Z</time></trkpt><trkpt lat="44.1744384" lon="10.362726"><ele>795.9999999999999</ele><time>2026-05-02T14:52:30.98Z</time></trkpt><trkpt lat="44.1743869" lon="10.3628693"><ele>796.0</ele><time>2026-05-02T14:52:32.981Z</time></trkpt><trkpt lat="44.1743142" lon="10.3629068"><ele>796.0</ele><time>2026-05-02T14:52:33.983Z</time></trkpt><trkpt lat="44.1742571" lon="10.3628568"><ele>796.0</ele><time>2026-05-02T14:52:35.987Z</time></trkpt><trkpt lat="44.1742002" lon="10.3628165"><ele>795.9999999999999</ele><time>2026-05-02T14:52:37.984Z</time></trkpt><trkpt lat="44.1741261" lon="10.3627869"><ele>796.0</ele><time>2026-05-02T14:52:39.978Z</time></trkpt><trkpt lat="44.1740466" lon="10.362767"><ele>795.3333333333333</ele><time>2026-05-02T14:52:41.98Z</time></trkpt><trkpt lat="44.1739732" lon="10.3627635"><ele>794.6666666666666</ele><time>2026-05-02T14:52:43.976Z</time></trkpt><trkpt lat="44.1739091" lon="10.3627924"><ele>794.0</ele><time>2026-05-02T14:52:45.984Z</time></trkpt><trkpt lat="44.1738307" lon="10.3628646"><ele>793.3333333333333</ele><time>2026-05-02T14:52:47.981Z</time></trkpt><trkpt lat="44.1737642" lon="10.3629648"><ele>792.6666666666666</ele><time>2026-05-02T14:52:49.985Z</time></trkpt><trkpt lat="44.1736916" lon="10.3630882"><ele>792.0</ele><time>2026-05-02T14:52:51.992Z</time></trkpt><trkpt lat="44.1736683" lon="10.3632193"><ele>792.0</ele><time>2026-05-02T14:52:53.996Z</time></trkpt><trkpt lat="44.1736402" lon="10.3633474"><ele>792.0</ele><time>2026-05-02T14:52:55.985Z</time></trkpt><trkpt lat="44.1735823" lon="10.3634712"><ele>792.0</ele><time>2026-05-02T14:52:57.996Z</time></trkpt><trkpt lat="44.1735142" lon="10.3635539"><ele>792.0</ele><time>2026-05-02T14:52:59.992Z</time></trkpt><trkpt lat="44.1734377" lon="10.3635982"><ele>792.0</ele><time>2026-05-02T14:53:01.987Z</time></trkpt><trkpt lat="44.1733698" lon="10.3635941"><ele>792.0</ele><time>2026-05-02T14:53:03.988Z</time></trkpt><trkpt lat="44.1732945" lon="10.3636561"><ele>792.0</ele><time>2026-05-02T14:53:06.981Z</time></trkpt><trkpt lat="44.1732306" lon="10.3637262"><ele>792.0</ele><time>2026-05-02T14:53:08.979Z</time></trkpt><trkpt lat="44.1731971" lon="10.3638352"><ele>792.0</ele><time>2026-05-02T14:53:10.99Z</time></trkpt><trkpt lat="44.1731811" lon="10.363966"><ele>792.0</ele><time>2026-05-02T14:53:12.986Z</time></trkpt><trkpt lat="44.1731708" lon="10.3640693"><ele>792.0</ele><time>2026-05-02T14:53:14.974Z</time></trkpt><trkpt lat="44.1731612" lon="10.3641598"><ele>792.0</ele><time>2026-05-02T14:53:16.988Z</time></trkpt><trkpt lat="44.1731767" lon="10.3642712"><ele>792.2857142857143</ele><time>2026-05-02T14:53:19.992Z</time></trkpt><trkpt lat="44.1731994" lon="10.3643544"><ele>792.5714285714286</ele><time>2026-05-02T14:53:22.993Z</time></trkpt><trkpt lat="44.173241" lon="10.3644417"><ele>792.8571428571429</ele><time>2026-05-02T14:53:26.979Z</time></trkpt><trkpt lat="44.1732903" lon="10.3645151"><ele>793.1428571428571</ele><time>2026-05-02T14:53:30.993Z</time></trkpt><trkpt lat="44.17335" lon="10.3645753"><ele>793.4285714285713</ele><time>2026-05-02T14:53:35.979Z</time></trkpt><trkpt lat="44.1734025" lon="10.364641"><ele>793.7142857142857</ele><time>2026-05-02T14:53:39.988Z</time></trkpt><trkpt lat="44.1734517" lon="10.3646982"><ele>794.0</ele><time>2026-05-02T14:53:43.988Z</time></trkpt><trkpt lat="44.1735165" lon="10.3647416"><ele>792.7142857142857</ele><time>2026-05-02T14:53:47.986Z</time></trkpt><trkpt lat="44.1735714" lon="10.3647881"><ele>791.4285714285713</ele><time>2026-05-02T14:53:50.986Z</time></trkpt><trkpt lat="44.1736386" lon="10.3648501"><ele>790.1428571428571</ele><time>2026-05-02T14:53:54.975Z</time></trkpt><trkpt lat="44.1737064" lon="10.364904"><ele>788.8571428571429</ele><time>2026-05-02T14:53:58.985Z</time></trkpt><trkpt lat="44.1737743" lon="10.3649274"><ele>787.5714285714286</ele><time>2026-05-02T14:54:02.989Z</time></trkpt><trkpt lat="44.1738369" lon="10.3649428"><ele>786.2857142857143</ele><time>2026-05-02T14:54:06.981Z</time></trkpt><trkpt lat="44.1739052" lon="10.3649581"><ele>785.0</ele><time>2026-05-02T14:54:10.988Z</time></trkpt><trkpt lat="44.1739894" lon="10.3649501"><ele>786.5714285714286</ele><time>2026-05-02T14:54:13.983Z</time></trkpt><trkpt lat="44.174051" lon="10.3649282"><ele>788.1428571428571</ele><time>2026-05-02T14:54:15.987Z</time></trkpt><trkpt lat="44.1741271" lon="10.3649017"><ele>789.7142857142857</ele><time>2026-05-02T14:54:18.99Z</time></trkpt><trkpt lat="44.1741931" lon="10.3648613"><ele>791.2857142857142</ele><time>2026-05-02T14:54:21.982Z</time></trkpt><trkpt lat="44.1742647" lon="10.3648185"><ele>792.8571428571429</ele><time>2026-05-02T14:54:25.982Z</time></trkpt><trkpt lat="44.1743318" lon="10.3647877"><ele>794.4285714285713</ele><time>2026-05-02T14:54:29.991Z</time></trkpt><trkpt lat="44.1743914" lon="10.3647552"><ele>796.0</ele><time>2026-05-02T14:54:33.987Z</time></trkpt><trkpt lat="44.1744655" lon="10.3647152"><ele>795.9999999999999</ele><time>2026-05-02T14:54:38.992Z</time></trkpt><trkpt lat="44.1745233" lon="10.364751"><ele>796.0</ele><time>2026-05-02T14:54:42.989Z</time></trkpt><trkpt lat="44.1745379" lon="10.3648633"><ele>796.0</ele><time>2026-05-02T14:54:47.984Z</time></trkpt><trkpt lat="44.1745679" lon="10.3649607"><ele>796.0</ele><time>2026-05-02T14:54:51.985Z</time></trkpt><trkpt lat="44.1746155" lon="10.3650247"><ele>796.0</ele><time>2026-05-02T14:54:55.987Z</time></trkpt><trkpt lat="44.174665" lon="10.3650817"><ele>795.9999999999999</ele><time>2026-05-02T14:54:59.993Z</time></trkpt><trkpt lat="44.1747199" lon="10.3651337"><ele>796.0</ele><time>2026-05-02T14:55:03.978Z</time></trkpt><trkpt lat="44.1747816" lon="10.3651861"><ele>795.9999999999999</ele><time>2026-05-02T14:55:08.988Z</time></trkpt><trkpt lat="44.1748456" lon="10.365217"><ele>796.0</ele><time>2026-05-02T14:55:12.985Z</time></trkpt><trkpt lat="44.174908" lon="10.3652414"><ele>796.0</ele><time>2026-05-02T14:55:16.989Z</time></trkpt><trkpt lat="44.1749589" lon="10.3653126"><ele>796.0</ele><time>2026-05-02T14:55:20.986Z</time></trkpt><trkpt lat="44.1750025" lon="10.365377"><ele>796.0</ele><time>2026-05-02T14:55:24.997Z</time></trkpt><trkpt lat="44.1750636" lon="10.3654147"><ele>795.9999999999999</ele><time>2026-05-02T14:55:28.982Z</time></trkpt><trkpt lat="44.1751359" lon="10.3654479"><ele>796.0</ele><time>2026-05-02T14:55:33.983Z</time></trkpt><trkpt lat="44.1751987" lon="10.3654807"><ele>796.7142857142857</ele><time>2026-05-02T14:55:38Z</time></trkpt><trkpt lat="44.1752684" lon="10.3655226"><ele>797.4285714285714</ele><time>2026-05-02T14:55:41.984Z</time></trkpt><trkpt lat="44.1753353" lon="10.3655566"><ele>798.1428571428571</ele><time>2026-05-02T14:55:45.983Z</time></trkpt><trkpt lat="44.1754061" lon="10.3656078"><ele>798.8571428571429</ele><time>2026-05-02T14:55:49.99Z</time></trkpt><trkpt lat="44.1754712" lon="10.3656569"><ele>799.5714285714286</ele><time>2026-05-02T14:55:53.989Z</time></trkpt><trkpt lat="44.1755341" lon="10.3657002"><ele>800.2857142857142</ele><time>2026-05-02T14:55:57.989Z</time></trkpt><trkpt lat="44.1755988" lon="10.3657166"><ele>801.0</ele><time>2026-05-02T14:56:01.999Z</time></trkpt><trkpt lat="44.1756634" lon="10.3657111"><ele>803.5714285714286</ele><time>2026-05-02T14:56:05.981Z</time></trkpt><trkpt lat="44.1757343" lon="10.365677"><ele>806.1428571428571</ele><time>2026-05-02T14:56:09.983Z</time></trkpt><trkpt lat="44.1757853" lon="10.3656145"><ele>808.7142857142858</ele><time>2026-05-02T14:56:13.987Z</time></trkpt><trkpt lat="44.1758536" lon="10.3655979"><ele>811.2857142857142</ele><time>2026-05-02T14:56:18.981Z</time></trkpt><trkpt lat="44.1759194" lon="10.3656048"><ele>813.8571428571429</ele><time>2026-05-02T14:56:23Z</time></trkpt><trkpt lat="44.1759983" lon="10.3656183"><ele>816.4285714285714</ele><time>2026-05-02T14:56:27.984Z</time></trkpt><trkpt lat="44.1760661" lon="10.3656218"><ele>819.0</ele><time>2026-05-02T14:56:32.993Z</time></trkpt><trkpt lat="44.176135" lon="10.3655958"><ele>819.0</ele><time>2026-05-02T14:56:36.98Z</time></trkpt><trkpt lat="44.1762035" lon="10.365567"><ele>819.0</ele><time>2026-05-02T14:56:40.993Z</time></trkpt><trkpt lat="44.1762729" lon="10.365555"><ele>819.0</ele><time>2026-05-02T14:56:44.979Z</time></trkpt><trkpt lat="44.1763381" lon="10.3655922"><ele>819.0</ele><time>2026-05-02T14:56:48.983Z</time></trkpt><trkpt lat="44.1763564" lon="10.36568"><ele>819.0</ele><time>2026-05-02T14:56:52.986Z</time></trkpt><trkpt lat="44.1763541" lon="10.3657838"><ele>819.0</ele><time>2026-05-02T14:56:57.99Z</time></trkpt><trkpt lat="44.1763592" lon="10.3658909"><ele>819.0</ele><time>2026-05-02T14:57:02.989Z</time></trkpt><trkpt lat="44.1763549" lon="10.3659793"><ele>819.0</ele><time>2026-05-02T14:57:07.993Z</time></trkpt><trkpt lat="44.1763547" lon="10.3660731"><ele>819.0</ele><time>2026-05-02T14:57:11.986Z</time></trkpt><trkpt lat="44.176341" lon="10.3661707"><ele>819.0</ele><time>2026-05-02T14:57:15.985Z</time></trkpt><trkpt lat="44.1763261" lon="10.3662562"><ele>819.0</ele><time>2026-05-02T14:57:19.986Z</time></trkpt><trkpt lat="44.1763305" lon="10.3663492"><ele>819.0</ele><time>2026-05-02T14:57:23.99Z</time></trkpt><trkpt lat="44.1763667" lon="10.3664218"><ele>819.0</ele><time>2026-05-02T14:57:27.992Z</time></trkpt><trkpt lat="44.1763931" lon="10.3665026"><ele>819.0</ele><time>2026-05-02T14:57:32Z</time></trkpt><trkpt lat="44.1764377" lon="10.3665947"><ele>819.0</ele><time>2026-05-02T14:57:35.988Z</time></trkpt><trkpt lat="44.1764915" lon="10.3667132"><ele>819.0</ele><time>2026-05-02T14:57:39.991Z</time></trkpt><trkpt lat="44.1765142" lon="10.366803"><ele>819.0</ele><time>2026-05-02T14:57:41.986Z</time></trkpt><trkpt lat="44.1765801" lon="10.3672484"><ele>819.4000000000001</ele><time>2026-05-02T14:57:45.98Z</time></trkpt><trkpt lat="44.1765889" lon="10.3674019"><ele>819.8</ele><time>2026-05-02T14:57:47.992Z</time></trkpt><trkpt lat="44.17662" lon="10.3674834"><ele>820.2</ele><time>2026-05-02T14:57:48.988Z</time></trkpt><trkpt lat="44.1766626" lon="10.3676219"><ele>820.5999999999999</ele><time>2026-05-02T14:57:50.989Z</time></trkpt><trkpt lat="44.1767049" lon="10.3677265"><ele>821.0</ele><time>2026-05-02T14:57:52.979Z</time></trkpt><trkpt lat="44.1767728" lon="10.3678134"><ele>821.0000000000001</ele><time>2026-05-02T14:57:55.996Z</time></trkpt><trkpt lat="44.1768213" lon="10.3678858"><ele>821.0</ele><time>2026-05-02T14:57:57.991Z</time></trkpt><trkpt lat="44.176882" lon="10.3679824"><ele>821.0</ele><time>2026-05-02T14:57:59.993Z</time></trkpt><trkpt lat="44.1769534" lon="10.3680471"><ele>821.0</ele><time>2026-05-02T14:58:01.985Z</time></trkpt><trkpt lat="44.1770444" lon="10.3680593"><ele>821.0000000000001</ele><time>2026-05-02T14:58:03.984Z</time></trkpt><trkpt lat="44.1771146" lon="10.3681051"><ele>821.0</ele><time>2026-05-02T14:58:05.977Z</time></trkpt><trkpt lat="44.1771443" lon="10.3681954"><ele>820.4285714285714</ele><time>2026-05-02T14:58:09.989Z</time></trkpt><trkpt lat="44.1770811" lon="10.3682327"><ele>819.8571428571429</ele><time>2026-05-02T14:58:15.986Z</time></trkpt><trkpt lat="44.1770113" lon="10.3682615"><ele>819.2857142857142</ele><time>2026-05-02T14:58:22.992Z</time></trkpt><trkpt lat="44.1769371" lon="10.3682794"><ele>818.7142857142858</ele><time>2026-05-02T14:58:27.979Z</time></trkpt><trkpt lat="44.1768767" lon="10.3683071"><ele>818.1428571428571</ele><time>2026-05-02T14:58:31.992Z</time></trkpt><trkpt lat="44.1768108" lon="10.3683361"><ele>817.5714285714286</ele><time>2026-05-02T14:58:35.986Z</time></trkpt><trkpt lat="44.1767509" lon="10.3683772"><ele>817.0</ele><time>2026-05-02T14:58:39.981Z</time></trkpt><trkpt lat="44.1766882" lon="10.3684007"><ele>816.9999999999999</ele><time>2026-05-02T14:58:43.975Z</time></trkpt><trkpt lat="44.1766142" lon="10.368437"><ele>817.0</ele><time>2026-05-02T14:58:48.983Z</time></trkpt><trkpt lat="44.1765423" lon="10.3684756"><ele>817.0</ele><time>2026-05-02T14:58:53.983Z</time></trkpt><trkpt lat="44.1764764" lon="10.3685122"><ele>817.0</ele><time>2026-05-02T14:58:58.993Z</time></trkpt><trkpt lat="44.1764133" lon="10.3685747"><ele>817.0</ele><time>2026-05-02T14:59:03.983Z</time></trkpt><trkpt lat="44.1763919" lon="10.3686584"><ele>816.9999999999999</ele><time>2026-05-02T14:59:07.984Z</time></trkpt><trkpt lat="44.1763859" lon="10.3687555"><ele>817.0</ele><time>2026-05-02T14:59:12.985Z</time></trkpt><trkpt lat="44.176393" lon="10.3688441"><ele>816.1428571428571</ele><time>2026-05-02T14:59:16.984Z</time></trkpt><trkpt lat="44.1764158" lon="10.3689364"><ele>815.2857142857142</ele><time>2026-05-02T14:59:21.98Z</time></trkpt><trkpt lat="44.1764708" lon="10.3689902"><ele>814.4285714285713</ele><time>2026-05-02T14:59:26.992Z</time></trkpt><trkpt lat="44.1765315" lon="10.3690524"><ele>813.5714285714286</ele><time>2026-05-02T14:59:32.98Z</time></trkpt><trkpt lat="44.1765943" lon="10.3690877"><ele>812.7142857142858</ele><time>2026-05-02T14:59:37.993Z</time></trkpt><trkpt lat="44.1766675" lon="10.3691028"><ele>811.8571428571428</ele><time>2026-05-02T14:59:43.985Z</time></trkpt><trkpt lat="44.1767349" lon="10.3691009"><ele>811.0</ele><time>2026-05-02T14:59:48.99Z</time></trkpt><trkpt lat="44.1767991" lon="10.3691095"><ele>812.8571428571428</ele><time>2026-05-02T14:59:53.984Z</time></trkpt><trkpt lat="44.1768626" lon="10.3691343"><ele>814.7142857142858</ele><time>2026-05-02T14:59:58.983Z</time></trkpt><trkpt lat="44.1769183" lon="10.3691893"><ele>816.5714285714286</ele><time>2026-05-02T15:00:03.978Z</time></trkpt><trkpt lat="44.1769661" lon="10.3692606"><ele>818.4285714285713</ele><time>2026-05-02T15:00:08.994Z</time></trkpt><trkpt lat="44.1770257" lon="10.3692938"><ele>820.2857142857142</ele><time>2026-05-02T15:00:13.988Z</time></trkpt><trkpt lat="44.1770902" lon="10.369299"><ele>822.1428571428571</ele><time>2026-05-02T15:00:19Z</time></trkpt><trkpt lat="44.1771584" lon="10.3693075"><ele>824.0</ele><time>2026-05-02T15:00:23.994Z</time></trkpt><trkpt lat="44.1772258" lon="10.3693079"><ele>823.9999999999999</ele><time>2026-05-02T15:00:28.98Z</time></trkpt><trkpt lat="44.1772898" lon="10.3693008"><ele>824.0</ele><time>2026-05-02T15:00:33.988Z</time></trkpt><trkpt lat="44.1773628" lon="10.3692935"><ele>824.0</ele><time>2026-05-02T15:00:38.982Z</time></trkpt><trkpt lat="44.1774269" lon="10.3693021"><ele>824.0</ele><time>2026-05-02T15:00:42.977Z</time></trkpt><trkpt lat="44.1774949" lon="10.3693423"><ele>824.0</ele><time>2026-05-02T15:00:47.99Z</time></trkpt><trkpt lat="44.1775575" lon="10.3693908"><ele>823.9999999999999</ele><time>2026-05-02T15:00:52.989Z</time></trkpt><trkpt lat="44.1776209" lon="10.3694434"><ele>824.0</ele><time>2026-05-02T15:00:58Z</time></trkpt><trkpt lat="44.1776976" lon="10.369465"><ele>825.4285714285713</ele><time>2026-05-02T15:01:02.988Z</time></trkpt><trkpt lat="44.1777629" lon="10.3694632"><ele>826.8571428571429</ele><time>2026-05-02T15:01:06.983Z</time></trkpt><trkpt lat="44.17784" lon="10.3694587"><ele>828.2857142857142</ele><time>2026-05-02T15:01:11.987Z</time></trkpt><trkpt lat="44.1779051" lon="10.3694417"><ele>829.7142857142857</ele><time>2026-05-02T15:01:16Z</time></trkpt><trkpt lat="44.1779681" lon="10.3694232"><ele>831.1428571428571</ele><time>2026-05-02T15:01:20Z</time></trkpt><trkpt lat="44.1780327" lon="10.3694172"><ele>832.5714285714286</ele><time>2026-05-02T15:01:23.989Z</time></trkpt><trkpt lat="44.1781" lon="10.3694142"><ele>834.0</ele><time>2026-05-02T15:01:27.986Z</time></trkpt><trkpt lat="44.1781635" lon="10.3694157"><ele>835.2857142857143</ele><time>2026-05-02T15:01:31.986Z</time></trkpt><trkpt lat="44.1782361" lon="10.3694268"><ele>836.5714285714286</ele><time>2026-05-02T15:01:35.98Z</time></trkpt><trkpt lat="44.1783143" lon="10.3694353"><ele>837.8571428571429</ele><time>2026-05-02T15:01:39.997Z</time></trkpt><trkpt lat="44.1783793" lon="10.3694429"><ele>839.1428571428571</ele><time>2026-05-02T15:01:42.989Z</time></trkpt><trkpt lat="44.1784574" lon="10.3694448"><ele>840.4285714285713</ele><time>2026-05-02T15:01:46.982Z</time></trkpt><trkpt lat="44.1785373" lon="10.369445"><ele>841.7142857142857</ele><time>2026-05-02T15:01:50.987Z</time></trkpt><trkpt lat="44.1785994" lon="10.3694629"><ele>843.0</ele><time>2026-05-02T15:01:53.977Z</time></trkpt><trkpt lat="44.1786581" lon="10.3695091"><ele>843.0</ele><time>2026-05-02T15:01:56.98Z</time></trkpt><trkpt lat="44.1787148" lon="10.3695637"><ele>843.0</ele><time>2026-05-02T15:01:59.988Z</time></trkpt><trkpt lat="44.1787646" lon="10.3696242"><ele>843.0</ele><time>2026-05-02T15:02:02.976Z</time></trkpt><trkpt lat="44.1788206" lon="10.3696893"><ele>843.0</ele><time>2026-05-02T15:02:06.994Z</time></trkpt><trkpt lat="44.1788701" lon="10.3697554"><ele>843.0</ele><time>2026-05-02T15:02:10.983Z</time></trkpt><trkpt lat="44.1789287" lon="10.3698038"><ele>843.0</ele><time>2026-05-02T15:02:13.977Z</time></trkpt><trkpt lat="44.1790046" lon="10.3698449"><ele>843.0</ele><time>2026-05-02T15:02:17.994Z</time></trkpt><trkpt lat="44.1790712" lon="10.3698699"><ele>843.8333333333334</ele><time>2026-05-02T15:02:21Z</time></trkpt><trkpt lat="44.1791387" lon="10.3698977"><ele>844.6666666666667</ele><time>2026-05-02T15:02:23.983Z</time></trkpt><trkpt lat="44.1792095" lon="10.3699325"><ele>845.5</ele><time>2026-05-02T15:02:26.977Z</time></trkpt><trkpt lat="44.1792997" lon="10.3699541"><ele>846.3333333333334</ele><time>2026-05-02T15:02:29.988Z</time></trkpt><trkpt lat="44.1794134" lon="10.3700087"><ele>847.1666666666667</ele><time>2026-05-02T15:02:31.979Z</time></trkpt><trkpt lat="44.1794733" lon="10.3700616"><ele>848.0</ele><time>2026-05-02T15:02:32.977Z</time></trkpt><trkpt lat="44.1795801" lon="10.3701501"><ele>848.0000000000001</ele><time>2026-05-02T15:02:34.977Z</time></trkpt><trkpt lat="44.1796972" lon="10.3702151"><ele>848.0</ele><time>2026-05-02T15:02:36.993Z</time></trkpt><trkpt lat="44.1797836" lon="10.3702217"><ele>848.0</ele><time>2026-05-02T15:02:37.985Z</time></trkpt><trkpt lat="44.1798583" lon="10.3702201"><ele>848.0</ele><time>2026-05-02T15:02:38.989Z</time></trkpt><trkpt lat="44.179933" lon="10.3702191"><ele>848.0000000000001</ele><time>2026-05-02T15:02:39.986Z</time></trkpt><trkpt lat="44.180013" lon="10.3702373"><ele>848.0</ele><time>2026-05-02T15:02:40.978Z</time></trkpt><trkpt lat="44.1800935" lon="10.3702653"><ele>848.4</ele><time>2026-05-02T15:02:41.993Z</time></trkpt><trkpt lat="44.1801684" lon="10.3702769"><ele>848.8</ele><time>2026-05-02T15:02:42.982Z</time></trkpt><trkpt lat="44.180242" lon="10.3702812"><ele>849.2</ele><time>2026-05-02T15:02:43.993Z</time></trkpt><trkpt lat="44.180309" lon="10.3702948"><ele>849.6</ele><time>2026-05-02T15:02:44.992Z</time></trkpt><trkpt lat="44.1804436" lon="10.3702815"><ele>850.0</ele><time>2026-05-02T15:02:46.99Z</time></trkpt><trkpt lat="44.1805621" lon="10.3703312"><ele>850.0</ele><time>2026-05-02T15:02:48.99Z</time></trkpt><trkpt lat="44.1806178" lon="10.3703766"><ele>850.0</ele><time>2026-05-02T15:02:49.992Z</time></trkpt><trkpt lat="44.1806512" lon="10.3704561"><ele>850.0</ele><time>2026-05-02T15:02:50.999Z</time></trkpt><trkpt lat="44.1806868" lon="10.3705481"><ele>850.0</ele><time>2026-05-02T15:02:51.986Z</time></trkpt><trkpt lat="44.1807249" lon="10.3706348"><ele>850.0</ele><time>2026-05-02T15:02:52.999Z</time></trkpt><trkpt lat="44.1807668" lon="10.370716"><ele>850.0</ele><time>2026-05-02T15:02:53.993Z</time></trkpt><trkpt lat="44.1808271" lon="10.3707956"><ele>850.0</ele><time>2026-05-02T15:02:54.988Z</time></trkpt><trkpt lat="44.1808938" lon="10.3708612"><ele>847.2857142857142</ele><time>2026-05-02T15:02:56.001Z</time></trkpt><trkpt lat="44.1809653" lon="10.3708929"><ele>844.5714285714286</ele><time>2026-05-02T15:02:56.992Z</time></trkpt><trkpt lat="44.1810435" lon="10.3709274"><ele>841.8571428571429</ele><time>2026-05-02T15:02:57.997Z</time></trkpt><trkpt lat="44.1811198" lon="10.3709572"><ele>839.1428571428571</ele><time>2026-05-02T15:02:58.99Z</time></trkpt><trkpt lat="44.1811825" lon="10.3709804"><ele>836.4285714285714</ele><time>2026-05-02T15:02:59.993Z</time></trkpt><trkpt lat="44.1812416" lon="10.3710255"><ele>833.7142857142857</ele><time>2026-05-02T15:03:00.99Z</time></trkpt><trkpt lat="44.1812861" lon="10.3710924"><ele>831.0</ele><time>2026-05-02T15:03:01.993Z</time></trkpt><trkpt lat="44.1813229" lon="10.3712475"><ele>832.0</ele><time>2026-05-02T15:03:03.987Z</time></trkpt><trkpt lat="44.1813446" lon="10.3714037"><ele>833.0</ele><time>2026-05-02T15:03:05.984Z</time></trkpt><trkpt lat="44.181366" lon="10.371545"><ele>834.0</ele><time>2026-05-02T15:03:07.992Z</time></trkpt><trkpt lat="44.1814163" lon="10.3716666"><ele>835.0</ele><time>2026-05-02T15:03:09.994Z</time></trkpt><trkpt lat="44.1814668" lon="10.3717591"><ele>836.0</ele><time>2026-05-02T15:03:11.975Z</time></trkpt><trkpt lat="44.1815203" lon="10.371818"><ele>836.0</ele><time>2026-05-02T15:03:13.989Z</time></trkpt><trkpt lat="44.1815839" lon="10.3718743"><ele>836.0</ele><time>2026-05-02T15:03:17.986Z</time></trkpt><trkpt lat="44.1816472" lon="10.3719042"><ele>836.0</ele><time>2026-05-02T15:03:33.977Z</time></trkpt><trkpt lat="44.1817255" lon="10.3719389"><ele>836.0</ele><time>2026-05-02T15:03:37.988Z</time></trkpt><trkpt lat="44.1817908" lon="10.3719513"><ele>836.0</ele><time>2026-05-02T15:03:41Z</time></trkpt><trkpt lat="44.1818695" lon="10.3719797"><ele>836.0</ele><time>2026-05-02T15:03:44.99Z</time></trkpt><trkpt lat="44.1819304" lon="10.3720038"><ele>836.0</ele><time>2026-05-02T15:03:47.975Z</time></trkpt><trkpt lat="44.1819899" lon="10.3720406"><ele>836.0</ele><time>2026-05-02T15:03:50.984Z</time></trkpt><trkpt lat="44.1820434" lon="10.3720943"><ele>836.0</ele><time>2026-05-02T15:03:53.984Z</time></trkpt><trkpt lat="44.1820928" lon="10.372165"><ele>836.0</ele><time>2026-05-02T15:03:56.98Z</time></trkpt><trkpt lat="44.1821431" lon="10.3722202"><ele>836.0</ele><time>2026-05-02T15:04:01.993Z</time></trkpt><trkpt lat="44.182176" lon="10.3723107"><ele>836.0</ele><time>2026-05-02T15:04:05.995Z</time></trkpt><trkpt lat="44.1821993" lon="10.3724212"><ele>836.0</ele><time>2026-05-02T15:04:09.987Z</time></trkpt><trkpt lat="44.1822081" lon="10.3725265"><ele>836.0</ele><time>2026-05-02T15:04:13.985Z</time></trkpt><trkpt lat="44.1822222" lon="10.3726395"><ele>835.5714285714286</ele><time>2026-05-02T15:04:17.989Z</time></trkpt><trkpt lat="44.1822209" lon="10.3727552"><ele>835.1428571428571</ele><time>2026-05-02T15:04:21.989Z</time></trkpt><trkpt lat="44.1822213" lon="10.3728472"><ele>834.7142857142858</ele><time>2026-05-02T15:04:24.991Z</time></trkpt><trkpt lat="44.1822237" lon="10.3729355"><ele>834.2857142857142</ele><time>2026-05-02T15:04:27.987Z</time></trkpt><trkpt lat="44.1822389" lon="10.3730491"><ele>833.8571428571429</ele><time>2026-05-02T15:04:31.989Z</time></trkpt><trkpt lat="44.1822649" lon="10.3731314"><ele>833.4285714285714</ele><time>2026-05-02T15:04:35Z</time></trkpt><trkpt lat="44.1822923" lon="10.3732254"><ele>833.0</ele><time>2026-05-02T15:04:37.989Z</time></trkpt><trkpt lat="44.1823181" lon="10.3733144"><ele>832.1428571428571</ele><time>2026-05-02T15:04:40.989Z</time></trkpt><trkpt lat="44.1823293" lon="10.3734139"><ele>831.2857142857142</ele><time>2026-05-02T15:04:43.981Z</time></trkpt><trkpt lat="44.1823241" lon="10.3735076"><ele>830.4285714285714</ele><time>2026-05-02T15:04:46.983Z</time></trkpt><trkpt lat="44.1822958" lon="10.3736027"><ele>829.5714285714286</ele><time>2026-05-02T15:04:49.981Z</time></trkpt><trkpt lat="44.1822601" lon="10.3736805"><ele>828.7142857142857</ele><time>2026-05-02T15:04:52.997Z</time></trkpt><trkpt lat="44.1822236" lon="10.3737725"><ele>827.8571428571429</ele><time>2026-05-02T15:04:55.983Z</time></trkpt><trkpt lat="44.182193" lon="10.3738647"><ele>827.0</ele><time>2026-05-02T15:04:58.986Z</time></trkpt><trkpt lat="44.1821539" lon="10.3739515"><ele>826.5714285714286</ele><time>2026-05-02T15:05:01.975Z</time></trkpt><trkpt lat="44.1821235" lon="10.3740376"><ele>826.1428571428571</ele><time>2026-05-02T15:05:04.985Z</time></trkpt><trkpt lat="44.1821076" lon="10.3741318"><ele>825.7142857142857</ele><time>2026-05-02T15:05:07.984Z</time></trkpt><trkpt lat="44.1821126" lon="10.3742201"><ele>825.2857142857142</ele><time>2026-05-02T15:05:10.984Z</time></trkpt><trkpt lat="44.1821506" lon="10.3742923"><ele>824.8571428571429</ele><time>2026-05-02T15:05:13.987Z</time></trkpt><trkpt lat="44.1822091" lon="10.3743444"><ele>824.4285714285713</ele><time>2026-05-02T15:05:16.983Z</time></trkpt><trkpt lat="44.1822615" lon="10.3744048"><ele>824.0</ele><time>2026-05-02T15:05:19.987Z</time></trkpt><trkpt lat="44.1823164" lon="10.3744735"><ele>826.2857142857142</ele><time>2026-05-02T15:05:22.98Z</time></trkpt><trkpt lat="44.1823595" lon="10.3745515"><ele>828.5714285714286</ele><time>2026-05-02T15:05:25.98Z</time></trkpt><trkpt lat="44.1824052" lon="10.374621"><ele>830.8571428571429</ele><time>2026-05-02T15:05:28.992Z</time></trkpt><trkpt lat="44.1824479" lon="10.3746903"><ele>833.1428571428571</ele><time>2026-05-02T15:05:31.992Z</time></trkpt><trkpt lat="44.1824929" lon="10.374764"><ele>835.4285714285714</ele><time>2026-05-02T15:05:34.993Z</time></trkpt><trkpt lat="44.1825465" lon="10.3748515"><ele>837.7142857142857</ele><time>2026-05-02T15:05:38.977Z</time></trkpt><trkpt lat="44.1825993" lon="10.3749305"><ele>840.0</ele><time>2026-05-02T15:05:42.981Z</time></trkpt><trkpt lat="44.1826562" lon="10.3750059"><ele>840.0</ele><time>2026-05-02T15:05:46.988Z</time></trkpt><trkpt lat="44.1827006" lon="10.3750951"><ele>840.0</ele><time>2026-05-02T15:05:49.991Z</time></trkpt><trkpt lat="44.1827498" lon="10.3751501"><ele>840.0</ele><time>2026-05-02T15:05:51.984Z</time></trkpt><trkpt lat="44.1828026" lon="10.3752193"><ele>840.0</ele><time>2026-05-02T15:05:53.988Z</time></trkpt><trkpt lat="44.1828615" lon="10.3752973"><ele>840.0</ele><time>2026-05-02T15:05:55.993Z</time></trkpt><trkpt lat="44.1829276" lon="10.3753896"><ele>840.0</ele><time>2026-05-02T15:05:57.981Z</time></trkpt><trkpt lat="44.1829948" lon="10.3754812"><ele>840.5</ele><time>2026-05-02T15:05:59.983Z</time></trkpt><trkpt lat="44.1830649" lon="10.3755839"><ele>841.0</ele><time>2026-05-02T15:06:01.983Z</time></trkpt><trkpt lat="44.1831345" lon="10.3757025"><ele>841.5</ele><time>2026-05-02T15:06:03.99Z</time></trkpt><trkpt lat="44.1831841" lon="10.3758165"><ele>842.0</ele><time>2026-05-02T15:06:05.989Z</time></trkpt><trkpt lat="44.1832215" lon="10.3758975"><ele>842.5</ele><time>2026-05-02T15:06:07.986Z</time></trkpt><trkpt lat="44.1832604" lon="10.3759803"><ele>843.0</ele><time>2026-05-02T15:06:10Z</time></trkpt><trkpt lat="44.1833046" lon="10.376085"><ele>843.0</ele><time>2026-05-02T15:06:12.986Z</time></trkpt><trkpt lat="44.1833565" lon="10.3761829"><ele>843.0</ele><time>2026-05-02T15:06:15.977Z</time></trkpt><trkpt lat="44.1834008" lon="10.376287"><ele>843.0</ele><time>2026-05-02T15:06:18.989Z</time></trkpt><trkpt lat="44.1834484" lon="10.3763882"><ele>843.0</ele><time>2026-05-02T15:06:21.984Z</time></trkpt><trkpt lat="44.1834771" lon="10.376468"><ele>843.0</ele><time>2026-05-02T15:06:23.983Z</time></trkpt><trkpt lat="44.1835004" lon="10.3765574"><ele>843.0</ele><time>2026-05-02T15:06:25.978Z</time></trkpt><trkpt lat="44.1835105" lon="10.376651"><ele>842.8571428571429</ele><time>2026-05-02T15:06:27.986Z</time></trkpt><trkpt lat="44.1835052" lon="10.3767409"><ele>842.7142857142857</ele><time>2026-05-02T15:06:29.993Z</time></trkpt><trkpt lat="44.1834737" lon="10.3768561"><ele>842.5714285714287</ele><time>2026-05-02T15:06:32.99Z</time></trkpt><trkpt lat="44.1834486" lon="10.3769474"><ele>842.4285714285714</ele><time>2026-05-02T15:06:35.976Z</time></trkpt><trkpt lat="44.1834145" lon="10.3770335"><ele>842.2857142857143</ele><time>2026-05-02T15:06:38.987Z</time></trkpt><trkpt lat="44.1833812" lon="10.3771176"><ele>842.1428571428572</ele><time>2026-05-02T15:06:41.988Z</time></trkpt><trkpt lat="44.1833497" lon="10.3772003"><ele>842.0</ele><time>2026-05-02T15:06:44.997Z</time></trkpt><trkpt lat="44.1833189" lon="10.3772809"><ele>842.0000000000001</ele><time>2026-05-02T15:06:47.998Z</time></trkpt><trkpt lat="44.1832909" lon="10.3773675"><ele>842.0</ele><time>2026-05-02T15:06:50.991Z</time></trkpt><trkpt lat="44.1832567" lon="10.377472"><ele>842.0</ele><time>2026-05-02T15:06:54.981Z</time></trkpt><trkpt lat="44.1832201" lon="10.3775745"><ele>842.0</ele><time>2026-05-02T15:06:59Z</time></trkpt><trkpt lat="44.1831909" lon="10.3776576"><ele>842.0000000000001</ele><time>2026-05-02T15:07:01.985Z</time></trkpt><trkpt lat="44.1831616" lon="10.3777669"><ele>842.0</ele><time>2026-05-02T15:07:05.983Z</time></trkpt><trkpt lat="44.1831362" lon="10.3778787"><ele>841.0000000000001</ele><time>2026-05-02T15:07:09.995Z</time></trkpt><trkpt lat="44.183103" lon="10.3779674"><ele>840.0</ele><time>2026-05-02T15:07:12.993Z</time></trkpt><trkpt lat="44.1830698" lon="10.378066"><ele>839.0</ele><time>2026-05-02T15:07:16.989Z</time></trkpt><trkpt lat="44.1830327" lon="10.378147"><ele>838.0</ele><time>2026-05-02T15:07:20Z</time></trkpt><trkpt lat="44.1829923" lon="10.3782186"><ele>837.0</ele><time>2026-05-02T15:07:23Z</time></trkpt><trkpt lat="44.1829571" lon="10.3782998"><ele>836.0000000000001</ele><time>2026-05-02T15:07:25.983Z</time></trkpt><trkpt lat="44.1829368" lon="10.3783909"><ele>835.0</ele><time>2026-05-02T15:07:28.989Z</time></trkpt><trkpt lat="44.1828997" lon="10.3784623"><ele>835.0000000000001</ele><time>2026-05-02T15:07:31.99Z</time></trkpt><trkpt lat="44.1828583" lon="10.3785387"><ele>835.0</ele><time>2026-05-02T15:07:34.98Z</time></trkpt><trkpt lat="44.1828103" lon="10.3786157"><ele>835.0</ele><time>2026-05-02T15:07:37.986Z</time></trkpt><trkpt lat="44.1827805" lon="10.3787092"><ele>835.0</ele><time>2026-05-02T15:07:40.986Z</time></trkpt><trkpt lat="44.1827514" lon="10.3787939"><ele>835.0</ele><time>2026-05-02T15:07:43.994Z</time></trkpt><trkpt lat="44.182722" lon="10.3788804"><ele>835.0000000000001</ele><time>2026-05-02T15:07:46.988Z</time></trkpt><trkpt lat="44.1826912" lon="10.3789606"><ele>835.0</ele><time>2026-05-02T15:07:49.986Z</time></trkpt><trkpt lat="44.1826536" lon="10.3790573"><ele>836.4285714285714</ele><time>2026-05-02T15:07:53.987Z</time></trkpt><trkpt lat="44.1826129" lon="10.379157"><ele>837.8571428571429</ele><time>2026-05-02T15:07:57.986Z</time></trkpt><trkpt lat="44.1825819" lon="10.3792343"><ele>839.2857142857142</ele><time>2026-05-02T15:08:00.981Z</time></trkpt><trkpt lat="44.182557" lon="10.3793298"><ele>840.7142857142858</ele><time>2026-05-02T15:08:05Z</time></trkpt><trkpt lat="44.1825139" lon="10.3794027"><ele>842.1428571428571</ele><time>2026-05-02T15:08:08.982Z</time></trkpt><trkpt lat="44.1824593" lon="10.379482"><ele>843.5714285714286</ele><time>2026-05-02T15:08:12.982Z</time></trkpt><trkpt lat="44.1824485" lon="10.379592"><ele>845.0</ele><time>2026-05-02T15:08:16.992Z</time></trkpt><trkpt lat="44.1824574" lon="10.3796856"><ele>845.4285714285713</ele><time>2026-05-02T15:08:21.984Z</time></trkpt><trkpt lat="44.1824734" lon="10.3797724"><ele>845.8571428571429</ele><time>2026-05-02T15:08:25.989Z</time></trkpt><trkpt lat="44.1824582" lon="10.3798738"><ele>846.2857142857142</ele><time>2026-05-02T15:08:31.981Z</time></trkpt><trkpt lat="44.1824768" lon="10.3799668"><ele>846.7142857142857</ele><time>2026-05-02T15:08:36.986Z</time></trkpt><trkpt lat="44.1824964" lon="10.3800506"><ele>847.1428571428571</ele><time>2026-05-02T15:08:41.983Z</time></trkpt><trkpt lat="44.1825344" lon="10.3801262"><ele>847.5714285714286</ele><time>2026-05-02T15:08:47.986Z</time></trkpt><trkpt lat="44.182546" lon="10.3802139"><ele>848.0</ele><time>2026-05-02T15:08:53.984Z</time></trkpt><trkpt lat="44.1825245" lon="10.3801166"><ele>848.0</ele><time>2026-05-02T15:09:10Z</time></trkpt><trkpt lat="44.1825026" lon="10.3800206"><ele>848.0</ele><time>2026-05-02T15:09:14.989Z</time></trkpt><trkpt lat="44.1824966" lon="10.379932"><ele>848.0</ele><time>2026-05-02T15:09:18.989Z</time></trkpt><trkpt lat="44.1824762" lon="10.3798346"><ele>848.0</ele><time>2026-05-02T15:09:23.984Z</time></trkpt><trkpt lat="44.182478" lon="10.3797434"><ele>848.0</ele><time>2026-05-02T15:09:27Z</time></trkpt><trkpt lat="44.1824597" lon="10.3796515"><ele>848.0</ele><time>2026-05-02T15:09:29.995Z</time></trkpt><trkpt lat="44.1824641" lon="10.3795418"><ele>848.0</ele><time>2026-05-02T15:09:32.987Z</time></trkpt><trkpt lat="44.1825232" lon="10.3794334"><ele>847.4</ele><time>2026-05-02T15:09:35.987Z</time></trkpt><trkpt lat="44.1825811" lon="10.3793155"><ele>846.8</ele><time>2026-05-02T15:09:37.986Z</time></trkpt><trkpt lat="44.182636" lon="10.3791798"><ele>846.2</ele><time>2026-05-02T15:09:39.998Z</time></trkpt><trkpt lat="44.1826786" lon="10.3790347"><ele>845.6</ele><time>2026-05-02T15:09:41.992Z</time></trkpt><trkpt lat="44.1827085" lon="10.3789571"><ele>845.0</ele><time>2026-05-02T15:09:42.985Z</time></trkpt><trkpt lat="44.1827422" lon="10.3788816"><ele>843.0</ele><time>2026-05-02T15:09:43.989Z</time></trkpt><trkpt lat="44.1827982" lon="10.3787561"><ele>841.0</ele><time>2026-05-02T15:09:45.999Z</time></trkpt><trkpt lat="44.1828405" lon="10.3786446"><ele>839.0</ele><time>2026-05-02T15:09:47.991Z</time></trkpt><trkpt lat="44.1828886" lon="10.3785343"><ele>837.0</ele><time>2026-05-02T15:09:49.994Z</time></trkpt><trkpt lat="44.1829449" lon="10.3784112"><ele>835.0</ele><time>2026-05-02T15:09:51.986Z</time></trkpt><trkpt lat="44.1830092" lon="10.3782667"><ele>834.9999999999999</ele><time>2026-05-02T15:09:53.992Z</time></trkpt><trkpt lat="44.1830428" lon="10.3781899"><ele>835.0</ele><time>2026-05-02T15:09:54.989Z</time></trkpt><trkpt lat="44.1830829" lon="10.3781057"><ele>835.0</ele><time>2026-05-02T15:09:55.992Z</time></trkpt><trkpt lat="44.1831169" lon="10.3780249"><ele>835.0</ele><time>2026-05-02T15:09:56.991Z</time></trkpt><trkpt lat="44.1831721" lon="10.3778773"><ele>834.9999999999999</ele><time>2026-05-02T15:09:58.986Z</time></trkpt><trkpt lat="44.1832081" lon="10.3777553"><ele>835.0</ele><time>2026-05-02T15:10:00.99Z</time></trkpt><trkpt lat="44.1832462" lon="10.377659"><ele>835.3333333333333</ele><time>2026-05-02T15:10:03.984Z</time></trkpt><trkpt lat="44.1832748" lon="10.3775657"><ele>835.6666666666666</ele><time>2026-05-02T15:10:08.988Z</time></trkpt><trkpt lat="44.1832807" lon="10.377466"><ele>836.0</ele><time>2026-05-02T15:10:12Z</time></trkpt><trkpt lat="44.183312" lon="10.3773689"><ele>836.3333333333333</ele><time>2026-05-02T15:10:13.992Z</time></trkpt><trkpt lat="44.1833512" lon="10.3772646"><ele>836.6666666666666</ele><time>2026-05-02T15:10:15.987Z</time></trkpt><trkpt lat="44.1834006" lon="10.3771352"><ele>837.0</ele><time>2026-05-02T15:10:17.985Z</time></trkpt><trkpt lat="44.1834398" lon="10.3770052"><ele>837.0</ele><time>2026-05-02T15:10:19.982Z</time></trkpt><trkpt lat="44.1834816" lon="10.3768624"><ele>837.0</ele><time>2026-05-02T15:10:21.99Z</time></trkpt><trkpt lat="44.183521" lon="10.3767189"><ele>837.0</ele><time>2026-05-02T15:10:23.985Z</time></trkpt><trkpt lat="44.183559" lon="10.3766345"><ele>837.0</ele><time>2026-05-02T15:10:25.994Z</time></trkpt><trkpt lat="44.1836338" lon="10.3767063"><ele>837.0</ele><time>2026-05-02T15:10:29.985Z</time></trkpt><trkpt lat="44.1836709" lon="10.3768276"><ele>837.0</ele><time>2026-05-02T15:10:31.99Z</time></trkpt><trkpt lat="44.1836989" lon="10.3769292"><ele>837.0</ele><time>2026-05-02T15:10:33.98Z</time></trkpt><trkpt lat="44.1836188" lon="10.3769921"><ele>837.0</ele><time>2026-05-02T15:10:36.984Z</time></trkpt><trkpt lat="44.1835493" lon="10.3769707"><ele>837.0</ele><time>2026-05-02T15:10:38.988Z</time></trkpt><trkpt lat="44.1834655" lon="10.3769164"><ele>837.0</ele><time>2026-05-02T15:10:40.986Z</time></trkpt><trkpt lat="44.1833416" lon="10.3768421"><ele>837.0</ele><time>2026-05-02T15:10:42.988Z</time></trkpt><trkpt lat="44.1832777" lon="10.3768132"><ele>837.0</ele><time>2026-05-02T15:10:43.992Z</time></trkpt><trkpt lat="44.1832069" lon="10.3767783"><ele>837.0</ele><time>2026-05-02T15:10:44.985Z</time></trkpt><trkpt lat="44.1831304" lon="10.3767533"><ele>837.0</ele><time>2026-05-02T15:10:45.993Z</time></trkpt><trkpt lat="44.18305" lon="10.3767257"><ele>837.0</ele><time>2026-05-02T15:10:46.992Z</time></trkpt><trkpt lat="44.1829665" lon="10.3767053"><ele>837.0</ele><time>2026-05-02T15:10:47.977Z</time></trkpt><trkpt lat="44.1828744" lon="10.3766987"><ele>834.4000000000001</ele><time>2026-05-02T15:10:48.996Z</time></trkpt><trkpt lat="44.1827829" lon="10.3766854"><ele>831.8000000000001</ele><time>2026-05-02T15:10:49.992Z</time></trkpt><trkpt lat="44.1826883" lon="10.3766729"><ele>829.2</ele><time>2026-05-02T15:10:50.981Z</time></trkpt><trkpt lat="44.1825906" lon="10.3766621"><ele>826.6</ele><time>2026-05-02T15:10:51.99Z</time></trkpt><trkpt lat="44.1824895" lon="10.3766486"><ele>824.0</ele><time>2026-05-02T15:10:53Z</time></trkpt><trkpt lat="44.1823882" lon="10.3766354"><ele>821.8000000000001</ele><time>2026-05-02T15:10:53.988Z</time></trkpt><trkpt lat="44.1822839" lon="10.3766226"><ele>819.6</ele><time>2026-05-02T15:10:54.994Z</time></trkpt><trkpt lat="44.1821739" lon="10.3766115"><ele>817.4</ele><time>2026-05-02T15:10:55.991Z</time></trkpt><trkpt lat="44.1820739" lon="10.3765989"><ele>815.2</ele><time>2026-05-02T15:10:56.992Z</time></trkpt><trkpt lat="44.1819911" lon="10.3765848"><ele>813.0</ele><time>2026-05-02T15:10:57.997Z</time></trkpt><trkpt lat="44.181923" lon="10.3765693"><ele>813.0</ele><time>2026-05-02T15:10:58.987Z</time></trkpt><trkpt lat="44.1818318" lon="10.3765047"><ele>813.0</ele><time>2026-05-02T15:11:00.992Z</time></trkpt><trkpt lat="44.1817757" lon="10.3764057"><ele>813.0</ele><time>2026-05-02T15:11:02.988Z</time></trkpt><trkpt lat="44.1817551" lon="10.3762876"><ele>813.0</ele><time>2026-05-02T15:11:04.984Z</time></trkpt><trkpt lat="44.1817466" lon="10.3761926"><ele>813.0</ele><time>2026-05-02T15:11:06.986Z</time></trkpt><trkpt lat="44.1817295" lon="10.3761018"><ele>813.0</ele><time>2026-05-02T15:11:10.988Z</time></trkpt><trkpt lat="44.1817017" lon="10.3761836"><ele>813.0</ele><time>2026-05-02T15:11:15.988Z</time></trkpt><trkpt lat="44.1817201" lon="10.3763115"><ele>813.0</ele><time>2026-05-02T15:11:19Z</time></trkpt><trkpt lat="44.1816987" lon="10.3764181"><ele>813.0</ele><time>2026-05-02T15:11:20.986Z</time></trkpt><trkpt lat="44.1816376" lon="10.3765283"><ele>813.0</ele><time>2026-05-02T15:11:23Z</time></trkpt><trkpt lat="44.1815381" lon="10.3765924"><ele>813.0</ele><time>2026-05-02T15:11:24.99Z</time></trkpt><trkpt lat="44.1814231" lon="10.3766056"><ele>809.75</ele><time>2026-05-02T15:11:26.982Z</time></trkpt><trkpt lat="44.1813085" lon="10.3766129"><ele>806.5</ele><time>2026-05-02T15:11:28.989Z</time></trkpt><trkpt lat="44.1811877" lon="10.3766258"><ele>803.25</ele><time>2026-05-02T15:11:30.983Z</time></trkpt><trkpt lat="44.181065" lon="10.3766343"><ele>800.0</ele><time>2026-05-02T15:11:32.987Z</time></trkpt><trkpt lat="44.1809456" lon="10.3766734"><ele>800.0000000000001</ele><time>2026-05-02T15:11:34.985Z</time></trkpt><trkpt lat="44.1808942" lon="10.3767265"><ele>800.0</ele><time>2026-05-02T15:11:35.982Z</time></trkpt><trkpt lat="44.1808166" lon="10.3768675"><ele>800.0</ele><time>2026-05-02T15:11:37.987Z</time></trkpt><trkpt lat="44.180797" lon="10.3769563"><ele>800.0</ele><time>2026-05-02T15:11:38.98Z</time></trkpt><trkpt lat="44.1807885" lon="10.3770513"><ele>800.0000000000001</ele><time>2026-05-02T15:11:39.992Z</time></trkpt><trkpt lat="44.1807979" lon="10.3771504"><ele>800.0</ele><time>2026-05-02T15:11:40.985Z</time></trkpt><trkpt lat="44.1808029" lon="10.3772537"><ele>800.8333333333334</ele><time>2026-05-02T15:11:42Z</time></trkpt><trkpt lat="44.180809" lon="10.3773605"><ele>801.6666666666667</ele><time>2026-05-02T15:11:42.996Z</time></trkpt><trkpt lat="44.1808142" lon="10.3774675"><ele>802.5</ele><time>2026-05-02T15:11:43.985Z</time></trkpt><trkpt lat="44.1808251" lon="10.3775803"><ele>803.3333333333333</ele><time>2026-05-02T15:11:45Z</time></trkpt><trkpt lat="44.1808334" lon="10.3776913"><ele>804.1666666666666</ele><time>2026-05-02T15:11:45.989Z</time></trkpt><trkpt lat="44.1808433" lon="10.377804"><ele>805.0</ele><time>2026-05-02T15:11:46.996Z</time></trkpt><trkpt lat="44.1808518" lon="10.3779251"><ele>805.1666666666666</ele><time>2026-05-02T15:11:48Z</time></trkpt><trkpt lat="44.1808576" lon="10.3780455"><ele>805.3333333333333</ele><time>2026-05-02T15:11:48.988Z</time></trkpt><trkpt lat="44.1808604" lon="10.3781715"><ele>805.5</ele><time>2026-05-02T15:11:49.985Z</time></trkpt><trkpt lat="44.1808519" lon="10.3782905"><ele>805.6666666666667</ele><time>2026-05-02T15:11:50.991Z</time></trkpt><trkpt lat="44.1808339" lon="10.3784125"><ele>805.8333333333334</ele><time>2026-05-02T15:11:51.979Z</time></trkpt><trkpt lat="44.1808036" lon="10.3785304"><ele>806.0</ele><time>2026-05-02T15:11:52.994Z</time></trkpt><trkpt lat="44.1807723" lon="10.3786549"><ele>806.0</ele><time>2026-05-02T15:11:53.991Z</time></trkpt><trkpt lat="44.18074" lon="10.3787785"><ele>806.0</ele><time>2026-05-02T15:11:54.985Z</time></trkpt><trkpt lat="44.1807061" lon="10.3789055"><ele>806.0</ele><time>2026-05-02T15:11:55.994Z</time></trkpt><trkpt lat="44.1806704" lon="10.3790284"><ele>806.0</ele><time>2026-05-02T15:11:56.99Z</time></trkpt><trkpt lat="44.1806435" lon="10.3791601"><ele>806.0</ele><time>2026-05-02T15:11:57.987Z</time></trkpt><trkpt lat="44.180636" lon="10.379293"><ele>806.0</ele><time>2026-05-02T15:11:58.996Z</time></trkpt><trkpt lat="44.1806545" lon="10.3794272"><ele>806.0</ele><time>2026-05-02T15:11:59.986Z</time></trkpt><trkpt lat="44.1806993" lon="10.37955"><ele>806.0</ele><time>2026-05-02T15:12:00.988Z</time></trkpt><trkpt lat="44.1807578" lon="10.3796664"><ele>806.0</ele><time>2026-05-02T15:12:01.988Z</time></trkpt><trkpt lat="44.1808232" lon="10.3797856"><ele>806.0</ele><time>2026-05-02T15:12:02.984Z</time></trkpt><trkpt lat="44.1808808" lon="10.3799117"><ele>804.0</ele><time>2026-05-02T15:12:03.984Z</time></trkpt><trkpt lat="44.1809172" lon="10.3800569"><ele>802.0</ele><time>2026-05-02T15:12:04.989Z</time></trkpt><trkpt lat="44.1809369" lon="10.3802002"><ele>800.0</ele><time>2026-05-02T15:12:05.986Z</time></trkpt><trkpt lat="44.1809363" lon="10.3803465"><ele>798.0</ele><time>2026-05-02T15:12:06.987Z</time></trkpt><trkpt lat="44.1809269" lon="10.3804926"><ele>796.0</ele><time>2026-05-02T15:12:07.985Z</time></trkpt><trkpt lat="44.1809209" lon="10.380631"><ele>794.1999999999999</ele><time>2026-05-02T15:12:08.99Z</time></trkpt><trkpt lat="44.1809269" lon="10.380758"><ele>792.4</ele><time>2026-05-02T15:12:09.995Z</time></trkpt><trkpt lat="44.1809508" lon="10.380882"><ele>790.6</ele><time>2026-05-02T15:12:10.982Z</time></trkpt><trkpt lat="44.1809869" lon="10.3809993"><ele>788.8</ele><time>2026-05-02T15:12:11.989Z</time></trkpt><trkpt lat="44.1810426" lon="10.3811093"><ele>787.0</ele><time>2026-05-02T15:12:12.99Z</time></trkpt><trkpt lat="44.1811094" lon="10.3812066"><ele>787.0</ele><time>2026-05-02T15:12:14Z</time></trkpt><trkpt lat="44.1811834" lon="10.3813044"><ele>787.0</ele><time>2026-05-02T15:12:14.987Z</time></trkpt><trkpt lat="44.1812608" lon="10.3814032"><ele>787.0</ele><time>2026-05-02T15:12:15.993Z</time></trkpt><trkpt lat="44.1813411" lon="10.3815003"><ele>787.0</ele><time>2026-05-02T15:12:16.983Z</time></trkpt><trkpt lat="44.1814257" lon="10.3815918"><ele>787.0</ele><time>2026-05-02T15:12:17.99Z</time></trkpt><trkpt lat="44.1815146" lon="10.3816633"><ele>786.9999999999999</ele><time>2026-05-02T15:12:18.988Z</time></trkpt><trkpt lat="44.1816037" lon="10.3817139"><ele>787.0</ele><time>2026-05-02T15:12:19.992Z</time></trkpt><trkpt lat="44.1816794" lon="10.381732"><ele>787.0</ele><time>2026-05-02T15:12:20.989Z</time></trkpt><trkpt lat="44.1817566" lon="10.381739"><ele>787.0</ele><time>2026-05-02T15:12:21.993Z</time></trkpt><trkpt lat="44.1818335" lon="10.3817393"><ele>786.9999999999999</ele><time>2026-05-02T15:12:22.994Z</time></trkpt><trkpt lat="44.1819116" lon="10.3817449"><ele>787.0</ele><time>2026-05-02T15:12:23.989Z</time></trkpt><trkpt lat="44.1819875" lon="10.3817501"><ele>787.0</ele><time>2026-05-02T15:12:24.986Z</time></trkpt><trkpt lat="44.1820562" lon="10.3817606"><ele>787.0</ele><time>2026-05-02T15:12:25.983Z</time></trkpt><trkpt lat="44.1821625" lon="10.3818077"><ele>787.0</ele><time>2026-05-02T15:12:27.978Z</time></trkpt><trkpt lat="44.1821929" lon="10.3819052"><ele>787.0</ele><time>2026-05-02T15:12:29.988Z</time></trkpt><trkpt lat="44.1821228" lon="10.3819941"><ele>787.0</ele><time>2026-05-02T15:12:31.98Z</time></trkpt><trkpt lat="44.1820148" lon="10.382009"><ele>786.9999999999999</ele><time>2026-05-02T15:12:33.973Z</time></trkpt><trkpt lat="44.1819433" lon="10.3820016"><ele>787.0</ele><time>2026-05-02T15:12:34.996Z</time></trkpt><trkpt lat="44.1818754" lon="10.3819938"><ele>787.0</ele><time>2026-05-02T15:12:35.988Z</time></trkpt><trkpt lat="44.1818027" lon="10.3819811"><ele>787.0</ele><time>2026-05-02T15:12:36.988Z</time></trkpt><trkpt lat="44.1817249" lon="10.3819686"><ele>786.9999999999999</ele><time>2026-05-02T15:12:37.984Z</time></trkpt><trkpt lat="44.1816457" lon="10.3819532"><ele>787.0</ele><time>2026-05-02T15:12:38.99Z</time></trkpt><trkpt lat="44.1815653" lon="10.3819223"><ele>783.8</ele><time>2026-05-02T15:12:39.978Z</time></trkpt><trkpt lat="44.1814802" lon="10.3818911"><ele>780.6</ele><time>2026-05-02T15:12:40.992Z</time></trkpt><trkpt lat="44.181391" lon="10.3818614"><ele>777.4</ele><time>2026-05-02T15:12:41.989Z</time></trkpt><trkpt lat="44.1812965" lon="10.381824"><ele>774.1999999999999</ele><time>2026-05-02T15:12:42.989Z</time></trkpt><trkpt lat="44.1812008" lon="10.3817829"><ele>771.0</ele><time>2026-05-02T15:12:43.989Z</time></trkpt><trkpt lat="44.1811014" lon="10.381747"><ele>771.0</ele><time>2026-05-02T15:12:44.991Z</time></trkpt><trkpt lat="44.1810034" lon="10.3817"><ele>771.0</ele><time>2026-05-02T15:12:45.985Z</time></trkpt><trkpt lat="44.1809002" lon="10.3816584"><ele>771.0</ele><time>2026-05-02T15:12:46.986Z</time></trkpt><trkpt lat="44.1807938" lon="10.3816179"><ele>771.0</ele><time>2026-05-02T15:12:47.989Z</time></trkpt><trkpt lat="44.1806851" lon="10.3815723"><ele>771.0</ele><time>2026-05-02T15:12:48.981Z</time></trkpt><trkpt lat="44.1805777" lon="10.3815269"><ele>768.8</ele><time>2026-05-02T15:12:49.978Z</time></trkpt><trkpt lat="44.1804653" lon="10.3814751"><ele>766.5999999999999</ele><time>2026-05-02T15:12:50.98Z</time></trkpt><trkpt lat="44.1803679" lon="10.3814245"><ele>764.4</ele><time>2026-05-02T15:12:51.98Z</time></trkpt><trkpt lat="44.1802841" lon="10.381358"><ele>762.2</ele><time>2026-05-02T15:12:52.981Z</time></trkpt><trkpt lat="44.1802122" lon="10.381264"><ele>760.0</ele><time>2026-05-02T15:12:53.981Z</time></trkpt><trkpt lat="44.1801492" lon="10.3811564"><ele>760.0</ele><time>2026-05-02T15:12:54.984Z</time></trkpt><trkpt lat="44.1800924" lon="10.3810322"><ele>760.0</ele><time>2026-05-02T15:12:55.989Z</time></trkpt><trkpt lat="44.1800433" lon="10.3808986"><ele>760.0</ele><time>2026-05-02T15:12:56.985Z</time></trkpt><trkpt lat="44.179993" lon="10.3807656"><ele>760.0</ele><time>2026-05-02T15:12:57.986Z</time></trkpt><trkpt lat="44.1799421" lon="10.38063"><ele>760.0</ele><time>2026-05-02T15:12:58.983Z</time></trkpt><trkpt lat="44.1798842" lon="10.3805005"><ele>757.25</ele><time>2026-05-02T15:12:59.986Z</time></trkpt><trkpt lat="44.1798138" lon="10.3803824"><ele>754.5</ele><time>2026-05-02T15:13:00.993Z</time></trkpt><trkpt lat="44.1797228" lon="10.380282"><ele>751.75</ele><time>2026-05-02T15:13:01.993Z</time></trkpt><trkpt lat="44.1796247" lon="10.3801975"><ele>749.0</ele><time>2026-05-02T15:13:02.978Z</time></trkpt><trkpt lat="44.1795213" lon="10.3801318"><ele>749.0</ele><time>2026-05-02T15:13:03.987Z</time></trkpt><trkpt lat="44.1794082" lon="10.3800799"><ele>749.0</ele><time>2026-05-02T15:13:04.982Z</time></trkpt><trkpt lat="44.1792934" lon="10.3800263"><ele>749.0</ele><time>2026-05-02T15:13:05.989Z</time></trkpt><trkpt lat="44.179176" lon="10.3799677"><ele>749.0</ele><time>2026-05-02T15:13:06.987Z</time></trkpt><trkpt lat="44.1790606" lon="10.3799067"><ele>747.5</ele><time>2026-05-02T15:13:07.978Z</time></trkpt><trkpt lat="44.1789424" lon="10.3798337"><ele>746.0</ele><time>2026-05-02T15:13:08.982Z</time></trkpt><trkpt lat="44.1788215" lon="10.379763"><ele>744.5</ele><time>2026-05-02T15:13:09.991Z</time></trkpt><trkpt lat="44.1787036" lon="10.3796865"><ele>743.0</ele><time>2026-05-02T15:13:10.983Z</time></trkpt><trkpt lat="44.1785837" lon="10.3796117"><ele>743.0</ele><time>2026-05-02T15:13:11.985Z</time></trkpt><trkpt lat="44.178473" lon="10.3795403"><ele>743.0</ele><time>2026-05-02T15:13:12.985Z</time></trkpt><trkpt lat="44.1783731" lon="10.3794674"><ele>743.0</ele><time>2026-05-02T15:13:13.985Z</time></trkpt><trkpt lat="44.1782731" lon="10.3794015"><ele>743.0</ele><time>2026-05-02T15:13:14.977Z</time></trkpt><trkpt lat="44.1781824" lon="10.3793349"><ele>743.0</ele><time>2026-05-02T15:13:15.981Z</time></trkpt><trkpt lat="44.1780981" lon="10.3792678"><ele>740.8</ele><time>2026-05-02T15:13:16.991Z</time></trkpt><trkpt lat="44.1780187" lon="10.3791841"><ele>738.5999999999999</ele><time>2026-05-02T15:13:17.984Z</time></trkpt><trkpt lat="44.1779428" lon="10.3790857"><ele>736.4000000000001</ele><time>2026-05-02T15:13:18.988Z</time></trkpt><trkpt lat="44.1778719" lon="10.378981"><ele>734.2</ele><time>2026-05-02T15:13:19.99Z</time></trkpt><trkpt lat="44.1778074" lon="10.3788635"><ele>732.0</ele><time>2026-05-02T15:13:20.986Z</time></trkpt><trkpt lat="44.1777429" lon="10.3787425"><ele>732.0</ele><time>2026-05-02T15:13:21.986Z</time></trkpt><trkpt lat="44.1776787" lon="10.3786167"><ele>732.0</ele><time>2026-05-02T15:13:23Z</time></trkpt><trkpt lat="44.1776146" lon="10.3784897"><ele>732.0</ele><time>2026-05-02T15:13:23.99Z</time></trkpt><trkpt lat="44.1775442" lon="10.3783613"><ele>732.0</ele><time>2026-05-02T15:13:24.991Z</time></trkpt><trkpt lat="44.1774789" lon="10.3782342"><ele>732.0</ele><time>2026-05-02T15:13:25.992Z</time></trkpt><trkpt lat="44.177416" lon="10.3781299"><ele>732.0</ele><time>2026-05-02T15:13:26.997Z</time></trkpt><trkpt lat="44.177348" lon="10.3780438"><ele>732.0</ele><time>2026-05-02T15:13:27.992Z</time></trkpt><trkpt lat="44.1772709" lon="10.3779813"><ele>732.0</ele><time>2026-05-02T15:13:28.994Z</time></trkpt><trkpt lat="44.1771799" lon="10.3779408"><ele>732.0</ele><time>2026-05-02T15:13:29.985Z</time></trkpt><trkpt lat="44.1770799" lon="10.3779343"><ele>730.4000000000001</ele><time>2026-05-02T15:13:30.989Z</time></trkpt><trkpt lat="44.1769808" lon="10.377962"><ele>728.8000000000001</ele><time>2026-05-02T15:13:31.985Z</time></trkpt><trkpt lat="44.1768823" lon="10.3779881"><ele>727.2</ele><time>2026-05-02T15:13:32.985Z</time></trkpt><trkpt lat="44.176788" lon="10.3780179"><ele>725.6</ele><time>2026-05-02T15:13:33.988Z</time></trkpt><trkpt lat="44.1766979" lon="10.3780341"><ele>724.0</ele><time>2026-05-02T15:13:34.981Z</time></trkpt><trkpt lat="44.1766133" lon="10.3780342"><ele>724.0</ele><time>2026-05-02T15:13:35.988Z</time></trkpt><trkpt lat="44.1765357" lon="10.3780126"><ele>724.0</ele><time>2026-05-02T15:13:36.988Z</time></trkpt><trkpt lat="44.1764574" lon="10.3779841"><ele>724.0</ele><time>2026-05-02T15:13:37.987Z</time></trkpt><trkpt lat="44.1763894" lon="10.3779266"><ele>724.0</ele><time>2026-05-02T15:13:38.977Z</time></trkpt><trkpt lat="44.1763237" lon="10.3778519"><ele>724.0</ele><time>2026-05-02T15:13:39.986Z</time></trkpt><trkpt lat="44.1762639" lon="10.3777584"><ele>724.0</ele><time>2026-05-02T15:13:40.979Z</time></trkpt><trkpt lat="44.1762181" lon="10.3776562"><ele>720.5</ele><time>2026-05-02T15:13:41.973Z</time></trkpt><trkpt lat="44.1761905" lon="10.3775542"><ele>717.0</ele><time>2026-05-02T15:13:42.978Z</time></trkpt><trkpt lat="44.1761718" lon="10.3774466"><ele>713.5</ele><time>2026-05-02T15:13:43.975Z</time></trkpt><trkpt lat="44.1761614" lon="10.377335"><ele>710.0</ele><time>2026-05-02T15:13:44.974Z</time></trkpt><trkpt lat="44.1761714" lon="10.3772369"><ele>706.5</ele><time>2026-05-02T15:13:45.981Z</time></trkpt><trkpt lat="44.1761842" lon="10.3771447"><ele>703.0</ele><time>2026-05-02T15:13:46.98Z</time></trkpt><trkpt lat="44.1761668" lon="10.3769793"><ele>703.0</ele><time>2026-05-02T15:13:48.974Z</time></trkpt><trkpt lat="44.1760811" lon="10.3768932"><ele>703.0</ele><time>2026-05-02T15:13:50.977Z</time></trkpt><trkpt lat="44.1759679" lon="10.3769252"><ele>703.0</ele><time>2026-05-02T15:13:52.984Z</time></trkpt><trkpt lat="44.1759112" lon="10.3770842"><ele>703.0</ele><time>2026-05-02T15:13:54.973Z</time></trkpt><trkpt lat="44.1759159" lon="10.377282"><ele>703.0</ele><time>2026-05-02T15:13:56.994Z</time></trkpt><trkpt lat="44.1759206" lon="10.3773911"><ele>703.0</ele><time>2026-05-02T15:13:57.98Z</time></trkpt><trkpt lat="44.1759381" lon="10.3775043"><ele>703.0</ele><time>2026-05-02T15:13:58.98Z</time></trkpt><trkpt lat="44.1759514" lon="10.3776213"><ele>703.0</ele><time>2026-05-02T15:13:59.984Z</time></trkpt><trkpt lat="44.1759662" lon="10.3777452"><ele>703.0</ele><time>2026-05-02T15:14:00.974Z</time></trkpt><trkpt lat="44.1759793" lon="10.377875"><ele>703.0</ele><time>2026-05-02T15:14:01.984Z</time></trkpt><trkpt lat="44.1759919" lon="10.3780033"><ele>702.0</ele><time>2026-05-02T15:14:02.973Z</time></trkpt><trkpt lat="44.1760102" lon="10.378133"><ele>701.0</ele><time>2026-05-02T15:14:03.979Z</time></trkpt><trkpt lat="44.1760216" lon="10.3782681"><ele>700.0</ele><time>2026-05-02T15:14:04.988Z</time></trkpt><trkpt lat="44.1760463" lon="10.3784086"><ele>699.0</ele><time>2026-05-02T15:14:05.987Z</time></trkpt><trkpt lat="44.1760809" lon="10.3785484"><ele>698.0</ele><time>2026-05-02T15:14:06.985Z</time></trkpt><trkpt lat="44.176133" lon="10.3786763"><ele>698.0</ele><time>2026-05-02T15:14:07.993Z</time></trkpt><trkpt lat="44.1762002" lon="10.3787932"><ele>698.0</ele><time>2026-05-02T15:14:08.981Z</time></trkpt><trkpt lat="44.176281" lon="10.3788917"><ele>698.0</ele><time>2026-05-02T15:14:09.983Z</time></trkpt><trkpt lat="44.1763668" lon="10.3789738"><ele>698.0</ele><time>2026-05-02T15:14:10.996Z</time></trkpt><trkpt lat="44.1764561" lon="10.3790544"><ele>698.0</ele><time>2026-05-02T15:14:11.982Z</time></trkpt><trkpt lat="44.1765424" lon="10.3791328"><ele>697.8</ele><time>2026-05-02T15:14:13Z</time></trkpt><trkpt lat="44.1766268" lon="10.379208"><ele>697.5999999999999</ele><time>2026-05-02T15:14:13.987Z</time></trkpt><trkpt lat="44.1766994" lon="10.3792951"><ele>697.4000000000001</ele><time>2026-05-02T15:14:14.988Z</time></trkpt><trkpt lat="44.176763" lon="10.3793926"><ele>697.2</ele><time>2026-05-02T15:14:15.991Z</time></trkpt><trkpt lat="44.1768197" lon="10.3795116"><ele>697.0</ele><time>2026-05-02T15:14:16.983Z</time></trkpt><trkpt lat="44.1768691" lon="10.3796372"><ele>694.0</ele><time>2026-05-02T15:14:17.994Z</time></trkpt><trkpt lat="44.1769101" lon="10.3797727"><ele>691.0</ele><time>2026-05-02T15:14:18.984Z</time></trkpt><trkpt lat="44.1769425" lon="10.3799167"><ele>688.0</ele><time>2026-05-02T15:14:19.992Z</time></trkpt><trkpt lat="44.1769777" lon="10.3800584"><ele>685.0</ele><time>2026-05-02T15:14:20.98Z</time></trkpt><trkpt lat="44.1770067" lon="10.3801997"><ele>682.0</ele><time>2026-05-02T15:14:21.989Z</time></trkpt><trkpt lat="44.1770234" lon="10.3803375"><ele>682.0</ele><time>2026-05-02T15:14:22.999Z</time></trkpt><trkpt lat="44.1770245" lon="10.3804856"><ele>682.0</ele><time>2026-05-02T15:14:23.988Z</time></trkpt><trkpt lat="44.1770121" lon="10.3806384"><ele>682.0</ele><time>2026-05-02T15:14:24.986Z</time></trkpt><trkpt lat="44.1769877" lon="10.3807942"><ele>682.0</ele><time>2026-05-02T15:14:25.991Z</time></trkpt><trkpt lat="44.1769603" lon="10.3809481"><ele>682.0</ele><time>2026-05-02T15:14:26.996Z</time></trkpt><trkpt lat="44.1769317" lon="10.3811021"><ele>680.5</ele><time>2026-05-02T15:14:27.98Z</time></trkpt><trkpt lat="44.176901" lon="10.3812553"><ele>679.0</ele><time>2026-05-02T15:14:28.98Z</time></trkpt><trkpt lat="44.1768623" lon="10.3814045"><ele>677.5</ele><time>2026-05-02T15:14:29.999Z</time></trkpt><trkpt lat="44.1768095" lon="10.3815496"><ele>676.0</ele><time>2026-05-02T15:14:30.987Z</time></trkpt><trkpt lat="44.176744" lon="10.3816809"><ele>676.0</ele><time>2026-05-02T15:14:31.992Z</time></trkpt><trkpt lat="44.1766827" lon="10.3817907"><ele>676.0</ele><time>2026-05-02T15:14:32.977Z</time></trkpt><trkpt lat="44.1766307" lon="10.3818822"><ele>676.0</ele><time>2026-05-02T15:14:33.976Z</time></trkpt><trkpt lat="44.1765862" lon="10.381958"><ele>676.0</ele><time>2026-05-02T15:14:34.985Z</time></trkpt><trkpt lat="44.1765551" lon="10.3820452"><ele>676.0</ele><time>2026-05-02T15:14:35.988Z</time></trkpt><trkpt lat="44.1765427" lon="10.3821385"><ele>676.0</ele><time>2026-05-02T15:14:36.986Z</time></trkpt><trkpt lat="44.1765571" lon="10.3822357"><ele>675.0</ele><time>2026-05-02T15:14:37.981Z</time></trkpt><trkpt lat="44.1765859" lon="10.3823165"><ele>674.0</ele><time>2026-05-02T15:14:38.984Z</time></trkpt><trkpt lat="44.176685" lon="10.3824188"><ele>673.0</ele><time>2026-05-02T15:14:40.993Z</time></trkpt><trkpt lat="44.1768041" lon="10.3824589"><ele>672.0</ele><time>2026-05-02T15:14:42.979Z</time></trkpt><trkpt lat="44.1768659" lon="10.3824846"><ele>671.0</ele><time>2026-05-02T15:14:43.982Z</time></trkpt><trkpt lat="44.1769279" lon="10.3825167"><ele>670.0</ele><time>2026-05-02T15:14:44.987Z</time></trkpt><trkpt lat="44.1770158" lon="10.3826273"><ele>670.0</ele><time>2026-05-02T15:14:46.977Z</time></trkpt><trkpt lat="44.177057" lon="10.3827668"><ele>670.0</ele><time>2026-05-02T15:14:48.994Z</time></trkpt><trkpt lat="44.1770751" lon="10.3829157"><ele>670.0</ele><time>2026-05-02T15:14:50.99Z</time></trkpt><trkpt lat="44.1770808" lon="10.3830099"><ele>670.0</ele><time>2026-05-02T15:14:51.986Z</time></trkpt><trkpt lat="44.1770668" lon="10.3831067"><ele>670.0</ele><time>2026-05-02T15:14:52.98Z</time></trkpt><trkpt lat="44.1770514" lon="10.3832013"><ele>670.0</ele><time>2026-05-02T15:14:53.995Z</time></trkpt><trkpt lat="44.1770301" lon="10.3833118"><ele>669.1666666666667</ele><time>2026-05-02T15:14:54.995Z</time></trkpt><trkpt lat="44.1770065" lon="10.3834154"><ele>668.3333333333334</ele><time>2026-05-02T15:14:55.997Z</time></trkpt><trkpt lat="44.1769841" lon="10.383515"><ele>667.5</ele><time>2026-05-02T15:14:56.989Z</time></trkpt><trkpt lat="44.1769532" lon="10.3836152"><ele>666.6666666666666</ele><time>2026-05-02T15:14:57.992Z</time></trkpt><trkpt lat="44.1769316" lon="10.3837169"><ele>665.8333333333333</ele><time>2026-05-02T15:14:58.99Z</time></trkpt><trkpt lat="44.1769151" lon="10.3838115"><ele>665.0</ele><time>2026-05-02T15:14:59.986Z</time></trkpt><trkpt lat="44.1769317" lon="10.3839734"><ele>663.8333333333333</ele><time>2026-05-02T15:15:01.984Z</time></trkpt><trkpt lat="44.1769809" lon="10.3840394"><ele>662.6666666666666</ele><time>2026-05-02T15:15:02.982Z</time></trkpt><trkpt lat="44.1770355" lon="10.3841067"><ele>661.5</ele><time>2026-05-02T15:15:03.984Z</time></trkpt><trkpt lat="44.1771005" lon="10.3841738"><ele>660.3333333333334</ele><time>2026-05-02T15:15:04.985Z</time></trkpt><trkpt lat="44.1771682" lon="10.3842458"><ele>659.1666666666667</ele><time>2026-05-02T15:15:05.992Z</time></trkpt><trkpt lat="44.1772405" lon="10.3843218"><ele>658.0</ele><time>2026-05-02T15:15:06.986Z</time></trkpt><trkpt lat="44.1773162" lon="10.3844016"><ele>655.2</ele><time>2026-05-02T15:15:07.976Z</time></trkpt><trkpt lat="44.1773938" lon="10.3844861"><ele>652.4</ele><time>2026-05-02T15:15:08.986Z</time></trkpt><trkpt lat="44.1774747" lon="10.3845773"><ele>649.6</ele><time>2026-05-02T15:15:10Z</time></trkpt><trkpt lat="44.1775576" lon="10.3846718"><ele>646.8000000000001</ele><time>2026-05-02T15:15:10.99Z</time></trkpt><trkpt lat="44.1776425" lon="10.3847642"><ele>644.0</ele><time>2026-05-02T15:15:11.984Z</time></trkpt><trkpt lat="44.177724" lon="10.3848511"><ele>644.0</ele><time>2026-05-02T15:15:12.98Z</time></trkpt><trkpt lat="44.1777965" lon="10.3849379"><ele>644.0</ele><time>2026-05-02T15:15:13.99Z</time></trkpt><trkpt lat="44.1778671" lon="10.3850418"><ele>644.0</ele><time>2026-05-02T15:15:14.983Z</time></trkpt><trkpt lat="44.1779297" lon="10.3851618"><ele>644.0</ele><time>2026-05-02T15:15:15.99Z</time></trkpt><trkpt lat="44.1779895" lon="10.3852883"><ele>644.0</ele><time>2026-05-02T15:15:16.993Z</time></trkpt><trkpt lat="44.1780463" lon="10.3854243"><ele>638.75</ele><time>2026-05-02T15:15:17.985Z</time></trkpt><trkpt lat="44.1781017" lon="10.3855641"><ele>633.5</ele><time>2026-05-02T15:15:18.99Z</time></trkpt><trkpt lat="44.1781551" lon="10.3857095"><ele>628.25</ele><time>2026-05-02T15:15:19.992Z</time></trkpt><trkpt lat="44.1782032" lon="10.3858502"><ele>623.0</ele><time>2026-05-02T15:15:20.983Z</time></trkpt><trkpt lat="44.1782415" lon="10.3859974"><ele>623.0</ele><time>2026-05-02T15:15:21.988Z</time></trkpt><trkpt lat="44.1782682" lon="10.3861518"><ele>623.0</ele><time>2026-05-02T15:15:22.99Z</time></trkpt><trkpt lat="44.1782864" lon="10.3863107"><ele>623.0</ele><time>2026-05-02T15:15:23.99Z</time></trkpt><trkpt lat="44.1782977" lon="10.3864724"><ele>623.0</ele><time>2026-05-02T15:15:24.987Z</time></trkpt><trkpt lat="44.1783042" lon="10.3866266"><ele>622.6666666666666</ele><time>2026-05-02T15:15:25.993Z</time></trkpt><trkpt lat="44.1783098" lon="10.3867688"><ele>622.3333333333333</ele><time>2026-05-02T15:15:26.992Z</time></trkpt><trkpt lat="44.178315" lon="10.3868975"><ele>622.0</ele><time>2026-05-02T15:15:27.999Z</time></trkpt><trkpt lat="44.1783185" lon="10.387012"><ele>621.6666666666666</ele><time>2026-05-02T15:15:28.991Z</time></trkpt><trkpt lat="44.1783094" lon="10.3871144"><ele>621.3333333333334</ele><time>2026-05-02T15:15:29.997Z</time></trkpt><trkpt lat="44.1782824" lon="10.3871943"><ele>621.0</ele><time>2026-05-02T15:15:30.992Z</time></trkpt><trkpt lat="44.1782416" lon="10.3872648"><ele>621.3333333333334</ele><time>2026-05-02T15:15:31.992Z</time></trkpt><trkpt lat="44.178185" lon="10.3873227"><ele>621.6666666666666</ele><time>2026-05-02T15:15:32.998Z</time></trkpt><trkpt lat="44.178119" lon="10.3873738"><ele>622.0</ele><time>2026-05-02T15:15:33.981Z</time></trkpt><trkpt lat="44.1780495" lon="10.3874163"><ele>622.3333333333333</ele><time>2026-05-02T15:15:34.993Z</time></trkpt><trkpt lat="44.1779747" lon="10.3874658"><ele>622.6666666666666</ele><time>2026-05-02T15:15:35.992Z</time></trkpt><trkpt lat="44.177901" lon="10.3875212"><ele>623.0</ele><time>2026-05-02T15:15:36.992Z</time></trkpt><trkpt lat="44.1778245" lon="10.3875745"><ele>623.0</ele><time>2026-05-02T15:15:37.984Z</time></trkpt><trkpt lat="44.1777424" lon="10.3876255"><ele>623.0</ele><time>2026-05-02T15:15:38.989Z</time></trkpt><trkpt lat="44.1776594" lon="10.3876778"><ele>623.0</ele><time>2026-05-02T15:15:39.99Z</time></trkpt><trkpt lat="44.1775735" lon="10.3877342"><ele>623.0</ele><time>2026-05-02T15:15:40.98Z</time></trkpt><trkpt lat="44.177487" lon="10.3877913"><ele>623.0</ele><time>2026-05-02T15:15:41.984Z</time></trkpt><trkpt lat="44.1774037" lon="10.3878494"><ele>625.6</ele><time>2026-05-02T15:15:42.993Z</time></trkpt><trkpt lat="44.1773144" lon="10.3879129"><ele>628.1999999999999</ele><time>2026-05-02T15:15:43.992Z</time></trkpt><trkpt lat="44.1772227" lon="10.3879809"><ele>630.8</ele><time>2026-05-02T15:15:44.994Z</time></trkpt><trkpt lat="44.1771317" lon="10.3880456"><ele>633.4</ele><time>2026-05-02T15:15:45.992Z</time></trkpt><trkpt lat="44.1770381" lon="10.3881113"><ele>636.0</ele><time>2026-05-02T15:15:46.994Z</time></trkpt><trkpt lat="44.176941" lon="10.3881652"><ele>636.0</ele><time>2026-05-02T15:15:47.991Z</time></trkpt><trkpt lat="44.1768372" lon="10.3882072"><ele>636.0</ele><time>2026-05-02T15:15:48.993Z</time></trkpt><trkpt lat="44.176728" lon="10.3882381"><ele>636.0</ele><time>2026-05-02T15:15:49.989Z</time></trkpt><trkpt lat="44.1766137" lon="10.3882657"><ele>636.0</ele><time>2026-05-02T15:15:50.981Z</time></trkpt><trkpt lat="44.1765008" lon="10.3882938"><ele>630.25</ele><time>2026-05-02T15:15:51.99Z</time></trkpt><trkpt lat="44.1763885" lon="10.3883293"><ele>624.5</ele><time>2026-05-02T15:15:52.981Z</time></trkpt><trkpt lat="44.1762751" lon="10.3883747"><ele>618.75</ele><time>2026-05-02T15:15:53.976Z</time></trkpt><trkpt lat="44.1761666" lon="10.3884278"><ele>613.0</ele><time>2026-05-02T15:15:54.985Z</time></trkpt><trkpt lat="44.1760595" lon="10.3884828"><ele>613.0</ele><time>2026-05-02T15:15:55.988Z</time></trkpt><trkpt lat="44.175951" lon="10.3885354"><ele>613.0</ele><time>2026-05-02T15:15:56.986Z</time></trkpt><trkpt lat="44.1758424" lon="10.3885942"><ele>613.0</ele><time>2026-05-02T15:15:57.991Z</time></trkpt><trkpt lat="44.1757331" lon="10.3886481"><ele>613.0</ele><time>2026-05-02T15:15:58.987Z</time></trkpt><trkpt lat="44.1756266" lon="10.3887009"><ele>611.0</ele><time>2026-05-02T15:15:59.992Z</time></trkpt><trkpt lat="44.1755177" lon="10.3887483"><ele>609.0</ele><time>2026-05-02T15:16:00.976Z</time></trkpt><trkpt lat="44.175406" lon="10.3887852"><ele>607.0</ele><time>2026-05-02T15:16:01.982Z</time></trkpt><trkpt lat="44.1752935" lon="10.3888246"><ele>605.0</ele><time>2026-05-02T15:16:02.982Z</time></trkpt><trkpt lat="44.1751888" lon="10.3888609"><ele>607.0</ele><time>2026-05-02T15:16:04Z</time></trkpt><trkpt lat="44.1750868" lon="10.3888966"><ele>609.0</ele><time>2026-05-02T15:16:04.987Z</time></trkpt><trkpt lat="44.1749823" lon="10.3889248"><ele>611.0</ele><time>2026-05-02T15:16:05.986Z</time></trkpt><trkpt lat="44.174884" lon="10.3889606"><ele>613.0</ele><time>2026-05-02T15:16:06.985Z</time></trkpt><trkpt lat="44.1747813" lon="10.3889984"><ele>615.0</ele><time>2026-05-02T15:16:07.983Z</time></trkpt><trkpt lat="44.1746815" lon="10.3890343"><ele>615.0</ele><time>2026-05-02T15:16:08.984Z</time></trkpt><trkpt lat="44.1745868" lon="10.38907"><ele>615.0</ele><time>2026-05-02T15:16:09.996Z</time></trkpt><trkpt lat="44.1744947" lon="10.3891086"><ele>615.0</ele><time>2026-05-02T15:16:10.988Z</time></trkpt><trkpt lat="44.1743969" lon="10.3891413"><ele>615.0</ele><time>2026-05-02T15:16:11.991Z</time></trkpt><trkpt lat="44.1742986" lon="10.3891736"><ele>615.0</ele><time>2026-05-02T15:16:12.983Z</time></trkpt><trkpt lat="44.1741994" lon="10.3891982"><ele>615.0</ele><time>2026-05-02T15:16:13.987Z</time></trkpt><trkpt lat="44.1741063" lon="10.3892257"><ele>615.0</ele><time>2026-05-02T15:16:14.982Z</time></trkpt><trkpt lat="44.1740122" lon="10.3892569"><ele>615.0</ele><time>2026-05-02T15:16:15.99Z</time></trkpt><trkpt lat="44.1739171" lon="10.38929"><ele>615.0</ele><time>2026-05-02T15:16:16.996Z</time></trkpt><trkpt lat="44.1738231" lon="10.3893248"><ele>615.0</ele><time>2026-05-02T15:16:18Z</time></trkpt><trkpt lat="44.173731" lon="10.389359"><ele>613.6</ele><time>2026-05-02T15:16:18.979Z</time></trkpt><trkpt lat="44.1736367" lon="10.3893913"><ele>612.2</ele><time>2026-05-02T15:16:19.989Z</time></trkpt><trkpt lat="44.1735393" lon="10.3894261"><ele>610.8</ele><time>2026-05-02T15:16:20.981Z</time></trkpt><trkpt lat="44.1734461" lon="10.3894541"><ele>609.4</ele><time>2026-05-02T15:16:21.976Z</time></trkpt><trkpt lat="44.1733589" lon="10.3894736"><ele>608.0</ele><time>2026-05-02T15:16:22.988Z</time></trkpt><trkpt lat="44.1732763" lon="10.3894682"><ele>608.0</ele><time>2026-05-02T15:16:23.996Z</time></trkpt><trkpt lat="44.1731921" lon="10.3894349"><ele>608.0</ele><time>2026-05-02T15:16:24.984Z</time></trkpt><trkpt lat="44.1731026" lon="10.3893666"><ele>608.0</ele><time>2026-05-02T15:16:25.978Z</time></trkpt><trkpt lat="44.1730147" lon="10.3892914"><ele>608.0</ele><time>2026-05-02T15:16:26.982Z</time></trkpt><trkpt lat="44.1729232" lon="10.3892171"><ele>608.0</ele><time>2026-05-02T15:16:27.98Z</time></trkpt><trkpt lat="44.1728265" lon="10.3891698"><ele>607.1999999999999</ele><time>2026-05-02T15:16:28.98Z</time></trkpt><trkpt lat="44.172721" lon="10.3891411"><ele>606.4</ele><time>2026-05-02T15:16:29.989Z</time></trkpt><trkpt lat="44.172618" lon="10.3891368"><ele>605.5999999999999</ele><time>2026-05-02T15:16:30.985Z</time></trkpt><trkpt lat="44.1725108" lon="10.3891624"><ele>604.8</ele><time>2026-05-02T15:16:31.994Z</time></trkpt><trkpt lat="44.1724166" lon="10.3892079"><ele>604.0</ele><time>2026-05-02T15:16:32.999Z</time></trkpt><trkpt lat="44.172326" lon="10.3892629"><ele>603.8</ele><time>2026-05-02T15:16:33.989Z</time></trkpt><trkpt lat="44.1722345" lon="10.3893088"><ele>603.5999999999999</ele><time>2026-05-02T15:16:34.985Z</time></trkpt><trkpt lat="44.1721416" lon="10.3893309"><ele>603.4</ele><time>2026-05-02T15:16:35.987Z</time></trkpt><trkpt lat="44.172044" lon="10.389331"><ele>603.1999999999999</ele><time>2026-05-02T15:16:36.994Z</time></trkpt><trkpt lat="44.1719455" lon="10.3893141"><ele>603.0</ele><time>2026-05-02T15:16:37.989Z</time></trkpt><trkpt lat="44.1718454" lon="10.3892843"><ele>603.0</ele><time>2026-05-02T15:16:38.993Z</time></trkpt><trkpt lat="44.1717517" lon="10.3892498"><ele>603.0</ele><time>2026-05-02T15:16:39.99Z</time></trkpt><trkpt lat="44.1716647" lon="10.3892067"><ele>603.0</ele><time>2026-05-02T15:16:40.994Z</time></trkpt><trkpt lat="44.1715868" lon="10.3891549"><ele>603.0</ele><time>2026-05-02T15:16:41.992Z</time></trkpt><trkpt lat="44.171517" lon="10.3890825"><ele>603.0</ele><time>2026-05-02T15:16:42.988Z</time></trkpt><trkpt lat="44.1714552" lon="10.3889923"><ele>604.4</ele><time>2026-05-02T15:16:43.99Z</time></trkpt><trkpt lat="44.1714001" lon="10.3888929"><ele>605.8</ele><time>2026-05-02T15:16:44.991Z</time></trkpt><trkpt lat="44.1713426" lon="10.3887849"><ele>607.2</ele><time>2026-05-02T15:16:45.989Z</time></trkpt><trkpt lat="44.1712735" lon="10.3886976"><ele>608.6</ele><time>2026-05-02T15:16:46.987Z</time></trkpt><trkpt lat="44.1711915" lon="10.3886262"><ele>610.0</ele><time>2026-05-02T15:16:47.978Z</time></trkpt><trkpt lat="44.1711064" lon="10.3885818"><ele>605.2</ele><time>2026-05-02T15:16:48.98Z</time></trkpt><trkpt lat="44.1710104" lon="10.3885658"><ele>600.4</ele><time>2026-05-02T15:16:49.99Z</time></trkpt><trkpt lat="44.1709145" lon="10.3885734"><ele>595.6</ele><time>2026-05-02T15:16:50.994Z</time></trkpt><trkpt lat="44.1708233" lon="10.388598"><ele>590.8</ele><time>2026-05-02T15:16:51.982Z</time></trkpt><trkpt lat="44.1707264" lon="10.3886312"><ele>586.0</ele><time>2026-05-02T15:16:52.986Z</time></trkpt><trkpt lat="44.1706349" lon="10.3886549"><ele>583.6</ele><time>2026-05-02T15:16:53.979Z</time></trkpt><trkpt lat="44.1705426" lon="10.3886839"><ele>581.2</ele><time>2026-05-02T15:16:54.99Z</time></trkpt><trkpt lat="44.170453" lon="10.3887104"><ele>578.8</ele><time>2026-05-02T15:16:55.999Z</time></trkpt><trkpt lat="44.1703633" lon="10.3887418"><ele>576.4</ele><time>2026-05-02T15:16:56.984Z</time></trkpt><trkpt lat="44.1702729" lon="10.3887816"><ele>574.0</ele><time>2026-05-02T15:16:57.985Z</time></trkpt><trkpt lat="44.1701841" lon="10.3888264"><ele>574.6</ele><time>2026-05-02T15:16:58.993Z</time></trkpt><trkpt lat="44.1700898" lon="10.3888756"><ele>575.2</ele><time>2026-05-02T15:16:59.987Z</time></trkpt><trkpt lat="44.1699958" lon="10.388921"><ele>575.8000000000001</ele><time>2026-05-02T15:17:00.987Z</time></trkpt><trkpt lat="44.1699005" lon="10.3889682"><ele>576.4</ele><time>2026-05-02T15:17:01.974Z</time></trkpt><trkpt lat="44.1698053" lon="10.3890166"><ele>577.0</ele><time>2026-05-02T15:17:02.993Z</time></trkpt><trkpt lat="44.1697095" lon="10.389063"><ele>577.0</ele><time>2026-05-02T15:17:03.984Z</time></trkpt><trkpt lat="44.1696125" lon="10.3891216"><ele>577.0</ele><time>2026-05-02T15:17:04.986Z</time></trkpt><trkpt lat="44.1695179" lon="10.3891728"><ele>577.0</ele><time>2026-05-02T15:17:05.98Z</time></trkpt><trkpt lat="44.1694261" lon="10.3892284"><ele>577.0</ele><time>2026-05-02T15:17:06.976Z</time></trkpt><trkpt lat="44.1693441" lon="10.38929"><ele>577.0</ele><time>2026-05-02T15:17:07.975Z</time></trkpt><trkpt lat="44.1692678" lon="10.3893629"><ele>577.0</ele><time>2026-05-02T15:17:08.98Z</time></trkpt><trkpt lat="44.1691981" lon="10.3894339"><ele>577.0</ele><time>2026-05-02T15:17:09.986Z</time></trkpt><trkpt lat="44.1691379" lon="10.3895089"><ele>577.0</ele><time>2026-05-02T15:17:10.989Z</time></trkpt><trkpt lat="44.169083" lon="10.3895815"><ele>577.0</ele><time>2026-05-02T15:17:11.996Z</time></trkpt><trkpt lat="44.1690317" lon="10.389659"><ele>577.0</ele><time>2026-05-02T15:17:12.997Z</time></trkpt><trkpt lat="44.1689874" lon="10.3897319"><ele>577.0</ele><time>2026-05-02T15:17:13.983Z</time></trkpt><trkpt lat="44.1689433" lon="10.3898019"><ele>577.4</ele><time>2026-05-02T15:17:14.979Z</time></trkpt><trkpt lat="44.1688519" lon="10.389932"><ele>577.8000000000001</ele><time>2026-05-02T15:17:16.98Z</time></trkpt><trkpt lat="44.1688019" lon="10.3899931"><ele>578.2</ele><time>2026-05-02T15:17:17.985Z</time></trkpt><trkpt lat="44.168691" lon="10.3900845"><ele>578.6</ele><time>2026-05-02T15:17:19.99Z</time></trkpt><trkpt lat="44.1686247" lon="10.3901274"><ele>579.0</ele><time>2026-05-02T15:17:20.978Z</time></trkpt><trkpt lat="44.168554" lon="10.390161"><ele>579.0</ele><time>2026-05-02T15:17:21.99Z</time></trkpt><trkpt lat="44.1684795" lon="10.3901894"><ele>579.0</ele><time>2026-05-02T15:17:22.976Z</time></trkpt><trkpt lat="44.1684016" lon="10.3902178"><ele>579.0</ele><time>2026-05-02T15:17:24Z</time></trkpt><trkpt lat="44.1683221" lon="10.3902456"><ele>579.0</ele><time>2026-05-02T15:17:24.986Z</time></trkpt><trkpt lat="44.1682393" lon="10.3902755"><ele>579.0</ele><time>2026-05-02T15:17:25.993Z</time></trkpt><trkpt lat="44.1681555" lon="10.3903077"><ele>579.0</ele><time>2026-05-02T15:17:26.988Z</time></trkpt><trkpt lat="44.1680612" lon="10.3903418"><ele>576.8</ele><time>2026-05-02T15:17:27.983Z</time></trkpt><trkpt lat="44.1679636" lon="10.3903742"><ele>574.5999999999999</ele><time>2026-05-02T15:17:28.985Z</time></trkpt><trkpt lat="44.1678644" lon="10.3904045"><ele>572.4</ele><time>2026-05-02T15:17:29.997Z</time></trkpt><trkpt lat="44.1677613" lon="10.3904357"><ele>570.1999999999999</ele><time>2026-05-02T15:17:30.999Z</time></trkpt><trkpt lat="44.1676575" lon="10.3904622"><ele>568.0</ele><time>2026-05-02T15:17:31.993Z</time></trkpt><trkpt lat="44.1675538" lon="10.390504"><ele>566.6</ele><time>2026-05-02T15:17:33Z</time></trkpt><trkpt lat="44.1674521" lon="10.3905678"><ele>565.1999999999999</ele><time>2026-05-02T15:17:33.999Z</time></trkpt><trkpt lat="44.1673583" lon="10.3906539"><ele>563.8</ele><time>2026-05-02T15:17:34.999Z</time></trkpt><trkpt lat="44.1672884" lon="10.3907546"><ele>562.4</ele><time>2026-05-02T15:17:35.999Z</time></trkpt><trkpt lat="44.1672307" lon="10.3908683"><ele>561.0</ele><time>2026-05-02T15:17:36.985Z</time></trkpt><trkpt lat="44.1671943" lon="10.3909871"><ele>561.0</ele><time>2026-05-02T15:17:37.982Z</time></trkpt><trkpt lat="44.1671508" lon="10.3911083"><ele>561.0</ele><time>2026-05-02T15:17:38.998Z</time></trkpt><trkpt lat="44.1671031" lon="10.391232"><ele>561.0</ele><time>2026-05-02T15:17:40Z</time></trkpt><trkpt lat="44.1670593" lon="10.3913629"><ele>561.0</ele><time>2026-05-02T15:17:41Z</time></trkpt><trkpt lat="44.1670113" lon="10.3914886"><ele>561.0</ele><time>2026-05-02T15:17:42Z</time></trkpt><trkpt lat="44.1669674" lon="10.3916097"><ele>562.2</ele><time>2026-05-02T15:17:42.993Z</time></trkpt><trkpt lat="44.1669204" lon="10.3917289"><ele>563.4000000000001</ele><time>2026-05-02T15:17:43.996Z</time></trkpt><trkpt lat="44.1668743" lon="10.3918489"><ele>564.6</ele><time>2026-05-02T15:17:44.979Z</time></trkpt><trkpt lat="44.1668303" lon="10.391963"><ele>565.8000000000001</ele><time>2026-05-02T15:17:45.982Z</time></trkpt><trkpt lat="44.1667862" lon="10.3920829"><ele>567.0</ele><time>2026-05-02T15:17:46.982Z</time></trkpt><trkpt lat="44.1667351" lon="10.3921985"><ele>566.8000000000001</ele><time>2026-05-02T15:17:47.988Z</time></trkpt><trkpt lat="44.1666719" lon="10.392302"><ele>566.6</ele><time>2026-05-02T15:17:48.983Z</time></trkpt><trkpt lat="44.1666005" lon="10.3923856"><ele>566.4000000000001</ele><time>2026-05-02T15:17:50Z</time></trkpt><trkpt lat="44.1665172" lon="10.3924495"><ele>566.2</ele><time>2026-05-02T15:17:50.994Z</time></trkpt><trkpt lat="44.1664286" lon="10.3924954"><ele>566.0</ele><time>2026-05-02T15:17:51.999Z</time></trkpt><trkpt lat="44.1663425" lon="10.3925313"><ele>566.0</ele><time>2026-05-02T15:17:52.989Z</time></trkpt><trkpt lat="44.1662565" lon="10.392567"><ele>566.0</ele><time>2026-05-02T15:17:53.988Z</time></trkpt><trkpt lat="44.1661703" lon="10.3926059"><ele>566.0</ele><time>2026-05-02T15:17:55Z</time></trkpt><trkpt lat="44.1660847" lon="10.3926437"><ele>566.0</ele><time>2026-05-02T15:17:55.987Z</time></trkpt><trkpt lat="44.1659993" lon="10.3926847"><ele>566.0</ele><time>2026-05-02T15:17:56.987Z</time></trkpt><trkpt lat="44.1659124" lon="10.3927192"><ele>566.0</ele><time>2026-05-02T15:17:57.988Z</time></trkpt><trkpt lat="44.1658281" lon="10.3927533"><ele>566.0</ele><time>2026-05-02T15:17:58.98Z</time></trkpt><trkpt lat="44.1657499" lon="10.3927652"><ele>566.0</ele><time>2026-05-02T15:18:00Z</time></trkpt><trkpt lat="44.1656791" lon="10.3927535"><ele>566.0</ele><time>2026-05-02T15:18:00.992Z</time></trkpt><trkpt lat="44.1656137" lon="10.3927144"><ele>566.0</ele><time>2026-05-02T15:18:01.993Z</time></trkpt><trkpt lat="44.1655592" lon="10.3926527"><ele>566.0</ele><time>2026-05-02T15:18:02.992Z</time></trkpt><trkpt lat="44.1655153" lon="10.3925782"><ele>566.0</ele><time>2026-05-02T15:18:03.986Z</time></trkpt><trkpt lat="44.1654738" lon="10.3924987"><ele>567.6</ele><time>2026-05-02T15:18:04.996Z</time></trkpt><trkpt lat="44.1654338" lon="10.3924238"><ele>569.2</ele><time>2026-05-02T15:18:05.978Z</time></trkpt><trkpt lat="44.1653929" lon="10.3923521"><ele>570.8</ele><time>2026-05-02T15:18:06.982Z</time></trkpt><trkpt lat="44.1653038" lon="10.3922322"><ele>572.4</ele><time>2026-05-02T15:18:08.99Z</time></trkpt><trkpt lat="44.1651943" lon="10.3921665"><ele>574.0</ele><time>2026-05-02T15:18:10.986Z</time></trkpt><trkpt lat="44.1650676" lon="10.3921609"><ele>573.1428571428571</ele><time>2026-05-02T15:18:12.995Z</time></trkpt><trkpt lat="44.1650012" lon="10.3921658"><ele>572.2857142857142</ele><time>2026-05-02T15:18:14Z</time></trkpt><trkpt lat="44.164932" lon="10.3921693"><ele>571.4285714285714</ele><time>2026-05-02T15:18:14.993Z</time></trkpt><trkpt lat="44.1648607" lon="10.3921736"><ele>570.5714285714286</ele><time>2026-05-02T15:18:15.995Z</time></trkpt><trkpt lat="44.1647868" lon="10.3921802"><ele>569.7142857142857</ele><time>2026-05-02T15:18:16.998Z</time></trkpt><trkpt lat="44.1647153" lon="10.3921848"><ele>568.8571428571429</ele><time>2026-05-02T15:18:17.989Z</time></trkpt><trkpt lat="44.1646379" lon="10.3921906"><ele>568.0</ele><time>2026-05-02T15:18:18.993Z</time></trkpt><trkpt lat="44.1645598" lon="10.3921987"><ele>568.0</ele><time>2026-05-02T15:18:19.994Z</time></trkpt><trkpt lat="44.1644786" lon="10.392208"><ele>568.0</ele><time>2026-05-02T15:18:20.988Z</time></trkpt><trkpt lat="44.1643993" lon="10.3922131"><ele>568.0</ele><time>2026-05-02T15:18:21.987Z</time></trkpt><trkpt lat="44.1643165" lon="10.3922175"><ele>568.0</ele><time>2026-05-02T15:18:22.992Z</time></trkpt><trkpt lat="44.1642346" lon="10.392221"><ele>568.0</ele><time>2026-05-02T15:18:23.986Z</time></trkpt><trkpt lat="44.1641583" lon="10.392203"><ele>568.0</ele><time>2026-05-02T15:18:24.982Z</time></trkpt><trkpt lat="44.1640896" lon="10.3921712"><ele>566.2857142857142</ele><time>2026-05-02T15:18:25.99Z</time></trkpt><trkpt lat="44.1640312" lon="10.392114"><ele>564.5714285714286</ele><time>2026-05-02T15:18:26.988Z</time></trkpt><trkpt lat="44.1639782" lon="10.3920489"><ele>562.8571428571429</ele><time>2026-05-02T15:18:27.997Z</time></trkpt><trkpt lat="44.1639288" lon="10.3919751"><ele>561.1428571428571</ele><time>2026-05-02T15:18:28.984Z</time></trkpt><trkpt lat="44.16389" lon="10.391887"><ele>559.4285714285714</ele><time>2026-05-02T15:18:29.986Z</time></trkpt><trkpt lat="44.1638575" lon="10.3917998"><ele>557.7142857142857</ele><time>2026-05-02T15:18:30.997Z</time></trkpt><trkpt lat="44.1638233" lon="10.39171"><ele>556.0</ele><time>2026-05-02T15:18:31.99Z</time></trkpt><trkpt lat="44.1637824" lon="10.391616"><ele>556.0</ele><time>2026-05-02T15:18:32.996Z</time></trkpt><trkpt lat="44.1637362" lon="10.3915242"><ele>556.0</ele><time>2026-05-02T15:18:33.991Z</time></trkpt><trkpt lat="44.1636788" lon="10.3914462"><ele>556.0</ele><time>2026-05-02T15:18:34.983Z</time></trkpt><trkpt lat="44.1636121" lon="10.3913813"><ele>556.0</ele><time>2026-05-02T15:18:35.994Z</time></trkpt><trkpt lat="44.1635374" lon="10.391325"><ele>556.0</ele><time>2026-05-02T15:18:36.991Z</time></trkpt><trkpt lat="44.1634544" lon="10.3912844"><ele>556.0</ele><time>2026-05-02T15:18:37.99Z</time></trkpt><trkpt lat="44.1633712" lon="10.3912448"><ele>554.8</ele><time>2026-05-02T15:18:38.987Z</time></trkpt><trkpt lat="44.1632857" lon="10.3911945"><ele>553.6</ele><time>2026-05-02T15:18:40Z</time></trkpt><trkpt lat="44.163199" lon="10.3911293"><ele>552.4</ele><time>2026-05-02T15:18:40.985Z</time></trkpt><trkpt lat="44.1631195" lon="10.3910491"><ele>551.2</ele><time>2026-05-02T15:18:41.991Z</time></trkpt><trkpt lat="44.1630413" lon="10.3909539"><ele>550.0</ele><time>2026-05-02T15:18:42.991Z</time></trkpt><trkpt lat="44.162964" lon="10.3908501"><ele>550.0</ele><time>2026-05-02T15:18:43.985Z</time></trkpt><trkpt lat="44.1628955" lon="10.3907334"><ele>550.0</ele><time>2026-05-02T15:18:44.991Z</time></trkpt><trkpt lat="44.1628344" lon="10.3906108"><ele>550.0</ele><time>2026-05-02T15:18:45.981Z</time></trkpt><trkpt lat="44.1627744" lon="10.3904896"><ele>550.0</ele><time>2026-05-02T15:18:47Z</time></trkpt><trkpt lat="44.1627125" lon="10.3903728"><ele>550.0</ele><time>2026-05-02T15:18:48Z</time></trkpt><trkpt lat="44.1626458" lon="10.3902678"><ele>549.2</ele><time>2026-05-02T15:18:48.991Z</time></trkpt><trkpt lat="44.1625775" lon="10.3901666"><ele>548.4</ele><time>2026-05-02T15:18:49.996Z</time></trkpt><trkpt lat="44.1625067" lon="10.3900698"><ele>547.6</ele><time>2026-05-02T15:18:50.997Z</time></trkpt><trkpt lat="44.1624399" lon="10.3899795"><ele>546.8</ele><time>2026-05-02T15:18:51.993Z</time></trkpt><trkpt lat="44.1623811" lon="10.3899024"><ele>546.0</ele><time>2026-05-02T15:18:52.993Z</time></trkpt><trkpt lat="44.1623212" lon="10.3898341"><ele>545.1428571428571</ele><time>2026-05-02T15:18:53.996Z</time></trkpt><trkpt lat="44.1622634" lon="10.3897767"><ele>544.2857142857142</ele><time>2026-05-02T15:18:54.999Z</time></trkpt><trkpt lat="44.1622008" lon="10.3897388"><ele>543.4285714285714</ele><time>2026-05-02T15:18:55.982Z</time></trkpt><trkpt lat="44.1621342" lon="10.3897217"><ele>542.5714285714286</ele><time>2026-05-02T15:18:56.981Z</time></trkpt><trkpt lat="44.1620629" lon="10.3897332"><ele>541.7142857142857</ele><time>2026-05-02T15:18:57.992Z</time></trkpt><trkpt lat="44.1619949" lon="10.3897645"><ele>540.8571428571429</ele><time>2026-05-02T15:18:58.992Z</time></trkpt><trkpt lat="44.1619309" lon="10.3898187"><ele>540.0</ele><time>2026-05-02T15:18:59.99Z</time></trkpt><trkpt lat="44.1618694" lon="10.3898867"><ele>540.0</ele><time>2026-05-02T15:19:00.994Z</time></trkpt><trkpt lat="44.161805" lon="10.3899575"><ele>540.0</ele><time>2026-05-02T15:19:01.993Z</time></trkpt><trkpt lat="44.1617417" lon="10.3900301"><ele>540.0</ele><time>2026-05-02T15:19:02.99Z</time></trkpt><trkpt lat="44.1616752" lon="10.3901036"><ele>540.0</ele><time>2026-05-02T15:19:03.995Z</time></trkpt><trkpt lat="44.1616074" lon="10.3901767"><ele>540.0</ele><time>2026-05-02T15:19:05Z</time></trkpt><trkpt lat="44.1615396" lon="10.3902513"><ele>540.0</ele><time>2026-05-02T15:19:05.988Z</time></trkpt><trkpt lat="44.161472" lon="10.3903293"><ele>538.2</ele><time>2026-05-02T15:19:06.992Z</time></trkpt><trkpt lat="44.1614058" lon="10.3904185"><ele>536.4</ele><time>2026-05-02T15:19:07.982Z</time></trkpt><trkpt lat="44.1613471" lon="10.3905181"><ele>534.6</ele><time>2026-05-02T15:19:08.985Z</time></trkpt><trkpt lat="44.1613009" lon="10.3906279"><ele>532.8</ele><time>2026-05-02T15:19:09.982Z</time></trkpt><trkpt lat="44.1612619" lon="10.3907504"><ele>531.0</ele><time>2026-05-02T15:19:10.985Z</time></trkpt><trkpt lat="44.1612328" lon="10.3908701"><ele>530.8333333333334</ele><time>2026-05-02T15:19:12Z</time></trkpt><trkpt lat="44.1612204" lon="10.3909852"><ele>530.6666666666666</ele><time>2026-05-02T15:19:12.997Z</time></trkpt><trkpt lat="44.161215" lon="10.391105"><ele>530.5</ele><time>2026-05-02T15:19:14Z</time></trkpt><trkpt lat="44.161215" lon="10.3912229"><ele>530.3333333333333</ele><time>2026-05-02T15:19:15Z</time></trkpt><trkpt lat="44.1612171" lon="10.3913471"><ele>530.1666666666666</ele><time>2026-05-02T15:19:15.992Z</time></trkpt><trkpt lat="44.1612167" lon="10.3914702"><ele>530.0</ele><time>2026-05-02T15:19:16.989Z</time></trkpt><trkpt lat="44.161219" lon="10.3915778"><ele>529.8</ele><time>2026-05-02T15:19:17.989Z</time></trkpt><trkpt lat="44.1612192" lon="10.3916766"><ele>529.6</ele><time>2026-05-02T15:19:18.978Z</time></trkpt><trkpt lat="44.1612219" lon="10.3918547"><ele>529.4</ele><time>2026-05-02T15:19:20.98Z</time></trkpt><trkpt lat="44.1612184" lon="10.3920189"><ele>529.2</ele><time>2026-05-02T15:19:22.979Z</time></trkpt><trkpt lat="44.1611985" lon="10.392132"><ele>529.0</ele><time>2026-05-02T15:19:24.997Z</time></trkpt><trkpt lat="44.1611619" lon="10.3922083"><ele>529.0</ele><time>2026-05-02T15:19:41.99Z</time></trkpt><trkpt lat="44.1611693" lon="10.3923086"><ele>529.0</ele><time>2026-05-02T15:19:45.982Z</time></trkpt><trkpt lat="44.161194" lon="10.3924012"><ele>529.0</ele><time>2026-05-02T15:19:48.977Z</time></trkpt><trkpt lat="44.1612159" lon="10.3924935"><ele>529.0</ele><time>2026-05-02T15:19:51.984Z</time></trkpt><trkpt lat="44.1612296" lon="10.3925904"><ele>529.0</ele><time>2026-05-02T15:19:54.99Z</time></trkpt><trkpt lat="44.1612577" lon="10.3926876"><ele>529.0</ele><time>2026-05-02T15:19:57.991Z</time></trkpt><trkpt lat="44.1612773" lon="10.3927861"><ele>529.0</ele><time>2026-05-02T15:20:00.982Z</time></trkpt><trkpt lat="44.1613023" lon="10.3928829"><ele>529.0</ele><time>2026-05-02T15:20:03.991Z</time></trkpt><trkpt lat="44.1613275" lon="10.392977"><ele>529.0</ele><time>2026-05-02T15:20:06.979Z</time></trkpt><trkpt lat="44.1613496" lon="10.3930774"><ele>529.0</ele><time>2026-05-02T15:20:09.984Z</time></trkpt><trkpt lat="44.161376" lon="10.3931787"><ele>529.0</ele><time>2026-05-02T15:20:12.987Z</time></trkpt><trkpt lat="44.1614032" lon="10.3932783"><ele>529.0</ele><time>2026-05-02T15:20:15.986Z</time></trkpt><trkpt lat="44.1614289" lon="10.3933794"><ele>529.0</ele><time>2026-05-02T15:20:18.983Z</time></trkpt><trkpt lat="44.1614531" lon="10.3934809"><ele>528.0</ele><time>2026-05-02T15:20:21.994Z</time></trkpt><trkpt lat="44.1614767" lon="10.3935856"><ele>527.0</ele><time>2026-05-02T15:20:24.988Z</time></trkpt><trkpt lat="44.161503" lon="10.3936956"><ele>526.0</ele><time>2026-05-02T15:20:27.986Z</time></trkpt><trkpt lat="44.1615303" lon="10.3938098"><ele>525.0</ele><time>2026-05-02T15:20:30.977Z</time></trkpt><trkpt lat="44.1615616" lon="10.3939221"><ele>524.0</ele><time>2026-05-02T15:20:33.978Z</time></trkpt><trkpt lat="44.1615899" lon="10.3940377"><ele>523.0</ele><time>2026-05-02T15:20:36.992Z</time></trkpt><trkpt lat="44.1616223" lon="10.3941504"><ele>525.0</ele><time>2026-05-02T15:20:39.982Z</time></trkpt><trkpt lat="44.1616508" lon="10.3942607"><ele>527.0</ele><time>2026-05-02T15:20:42.982Z</time></trkpt><trkpt lat="44.1616806" lon="10.3943721"><ele>529.0</ele><time>2026-05-02T15:20:45.977Z</time></trkpt><trkpt lat="44.1617023" lon="10.3944833"><ele>531.0</ele><time>2026-05-02T15:20:48.986Z</time></trkpt><trkpt lat="44.1617311" lon="10.3945918"><ele>533.0</ele><time>2026-05-02T15:20:51.982Z</time></trkpt><trkpt lat="44.1617579" lon="10.3947055"><ele>535.0</ele><time>2026-05-02T15:20:54.986Z</time></trkpt><trkpt lat="44.1617868" lon="10.3948177"><ele>535.0</ele><time>2026-05-02T15:20:57.984Z</time></trkpt><trkpt lat="44.1618178" lon="10.3949392"><ele>535.0</ele><time>2026-05-02T15:21:00.991Z</time></trkpt><trkpt lat="44.1618471" lon="10.3950598"><ele>535.0</ele><time>2026-05-02T15:21:03.989Z</time></trkpt><trkpt lat="44.1618807" lon="10.3951812"><ele>535.0</ele><time>2026-05-02T15:21:06.975Z</time></trkpt><trkpt lat="44.1619012" lon="10.3952665"><ele>535.0</ele><time>2026-05-02T15:21:08.973Z</time></trkpt><trkpt lat="44.1619135" lon="10.3953598"><ele>535.0</ele><time>2026-05-02T15:21:10.974Z</time></trkpt><trkpt lat="44.1619131" lon="10.3954573"><ele>534.8333333333334</ele><time>2026-05-02T15:21:12.974Z</time></trkpt><trkpt lat="44.1618928" lon="10.3955585"><ele>534.6666666666667</ele><time>2026-05-02T15:21:14.982Z</time></trkpt><trkpt lat="44.1618506" lon="10.3956499"><ele>534.5</ele><time>2026-05-02T15:21:16.984Z</time></trkpt><trkpt lat="44.1617924" lon="10.3957149"><ele>534.3333333333334</ele><time>2026-05-02T15:21:18.982Z</time></trkpt><trkpt lat="44.1617294" lon="10.3957542"><ele>534.1666666666666</ele><time>2026-05-02T15:21:20.992Z</time></trkpt><trkpt lat="44.1616665" lon="10.3957862"><ele>534.0</ele><time>2026-05-02T15:21:22.988Z</time></trkpt><trkpt lat="44.1615827" lon="10.3958333"><ele>534.6666666666666</ele><time>2026-05-02T15:21:25.988Z</time></trkpt><trkpt lat="44.1614983" lon="10.3958484"><ele>535.3333333333334</ele><time>2026-05-02T15:21:28.989Z</time></trkpt><trkpt lat="44.1614196" lon="10.3958332"><ele>536.0</ele><time>2026-05-02T15:21:31.986Z</time></trkpt><trkpt lat="44.1613491" lon="10.3957956"><ele>536.6666666666667</ele><time>2026-05-02T15:21:34.992Z</time></trkpt><trkpt lat="44.1612813" lon="10.3957574"><ele>537.3333333333334</ele><time>2026-05-02T15:21:37.984Z</time></trkpt><trkpt lat="44.1612051" lon="10.3957222"><ele>538.0</ele><time>2026-05-02T15:21:40.977Z</time></trkpt><trkpt lat="44.1611297" lon="10.3956811"><ele>538.0</ele><time>2026-05-02T15:21:43.99Z</time></trkpt><trkpt lat="44.1610548" lon="10.3956382"><ele>538.0</ele><time>2026-05-02T15:21:46.986Z</time></trkpt><trkpt lat="44.1609827" lon="10.3955983"><ele>538.0</ele><time>2026-05-02T15:21:49.979Z</time></trkpt><trkpt lat="44.1609069" lon="10.3955642"><ele>538.0</ele><time>2026-05-02T15:21:52.984Z</time></trkpt><trkpt lat="44.160831" lon="10.3955184"><ele>538.0</ele><time>2026-05-02T15:21:55.985Z</time></trkpt><trkpt lat="44.1607529" lon="10.3954799"><ele>538.0</ele><time>2026-05-02T15:21:58.986Z</time></trkpt><trkpt lat="44.1606751" lon="10.3954427"><ele>538.0</ele><time>2026-05-02T15:22:01.994Z</time></trkpt><trkpt lat="44.1605935" lon="10.3954183"><ele>538.0</ele><time>2026-05-02T15:22:04.976Z</time></trkpt><trkpt lat="44.1605093" lon="10.3954242"><ele>538.0</ele><time>2026-05-02T15:22:07.988Z</time></trkpt><trkpt lat="44.1604293" lon="10.3954462"><ele>538.0</ele><time>2026-05-02T15:22:10.994Z</time></trkpt><trkpt lat="44.1603561" lon="10.3954937"><ele>538.0</ele><time>2026-05-02T15:22:13.983Z</time></trkpt><trkpt lat="44.1602899" lon="10.3955697"><ele>538.0</ele><time>2026-05-02T15:22:16.991Z</time></trkpt><trkpt lat="44.1602329" lon="10.3956657"><ele>538.0</ele><time>2026-05-02T15:22:19.98Z</time></trkpt><trkpt lat="44.1601862" lon="10.3957698"><ele>538.0</ele><time>2026-05-02T15:22:22.994Z</time></trkpt><trkpt lat="44.1601452" lon="10.3958758"><ele>538.0</ele><time>2026-05-02T15:22:25.988Z</time></trkpt><trkpt lat="44.1601082" lon="10.3959865"><ele>538.0</ele><time>2026-05-02T15:22:28.984Z</time></trkpt><trkpt lat="44.1600639" lon="10.3960921"><ele>538.0</ele><time>2026-05-02T15:22:31.981Z</time></trkpt><trkpt lat="44.1600292" lon="10.3962047"><ele>538.0</ele><time>2026-05-02T15:22:34.979Z</time></trkpt><trkpt lat="44.1599893" lon="10.3963149"><ele>538.6666666666667</ele><time>2026-05-02T15:22:37.991Z</time></trkpt><trkpt lat="44.1599401" lon="10.3964194"><ele>539.3333333333334</ele><time>2026-05-02T15:22:40.986Z</time></trkpt><trkpt lat="44.1598982" lon="10.3965262"><ele>540.0</ele><time>2026-05-02T15:22:43.993Z</time></trkpt><trkpt lat="44.1598556" lon="10.3966345"><ele>540.6666666666666</ele><time>2026-05-02T15:22:46.983Z</time></trkpt><trkpt lat="44.1598159" lon="10.3967403"><ele>541.3333333333333</ele><time>2026-05-02T15:22:49.981Z</time></trkpt><trkpt lat="44.1597701" lon="10.39685"><ele>542.0</ele><time>2026-05-02T15:22:53Z</time></trkpt><trkpt lat="44.1597261" lon="10.3969597"><ele>542.0</ele><time>2026-05-02T15:22:55.989Z</time></trkpt><trkpt lat="44.1596928" lon="10.3970726"><ele>542.0</ele><time>2026-05-02T15:22:58.983Z</time></trkpt><trkpt lat="44.1596599" lon="10.3971844"><ele>542.0</ele><time>2026-05-02T15:23:01.984Z</time></trkpt><trkpt lat="44.1596233" lon="10.397292"><ele>542.0</ele><time>2026-05-02T15:23:04.991Z</time></trkpt><trkpt lat="44.1595913" lon="10.3974043"><ele>542.0</ele><time>2026-05-02T15:23:08Z</time></trkpt><trkpt lat="44.1595544" lon="10.3975143"><ele>542.0</ele><time>2026-05-02T15:23:10.99Z</time></trkpt><trkpt lat="44.1595281" lon="10.39763"><ele>542.5</ele><time>2026-05-02T15:23:13.984Z</time></trkpt><trkpt lat="44.159533" lon="10.3977487"><ele>543.0</ele><time>2026-05-02T15:23:16.988Z</time></trkpt><trkpt lat="44.1595412" lon="10.3978731"><ele>543.5</ele><time>2026-05-02T15:23:19.99Z</time></trkpt><trkpt lat="44.1595461" lon="10.3979934"><ele>544.0</ele><time>2026-05-02T15:23:22.984Z</time></trkpt><trkpt lat="44.1595563" lon="10.3981065"><ele>544.5</ele><time>2026-05-02T15:23:25.991Z</time></trkpt><trkpt lat="44.159569" lon="10.3982156"><ele>545.0</ele><time>2026-05-02T15:23:28.987Z</time></trkpt><trkpt lat="44.1595782" lon="10.3983264"><ele>545.1666666666666</ele><time>2026-05-02T15:23:31.992Z</time></trkpt><trkpt lat="44.1596045" lon="10.3984348"><ele>545.3333333333333</ele><time>2026-05-02T15:23:34.99Z</time></trkpt><trkpt lat="44.1596512" lon="10.3985448"><ele>545.5</ele><time>2026-05-02T15:23:37.994Z</time></trkpt><trkpt lat="44.1596949" lon="10.3986477"><ele>545.6666666666666</ele><time>2026-05-02T15:23:40.999Z</time></trkpt><trkpt lat="44.1597395" lon="10.3987449"><ele>545.8333333333334</ele><time>2026-05-02T15:23:43.987Z</time></trkpt><trkpt lat="44.1597979" lon="10.3988445"><ele>546.0</ele><time>2026-05-02T15:23:46.986Z</time></trkpt><trkpt lat="44.1598484" lon="10.3989435"><ele>546.0</ele><time>2026-05-02T15:23:49.981Z</time></trkpt><trkpt lat="44.1598956" lon="10.3990405"><ele>546.0</ele><time>2026-05-02T15:23:52.985Z</time></trkpt><trkpt lat="44.1599522" lon="10.3991369"><ele>546.0</ele><time>2026-05-02T15:23:55.986Z</time></trkpt><trkpt lat="44.160006" lon="10.399242"><ele>546.0</ele><time>2026-05-02T15:23:58.99Z</time></trkpt><trkpt lat="44.160061" lon="10.3993417"><ele>546.0</ele><time>2026-05-02T15:24:01.984Z</time></trkpt><trkpt lat="44.160123" lon="10.3994267"><ele>546.0</ele><time>2026-05-02T15:24:04.977Z</time></trkpt><trkpt lat="44.1601932" lon="10.3994952"><ele>546.0</ele><time>2026-05-02T15:24:07.989Z</time></trkpt><trkpt lat="44.1602712" lon="10.3995476"><ele>546.0</ele><time>2026-05-02T15:24:10.994Z</time></trkpt><trkpt lat="44.1603496" lon="10.3995811"><ele>546.0</ele><time>2026-05-02T15:24:13.988Z</time></trkpt><trkpt lat="44.1604251" lon="10.3996161"><ele>546.0</ele><time>2026-05-02T15:24:16.981Z</time></trkpt><trkpt lat="44.1605064" lon="10.3996519"><ele>546.0</ele><time>2026-05-02T15:24:19.983Z</time></trkpt><trkpt lat="44.1605917" lon="10.3996725"><ele>546.0</ele><time>2026-05-02T15:24:22.986Z</time></trkpt><trkpt lat="44.1606766" lon="10.3996908"><ele>546.3333333333334</ele><time>2026-05-02T15:24:25.984Z</time></trkpt><trkpt lat="44.1607608" lon="10.3996961"><ele>546.6666666666666</ele><time>2026-05-02T15:24:28.988Z</time></trkpt><trkpt lat="44.1608525" lon="10.3996901"><ele>547.0</ele><time>2026-05-02T15:24:31.978Z</time></trkpt><trkpt lat="44.1609167" lon="10.3996846"><ele>547.3333333333333</ele><time>2026-05-02T15:24:33.977Z</time></trkpt><trkpt lat="44.160982" lon="10.399674"><ele>547.6666666666666</ele><time>2026-05-02T15:24:35.976Z</time></trkpt><trkpt lat="44.1610442" lon="10.3996579"><ele>548.0</ele><time>2026-05-02T15:24:37.998Z</time></trkpt><trkpt lat="44.1611287" lon="10.3996371"><ele>549.6666666666666</ele><time>2026-05-02T15:24:40.995Z</time></trkpt><trkpt lat="44.1612196" lon="10.3996269"><ele>551.3333333333333</ele><time>2026-05-02T15:24:43.991Z</time></trkpt><trkpt lat="44.161308" lon="10.3995982"><ele>553.0</ele><time>2026-05-02T15:24:46.997Z</time></trkpt><trkpt lat="44.1613948" lon="10.3995745"><ele>554.6666666666666</ele><time>2026-05-02T15:24:49.998Z</time></trkpt><trkpt lat="44.1614855" lon="10.3995575"><ele>556.3333333333334</ele><time>2026-05-02T15:24:52.983Z</time></trkpt><trkpt lat="44.1615729" lon="10.399554"><ele>558.0</ele><time>2026-05-02T15:24:55.982Z</time></trkpt><trkpt lat="44.1616397" lon="10.3995465"><ele>559.0</ele><time>2026-05-02T15:24:57.991Z</time></trkpt><trkpt lat="44.1617086" lon="10.3995497"><ele>560.0</ele><time>2026-05-02T15:25:00Z</time></trkpt><trkpt lat="44.1617746" lon="10.3995684"><ele>561.0</ele><time>2026-05-02T15:25:01.993Z</time></trkpt><trkpt lat="44.1618624" lon="10.39961"><ele>562.0</ele><time>2026-05-02T15:25:04.99Z</time></trkpt><trkpt lat="44.1619383" lon="10.3996767"><ele>563.0</ele><time>2026-05-02T15:25:07.995Z</time></trkpt><trkpt lat="44.1620019" lon="10.3997626"><ele>564.0</ele><time>2026-05-02T15:25:10.999Z</time></trkpt><trkpt lat="44.162065" lon="10.3998499"><ele>565.1666666666666</ele><time>2026-05-02T15:25:13.98Z</time></trkpt><trkpt lat="44.1621293" lon="10.3999318"><ele>566.3333333333334</ele><time>2026-05-02T15:25:16.99Z</time></trkpt><trkpt lat="44.1622008" lon="10.4000131"><ele>567.5</ele><time>2026-05-02T15:25:19.985Z</time></trkpt><trkpt lat="44.1622635" lon="10.4001048"><ele>568.6666666666667</ele><time>2026-05-02T15:25:22.995Z</time></trkpt><trkpt lat="44.1623212" lon="10.4001985"><ele>569.8333333333334</ele><time>2026-05-02T15:25:25.992Z</time></trkpt><trkpt lat="44.1623693" lon="10.4003009"><ele>571.0</ele><time>2026-05-02T15:25:28.995Z</time></trkpt><trkpt lat="44.162391" lon="10.4004234"><ele>571.0</ele><time>2026-05-02T15:25:31.982Z</time></trkpt><trkpt lat="44.1623831" lon="10.4005111"><ele>571.0</ele><time>2026-05-02T15:25:33.993Z</time></trkpt><trkpt lat="44.1623453" lon="10.4006241"><ele>571.0</ele><time>2026-05-02T15:25:36.987Z</time></trkpt><trkpt lat="44.1622813" lon="10.4007151"><ele>571.0</ele><time>2026-05-02T15:25:39.988Z</time></trkpt><trkpt lat="44.1622224" lon="10.4007481"><ele>571.0</ele><time>2026-05-02T15:25:41.992Z</time></trkpt><trkpt lat="44.1621617" lon="10.4007718"><ele>571.0</ele><time>2026-05-02T15:25:43.982Z</time></trkpt><trkpt lat="44.1620784" lon="10.4008207"><ele>568.3333333333334</ele><time>2026-05-02T15:25:46.994Z</time></trkpt><trkpt lat="44.1619926" lon="10.4008615"><ele>565.6666666666667</ele><time>2026-05-02T15:25:49.99Z</time></trkpt><trkpt lat="44.1619078" lon="10.4009009"><ele>563.0</ele><time>2026-05-02T15:25:52.99Z</time></trkpt><trkpt lat="44.16185" lon="10.4009407"><ele>560.3333333333334</ele><time>2026-05-02T15:25:54.979Z</time></trkpt><trkpt lat="44.1617748" lon="10.4010168"><ele>557.6666666666666</ele><time>2026-05-02T15:25:57.994Z</time></trkpt><trkpt lat="44.1617122" lon="10.4011079"><ele>555.0</ele><time>2026-05-02T15:26:00.988Z</time></trkpt><trkpt lat="44.1616617" lon="10.4012162"><ele>555.0</ele><time>2026-05-02T15:26:03.985Z</time></trkpt><trkpt lat="44.1616217" lon="10.4013296"><ele>555.0</ele><time>2026-05-02T15:26:06.998Z</time></trkpt><trkpt lat="44.1615859" lon="10.4014447"><ele>555.0</ele><time>2026-05-02T15:26:09.997Z</time></trkpt><trkpt lat="44.1615438" lon="10.4015571"><ele>555.0</ele><time>2026-05-02T15:26:12.993Z</time></trkpt><trkpt lat="44.1615027" lon="10.4016696"><ele>555.0</ele><time>2026-05-02T15:26:15.984Z</time></trkpt><trkpt lat="44.1614565" lon="10.4017829"><ele>554.0000000000001</ele><time>2026-05-02T15:26:18.994Z</time></trkpt><trkpt lat="44.1614042" lon="10.4018936"><ele>553.0</ele><time>2026-05-02T15:26:21.996Z</time></trkpt><trkpt lat="44.1613631" lon="10.4019617"><ele>552.0</ele><time>2026-05-02T15:26:23.985Z</time></trkpt><trkpt lat="44.1613196" lon="10.402027"><ele>551.0</ele><time>2026-05-02T15:26:25.976Z</time></trkpt><trkpt lat="44.1612791" lon="10.402095"><ele>550.0</ele><time>2026-05-02T15:26:27.988Z</time></trkpt><trkpt lat="44.1612326" lon="10.4021573"><ele>549.0000000000001</ele><time>2026-05-02T15:26:29.995Z</time></trkpt><trkpt lat="44.1611781" lon="10.4022091"><ele>548.0</ele><time>2026-05-02T15:26:31.977Z</time></trkpt><trkpt lat="44.1611084" lon="10.4022937"><ele>551.0</ele><time>2026-05-02T15:26:34.995Z</time></trkpt><trkpt lat="44.1610382" lon="10.402373"><ele>554.0</ele><time>2026-05-02T15:26:37.984Z</time></trkpt><trkpt lat="44.1609741" lon="10.402459"><ele>557.0</ele><time>2026-05-02T15:26:40.999Z</time></trkpt><trkpt lat="44.1609086" lon="10.4025408"><ele>560.0</ele><time>2026-05-02T15:26:43.987Z</time></trkpt><trkpt lat="44.160842" lon="10.4026196"><ele>563.0</ele><time>2026-05-02T15:26:46.99Z</time></trkpt><trkpt lat="44.1607767" lon="10.4027048"><ele>566.0</ele><time>2026-05-02T15:26:49.991Z</time></trkpt><trkpt lat="44.1607134" lon="10.4027934"><ele>565.8333333333333</ele><time>2026-05-02T15:26:52.983Z</time></trkpt><trkpt lat="44.1606502" lon="10.4028847"><ele>565.6666666666666</ele><time>2026-05-02T15:26:55.987Z</time></trkpt><trkpt lat="44.1605892" lon="10.4029771"><ele>565.5</ele><time>2026-05-02T15:26:58.994Z</time></trkpt><trkpt lat="44.1605272" lon="10.4030751"><ele>565.3333333333334</ele><time>2026-05-02T15:27:01.989Z</time></trkpt><trkpt lat="44.1604857" lon="10.4031491"><ele>565.1666666666667</ele><time>2026-05-02T15:27:03.991Z</time></trkpt><trkpt lat="44.160418" lon="10.4032441"><ele>565.0</ele><time>2026-05-02T15:27:06.991Z</time></trkpt><trkpt lat="44.1603691" lon="10.4033013"><ele>565.0</ele><time>2026-05-02T15:27:08.996Z</time></trkpt><trkpt lat="44.1602896" lon="10.4033658"><ele>565.0</ele><time>2026-05-02T15:27:11.994Z</time></trkpt><trkpt lat="44.1601998" lon="10.4033984"><ele>565.0</ele><time>2026-05-02T15:27:14.99Z</time></trkpt><trkpt lat="44.160111" lon="10.4034191"><ele>565.0</ele><time>2026-05-02T15:27:17.99Z</time></trkpt><trkpt lat="44.1600231" lon="10.4034514"><ele>565.0</ele><time>2026-05-02T15:27:20.983Z</time></trkpt><trkpt lat="44.159929" lon="10.4034663"><ele>562.0</ele><time>2026-05-02T15:27:23.987Z</time></trkpt><trkpt lat="44.1598385" lon="10.4034897"><ele>559.0</ele><time>2026-05-02T15:27:26.984Z</time></trkpt><trkpt lat="44.1597467" lon="10.4035119"><ele>556.0</ele><time>2026-05-02T15:27:29.99Z</time></trkpt><trkpt lat="44.1596553" lon="10.4035397"><ele>553.0</ele><time>2026-05-02T15:27:32.987Z</time></trkpt><trkpt lat="44.1595719" lon="10.4035771"><ele>550.0</ele><time>2026-05-02T15:27:35.978Z</time></trkpt><trkpt lat="44.1594906" lon="10.4036278"><ele>550.0</ele><time>2026-05-02T15:27:38.996Z</time></trkpt><trkpt lat="44.1594144" lon="10.4037032"><ele>550.0</ele><time>2026-05-02T15:27:41.987Z</time></trkpt><trkpt lat="44.1593495" lon="10.4037919"><ele>550.0</ele><time>2026-05-02T15:27:44.984Z</time></trkpt><trkpt lat="44.1593055" lon="10.4038592"><ele>550.0</ele><time>2026-05-02T15:27:46.978Z</time></trkpt><trkpt lat="44.1592634" lon="10.4039313"><ele>550.0</ele><time>2026-05-02T15:27:48.998Z</time></trkpt><trkpt lat="44.1592208" lon="10.4040025"><ele>550.0</ele><time>2026-05-02T15:27:50.985Z</time></trkpt><trkpt lat="44.1591784" lon="10.4040778"><ele>550.0</ele><time>2026-05-02T15:27:52.996Z</time></trkpt><trkpt lat="44.1591338" lon="10.4041562"><ele>550.0</ele><time>2026-05-02T15:27:55Z</time></trkpt><trkpt lat="44.159093" lon="10.4042379"><ele>550.0</ele><time>2026-05-02T15:27:56.983Z</time></trkpt><trkpt lat="44.1590452" lon="10.4043194"><ele>550.0</ele><time>2026-05-02T15:27:58.993Z</time></trkpt><trkpt lat="44.1590063" lon="10.404399"><ele>550.0</ele><time>2026-05-02T15:28:00.998Z</time></trkpt><trkpt lat="44.1589671" lon="10.4044786"><ele>550.0</ele><time>2026-05-02T15:28:03Z</time></trkpt><trkpt lat="44.1589201" lon="10.4045619"><ele>550.0</ele><time>2026-05-02T15:28:04.985Z</time></trkpt><trkpt lat="44.1588694" lon="10.4046464"><ele>550.4285714285714</ele><time>2026-05-02T15:28:06.982Z</time></trkpt><trkpt lat="44.1588302" lon="10.4047224"><ele>550.8571428571429</ele><time>2026-05-02T15:28:09Z</time></trkpt><trkpt lat="44.1587893" lon="10.4048055"><ele>551.2857142857142</ele><time>2026-05-02T15:28:10.996Z</time></trkpt><trkpt lat="44.1587548" lon="10.404887"><ele>551.7142857142858</ele><time>2026-05-02T15:28:12.996Z</time></trkpt><trkpt lat="44.1587093" lon="10.404966"><ele>552.1428571428571</ele><time>2026-05-02T15:28:14.994Z</time></trkpt><trkpt lat="44.1586653" lon="10.4050483"><ele>552.5714285714286</ele><time>2026-05-02T15:28:16.987Z</time></trkpt><trkpt lat="44.1586184" lon="10.4051353"><ele>553.0</ele><time>2026-05-02T15:28:18.979Z</time></trkpt><trkpt lat="44.158576" lon="10.4052171"><ele>553.0</ele><time>2026-05-02T15:28:20.987Z</time></trkpt><trkpt lat="44.158537" lon="10.4052932"><ele>553.0</ele><time>2026-05-02T15:28:22.986Z</time></trkpt><trkpt lat="44.1585025" lon="10.4053682"><ele>553.0</ele><time>2026-05-02T15:28:24.986Z</time></trkpt><trkpt lat="44.158473" lon="10.4054626"><ele>553.0</ele><time>2026-05-02T15:28:26.974Z</time></trkpt><trkpt lat="44.1584458" lon="10.4055587"><ele>553.0</ele><time>2026-05-02T15:28:28.98Z</time></trkpt><trkpt lat="44.1584229" lon="10.4056665"><ele>553.0</ele><time>2026-05-02T15:28:30.993Z</time></trkpt><trkpt lat="44.1583993" lon="10.4057658"><ele>553.0</ele><time>2026-05-02T15:28:32.985Z</time></trkpt><trkpt lat="44.1583831" lon="10.4058635"><ele>553.2857142857143</ele><time>2026-05-02T15:28:34.978Z</time></trkpt><trkpt lat="44.1583823" lon="10.405969"><ele>553.5714285714286</ele><time>2026-05-02T15:28:36.979Z</time></trkpt><trkpt lat="44.1583948" lon="10.40607"><ele>553.8571428571429</ele><time>2026-05-02T15:28:38.983Z</time></trkpt><trkpt lat="44.158412" lon="10.4061677"><ele>554.1428571428571</ele><time>2026-05-02T15:28:41Z</time></trkpt><trkpt lat="44.158437" lon="10.4062663"><ele>554.4285714285714</ele><time>2026-05-02T15:28:42.995Z</time></trkpt><trkpt lat="44.1584613" lon="10.4063553"><ele>554.7142857142858</ele><time>2026-05-02T15:28:44.979Z</time></trkpt><trkpt lat="44.1584935" lon="10.4064475"><ele>555.0</ele><time>2026-05-02T15:28:46.981Z</time></trkpt><trkpt lat="44.1585042" lon="10.4065679"><ele>555.0000000000001</ele><time>2026-05-02T15:28:48.985Z</time></trkpt><trkpt lat="44.1585333" lon="10.4066482"><ele>555.0</ele><time>2026-05-02T15:28:50.974Z</time></trkpt><trkpt lat="44.158572" lon="10.4067414"><ele>555.0</ele><time>2026-05-02T15:28:52.983Z</time></trkpt><trkpt lat="44.1586057" lon="10.4068333"><ele>555.0</ele><time>2026-05-02T15:28:54.978Z</time></trkpt><trkpt lat="44.1586386" lon="10.4069262"><ele>555.0</ele><time>2026-05-02T15:28:56.985Z</time></trkpt><trkpt lat="44.1586639" lon="10.4070177"><ele>555.0000000000001</ele><time>2026-05-02T15:28:58.981Z</time></trkpt><trkpt lat="44.1587013" lon="10.4071045"><ele>555.0</ele><time>2026-05-02T15:29:00.978Z</time></trkpt><trkpt lat="44.1587436" lon="10.4071959"><ele>554.0000000000001</ele><time>2026-05-02T15:29:02.979Z</time></trkpt><trkpt lat="44.1587801" lon="10.4072816"><ele>553.0</ele><time>2026-05-02T15:29:04.983Z</time></trkpt><trkpt lat="44.1588223" lon="10.407371"><ele>552.0</ele><time>2026-05-02T15:29:06.985Z</time></trkpt><trkpt lat="44.1588626" lon="10.4074528"><ele>551.0</ele><time>2026-05-02T15:29:08.981Z</time></trkpt><trkpt lat="44.1589081" lon="10.4075325"><ele>550.0</ele><time>2026-05-02T15:29:10.996Z</time></trkpt><trkpt lat="44.158952" lon="10.4076143"><ele>549.0000000000001</ele><time>2026-05-02T15:29:12.995Z</time></trkpt><trkpt lat="44.1589936" lon="10.4077001"><ele>548.0</ele><time>2026-05-02T15:29:14.981Z</time></trkpt><trkpt lat="44.1590406" lon="10.4077784"><ele>550.8571428571429</ele><time>2026-05-02T15:29:16.977Z</time></trkpt><trkpt lat="44.1590928" lon="10.4078531"><ele>553.7142857142858</ele><time>2026-05-02T15:29:18.978Z</time></trkpt><trkpt lat="44.1591456" lon="10.4079278"><ele>556.5714285714286</ele><time>2026-05-02T15:29:20.995Z</time></trkpt><trkpt lat="44.1591983" lon="10.4079997"><ele>559.4285714285714</ele><time>2026-05-02T15:29:22.983Z</time></trkpt><trkpt lat="44.1592506" lon="10.4080678"><ele>562.2857142857142</ele><time>2026-05-02T15:29:24.994Z</time></trkpt><trkpt lat="44.1593048" lon="10.4081356"><ele>565.1428571428571</ele><time>2026-05-02T15:29:26.981Z</time></trkpt><trkpt lat="44.1593552" lon="10.4082121"><ele>568.0</ele><time>2026-05-02T15:29:28.976Z</time></trkpt><trkpt lat="44.1593898" lon="10.4083036"><ele>568.0</ele><time>2026-05-02T15:29:30.988Z</time></trkpt><trkpt lat="44.1594208" lon="10.4084007"><ele>568.0</ele><time>2026-05-02T15:29:32.992Z</time></trkpt><trkpt lat="44.1594294" lon="10.4084918"><ele>568.0</ele><time>2026-05-02T15:29:34.984Z</time></trkpt><trkpt lat="44.1593989" lon="10.408596"><ele>568.0</ele><time>2026-05-02T15:29:37.978Z</time></trkpt><trkpt lat="44.1593373" lon="10.4086708"><ele>568.0</ele><time>2026-05-02T15:29:40.989Z</time></trkpt><trkpt lat="44.1592625" lon="10.4087257"><ele>568.0</ele><time>2026-05-02T15:29:43.979Z</time></trkpt><trkpt lat="44.1591774" lon="10.4087496"><ele>568.0</ele><time>2026-05-02T15:29:46.991Z</time></trkpt><trkpt lat="44.1590931" lon="10.4087333"><ele>568.0</ele><time>2026-05-02T15:29:49.994Z</time></trkpt><trkpt lat="44.1590106" lon="10.4087173"><ele>568.0</ele><time>2026-05-02T15:29:52.986Z</time></trkpt><trkpt lat="44.1589274" lon="10.4087103"><ele>568.0</ele><time>2026-05-02T15:29:56Z</time></trkpt><trkpt lat="44.1588457" lon="10.4086952"><ele>568.0</ele><time>2026-05-02T15:29:58.977Z</time></trkpt><trkpt lat="44.1587671" lon="10.4086774"><ele>568.0</ele><time>2026-05-02T15:30:01.997Z</time></trkpt><trkpt lat="44.1586846" lon="10.4086472"><ele>568.0</ele><time>2026-05-02T15:30:04.997Z</time></trkpt><trkpt lat="44.1586053" lon="10.4086014"><ele>568.0</ele><time>2026-05-02T15:30:07.975Z</time></trkpt><trkpt lat="44.1585278" lon="10.4085564"><ele>568.0</ele><time>2026-05-02T15:30:10.99Z</time></trkpt><trkpt lat="44.1584497" lon="10.4085152"><ele>568.0</ele><time>2026-05-02T15:30:13.986Z</time></trkpt><trkpt lat="44.1583732" lon="10.4084754"><ele>568.0</ele><time>2026-05-02T15:30:16.983Z</time></trkpt><trkpt lat="44.1582943" lon="10.4084357"><ele>568.0</ele><time>2026-05-02T15:30:19.976Z</time></trkpt><trkpt lat="44.1582129" lon="10.4083942"><ele>566.5</ele><time>2026-05-02T15:30:22.975Z</time></trkpt><trkpt lat="44.1581299" lon="10.4083684"><ele>565.0</ele><time>2026-05-02T15:30:25.996Z</time></trkpt><trkpt lat="44.1580445" lon="10.4083548"><ele>563.5</ele><time>2026-05-02T15:30:28.986Z</time></trkpt><trkpt lat="44.157973" lon="10.408357"><ele>562.0</ele><time>2026-05-02T15:30:31.995Z</time></trkpt><trkpt lat="44.157902" lon="10.4083675"><ele>560.5</ele><time>2026-05-02T15:30:34.992Z</time></trkpt><trkpt lat="44.1578317" lon="10.4083847"><ele>559.0</ele><time>2026-05-02T15:30:37.98Z</time></trkpt><trkpt lat="44.1577623" lon="10.4084249"><ele>559.0</ele><time>2026-05-02T15:30:40.98Z</time></trkpt><trkpt lat="44.1576969" lon="10.4084679"><ele>559.0</ele><time>2026-05-02T15:30:44Z</time></trkpt><trkpt lat="44.15764" lon="10.408533"><ele>559.0</ele><time>2026-05-02T15:30:46.998Z</time></trkpt><trkpt lat="44.157586" lon="10.4086062"><ele>559.0</ele><time>2026-05-02T15:30:49.989Z</time></trkpt><trkpt lat="44.1575303" lon="10.4086847"><ele>559.0</ele><time>2026-05-02T15:30:52.985Z</time></trkpt><trkpt lat="44.1574941" lon="10.4087762"><ele>559.0</ele><time>2026-05-02T15:30:55.973Z</time></trkpt><trkpt lat="44.1574575" lon="10.4088701"><ele>558.8571428571429</ele><time>2026-05-02T15:30:58.978Z</time></trkpt><trkpt lat="44.1574309" lon="10.4089663"><ele>558.7142857142858</ele><time>2026-05-02T15:31:01.982Z</time></trkpt><trkpt lat="44.1574122" lon="10.4090591"><ele>558.5714285714286</ele><time>2026-05-02T15:31:04.988Z</time></trkpt><trkpt lat="44.1573898" lon="10.4091587"><ele>558.4285714285714</ele><time>2026-05-02T15:31:07.994Z</time></trkpt><trkpt lat="44.1573683" lon="10.4092573"><ele>558.2857142857142</ele><time>2026-05-02T15:31:10.987Z</time></trkpt><trkpt lat="44.1573485" lon="10.4093535"><ele>558.1428571428571</ele><time>2026-05-02T15:31:13.988Z</time></trkpt><trkpt lat="44.1573295" lon="10.409447"><ele>558.0</ele><time>2026-05-02T15:31:16.981Z</time></trkpt><trkpt lat="44.1573042" lon="10.4095459"><ele>557.9999999999999</ele><time>2026-05-02T15:31:19.986Z</time></trkpt><trkpt lat="44.1572835" lon="10.4096473"><ele>558.0</ele><time>2026-05-02T15:31:22.976Z</time></trkpt><trkpt lat="44.1572588" lon="10.4097461"><ele>558.0</ele><time>2026-05-02T15:31:25.982Z</time></trkpt><trkpt lat="44.157239" lon="10.4098402"><ele>558.0</ele><time>2026-05-02T15:31:28.985Z</time></trkpt><trkpt lat="44.1572196" lon="10.4099386"><ele>558.0</ele><time>2026-05-02T15:31:31.993Z</time></trkpt><trkpt lat="44.1571915" lon="10.4100349"><ele>557.9999999999999</ele><time>2026-05-02T15:31:34.987Z</time></trkpt><trkpt lat="44.1571659" lon="10.4101286"><ele>558.0</ele><time>2026-05-02T15:31:37.985Z</time></trkpt><trkpt lat="44.1571394" lon="10.4102221"><ele>559.9999999999999</ele><time>2026-05-02T15:31:40.99Z</time></trkpt><trkpt lat="44.157097" lon="10.4103092"><ele>562.0</ele><time>2026-05-02T15:31:43.987Z</time></trkpt><trkpt lat="44.1570493" lon="10.4103856"><ele>564.0</ele><time>2026-05-02T15:31:46.98Z</time></trkpt><trkpt lat="44.1570001" lon="10.4104559"><ele>566.0</ele><time>2026-05-02T15:31:49.99Z</time></trkpt><trkpt lat="44.1569461" lon="10.4105274"><ele>568.0</ele><time>2026-05-02T15:31:52.999Z</time></trkpt><trkpt lat="44.1568923" lon="10.4106015"><ele>569.9999999999999</ele><time>2026-05-02T15:31:55.983Z</time></trkpt><trkpt lat="44.1568674" lon="10.4106969"><ele>572.0</ele><time>2026-05-02T15:31:58.993Z</time></trkpt><trkpt lat="44.1568492" lon="10.4108117"><ele>574.1666666666666</ele><time>2026-05-02T15:32:01.987Z</time></trkpt><trkpt lat="44.1567982" lon="10.4109016"><ele>576.3333333333333</ele><time>2026-05-02T15:32:04.988Z</time></trkpt><trkpt lat="44.156735" lon="10.4109698"><ele>578.5</ele><time>2026-05-02T15:32:07.989Z</time></trkpt><trkpt lat="44.1568001" lon="10.4109539"><ele>580.6666666666666</ele><time>2026-05-02T15:32:16.987Z</time></trkpt><trkpt lat="44.1568551" lon="10.4108869"><ele>582.8333333333334</ele><time>2026-05-02T15:32:18.985Z</time></trkpt><trkpt lat="44.1568978" lon="10.4107952"><ele>585.0</ele><time>2026-05-02T15:32:20.981Z</time></trkpt><trkpt lat="44.1568815" lon="10.4106855"><ele>585.0</ele><time>2026-05-02T15:32:22.99Z</time></trkpt><trkpt lat="44.1568118" lon="10.4106211"><ele>585.0</ele><time>2026-05-02T15:32:24.983Z</time></trkpt><trkpt lat="44.156708" lon="10.4105953"><ele>585.0</ele><time>2026-05-02T15:32:26.974Z</time></trkpt><trkpt lat="44.1565967" lon="10.4106206"><ele>585.0</ele><time>2026-05-02T15:32:28.999Z</time></trkpt><trkpt lat="44.1564726" lon="10.4106749"><ele>585.0</ele><time>2026-05-02T15:32:30.978Z</time></trkpt><trkpt lat="44.1564058" lon="10.4107067"><ele>583.1666666666666</ele><time>2026-05-02T15:32:31.983Z</time></trkpt><trkpt lat="44.1563391" lon="10.4107398"><ele>581.3333333333334</ele><time>2026-05-02T15:32:32.997Z</time></trkpt><trkpt lat="44.1562662" lon="10.4107746"><ele>579.5</ele><time>2026-05-02T15:32:33.988Z</time></trkpt><trkpt lat="44.1561885" lon="10.4108109"><ele>577.6666666666667</ele><time>2026-05-02T15:32:34.981Z</time></trkpt><trkpt lat="44.1561093" lon="10.4108488"><ele>575.8333333333334</ele><time>2026-05-02T15:32:35.993Z</time></trkpt><trkpt lat="44.1560255" lon="10.4108814"><ele>574.0</ele><time>2026-05-02T15:32:36.987Z</time></trkpt><trkpt lat="44.1559375" lon="10.410909"><ele>574.0</ele><time>2026-05-02T15:32:37.996Z</time></trkpt><trkpt lat="44.1558461" lon="10.4109361"><ele>574.0</ele><time>2026-05-02T15:32:38.983Z</time></trkpt><trkpt lat="44.1557524" lon="10.4109599"><ele>574.0</ele><time>2026-05-02T15:32:39.985Z</time></trkpt><trkpt lat="44.1556557" lon="10.4109852"><ele>574.0</ele><time>2026-05-02T15:32:40.997Z</time></trkpt><trkpt lat="44.1555587" lon="10.4110091"><ele>574.0</ele><time>2026-05-02T15:32:41.994Z</time></trkpt><trkpt lat="44.1554588" lon="10.4110315"><ele>572.6</ele><time>2026-05-02T15:32:42.989Z</time></trkpt><trkpt lat="44.1553554" lon="10.4110559"><ele>571.2</ele><time>2026-05-02T15:32:43.995Z</time></trkpt><trkpt lat="44.1552567" lon="10.4110676"><ele>569.8000000000001</ele><time>2026-05-02T15:32:44.984Z</time></trkpt><trkpt lat="44.1551591" lon="10.4110758"><ele>568.4</ele><time>2026-05-02T15:32:45.99Z</time></trkpt><trkpt lat="44.155058" lon="10.4110842"><ele>567.0</ele><time>2026-05-02T15:32:46.98Z</time></trkpt><trkpt lat="44.1549604" lon="10.4110915"><ele>566.0</ele><time>2026-05-02T15:32:47.983Z</time></trkpt><trkpt lat="44.1548689" lon="10.4110995"><ele>565.0</ele><time>2026-05-02T15:32:48.997Z</time></trkpt><trkpt lat="44.1547773" lon="10.4111019"><ele>564.0</ele><time>2026-05-02T15:32:49.976Z</time></trkpt><trkpt lat="44.1546849" lon="10.4111092"><ele>563.0</ele><time>2026-05-02T15:32:50.983Z</time></trkpt><trkpt lat="44.1545889" lon="10.4111175"><ele>562.0</ele><time>2026-05-02T15:32:51.984Z</time></trkpt><trkpt lat="44.1544936" lon="10.4111256"><ele>562.0</ele><time>2026-05-02T15:32:52.973Z</time></trkpt><trkpt lat="44.1543933" lon="10.4111323"><ele>562.0</ele><time>2026-05-02T15:32:53.984Z</time></trkpt><trkpt lat="44.1542959" lon="10.4111404"><ele>562.0</ele><time>2026-05-02T15:32:54.99Z</time></trkpt><trkpt lat="44.1542003" lon="10.411165"><ele>562.0</ele><time>2026-05-02T15:32:55.994Z</time></trkpt><trkpt lat="44.154104" lon="10.4111858"><ele>562.0</ele><time>2026-05-02T15:32:56.995Z</time></trkpt><trkpt lat="44.1540075" lon="10.4112082"><ele>559.8333333333334</ele><time>2026-05-02T15:32:57.984Z</time></trkpt><trkpt lat="44.1539158" lon="10.4112296"><ele>557.6666666666667</ele><time>2026-05-02T15:32:58.993Z</time></trkpt><trkpt lat="44.1538242" lon="10.4112482"><ele>555.5</ele><time>2026-05-02T15:32:59.995Z</time></trkpt><trkpt lat="44.1537366" lon="10.4112674"><ele>553.3333333333334</ele><time>2026-05-02T15:33:00.987Z</time></trkpt><trkpt lat="44.1536539" lon="10.4112785"><ele>551.1666666666666</ele><time>2026-05-02T15:33:01.988Z</time></trkpt><trkpt lat="44.1535707" lon="10.4112744"><ele>549.0</ele><time>2026-05-02T15:33:03Z</time></trkpt><trkpt lat="44.1534845" lon="10.4112549"><ele>549.0</ele><time>2026-05-02T15:33:03.989Z</time></trkpt><trkpt lat="44.1533961" lon="10.4112279"><ele>549.0</ele><time>2026-05-02T15:33:04.994Z</time></trkpt><trkpt lat="44.1533012" lon="10.4111972"><ele>549.0</ele><time>2026-05-02T15:33:05.995Z</time></trkpt><trkpt lat="44.1532045" lon="10.4111612"><ele>549.0</ele><time>2026-05-02T15:33:06.99Z</time></trkpt><trkpt lat="44.153107" lon="10.4111193"><ele>549.0</ele><time>2026-05-02T15:33:07.995Z</time></trkpt><trkpt lat="44.1530182" lon="10.4110779"><ele>547.6666666666666</ele><time>2026-05-02T15:33:08.999Z</time></trkpt><trkpt lat="44.152938" lon="10.4110348"><ele>546.3333333333334</ele><time>2026-05-02T15:33:10Z</time></trkpt><trkpt lat="44.15286" lon="10.4110046"><ele>545.0</ele><time>2026-05-02T15:33:10.986Z</time></trkpt><trkpt lat="44.1527762" lon="10.4109899"><ele>543.6666666666667</ele><time>2026-05-02T15:33:11.995Z</time></trkpt><trkpt lat="44.1526954" lon="10.4109945"><ele>542.3333333333334</ele><time>2026-05-02T15:33:12.999Z</time></trkpt><trkpt lat="44.1526162" lon="10.4110223"><ele>541.0</ele><time>2026-05-02T15:33:13.989Z</time></trkpt><trkpt lat="44.152535" lon="10.4110636"><ele>541.0</ele><time>2026-05-02T15:33:14.995Z</time></trkpt><trkpt lat="44.1524523" lon="10.4111088"><ele>541.0</ele><time>2026-05-02T15:33:15.987Z</time></trkpt><trkpt lat="44.1523682" lon="10.411158"><ele>541.0</ele><time>2026-05-02T15:33:16.994Z</time></trkpt><trkpt lat="44.1522864" lon="10.4112106"><ele>541.0</ele><time>2026-05-02T15:33:18Z</time></trkpt><trkpt lat="44.152199" lon="10.4112679"><ele>541.0</ele><time>2026-05-02T15:33:18.989Z</time></trkpt><trkpt lat="44.1521121" lon="10.4113285"><ele>540.8</ele><time>2026-05-02T15:33:19.98Z</time></trkpt><trkpt lat="44.1520249" lon="10.4113964"><ele>540.6</ele><time>2026-05-02T15:33:20.98Z</time></trkpt><trkpt lat="44.1519379" lon="10.4114624"><ele>540.4</ele><time>2026-05-02T15:33:21.99Z</time></trkpt><trkpt lat="44.1518536" lon="10.4115219"><ele>540.2</ele><time>2026-05-02T15:33:23Z</time></trkpt><trkpt lat="44.1517758" lon="10.4115687"><ele>540.0</ele><time>2026-05-02T15:33:23.99Z</time></trkpt><trkpt lat="44.1516975" lon="10.4115993"><ele>540.0</ele><time>2026-05-02T15:33:24.989Z</time></trkpt><trkpt lat="44.1516258" lon="10.4116143"><ele>540.0</ele><time>2026-05-02T15:33:25.979Z</time></trkpt><trkpt lat="44.151554" lon="10.4116242"><ele>540.0</ele><time>2026-05-02T15:33:26.983Z</time></trkpt><trkpt lat="44.1514862" lon="10.4116347"><ele>540.0</ele><time>2026-05-02T15:33:27.982Z</time></trkpt><trkpt lat="44.1514203" lon="10.4116432"><ele>540.0</ele><time>2026-05-02T15:33:28.993Z</time></trkpt><trkpt lat="44.1513008" lon="10.4116594"><ele>540.0</ele><time>2026-05-02T15:33:30.987Z</time></trkpt><trkpt lat="44.1512001" lon="10.4116738"><ele>538.5</ele><time>2026-05-02T15:33:32.988Z</time></trkpt><trkpt lat="44.1511167" lon="10.4116914"><ele>537.0</ele><time>2026-05-02T15:33:34.992Z</time></trkpt><trkpt lat="44.151047" lon="10.4117124"><ele>535.5</ele><time>2026-05-02T15:33:36.974Z</time></trkpt><trkpt lat="44.1509662" lon="10.4117329"><ele>534.0</ele><time>2026-05-02T15:33:39.991Z</time></trkpt><trkpt lat="44.1509171" lon="10.4118149"><ele>532.5</ele><time>2026-05-02T15:33:43.989Z</time></trkpt><trkpt lat="44.1509744" lon="10.411879"><ele>531.0</ele><time>2026-05-02T15:33:48.999Z</time></trkpt><trkpt lat="44.1510316" lon="10.4119171"><ele>531.0</ele><time>2026-05-02T15:33:51.978Z</time></trkpt><trkpt lat="44.1510938" lon="10.4119616"><ele>531.0</ele><time>2026-05-02T15:33:55.973Z</time></trkpt><trkpt lat="44.1510712" lon="10.4120505"><ele>531.0</ele><time>2026-05-02T15:33:59.99Z</time></trkpt><trkpt lat="44.1509967" lon="10.4120756"><ele>531.0</ele><time>2026-05-02T15:34:03.993Z</time></trkpt><trkpt lat="44.1509101" lon="10.4120807"><ele>531.0</ele><time>2026-05-02T15:34:07.989Z</time></trkpt><trkpt lat="44.1508496" lon="10.4121176"><ele>531.0</ele><time>2026-05-02T15:34:10.986Z</time></trkpt><trkpt lat="44.1508156" lon="10.4122119"><ele>531.0</ele><time>2026-05-02T15:34:14.992Z</time></trkpt><trkpt lat="44.150805" lon="10.4123142"><ele>546.0</ele><time>2026-05-02T15:34:18.991Z</time></trkpt><trkpt lat="44.1507939" lon="10.4124132"><ele>546.0</ele><time>2026-05-02T15:34:22.981Z</time></trkpt><trkpt lat="44.1507715" lon="10.4124954"><ele>546.0</ele><time>2026-05-02T15:34:26Z</time></trkpt><trkpt lat="44.1507642" lon="10.4125889"><ele>546.0</ele><time>2026-05-02T15:34:31.987Z</time></trkpt></trkseg></trk></gpx>